<?xml version='1.0' encoding='UTF-8'?><gpx version="1.1" creator="JPX - https://github.com/jenetics/jpx" xmlns="http://www.topografix.com/GPX/1/1"><trk><trkseg><trkpt lat="44.1507509" lon="10.4125486"><ele>546.0</ele><time>2026-04-24T10:10:34.151Z</time></trkpt><trkpt lat="44.1507397" lon="10.4124447"><ele>546.0</ele><time>2026-04-24T10:10:39.143Z</time></trkpt><trkpt lat="44.1507752" lon="10.4123204"><ele>546.0</ele><time>2026-04-24T10:10:41.144Z</time></trkpt><trkpt lat="44.1507975" lon="10.4122026"><ele>546.0</ele><time>2026-04-24T10:10:43.145Z</time></trkpt><trkpt lat="44.1508219" lon="10.4121185"><ele>546.0</ele><time>2026-04-24T10:10:45.154Z</time></trkpt><trkpt lat="44.1508936" lon="10.412087"><ele>546.0</ele><time>2026-04-24T10:10:49.139Z</time></trkpt><trkpt lat="44.1509633" lon="10.4120637"><ele>543.8571428571429</ele><time>2026-04-24T10:10:53.143Z</time></trkpt><trkpt lat="44.1510323" lon="10.4120521"><ele>541.7142857142858</ele><time>2026-04-24T10:10:57.131Z</time></trkpt><trkpt lat="44.1510756" lon="10.4119835"><ele>539.5714285714286</ele><time>2026-04-24T10:11:00.139Z</time></trkpt><trkpt lat="44.1510252" lon="10.4118972"><ele>537.4285714285714</ele><time>2026-04-24T10:11:03.14Z</time></trkpt><trkpt lat="44.1509617" lon="10.4118427"><ele>535.2857142857143</ele><time>2026-04-24T10:11:05.131Z</time></trkpt><trkpt lat="44.1509076" lon="10.4117884"><ele>533.1428571428571</ele><time>2026-04-24T10:11:07.139Z</time></trkpt><trkpt lat="44.1508392" lon="10.4117434"><ele>531.0</ele><time>2026-04-24T10:11:09.143Z</time></trkpt><trkpt lat="44.1507519" lon="10.4117454"><ele>530.8333333333334</ele><time>2026-04-24T10:11:11.146Z</time></trkpt><trkpt lat="44.1506432" lon="10.4117501"><ele>530.6666666666666</ele><time>2026-04-24T10:11:13.131Z</time></trkpt><trkpt lat="44.1505247" lon="10.4117276"><ele>530.5</ele><time>2026-04-24T10:11:15.147Z</time></trkpt><trkpt lat="44.1504611" lon="10.4117053"><ele>530.3333333333333</ele><time>2026-04-24T10:11:16.142Z</time></trkpt><trkpt lat="44.1503977" lon="10.4116713"><ele>530.1666666666666</ele><time>2026-04-24T10:11:17.149Z</time></trkpt><trkpt lat="44.1503288" lon="10.4116343"><ele>530.0</ele><time>2026-04-24T10:11:18.143Z</time></trkpt><trkpt lat="44.1502605" lon="10.4115948"><ele>530.0</ele><time>2026-04-24T10:11:19.14Z</time></trkpt><trkpt lat="44.1501886" lon="10.4115557"><ele>530.0</ele><time>2026-04-24T10:11:20.152Z</time></trkpt><trkpt lat="44.1501169" lon="10.4115131"><ele>530.0</ele><time>2026-04-24T10:11:21.149Z</time></trkpt><trkpt lat="44.1500417" lon="10.4114756"><ele>530.0</ele><time>2026-04-24T10:11:22.144Z</time></trkpt><trkpt lat="44.1499645" lon="10.4114431"><ele>530.0</ele><time>2026-04-24T10:11:23.151Z</time></trkpt><trkpt lat="44.1498863" lon="10.4114042"><ele>530.0</ele><time>2026-04-24T10:11:24.138Z</time></trkpt><trkpt lat="44.1498078" lon="10.4113667"><ele>531.0</ele><time>2026-04-24T10:11:25.144Z</time></trkpt><trkpt lat="44.1497293" lon="10.4113213"><ele>532.0</ele><time>2026-04-24T10:11:26.152Z</time></trkpt><trkpt lat="44.149651" lon="10.4112708"><ele>533.0</ele><time>2026-04-24T10:11:27.151Z</time></trkpt><trkpt lat="44.1495702" lon="10.4112276"><ele>534.0</ele><time>2026-04-24T10:11:28.149Z</time></trkpt><trkpt lat="44.149492" lon="10.4111912"><ele>535.0</ele><time>2026-04-24T10:11:29.142Z</time></trkpt><trkpt lat="44.1494182" lon="10.4111496"><ele>536.0</ele><time>2026-04-24T10:11:30.151Z</time></trkpt><trkpt lat="44.1493465" lon="10.411108"><ele>536.0</ele><time>2026-04-24T10:11:31.136Z</time></trkpt><trkpt lat="44.1492716" lon="10.4110713"><ele>536.0</ele><time>2026-04-24T10:11:32.142Z</time></trkpt><trkpt lat="44.1491911" lon="10.4110587"><ele>536.0</ele><time>2026-04-24T10:11:33.148Z</time></trkpt><trkpt lat="44.1491156" lon="10.4110792"><ele>536.0</ele><time>2026-04-24T10:11:34.139Z</time></trkpt><trkpt lat="44.1490537" lon="10.4111246"><ele>536.0</ele><time>2026-04-24T10:11:35.135Z</time></trkpt><trkpt lat="44.1489985" lon="10.4111792"><ele>536.0</ele><time>2026-04-24T10:11:36.134Z</time></trkpt><trkpt lat="44.1489462" lon="10.4112387"><ele>536.0</ele><time>2026-04-24T10:11:37.14Z</time></trkpt><trkpt lat="44.1488967" lon="10.4112964"><ele>534.1666666666666</ele><time>2026-04-24T10:11:38.134Z</time></trkpt><trkpt lat="44.1488447" lon="10.4113495"><ele>532.3333333333333</ele><time>2026-04-24T10:11:39.136Z</time></trkpt><trkpt lat="44.1487422" lon="10.411359"><ele>530.5</ele><time>2026-04-24T10:11:41.138Z</time></trkpt><trkpt lat="44.1486578" lon="10.4113077"><ele>528.6666666666666</ele><time>2026-04-24T10:11:43.145Z</time></trkpt><trkpt lat="44.1486058" lon="10.4112374"><ele>526.8333333333334</ele><time>2026-04-24T10:11:45.142Z</time></trkpt><trkpt lat="44.1485621" lon="10.4111539"><ele>525.0</ele><time>2026-04-24T10:11:47.15Z</time></trkpt><trkpt lat="44.148514" lon="10.4110678"><ele>525.0</ele><time>2026-04-24T10:11:49.143Z</time></trkpt><trkpt lat="44.1484752" lon="10.4109736"><ele>525.0</ele><time>2026-04-24T10:11:51.144Z</time></trkpt><trkpt lat="44.1484411" lon="10.4108804"><ele>525.0</ele><time>2026-04-24T10:11:53.147Z</time></trkpt><trkpt lat="44.1484056" lon="10.4107849"><ele>525.0</ele><time>2026-04-24T10:11:55.144Z</time></trkpt><trkpt lat="44.1483737" lon="10.410682"><ele>525.0</ele><time>2026-04-24T10:11:57.14Z</time></trkpt><trkpt lat="44.1483383" lon="10.4105764"><ele>525.0</ele><time>2026-04-24T10:11:59.148Z</time></trkpt><trkpt lat="44.1483054" lon="10.4104673"><ele>525.6666666666666</ele><time>2026-04-24T10:12:01.15Z</time></trkpt><trkpt lat="44.148278" lon="10.4103536"><ele>526.3333333333334</ele><time>2026-04-24T10:12:03.148Z</time></trkpt><trkpt lat="44.1482511" lon="10.4102385"><ele>527.0</ele><time>2026-04-24T10:12:05.138Z</time></trkpt><trkpt lat="44.1482352" lon="10.4101201"><ele>527.6666666666667</ele><time>2026-04-24T10:12:07.14Z</time></trkpt><trkpt lat="44.148217" lon="10.4100034"><ele>528.3333333333334</ele><time>2026-04-24T10:12:09.145Z</time></trkpt><trkpt lat="44.1481959" lon="10.4098757"><ele>529.0</ele><time>2026-04-24T10:12:11.148Z</time></trkpt><trkpt lat="44.1481782" lon="10.4097557"><ele>525.0</ele><time>2026-04-24T10:12:13.142Z</time></trkpt><trkpt lat="44.1481603" lon="10.4096338"><ele>521.0</ele><time>2026-04-24T10:12:15.153Z</time></trkpt><trkpt lat="44.1481567" lon="10.4094853"><ele>517.0</ele><time>2026-04-24T10:12:17.148Z</time></trkpt><trkpt lat="44.1481514" lon="10.4093361"><ele>513.0</ele><time>2026-04-24T10:12:19.14Z</time></trkpt><trkpt lat="44.1481533" lon="10.4091755"><ele>509.0</ele><time>2026-04-24T10:12:21.147Z</time></trkpt><trkpt lat="44.1481302" lon="10.4090167"><ele>509.0</ele><time>2026-04-24T10:12:23.146Z</time></trkpt><trkpt lat="44.1481087" lon="10.4088667"><ele>509.0</ele><time>2026-04-24T10:12:25.146Z</time></trkpt><trkpt lat="44.1480933" lon="10.4086979"><ele>509.0</ele><time>2026-04-24T10:12:27.145Z</time></trkpt><trkpt lat="44.1480818" lon="10.4085298"><ele>509.0</ele><time>2026-04-24T10:12:29.156Z</time></trkpt><trkpt lat="44.1480752" lon="10.4084318"><ele>509.0</ele><time>2026-04-24T10:12:30.15Z</time></trkpt><trkpt lat="44.1480704" lon="10.4083369"><ele>508.8333333333333</ele><time>2026-04-24T10:12:31.149Z</time></trkpt><trkpt lat="44.1480669" lon="10.4082391"><ele>508.66666666666663</ele><time>2026-04-24T10:12:32.15Z</time></trkpt><trkpt lat="44.1480543" lon="10.4081376"><ele>508.5</ele><time>2026-04-24T10:12:33.151Z</time></trkpt><trkpt lat="44.1480345" lon="10.4080302"><ele>508.33333333333337</ele><time>2026-04-24T10:12:34.144Z</time></trkpt><trkpt lat="44.148009" lon="10.407929"><ele>508.1666666666667</ele><time>2026-04-24T10:12:35.15Z</time></trkpt><trkpt lat="44.1479701" lon="10.407838"><ele>508.0</ele><time>2026-04-24T10:12:36.139Z</time></trkpt><trkpt lat="44.1479054" lon="10.4077752"><ele>508.00000000000006</ele><time>2026-04-24T10:12:37.154Z</time></trkpt><trkpt lat="44.1478266" lon="10.4077446"><ele>508.0</ele><time>2026-04-24T10:12:38.161Z</time></trkpt><trkpt lat="44.1477451" lon="10.4077261"><ele>508.0</ele><time>2026-04-24T10:12:39.148Z</time></trkpt><trkpt lat="44.1476569" lon="10.4077052"><ele>508.0</ele><time>2026-04-24T10:12:40.147Z</time></trkpt><trkpt lat="44.1475703" lon="10.4076855"><ele>508.00000000000006</ele><time>2026-04-24T10:12:41.14Z</time></trkpt><trkpt lat="44.1474824" lon="10.4076768"><ele>508.0</ele><time>2026-04-24T10:12:42.15Z</time></trkpt><trkpt lat="44.1473987" lon="10.4076919"><ele>506.4</ele><time>2026-04-24T10:12:43.144Z</time></trkpt><trkpt lat="44.1473296" lon="10.4077204"><ele>504.79999999999995</ele><time>2026-04-24T10:12:44.151Z</time></trkpt><trkpt lat="44.1472297" lon="10.4078134"><ele>503.2</ele><time>2026-04-24T10:12:46.142Z</time></trkpt><trkpt lat="44.1471817" lon="10.4079425"><ele>501.6</ele><time>2026-04-24T10:12:48.146Z</time></trkpt><trkpt lat="44.1472212" lon="10.408075"><ele>500.0</ele><time>2026-04-24T10:12:50.147Z</time></trkpt><trkpt lat="44.1473157" lon="10.4082053"><ele>499.99999999999994</ele><time>2026-04-24T10:12:52.143Z</time></trkpt><trkpt lat="44.1473621" lon="10.4082898"><ele>500.0</ele><time>2026-04-24T10:12:53.146Z</time></trkpt><trkpt lat="44.1474039" lon="10.408384"><ele>500.0</ele><time>2026-04-24T10:12:54.149Z</time></trkpt><trkpt lat="44.1474429" lon="10.4084837"><ele>500.0</ele><time>2026-04-24T10:12:55.146Z</time></trkpt><trkpt lat="44.1474722" lon="10.4085941"><ele>499.99999999999994</ele><time>2026-04-24T10:12:56.141Z</time></trkpt><trkpt lat="44.1474972" lon="10.4087102"><ele>500.0</ele><time>2026-04-24T10:12:57.151Z</time></trkpt><trkpt lat="44.1475204" lon="10.4088301"><ele>501.8</ele><time>2026-04-24T10:12:58.147Z</time></trkpt><trkpt lat="44.1475361" lon="10.4089509"><ele>503.6</ele><time>2026-04-24T10:12:59.149Z</time></trkpt><trkpt lat="44.1475552" lon="10.4090791"><ele>505.4</ele><time>2026-04-24T10:13:00.147Z</time></trkpt><trkpt lat="44.1475731" lon="10.4092056"><ele>507.2</ele><time>2026-04-24T10:13:01.153Z</time></trkpt><trkpt lat="44.1475902" lon="10.4093386"><ele>509.0</ele><time>2026-04-24T10:13:02.148Z</time></trkpt><trkpt lat="44.1476117" lon="10.4094798"><ele>509.0</ele><time>2026-04-24T10:13:03.148Z</time></trkpt><trkpt lat="44.1476294" lon="10.409622"><ele>509.0</ele><time>2026-04-24T10:13:04.149Z</time></trkpt><trkpt lat="44.1476504" lon="10.4097648"><ele>509.0</ele><time>2026-04-24T10:13:05.144Z</time></trkpt><trkpt lat="44.1476688" lon="10.4099084"><ele>509.0</ele><time>2026-04-24T10:13:06.145Z</time></trkpt><trkpt lat="44.1476863" lon="10.4100499"><ele>509.0</ele><time>2026-04-24T10:13:07.143Z</time></trkpt><trkpt lat="44.1477054" lon="10.41019"><ele>507.0</ele><time>2026-04-24T10:13:08.143Z</time></trkpt><trkpt lat="44.1477291" lon="10.4103296"><ele>505.0</ele><time>2026-04-24T10:13:09.148Z</time></trkpt><trkpt lat="44.147752" lon="10.4104734"><ele>503.0</ele><time>2026-04-24T10:13:10.144Z</time></trkpt><trkpt lat="44.1477752" lon="10.4106195"><ele>501.0</ele><time>2026-04-24T10:13:11.133Z</time></trkpt><trkpt lat="44.1478003" lon="10.4107644"><ele>499.0</ele><time>2026-04-24T10:13:12.132Z</time></trkpt><trkpt lat="44.1478283" lon="10.4109146"><ele>497.75</ele><time>2026-04-24T10:13:13.147Z</time></trkpt><trkpt lat="44.1478527" lon="10.4110687"><ele>496.5</ele><time>2026-04-24T10:13:14.147Z</time></trkpt><trkpt lat="44.1478803" lon="10.4112223"><ele>495.25</ele><time>2026-04-24T10:13:15.146Z</time></trkpt><trkpt lat="44.1479071" lon="10.4113805"><ele>494.0</ele><time>2026-04-24T10:13:16.142Z</time></trkpt><trkpt lat="44.1479361" lon="10.4115348"><ele>493.4</ele><time>2026-04-24T10:13:17.135Z</time></trkpt><trkpt lat="44.147958" lon="10.4116828"><ele>492.79999999999995</ele><time>2026-04-24T10:13:18.138Z</time></trkpt><trkpt lat="44.1479843" lon="10.4118261"><ele>492.20000000000005</ele><time>2026-04-24T10:13:19.135Z</time></trkpt><trkpt lat="44.1480096" lon="10.4119751"><ele>491.6</ele><time>2026-04-24T10:13:20.147Z</time></trkpt><trkpt lat="44.1480375" lon="10.4121328"><ele>491.0</ele><time>2026-04-24T10:13:21.147Z</time></trkpt><trkpt lat="44.1480663" lon="10.4122844"><ele>491.0</ele><time>2026-04-24T10:13:22.135Z</time></trkpt><trkpt lat="44.1480908" lon="10.4124319"><ele>491.0</ele><time>2026-04-24T10:13:23.134Z</time></trkpt><trkpt lat="44.1481202" lon="10.4125661"><ele>491.0</ele><time>2026-04-24T10:13:24.136Z</time></trkpt><trkpt lat="44.148145" lon="10.412694"><ele>491.0</ele><time>2026-04-24T10:13:25.136Z</time></trkpt><trkpt lat="44.1481721" lon="10.4128044"><ele>491.0</ele><time>2026-04-24T10:13:26.157Z</time></trkpt><trkpt lat="44.1481995" lon="10.4128988"><ele>491.0</ele><time>2026-04-24T10:13:27.149Z</time></trkpt><trkpt lat="44.148202" lon="10.4130542"><ele>491.0</ele><time>2026-04-24T10:13:29.139Z</time></trkpt><trkpt lat="44.1481419" lon="10.4131115"><ele>491.0</ele><time>2026-04-24T10:13:31.149Z</time></trkpt><trkpt lat="44.1480573" lon="10.4130006"><ele>491.0</ele><time>2026-04-24T10:13:33.147Z</time></trkpt><trkpt lat="44.1479732" lon="10.4128887"><ele>491.0</ele><time>2026-04-24T10:13:35.15Z</time></trkpt><trkpt lat="44.1478894" lon="10.4127655"><ele>491.0</ele><time>2026-04-24T10:13:37.146Z</time></trkpt><trkpt lat="44.1478408" lon="10.4127005"><ele>490.99999999999994</ele><time>2026-04-24T10:13:38.141Z</time></trkpt><trkpt lat="44.1477934" lon="10.4126354"><ele>491.0</ele><time>2026-04-24T10:13:39.141Z</time></trkpt><trkpt lat="44.1477423" lon="10.4125656"><ele>491.0</ele><time>2026-04-24T10:13:40.145Z</time></trkpt><trkpt lat="44.1476927" lon="10.4124885"><ele>490.99999999999994</ele><time>2026-04-24T10:13:41.144Z</time></trkpt><trkpt lat="44.1476432" lon="10.4124094"><ele>491.0</ele><time>2026-04-24T10:13:42.146Z</time></trkpt><trkpt lat="44.1475911" lon="10.4123265"><ele>491.0</ele><time>2026-04-24T10:13:43.148Z</time></trkpt><trkpt lat="44.1475317" lon="10.4122415"><ele>490.8333333333333</ele><time>2026-04-24T10:13:44.145Z</time></trkpt><trkpt lat="44.1474733" lon="10.4121561"><ele>490.66666666666663</ele><time>2026-04-24T10:13:45.148Z</time></trkpt><trkpt lat="44.1474118" lon="10.412067"><ele>490.5</ele><time>2026-04-24T10:13:46.147Z</time></trkpt><trkpt lat="44.1473512" lon="10.4119742"><ele>490.33333333333337</ele><time>2026-04-24T10:13:47.145Z</time></trkpt><trkpt lat="44.1472867" lon="10.4118892"><ele>490.1666666666667</ele><time>2026-04-24T10:13:48.149Z</time></trkpt><trkpt lat="44.1472236" lon="10.4117996"><ele>490.0</ele><time>2026-04-24T10:13:49.145Z</time></trkpt><trkpt lat="44.1471581" lon="10.4117007"><ele>489.4</ele><time>2026-04-24T10:13:50.142Z</time></trkpt><trkpt lat="44.1470919" lon="10.4116038"><ele>488.8</ele><time>2026-04-24T10:13:51.146Z</time></trkpt><trkpt lat="44.1470234" lon="10.4115058"><ele>488.20000000000005</ele><time>2026-04-24T10:13:52.147Z</time></trkpt><trkpt lat="44.1469558" lon="10.4114088"><ele>487.6</ele><time>2026-04-24T10:13:53.137Z</time></trkpt><trkpt lat="44.1468835" lon="10.4113103"><ele>487.0</ele><time>2026-04-24T10:13:54.132Z</time></trkpt><trkpt lat="44.1468162" lon="10.4112114"><ele>485.6</ele><time>2026-04-24T10:13:55.15Z</time></trkpt><trkpt lat="44.1467483" lon="10.4111099"><ele>484.20000000000005</ele><time>2026-04-24T10:13:56.147Z</time></trkpt><trkpt lat="44.1466792" lon="10.4110152"><ele>482.8</ele><time>2026-04-24T10:13:57.145Z</time></trkpt><trkpt lat="44.1465986" lon="10.4109313"><ele>481.4</ele><time>2026-04-24T10:13:58.149Z</time></trkpt><trkpt lat="44.1465144" lon="10.4108653"><ele>480.0</ele><time>2026-04-24T10:13:59.168Z</time></trkpt><trkpt lat="44.1464198" lon="10.4108164"><ele>479.0</ele><time>2026-04-24T10:14:00.147Z</time></trkpt><trkpt lat="44.1463238" lon="10.4107815"><ele>478.0</ele><time>2026-04-24T10:14:01.145Z</time></trkpt><trkpt lat="44.1462274" lon="10.4107475"><ele>477.0</ele><time>2026-04-24T10:14:02.148Z</time></trkpt><trkpt lat="44.1461331" lon="10.4107179"><ele>476.0</ele><time>2026-04-24T10:14:03.148Z</time></trkpt><trkpt lat="44.1460372" lon="10.4106864"><ele>475.0</ele><time>2026-04-24T10:14:04.141Z</time></trkpt><trkpt lat="44.1459375" lon="10.4106551"><ele>475.0</ele><time>2026-04-24T10:14:05.15Z</time></trkpt><trkpt lat="44.1458393" lon="10.4106221"><ele>475.0</ele><time>2026-04-24T10:14:06.139Z</time></trkpt><trkpt lat="44.1457408" lon="10.4105891"><ele>475.0</ele><time>2026-04-24T10:14:07.146Z</time></trkpt><trkpt lat="44.1456432" lon="10.4105607"><ele>475.0</ele><time>2026-04-24T10:14:08.145Z</time></trkpt><trkpt lat="44.1455445" lon="10.4105268"><ele>475.0</ele><time>2026-04-24T10:14:09.147Z</time></trkpt><trkpt lat="44.1454427" lon="10.4104927"><ele>474.2</ele><time>2026-04-24T10:14:10.142Z</time></trkpt><trkpt lat="44.1453415" lon="10.4104572"><ele>473.4</ele><time>2026-04-24T10:14:11.147Z</time></trkpt><trkpt lat="44.1452398" lon="10.4104231"><ele>472.6</ele><time>2026-04-24T10:14:12.148Z</time></trkpt><trkpt lat="44.1451397" lon="10.4103845"><ele>471.8</ele><time>2026-04-24T10:14:13.146Z</time></trkpt><trkpt lat="44.1450379" lon="10.4103468"><ele>471.0</ele><time>2026-04-24T10:14:14.147Z</time></trkpt><trkpt lat="44.1449366" lon="10.410307"><ele>469.6</ele><time>2026-04-24T10:14:15.143Z</time></trkpt><trkpt lat="44.1448317" lon="10.4102683"><ele>468.20000000000005</ele><time>2026-04-24T10:14:16.147Z</time></trkpt><trkpt lat="44.1447238" lon="10.4102303"><ele>466.79999999999995</ele><time>2026-04-24T10:14:17.146Z</time></trkpt><trkpt lat="44.1446169" lon="10.4101905"><ele>465.4</ele><time>2026-04-24T10:14:18.139Z</time></trkpt><trkpt lat="44.1445098" lon="10.4101545"><ele>464.0</ele><time>2026-04-24T10:14:19.14Z</time></trkpt><trkpt lat="44.1444011" lon="10.4101168"><ele>464.0</ele><time>2026-04-24T10:14:20.146Z</time></trkpt><trkpt lat="44.1442903" lon="10.4100801"><ele>464.0</ele><time>2026-04-24T10:14:21.148Z</time></trkpt><trkpt lat="44.1441823" lon="10.4100438"><ele>464.0</ele><time>2026-04-24T10:14:22.147Z</time></trkpt><trkpt lat="44.1440713" lon="10.4100265"><ele>464.0</ele><time>2026-04-24T10:14:23.147Z</time></trkpt><trkpt lat="44.1439588" lon="10.4100377"><ele>464.0</ele><time>2026-04-24T10:14:24.155Z</time></trkpt><trkpt lat="44.1438446" lon="10.4100755"><ele>461.2</ele><time>2026-04-24T10:14:25.147Z</time></trkpt><trkpt lat="44.143732" lon="10.4101283"><ele>458.4</ele><time>2026-04-24T10:14:26.147Z</time></trkpt><trkpt lat="44.1436243" lon="10.4101808"><ele>455.6</ele><time>2026-04-24T10:14:27.148Z</time></trkpt><trkpt lat="44.1435272" lon="10.4102284"><ele>452.8</ele><time>2026-04-24T10:14:28.137Z</time></trkpt><trkpt lat="44.143447" lon="10.4102791"><ele>450.0</ele><time>2026-04-24T10:14:29.148Z</time></trkpt><trkpt lat="44.1433889" lon="10.4103475"><ele>450.0</ele><time>2026-04-24T10:14:30.149Z</time></trkpt><trkpt lat="44.1433586" lon="10.4104314"><ele>450.0</ele><time>2026-04-24T10:14:31.146Z</time></trkpt><trkpt lat="44.1433869" lon="10.4105958"><ele>450.0</ele><time>2026-04-24T10:14:33.143Z</time></trkpt><trkpt lat="44.1434342" lon="10.4106641"><ele>450.0</ele><time>2026-04-24T10:14:34.146Z</time></trkpt><trkpt lat="44.1434924" lon="10.4107249"><ele>450.0</ele><time>2026-04-24T10:14:35.144Z</time></trkpt><trkpt lat="44.1435554" lon="10.4107833"><ele>450.0</ele><time>2026-04-24T10:14:36.144Z</time></trkpt><trkpt lat="44.1436204" lon="10.4108435"><ele>449.5</ele><time>2026-04-24T10:14:37.144Z</time></trkpt><trkpt lat="44.1436876" lon="10.4109111"><ele>449.0</ele><time>2026-04-24T10:14:38.15Z</time></trkpt><trkpt lat="44.1437561" lon="10.4109833"><ele>448.5</ele><time>2026-04-24T10:14:39.145Z</time></trkpt><trkpt lat="44.1438266" lon="10.4110503"><ele>448.0</ele><time>2026-04-24T10:14:40.142Z</time></trkpt><trkpt lat="44.1438977" lon="10.4111263"><ele>447.5</ele><time>2026-04-24T10:14:41.143Z</time></trkpt><trkpt lat="44.1439566" lon="10.4112152"><ele>447.0</ele><time>2026-04-24T10:14:42.141Z</time></trkpt><trkpt lat="44.1439793" lon="10.4113454"><ele>445.6</ele><time>2026-04-24T10:14:43.147Z</time></trkpt><trkpt lat="44.1439913" lon="10.4114677"><ele>444.20000000000005</ele><time>2026-04-24T10:14:44.146Z</time></trkpt><trkpt lat="44.1439633" lon="10.4115921"><ele>442.8</ele><time>2026-04-24T10:14:45.152Z</time></trkpt><trkpt lat="44.1439077" lon="10.4117094"><ele>441.4</ele><time>2026-04-24T10:14:46.147Z</time></trkpt><trkpt lat="44.1438413" lon="10.4118231"><ele>440.0</ele><time>2026-04-24T10:14:47.145Z</time></trkpt><trkpt lat="44.1437641" lon="10.4119234"><ele>440.0</ele><time>2026-04-24T10:14:48.149Z</time></trkpt><trkpt lat="44.1436691" lon="10.4119907"><ele>440.0</ele><time>2026-04-24T10:14:49.14Z</time></trkpt><trkpt lat="44.1435738" lon="10.412047"><ele>440.0</ele><time>2026-04-24T10:14:50.145Z</time></trkpt><trkpt lat="44.1434593" lon="10.4120472"><ele>440.0</ele><time>2026-04-24T10:14:51.148Z</time></trkpt><trkpt lat="44.1433533" lon="10.4120814"><ele>440.0</ele><time>2026-04-24T10:14:52.149Z</time></trkpt><trkpt lat="44.1432475" lon="10.4121191"><ele>437.8</ele><time>2026-04-24T10:14:53.142Z</time></trkpt><trkpt lat="44.1431471" lon="10.4121654"><ele>435.6</ele><time>2026-04-24T10:14:54.144Z</time></trkpt><trkpt lat="44.1430417" lon="10.4122146"><ele>433.4</ele><time>2026-04-24T10:14:55.141Z</time></trkpt><trkpt lat="44.1429336" lon="10.4122581"><ele>431.2</ele><time>2026-04-24T10:14:56.139Z</time></trkpt><trkpt lat="44.1428361" lon="10.4123044"><ele>429.0</ele><time>2026-04-24T10:14:57.146Z</time></trkpt><trkpt lat="44.1427568" lon="10.412372"><ele>429.0</ele><time>2026-04-24T10:14:58.143Z</time></trkpt><trkpt lat="44.142699" lon="10.4124636"><ele>429.0</ele><time>2026-04-24T10:14:59.143Z</time></trkpt><trkpt lat="44.1426732" lon="10.4125678"><ele>429.0</ele><time>2026-04-24T10:15:00.146Z</time></trkpt><trkpt lat="44.1426795" lon="10.4126712"><ele>429.0</ele><time>2026-04-24T10:15:01.148Z</time></trkpt><trkpt lat="44.1427141" lon="10.4127595"><ele>429.0</ele><time>2026-04-24T10:15:02.151Z</time></trkpt><trkpt lat="44.1427766" lon="10.412821"><ele>429.0</ele><time>2026-04-24T10:15:03.153Z</time></trkpt><trkpt lat="44.1428481" lon="10.4128602"><ele>429.0</ele><time>2026-04-24T10:15:04.148Z</time></trkpt><trkpt lat="44.1429297" lon="10.4128643"><ele>429.0</ele><time>2026-04-24T10:15:05.144Z</time></trkpt><trkpt lat="44.1430209" lon="10.4128897"><ele>429.0</ele><time>2026-04-24T10:15:06.143Z</time></trkpt><trkpt lat="44.1431085" lon="10.4129298"><ele>429.0</ele><time>2026-04-24T10:15:07.14Z</time></trkpt><trkpt lat="44.143189" lon="10.4130063"><ele>429.0</ele><time>2026-04-24T10:15:08.134Z</time></trkpt><trkpt lat="44.1432385" lon="10.4131271"><ele>429.4</ele><time>2026-04-24T10:15:09.14Z</time></trkpt><trkpt lat="44.1432714" lon="10.4132519"><ele>429.79999999999995</ele><time>2026-04-24T10:15:10.137Z</time></trkpt><trkpt lat="44.1433038" lon="10.4133839"><ele>430.20000000000005</ele><time>2026-04-24T10:15:11.143Z</time></trkpt><trkpt lat="44.1433338" lon="10.4135182"><ele>430.6</ele><time>2026-04-24T10:15:12.138Z</time></trkpt><trkpt lat="44.1433579" lon="10.4136526"><ele>431.0</ele><time>2026-04-24T10:15:13.145Z</time></trkpt><trkpt lat="44.1433732" lon="10.4137898"><ele>429.8</ele><time>2026-04-24T10:15:14.139Z</time></trkpt><trkpt lat="44.1433775" lon="10.4139256"><ele>428.6</ele><time>2026-04-24T10:15:15.135Z</time></trkpt><trkpt lat="44.1433742" lon="10.4140646"><ele>427.4</ele><time>2026-04-24T10:15:16.134Z</time></trkpt><trkpt lat="44.1433744" lon="10.4142023"><ele>426.2</ele><time>2026-04-24T10:15:17.138Z</time></trkpt><trkpt lat="44.1433733" lon="10.4143381"><ele>425.0</ele><time>2026-04-24T10:15:18.139Z</time></trkpt><trkpt lat="44.1433872" lon="10.4144651"><ele>424.99999999999994</ele><time>2026-04-24T10:15:19.151Z</time></trkpt><trkpt lat="44.1434282" lon="10.4145678"><ele>425.0</ele><time>2026-04-24T10:15:20.152Z</time></trkpt><trkpt lat="44.1434873" lon="10.4146414"><ele>425.0</ele><time>2026-04-24T10:15:21.136Z</time></trkpt><trkpt lat="44.1435623" lon="10.4146837"><ele>425.0</ele><time>2026-04-24T10:15:22.139Z</time></trkpt><trkpt lat="44.1436467" lon="10.4146982"><ele>424.99999999999994</ele><time>2026-04-24T10:15:23.134Z</time></trkpt><trkpt lat="44.1437367" lon="10.4147122"><ele>425.0</ele><time>2026-04-24T10:15:24.146Z</time></trkpt><trkpt lat="44.143829" lon="10.4147382"><ele>423.99999999999994</ele><time>2026-04-24T10:15:25.146Z</time></trkpt><trkpt lat="44.1439223" lon="10.4147695"><ele>423.0</ele><time>2026-04-24T10:15:26.143Z</time></trkpt><trkpt lat="44.1439994" lon="10.4148159"><ele>422.0</ele><time>2026-04-24T10:15:27.141Z</time></trkpt><trkpt lat="44.1440625" lon="10.4148666"><ele>421.0</ele><time>2026-04-24T10:15:28.135Z</time></trkpt><trkpt lat="44.144106" lon="10.4149885"><ele>419.99999999999994</ele><time>2026-04-24T10:15:30.14Z</time></trkpt><trkpt lat="44.1440312" lon="10.4150716"><ele>419.0</ele><time>2026-04-24T10:15:32.149Z</time></trkpt><trkpt lat="44.1439136" lon="10.4150406"><ele>418.4285714285714</ele><time>2026-04-24T10:15:34.15Z</time></trkpt><trkpt lat="44.143853" lon="10.4150132"><ele>417.85714285714283</ele><time>2026-04-24T10:15:35.136Z</time></trkpt><trkpt lat="44.1437832" lon="10.4149855"><ele>417.2857142857143</ele><time>2026-04-24T10:15:36.138Z</time></trkpt><trkpt lat="44.1437099" lon="10.4149575"><ele>416.71428571428567</ele><time>2026-04-24T10:15:37.132Z</time></trkpt><trkpt lat="44.1436355" lon="10.4149365"><ele>416.14285714285717</ele><time>2026-04-24T10:15:38.142Z</time></trkpt><trkpt lat="44.1435597" lon="10.414913"><ele>415.57142857142856</ele><time>2026-04-24T10:15:39.137Z</time></trkpt><trkpt lat="44.1434829" lon="10.4148852"><ele>415.0</ele><time>2026-04-24T10:15:40.136Z</time></trkpt><trkpt lat="44.1434037" lon="10.4148588"><ele>415.0</ele><time>2026-04-24T10:15:41.137Z</time></trkpt><trkpt lat="44.1433173" lon="10.4148398"><ele>415.0</ele><time>2026-04-24T10:15:42.132Z</time></trkpt><trkpt lat="44.1432268" lon="10.414827"><ele>415.0</ele><time>2026-04-24T10:15:43.154Z</time></trkpt><trkpt lat="44.1431345" lon="10.4148398"><ele>415.0</ele><time>2026-04-24T10:15:44.148Z</time></trkpt><trkpt lat="44.1430384" lon="10.4148537"><ele>415.0</ele><time>2026-04-24T10:15:45.151Z</time></trkpt><trkpt lat="44.1429389" lon="10.414877"><ele>412.6</ele><time>2026-04-24T10:15:46.149Z</time></trkpt><trkpt lat="44.1428348" lon="10.4148973"><ele>410.2</ele><time>2026-04-24T10:15:47.145Z</time></trkpt><trkpt lat="44.1427277" lon="10.4149035"><ele>407.79999999999995</ele><time>2026-04-24T10:15:48.138Z</time></trkpt><trkpt lat="44.1426173" lon="10.4149089"><ele>405.4</ele><time>2026-04-24T10:15:49.14Z</time></trkpt><trkpt lat="44.1425062" lon="10.4148957"><ele>403.0</ele><time>2026-04-24T10:15:50.151Z</time></trkpt><trkpt lat="44.1423933" lon="10.4148722"><ele>401.5</ele><time>2026-04-24T10:15:51.142Z</time></trkpt><trkpt lat="44.1422844" lon="10.4148436"><ele>400.0</ele><time>2026-04-24T10:15:52.152Z</time></trkpt><trkpt lat="44.142169" lon="10.4148084"><ele>398.5</ele><time>2026-04-24T10:15:53.143Z</time></trkpt><trkpt lat="44.1420521" lon="10.4147779"><ele>397.0</ele><time>2026-04-24T10:15:54.15Z</time></trkpt><trkpt lat="44.1419344" lon="10.4147757"><ele>397.0</ele><time>2026-04-24T10:15:55.136Z</time></trkpt><trkpt lat="44.1418133" lon="10.4147892"><ele>397.0</ele><time>2026-04-24T10:15:56.144Z</time></trkpt><trkpt lat="44.1416966" lon="10.41481"><ele>397.0</ele><time>2026-04-24T10:15:57.144Z</time></trkpt><trkpt lat="44.1415753" lon="10.4148336"><ele>397.0</ele><time>2026-04-24T10:15:58.139Z</time></trkpt><trkpt lat="44.1414642" lon="10.414863"><ele>396.20000000000005</ele><time>2026-04-24T10:15:59.148Z</time></trkpt><trkpt lat="44.1413638" lon="10.4148828"><ele>395.4</ele><time>2026-04-24T10:16:00.146Z</time></trkpt><trkpt lat="44.1412736" lon="10.4148647"><ele>394.6</ele><time>2026-04-24T10:16:01.147Z</time></trkpt><trkpt lat="44.1411974" lon="10.4148053"><ele>393.79999999999995</ele><time>2026-04-24T10:16:02.147Z</time></trkpt><trkpt lat="44.1411401" lon="10.4147154"><ele>393.0</ele><time>2026-04-24T10:16:03.143Z</time></trkpt><trkpt lat="44.1411074" lon="10.4145987"><ele>393.0</ele><time>2026-04-24T10:16:04.136Z</time></trkpt><trkpt lat="44.141095" lon="10.4144731"><ele>393.0</ele><time>2026-04-24T10:16:05.137Z</time></trkpt><trkpt lat="44.1410775" lon="10.4143463"><ele>393.0</ele><time>2026-04-24T10:16:06.136Z</time></trkpt><trkpt lat="44.1410319" lon="10.4142354"><ele>393.0</ele><time>2026-04-24T10:16:07.138Z</time></trkpt><trkpt lat="44.1409568" lon="10.4141555"><ele>393.0</ele><time>2026-04-24T10:16:08.14Z</time></trkpt><trkpt lat="44.1408636" lon="10.4141242"><ele>393.0</ele><time>2026-04-24T10:16:09.15Z</time></trkpt><trkpt lat="44.1407732" lon="10.4141658"><ele>393.0</ele><time>2026-04-24T10:16:10.134Z</time></trkpt><trkpt lat="44.1407028" lon="10.414268"><ele>393.0</ele><time>2026-04-24T10:16:11.154Z</time></trkpt><trkpt lat="44.1406645" lon="10.4143943"><ele>393.0</ele><time>2026-04-24T10:16:12.141Z</time></trkpt><trkpt lat="44.1406565" lon="10.4145317"><ele>393.0</ele><time>2026-04-24T10:16:13.148Z</time></trkpt><trkpt lat="44.1406563" lon="10.4146664"><ele>390.0</ele><time>2026-04-24T10:16:14.138Z</time></trkpt><trkpt lat="44.1406609" lon="10.4148047"><ele>387.0</ele><time>2026-04-24T10:16:15.144Z</time></trkpt><trkpt lat="44.1406688" lon="10.4149452"><ele>384.0</ele><time>2026-04-24T10:16:16.144Z</time></trkpt><trkpt lat="44.1406769" lon="10.4150846"><ele>381.0</ele><time>2026-04-24T10:16:17.145Z</time></trkpt><trkpt lat="44.1406845" lon="10.415227"><ele>378.0</ele><time>2026-04-24T10:16:18.147Z</time></trkpt><trkpt lat="44.1406891" lon="10.4153636"><ele>377.79999999999995</ele><time>2026-04-24T10:16:19.148Z</time></trkpt><trkpt lat="44.1406869" lon="10.4155007"><ele>377.6</ele><time>2026-04-24T10:16:20.135Z</time></trkpt><trkpt lat="44.1406799" lon="10.4156397"><ele>377.4</ele><time>2026-04-24T10:16:21.14Z</time></trkpt><trkpt lat="44.1406641" lon="10.4157692"><ele>377.20000000000005</ele><time>2026-04-24T10:16:22.15Z</time></trkpt><trkpt lat="44.1406479" lon="10.4158976"><ele>377.0</ele><time>2026-04-24T10:16:23.139Z</time></trkpt><trkpt lat="44.1406249" lon="10.4160337"><ele>377.0</ele><time>2026-04-24T10:16:24.133Z</time></trkpt><trkpt lat="44.1406068" lon="10.4161474"><ele>377.0</ele><time>2026-04-24T10:16:25.137Z</time></trkpt><trkpt lat="44.1405924" lon="10.4162616"><ele>377.0</ele><time>2026-04-24T10:16:26.137Z</time></trkpt><trkpt lat="44.1405788" lon="10.4163763"><ele>377.0</ele><time>2026-04-24T10:16:27.132Z</time></trkpt><trkpt lat="44.1405605" lon="10.4164913"><ele>377.0</ele><time>2026-04-24T10:16:28.146Z</time></trkpt><trkpt lat="44.1405441" lon="10.4165956"><ele>377.0</ele><time>2026-04-24T10:16:29.142Z</time></trkpt><trkpt lat="44.1405296" lon="10.4166989"><ele>377.1428571428571</ele><time>2026-04-24T10:16:30.138Z</time></trkpt><trkpt lat="44.1405147" lon="10.4168058"><ele>377.2857142857143</ele><time>2026-04-24T10:16:31.14Z</time></trkpt><trkpt lat="44.1404995" lon="10.4169079"><ele>377.42857142857144</ele><time>2026-04-24T10:16:32.145Z</time></trkpt><trkpt lat="44.1404822" lon="10.4170067"><ele>377.57142857142856</ele><time>2026-04-24T10:16:33.134Z</time></trkpt><trkpt lat="44.1404717" lon="10.4171005"><ele>377.7142857142857</ele><time>2026-04-24T10:16:34.157Z</time></trkpt><trkpt lat="44.140462" lon="10.4171895"><ele>377.85714285714283</ele><time>2026-04-24T10:16:35.142Z</time></trkpt><trkpt lat="44.1404514" lon="10.4172795"><ele>378.0</ele><time>2026-04-24T10:16:36.144Z</time></trkpt><trkpt lat="44.1404425" lon="10.4173688"><ele>379.0</ele><time>2026-04-24T10:16:37.138Z</time></trkpt><trkpt lat="44.1404183" lon="10.4175254"><ele>380.0</ele><time>2026-04-24T10:16:39.132Z</time></trkpt><trkpt lat="44.1403901" lon="10.4176744"><ele>381.0</ele><time>2026-04-24T10:16:41.131Z</time></trkpt><trkpt lat="44.1403497" lon="10.4178214"><ele>382.0</ele><time>2026-04-24T10:16:43.145Z</time></trkpt><trkpt lat="44.1402985" lon="10.4179336"><ele>383.0</ele><time>2026-04-24T10:16:45.135Z</time></trkpt><trkpt lat="44.1402366" lon="10.4180153"><ele>385.1666666666667</ele><time>2026-04-24T10:16:47.144Z</time></trkpt><trkpt lat="44.1401651" lon="10.4180626"><ele>387.33333333333337</ele><time>2026-04-24T10:16:49.138Z</time></trkpt><trkpt lat="44.1400871" lon="10.4180994"><ele>389.5</ele><time>2026-04-24T10:16:51.146Z</time></trkpt><trkpt lat="44.1400065" lon="10.4181224"><ele>391.6666666666667</ele><time>2026-04-24T10:16:53.144Z</time></trkpt><trkpt lat="44.1399294" lon="10.4181321"><ele>393.8333333333333</ele><time>2026-04-24T10:16:55.142Z</time></trkpt><trkpt lat="44.1398588" lon="10.418141"><ele>396.0</ele><time>2026-04-24T10:16:57.135Z</time></trkpt><trkpt lat="44.1397903" lon="10.4181489"><ele>396.0</ele><time>2026-04-24T10:16:59.148Z</time></trkpt><trkpt lat="44.1397215" lon="10.4181603"><ele>396.0</ele><time>2026-04-24T10:17:01.134Z</time></trkpt><trkpt lat="44.1396552" lon="10.4181723"><ele>396.0</ele><time>2026-04-24T10:17:03.146Z</time></trkpt><trkpt lat="44.1395872" lon="10.4181753"><ele>396.0</ele><time>2026-04-24T10:17:05.142Z</time></trkpt><trkpt lat="44.1395187" lon="10.4181785"><ele>396.0</ele><time>2026-04-24T10:17:07.154Z</time></trkpt><trkpt lat="44.1394485" lon="10.4181802"><ele>396.0</ele><time>2026-04-24T10:17:09.142Z</time></trkpt><trkpt lat="44.1393765" lon="10.4181757"><ele>396.0</ele><time>2026-04-24T10:17:11.143Z</time></trkpt><trkpt lat="44.1393035" lon="10.4181688"><ele>396.0</ele><time>2026-04-24T10:17:13.147Z</time></trkpt><trkpt lat="44.13923" lon="10.4181614"><ele>396.0</ele><time>2026-04-24T10:17:15.155Z</time></trkpt><trkpt lat="44.1391568" lon="10.4181493"><ele>396.0</ele><time>2026-04-24T10:17:17.142Z</time></trkpt><trkpt lat="44.1390851" lon="10.4181397"><ele>396.0</ele><time>2026-04-24T10:17:19.151Z</time></trkpt><trkpt lat="44.1390161" lon="10.4181315"><ele>396.0</ele><time>2026-04-24T10:17:21.147Z</time></trkpt><trkpt lat="44.1389454" lon="10.4181249"><ele>396.0</ele><time>2026-04-24T10:17:23.15Z</time></trkpt><trkpt lat="44.1388738" lon="10.4181325"><ele>396.0</ele><time>2026-04-24T10:17:25.147Z</time></trkpt><trkpt lat="44.1388036" lon="10.4181363"><ele>397.0</ele><time>2026-04-24T10:17:27.148Z</time></trkpt><trkpt lat="44.1387325" lon="10.41814"><ele>398.0</ele><time>2026-04-24T10:17:29.147Z</time></trkpt><trkpt lat="44.1386635" lon="10.4181409"><ele>399.0</ele><time>2026-04-24T10:17:31.154Z</time></trkpt><trkpt lat="44.1385911" lon="10.4181434"><ele>400.0</ele><time>2026-04-24T10:17:33.142Z</time></trkpt><trkpt lat="44.1385163" lon="10.41814"><ele>401.0</ele><time>2026-04-24T10:17:35.147Z</time></trkpt><trkpt lat="44.1384444" lon="10.4181298"><ele>402.0</ele><time>2026-04-24T10:17:37.148Z</time></trkpt><trkpt lat="44.138375" lon="10.4181155"><ele>403.0</ele><time>2026-04-24T10:17:39.146Z</time></trkpt><trkpt lat="44.1383082" lon="10.4180883"><ele>403.0</ele><time>2026-04-24T10:17:41.14Z</time></trkpt><trkpt lat="44.1382452" lon="10.4180597"><ele>403.0</ele><time>2026-04-24T10:17:43.141Z</time></trkpt><trkpt lat="44.1381826" lon="10.4180228"><ele>403.0</ele><time>2026-04-24T10:17:45.136Z</time></trkpt><trkpt lat="44.1381223" lon="10.4179813"><ele>403.0</ele><time>2026-04-24T10:17:47.145Z</time></trkpt><trkpt lat="44.1380608" lon="10.4179371"><ele>403.0</ele><time>2026-04-24T10:17:49.156Z</time></trkpt><trkpt lat="44.1380012" lon="10.4178867"><ele>403.0</ele><time>2026-04-24T10:17:51.138Z</time></trkpt><trkpt lat="44.1379444" lon="10.4178341"><ele>403.0</ele><time>2026-04-24T10:17:53.15Z</time></trkpt><trkpt lat="44.1378912" lon="10.4177728"><ele>402.5714285714286</ele><time>2026-04-24T10:17:55.142Z</time></trkpt><trkpt lat="44.1378371" lon="10.4177112"><ele>402.1428571428571</ele><time>2026-04-24T10:17:57.135Z</time></trkpt><trkpt lat="44.1377814" lon="10.4176551"><ele>401.7142857142857</ele><time>2026-04-24T10:17:59.153Z</time></trkpt><trkpt lat="44.1377246" lon="10.417597"><ele>401.28571428571433</ele><time>2026-04-24T10:18:01.173Z</time></trkpt><trkpt lat="44.1376666" lon="10.417538"><ele>400.8571428571429</ele><time>2026-04-24T10:18:03.142Z</time></trkpt><trkpt lat="44.1376097" lon="10.4174818"><ele>400.42857142857144</ele><time>2026-04-24T10:18:05.137Z</time></trkpt><trkpt lat="44.137556" lon="10.4174238"><ele>400.0</ele><time>2026-04-24T10:18:07.144Z</time></trkpt><trkpt lat="44.1375014" lon="10.4173673"><ele>400.00000000000006</ele><time>2026-04-24T10:18:09.142Z</time></trkpt><trkpt lat="44.1374475" lon="10.4173147"><ele>400.0</ele><time>2026-04-24T10:18:11.141Z</time></trkpt><trkpt lat="44.1373989" lon="10.4172588"><ele>400.0</ele><time>2026-04-24T10:18:13.139Z</time></trkpt><trkpt lat="44.1373449" lon="10.4172011"><ele>400.0</ele><time>2026-04-24T10:18:15.143Z</time></trkpt><trkpt lat="44.1372811" lon="10.4171329"><ele>400.00000000000006</ele><time>2026-04-24T10:18:17.145Z</time></trkpt><trkpt lat="44.1372093" lon="10.4170531"><ele>400.0</ele><time>2026-04-24T10:18:19.14Z</time></trkpt><trkpt lat="44.1371242" lon="10.4169654"><ele>399.00000000000006</ele><time>2026-04-24T10:18:21.15Z</time></trkpt><trkpt lat="44.1370338" lon="10.4168686"><ele>398.0</ele><time>2026-04-24T10:18:23.139Z</time></trkpt><trkpt lat="44.1369359" lon="10.4167712"><ele>397.0</ele><time>2026-04-24T10:18:25.14Z</time></trkpt><trkpt lat="44.1368863" lon="10.4167139"><ele>396.0</ele><time>2026-04-24T10:18:26.156Z</time></trkpt><trkpt lat="44.1368338" lon="10.4166563"><ele>395.00000000000006</ele><time>2026-04-24T10:18:27.15Z</time></trkpt><trkpt lat="44.1367788" lon="10.4165961"><ele>394.0</ele><time>2026-04-24T10:18:28.147Z</time></trkpt><trkpt lat="44.13672" lon="10.4165368"><ele>394.00000000000006</ele><time>2026-04-24T10:18:29.152Z</time></trkpt><trkpt lat="44.1366596" lon="10.4164776"><ele>394.0</ele><time>2026-04-24T10:18:30.152Z</time></trkpt><trkpt lat="44.1365983" lon="10.416418"><ele>394.0</ele><time>2026-04-24T10:18:31.151Z</time></trkpt><trkpt lat="44.1365366" lon="10.4163557"><ele>394.0</ele><time>2026-04-24T10:18:32.155Z</time></trkpt><trkpt lat="44.1364726" lon="10.41629"><ele>394.00000000000006</ele><time>2026-04-24T10:18:33.162Z</time></trkpt><trkpt lat="44.1364071" lon="10.4162268"><ele>394.0</ele><time>2026-04-24T10:18:34.153Z</time></trkpt><trkpt lat="44.1363361" lon="10.4161672"><ele>393.00000000000006</ele><time>2026-04-24T10:18:35.134Z</time></trkpt><trkpt lat="44.1362611" lon="10.4161104"><ele>392.0</ele><time>2026-04-24T10:18:36.152Z</time></trkpt><trkpt lat="44.136185" lon="10.4160599"><ele>391.0</ele><time>2026-04-24T10:18:37.164Z</time></trkpt><trkpt lat="44.1361047" lon="10.416009"><ele>390.0</ele><time>2026-04-24T10:18:38.147Z</time></trkpt><trkpt lat="44.1360231" lon="10.4159681"><ele>389.00000000000006</ele><time>2026-04-24T10:18:39.144Z</time></trkpt><trkpt lat="44.1359378" lon="10.4159315"><ele>388.0</ele><time>2026-04-24T10:18:40.14Z</time></trkpt><trkpt lat="44.1358501" lon="10.4158917"><ele>388.0</ele><time>2026-04-24T10:18:41.147Z</time></trkpt><trkpt lat="44.1357616" lon="10.4158563"><ele>388.0</ele><time>2026-04-24T10:18:42.147Z</time></trkpt><trkpt lat="44.1356744" lon="10.4158163"><ele>388.0</ele><time>2026-04-24T10:18:43.159Z</time></trkpt><trkpt lat="44.1355866" lon="10.415778"><ele>388.0</ele><time>2026-04-24T10:18:44.154Z</time></trkpt><trkpt lat="44.1354995" lon="10.4157382"><ele>388.0</ele><time>2026-04-24T10:18:45.156Z</time></trkpt><trkpt lat="44.135409" lon="10.4156971"><ele>387.2</ele><time>2026-04-24T10:18:46.149Z</time></trkpt><trkpt lat="44.1353205" lon="10.4156587"><ele>386.4</ele><time>2026-04-24T10:18:47.142Z</time></trkpt><trkpt lat="44.1352358" lon="10.4156169"><ele>385.59999999999997</ele><time>2026-04-24T10:18:48.147Z</time></trkpt><trkpt lat="44.1351515" lon="10.4155755"><ele>384.79999999999995</ele><time>2026-04-24T10:18:49.149Z</time></trkpt><trkpt lat="44.1350642" lon="10.4155305"><ele>384.0</ele><time>2026-04-24T10:18:50.143Z</time></trkpt><trkpt lat="44.1349754" lon="10.41548"><ele>384.0</ele><time>2026-04-24T10:18:51.147Z</time></trkpt><trkpt lat="44.1348931" lon="10.4154272"><ele>384.0</ele><time>2026-04-24T10:18:52.15Z</time></trkpt><trkpt lat="44.1348135" lon="10.4153575"><ele>384.0</ele><time>2026-04-24T10:18:53.145Z</time></trkpt><trkpt lat="44.134737" lon="10.4152786"><ele>384.0</ele><time>2026-04-24T10:18:54.141Z</time></trkpt><trkpt lat="44.1346612" lon="10.4151938"><ele>384.0</ele><time>2026-04-24T10:18:55.152Z</time></trkpt><trkpt lat="44.1345845" lon="10.415113"><ele>383.6</ele><time>2026-04-24T10:18:56.149Z</time></trkpt><trkpt lat="44.1345108" lon="10.4150312"><ele>383.2</ele><time>2026-04-24T10:18:57.132Z</time></trkpt><trkpt lat="44.134437" lon="10.4149452"><ele>382.8</ele><time>2026-04-24T10:18:58.15Z</time></trkpt><trkpt lat="44.1343629" lon="10.4148618"><ele>382.40000000000003</ele><time>2026-04-24T10:18:59.15Z</time></trkpt><trkpt lat="44.1342839" lon="10.4147849"><ele>382.0</ele><time>2026-04-24T10:19:00.154Z</time></trkpt><trkpt lat="44.1342085" lon="10.4146988"><ele>381.8</ele><time>2026-04-24T10:19:01.15Z</time></trkpt><trkpt lat="44.1341359" lon="10.4146147"><ele>381.6</ele><time>2026-04-24T10:19:02.148Z</time></trkpt><trkpt lat="44.1340616" lon="10.4145313"><ele>381.40000000000003</ele><time>2026-04-24T10:19:03.132Z</time></trkpt><trkpt lat="44.1339837" lon="10.4144528"><ele>381.20000000000005</ele><time>2026-04-24T10:19:04.155Z</time></trkpt><trkpt lat="44.1339111" lon="10.4143722"><ele>381.0</ele><time>2026-04-24T10:19:05.149Z</time></trkpt><trkpt lat="44.1338362" lon="10.414284"><ele>380.5</ele><time>2026-04-24T10:19:06.156Z</time></trkpt><trkpt lat="44.1337616" lon="10.4142032"><ele>380.0</ele><time>2026-04-24T10:19:07.15Z</time></trkpt><trkpt lat="44.1336914" lon="10.4141203"><ele>379.5</ele><time>2026-04-24T10:19:08.159Z</time></trkpt><trkpt lat="44.1336208" lon="10.4140461"><ele>379.0</ele><time>2026-04-24T10:19:09.152Z</time></trkpt><trkpt lat="44.1335468" lon="10.4139766"><ele>378.5</ele><time>2026-04-24T10:19:10.149Z</time></trkpt><trkpt lat="44.1334756" lon="10.4139127"><ele>378.0</ele><time>2026-04-24T10:19:11.159Z</time></trkpt><trkpt lat="44.1334015" lon="10.4138578"><ele>378.0</ele><time>2026-04-24T10:19:12.141Z</time></trkpt><trkpt lat="44.133324" lon="10.4138164"><ele>378.0</ele><time>2026-04-24T10:19:13.146Z</time></trkpt><trkpt lat="44.1332422" lon="10.4137744"><ele>378.0</ele><time>2026-04-24T10:19:14.146Z</time></trkpt><trkpt lat="44.1331602" lon="10.413738"><ele>378.0</ele><time>2026-04-24T10:19:15.166Z</time></trkpt><trkpt lat="44.1330786" lon="10.4136988"><ele>378.0</ele><time>2026-04-24T10:19:16.152Z</time></trkpt><trkpt lat="44.1329927" lon="10.4136602"><ele>378.0</ele><time>2026-04-24T10:19:17.15Z</time></trkpt><trkpt lat="44.1329062" lon="10.4136309"><ele>377.0</ele><time>2026-04-24T10:19:18.146Z</time></trkpt><trkpt lat="44.1328164" lon="10.4135949"><ele>376.0</ele><time>2026-04-24T10:19:19.153Z</time></trkpt><trkpt lat="44.1327264" lon="10.4135623"><ele>375.0</ele><time>2026-04-24T10:19:20.156Z</time></trkpt><trkpt lat="44.1326377" lon="10.4135278"><ele>374.0</ele><time>2026-04-24T10:19:21.142Z</time></trkpt><trkpt lat="44.1325495" lon="10.4134877"><ele>373.0</ele><time>2026-04-24T10:19:22.146Z</time></trkpt><trkpt lat="44.1324602" lon="10.4134544"><ele>372.16666666666663</ele><time>2026-04-24T10:19:23.14Z</time></trkpt><trkpt lat="44.1323677" lon="10.4134183"><ele>371.3333333333333</ele><time>2026-04-24T10:19:24.152Z</time></trkpt><trkpt lat="44.1322733" lon="10.413386"><ele>370.5</ele><time>2026-04-24T10:19:25.149Z</time></trkpt><trkpt lat="44.1321905" lon="10.4133521"><ele>369.6666666666667</ele><time>2026-04-24T10:19:26.152Z</time></trkpt><trkpt lat="44.1321178" lon="10.4133179"><ele>368.83333333333337</ele><time>2026-04-24T10:19:27.155Z</time></trkpt><trkpt lat="44.1320527" lon="10.4132864"><ele>368.0</ele><time>2026-04-24T10:19:28.144Z</time></trkpt><trkpt lat="44.1319912" lon="10.41326"><ele>368.0</ele><time>2026-04-24T10:19:29.149Z</time></trkpt><trkpt lat="44.1318945" lon="10.4132117"><ele>368.0</ele><time>2026-04-24T10:19:31.141Z</time></trkpt><trkpt lat="44.131786" lon="10.4131682"><ele>368.0</ele><time>2026-04-24T10:19:33.141Z</time></trkpt><trkpt lat="44.1316794" lon="10.4131148"><ele>368.0</ele><time>2026-04-24T10:19:35.148Z</time></trkpt><trkpt lat="44.1315686" lon="10.4130485"><ele>368.0</ele><time>2026-04-24T10:19:37.145Z</time></trkpt><trkpt lat="44.1315109" lon="10.4130084"><ele>367.42857142857144</ele><time>2026-04-24T10:19:38.148Z</time></trkpt><trkpt lat="44.1314475" lon="10.4129753"><ele>366.85714285714283</ele><time>2026-04-24T10:19:39.147Z</time></trkpt><trkpt lat="44.1313872" lon="10.4129382"><ele>366.2857142857143</ele><time>2026-04-24T10:19:40.149Z</time></trkpt><trkpt lat="44.1313289" lon="10.4128894"><ele>365.7142857142857</ele><time>2026-04-24T10:19:41.141Z</time></trkpt><trkpt lat="44.131272" lon="10.4128459"><ele>365.1428571428571</ele><time>2026-04-24T10:19:42.141Z</time></trkpt><trkpt lat="44.1312097" lon="10.4128057"><ele>364.57142857142856</ele><time>2026-04-24T10:19:43.143Z</time></trkpt><trkpt lat="44.1311503" lon="10.4127604"><ele>364.0</ele><time>2026-04-24T10:19:44.15Z</time></trkpt><trkpt lat="44.1310832" lon="10.4127124"><ele>364.0</ele><time>2026-04-24T10:19:45.154Z</time></trkpt><trkpt lat="44.1310204" lon="10.4126701"><ele>364.0</ele><time>2026-04-24T10:19:46.138Z</time></trkpt><trkpt lat="44.1309575" lon="10.4126252"><ele>364.0</ele><time>2026-04-24T10:19:47.152Z</time></trkpt><trkpt lat="44.1308913" lon="10.4125868"><ele>364.0</ele><time>2026-04-24T10:19:48.142Z</time></trkpt><trkpt lat="44.130825" lon="10.41254"><ele>364.0</ele><time>2026-04-24T10:19:49.152Z</time></trkpt><trkpt lat="44.1307563" lon="10.4124943"><ele>364.0</ele><time>2026-04-24T10:19:50.158Z</time></trkpt><trkpt lat="44.1306882" lon="10.4124477"><ele>364.0</ele><time>2026-04-24T10:19:51.145Z</time></trkpt><trkpt lat="44.1306215" lon="10.4124006"><ele>363.8333333333333</ele><time>2026-04-24T10:19:52.147Z</time></trkpt><trkpt lat="44.1305525" lon="10.4123535"><ele>363.66666666666663</ele><time>2026-04-24T10:19:53.146Z</time></trkpt><trkpt lat="44.1304817" lon="10.4123024"><ele>363.5</ele><time>2026-04-24T10:19:54.141Z</time></trkpt><trkpt lat="44.1304085" lon="10.4122506"><ele>363.3333333333333</ele><time>2026-04-24T10:19:55.144Z</time></trkpt><trkpt lat="44.1303377" lon="10.4121998"><ele>363.1666666666667</ele><time>2026-04-24T10:19:56.143Z</time></trkpt><trkpt lat="44.1302635" lon="10.4121505"><ele>363.0</ele><time>2026-04-24T10:19:57.139Z</time></trkpt><trkpt lat="44.13019" lon="10.4121033"><ele>362.6666666666667</ele><time>2026-04-24T10:19:58.162Z</time></trkpt><trkpt lat="44.1301163" lon="10.4120548"><ele>362.3333333333333</ele><time>2026-04-24T10:19:59.157Z</time></trkpt><trkpt lat="44.1300382" lon="10.4120055"><ele>362.0</ele><time>2026-04-24T10:20:00.149Z</time></trkpt><trkpt lat="44.12996" lon="10.4119604"><ele>361.66666666666663</ele><time>2026-04-24T10:20:01.151Z</time></trkpt><trkpt lat="44.1298833" lon="10.411915"><ele>361.3333333333333</ele><time>2026-04-24T10:20:02.149Z</time></trkpt><trkpt lat="44.1298053" lon="10.4118676"><ele>361.0</ele><time>2026-04-24T10:20:03.155Z</time></trkpt><trkpt lat="44.1297267" lon="10.4118286"><ele>360.0</ele><time>2026-04-24T10:20:04.149Z</time></trkpt><trkpt lat="44.1296451" lon="10.411794"><ele>359.0</ele><time>2026-04-24T10:20:05.138Z</time></trkpt><trkpt lat="44.1295618" lon="10.4117684"><ele>358.0</ele><time>2026-04-24T10:20:06.148Z</time></trkpt><trkpt lat="44.129477" lon="10.4117404"><ele>357.0</ele><time>2026-04-24T10:20:07.161Z</time></trkpt><trkpt lat="44.1293913" lon="10.4117113"><ele>356.0</ele><time>2026-04-24T10:20:08.143Z</time></trkpt><trkpt lat="44.1293047" lon="10.411678"><ele>355.0</ele><time>2026-04-24T10:20:09.153Z</time></trkpt><trkpt lat="44.1292224" lon="10.4116481"><ele>355.0</ele><time>2026-04-24T10:20:10.151Z</time></trkpt><trkpt lat="44.1291545" lon="10.4116206"><ele>355.0</ele><time>2026-04-24T10:20:11.154Z</time></trkpt><trkpt lat="44.1290505" lon="10.4115429"><ele>355.0</ele><time>2026-04-24T10:20:13.156Z</time></trkpt><trkpt lat="44.1289864" lon="10.4114009"><ele>355.0</ele><time>2026-04-24T10:20:15.151Z</time></trkpt><trkpt lat="44.1288773" lon="10.411347"><ele>355.0</ele><time>2026-04-24T10:20:17.149Z</time></trkpt><trkpt lat="44.1287629" lon="10.4113676"><ele>354.66666666666663</ele><time>2026-04-24T10:20:19.153Z</time></trkpt><trkpt lat="44.1286441" lon="10.41135"><ele>354.3333333333333</ele><time>2026-04-24T10:20:21.152Z</time></trkpt><trkpt lat="44.1285797" lon="10.4113493"><ele>354.0</ele><time>2026-04-24T10:20:22.153Z</time></trkpt><trkpt lat="44.1285147" lon="10.4113502"><ele>353.6666666666667</ele><time>2026-04-24T10:20:23.147Z</time></trkpt><trkpt lat="44.1284468" lon="10.4113484"><ele>353.33333333333337</ele><time>2026-04-24T10:20:24.137Z</time></trkpt><trkpt lat="44.1283766" lon="10.4113366"><ele>353.0</ele><time>2026-04-24T10:20:25.139Z</time></trkpt><trkpt lat="44.12831" lon="10.4113175"><ele>352.7142857142857</ele><time>2026-04-24T10:20:26.148Z</time></trkpt><trkpt lat="44.1282427" lon="10.4112943"><ele>352.42857142857144</ele><time>2026-04-24T10:20:27.139Z</time></trkpt><trkpt lat="44.1281763" lon="10.4112729"><ele>352.14285714285717</ele><time>2026-04-24T10:20:28.147Z</time></trkpt><trkpt lat="44.1281057" lon="10.4112481"><ele>351.8571428571429</ele><time>2026-04-24T10:20:29.148Z</time></trkpt><trkpt lat="44.1280378" lon="10.4112192"><ele>351.57142857142856</ele><time>2026-04-24T10:20:30.151Z</time></trkpt><trkpt lat="44.1279685" lon="10.4111928"><ele>351.28571428571433</ele><time>2026-04-24T10:20:31.147Z</time></trkpt><trkpt lat="44.1279013" lon="10.4111684"><ele>351.0</ele><time>2026-04-24T10:20:32.148Z</time></trkpt><trkpt lat="44.1278357" lon="10.4111456"><ele>350.8571428571429</ele><time>2026-04-24T10:20:33.151Z</time></trkpt><trkpt lat="44.1277714" lon="10.4111192"><ele>350.7142857142857</ele><time>2026-04-24T10:20:34.154Z</time></trkpt><trkpt lat="44.1277034" lon="10.4110984"><ele>350.57142857142856</ele><time>2026-04-24T10:20:35.132Z</time></trkpt><trkpt lat="44.1276366" lon="10.4110755"><ele>350.42857142857144</ele><time>2026-04-24T10:20:36.152Z</time></trkpt><trkpt lat="44.1275692" lon="10.4110579"><ele>350.2857142857143</ele><time>2026-04-24T10:20:37.147Z</time></trkpt><trkpt lat="44.1275047" lon="10.4110345"><ele>350.14285714285717</ele><time>2026-04-24T10:20:38.148Z</time></trkpt><trkpt lat="44.1274383" lon="10.4110128"><ele>350.0</ele><time>2026-04-24T10:20:39.137Z</time></trkpt><trkpt lat="44.1273114" lon="10.410974"><ele>349.85714285714283</ele><time>2026-04-24T10:20:41.157Z</time></trkpt><trkpt lat="44.1272463" lon="10.4109546"><ele>349.7142857142857</ele><time>2026-04-24T10:20:42.141Z</time></trkpt><trkpt lat="44.1271778" lon="10.4109416"><ele>349.57142857142856</ele><time>2026-04-24T10:20:43.145Z</time></trkpt><trkpt lat="44.1271115" lon="10.4109179"><ele>349.42857142857144</ele><time>2026-04-24T10:20:44.139Z</time></trkpt><trkpt lat="44.127046" lon="10.4109082"><ele>349.2857142857143</ele><time>2026-04-24T10:20:45.146Z</time></trkpt><trkpt lat="44.1269779" lon="10.4108889"><ele>349.1428571428571</ele><time>2026-04-24T10:20:46.144Z</time></trkpt><trkpt lat="44.1269088" lon="10.4108678"><ele>349.0</ele><time>2026-04-24T10:20:47.144Z</time></trkpt><trkpt lat="44.1268395" lon="10.410847"><ele>348.99999999999994</ele><time>2026-04-24T10:20:48.143Z</time></trkpt><trkpt lat="44.1267688" lon="10.4108256"><ele>349.0</ele><time>2026-04-24T10:20:49.143Z</time></trkpt><trkpt lat="44.1266984" lon="10.4108044"><ele>349.0</ele><time>2026-04-24T10:20:50.145Z</time></trkpt><trkpt lat="44.126627" lon="10.4107869"><ele>349.0</ele><time>2026-04-24T10:20:51.154Z</time></trkpt><trkpt lat="44.1265537" lon="10.4107687"><ele>349.0</ele><time>2026-04-24T10:20:52.139Z</time></trkpt><trkpt lat="44.1264807" lon="10.4107479"><ele>348.99999999999994</ele><time>2026-04-24T10:20:53.147Z</time></trkpt><trkpt lat="44.1264068" lon="10.4107295"><ele>349.0</ele><time>2026-04-24T10:20:54.146Z</time></trkpt><trkpt lat="44.1263317" lon="10.4107065"><ele>348.8333333333333</ele><time>2026-04-24T10:20:55.149Z</time></trkpt><trkpt lat="44.1262572" lon="10.4106864"><ele>348.66666666666663</ele><time>2026-04-24T10:20:56.139Z</time></trkpt><trkpt lat="44.126182" lon="10.410663"><ele>348.5</ele><time>2026-04-24T10:20:57.144Z</time></trkpt><trkpt lat="44.1261056" lon="10.4106427"><ele>348.3333333333333</ele><time>2026-04-24T10:20:58.139Z</time></trkpt><trkpt lat="44.1260315" lon="10.4106203"><ele>348.1666666666667</ele><time>2026-04-24T10:20:59.152Z</time></trkpt><trkpt lat="44.1259547" lon="10.4105913"><ele>348.0</ele><time>2026-04-24T10:21:00.154Z</time></trkpt><trkpt lat="44.1258776" lon="10.4105661"><ele>348.0</ele><time>2026-04-24T10:21:01.162Z</time></trkpt><trkpt lat="44.1258" lon="10.4105436"><ele>348.0</ele><time>2026-04-24T10:21:02.148Z</time></trkpt><trkpt lat="44.1257239" lon="10.4105148"><ele>348.0</ele><time>2026-04-24T10:21:03.138Z</time></trkpt><trkpt lat="44.1256518" lon="10.4104858"><ele>348.0</ele><time>2026-04-24T10:21:04.138Z</time></trkpt><trkpt lat="44.1255768" lon="10.410451"><ele>348.0</ele><time>2026-04-24T10:21:05.139Z</time></trkpt><trkpt lat="44.1255053" lon="10.4104128"><ele>348.0</ele><time>2026-04-24T10:21:06.145Z</time></trkpt><trkpt lat="44.1254324" lon="10.4103811"><ele>347.3333333333333</ele><time>2026-04-24T10:21:07.147Z</time></trkpt><trkpt lat="44.1253662" lon="10.4103436"><ele>346.6666666666667</ele><time>2026-04-24T10:21:08.152Z</time></trkpt><trkpt lat="44.125307" lon="10.4103099"><ele>346.0</ele><time>2026-04-24T10:21:09.147Z</time></trkpt><trkpt lat="44.125201" lon="10.4102208"><ele>345.33333333333337</ele><time>2026-04-24T10:21:11.149Z</time></trkpt><trkpt lat="44.1251601" lon="10.4101502"><ele>344.6666666666667</ele><time>2026-04-24T10:21:12.148Z</time></trkpt><trkpt lat="44.1251267" lon="10.4100686"><ele>344.0</ele><time>2026-04-24T10:21:13.136Z</time></trkpt><trkpt lat="44.125086" lon="10.409995"><ele>344.00000000000006</ele><time>2026-04-24T10:21:14.139Z</time></trkpt><trkpt lat="44.1250379" lon="10.4099319"><ele>344.0</ele><time>2026-04-24T10:21:15.144Z</time></trkpt><trkpt lat="44.1249791" lon="10.4098877"><ele>344.0</ele><time>2026-04-24T10:21:16.138Z</time></trkpt><trkpt lat="44.1249127" lon="10.4098677"><ele>344.0</ele><time>2026-04-24T10:21:17.147Z</time></trkpt><trkpt lat="44.1248433" lon="10.4098705"><ele>344.0</ele><time>2026-04-24T10:21:18.146Z</time></trkpt><trkpt lat="44.1247745" lon="10.4098818"><ele>344.00000000000006</ele><time>2026-04-24T10:21:19.141Z</time></trkpt><trkpt lat="44.1247106" lon="10.409918"><ele>344.0</ele><time>2026-04-24T10:21:20.147Z</time></trkpt><trkpt lat="44.1246449" lon="10.4099365"><ele>343.42857142857144</ele><time>2026-04-24T10:21:21.148Z</time></trkpt><trkpt lat="44.124576" lon="10.4099356"><ele>342.8571428571429</ele><time>2026-04-24T10:21:22.149Z</time></trkpt><trkpt lat="44.1245111" lon="10.4099159"><ele>342.28571428571433</ele><time>2026-04-24T10:21:23.145Z</time></trkpt><trkpt lat="44.1244439" lon="10.4098839"><ele>341.7142857142857</ele><time>2026-04-24T10:21:24.139Z</time></trkpt><trkpt lat="44.1243795" lon="10.4098468"><ele>341.1428571428571</ele><time>2026-04-24T10:21:25.151Z</time></trkpt><trkpt lat="44.1243099" lon="10.4098077"><ele>340.5714285714286</ele><time>2026-04-24T10:21:26.153Z</time></trkpt><trkpt lat="44.1242409" lon="10.4097669"><ele>340.0</ele><time>2026-04-24T10:21:27.146Z</time></trkpt><trkpt lat="44.1241705" lon="10.4097291"><ele>340.0</ele><time>2026-04-24T10:21:28.145Z</time></trkpt><trkpt lat="44.1240986" lon="10.4096993"><ele>340.0</ele><time>2026-04-24T10:21:29.153Z</time></trkpt><trkpt lat="44.1240267" lon="10.4096668"><ele>340.0</ele><time>2026-04-24T10:21:30.143Z</time></trkpt><trkpt lat="44.1239544" lon="10.4096358"><ele>340.0</ele><time>2026-04-24T10:21:31.169Z</time></trkpt><trkpt lat="44.1238824" lon="10.4096092"><ele>340.0</ele><time>2026-04-24T10:21:32.146Z</time></trkpt><trkpt lat="44.1238105" lon="10.4095896"><ele>340.0</ele><time>2026-04-24T10:21:33.156Z</time></trkpt><trkpt lat="44.1237395" lon="10.4095682"><ele>340.0</ele><time>2026-04-24T10:21:34.144Z</time></trkpt><trkpt lat="44.1236679" lon="10.4095414"><ele>339.16666666666663</ele><time>2026-04-24T10:21:35.145Z</time></trkpt><trkpt lat="44.1235942" lon="10.4095077"><ele>338.3333333333333</ele><time>2026-04-24T10:21:36.144Z</time></trkpt><trkpt lat="44.1235227" lon="10.4094828"><ele>337.5</ele><time>2026-04-24T10:21:37.148Z</time></trkpt><trkpt lat="44.1234489" lon="10.4094557"><ele>336.6666666666667</ele><time>2026-04-24T10:21:38.145Z</time></trkpt><trkpt lat="44.1233765" lon="10.4094298"><ele>335.83333333333337</ele><time>2026-04-24T10:21:39.148Z</time></trkpt><trkpt lat="44.1233033" lon="10.4094034"><ele>335.0</ele><time>2026-04-24T10:21:40.147Z</time></trkpt><trkpt lat="44.1232311" lon="10.4093774"><ele>334.6666666666667</ele><time>2026-04-24T10:21:41.154Z</time></trkpt><trkpt lat="44.1231571" lon="10.4093572"><ele>334.33333333333337</ele><time>2026-04-24T10:21:42.144Z</time></trkpt><trkpt lat="44.1230823" lon="10.4093384"><ele>334.0</ele><time>2026-04-24T10:21:43.16Z</time></trkpt><trkpt lat="44.1230053" lon="10.4093102"><ele>333.6666666666667</ele><time>2026-04-24T10:21:44.139Z</time></trkpt><trkpt lat="44.1229298" lon="10.4092856"><ele>333.3333333333333</ele><time>2026-04-24T10:21:45.156Z</time></trkpt><trkpt lat="44.1228492" lon="10.4092736"><ele>333.0</ele><time>2026-04-24T10:21:46.14Z</time></trkpt><trkpt lat="44.1227683" lon="10.4092588"><ele>333.0</ele><time>2026-04-24T10:21:47.132Z</time></trkpt><trkpt lat="44.1226889" lon="10.4092471"><ele>333.0</ele><time>2026-04-24T10:21:48.145Z</time></trkpt><trkpt lat="44.1226089" lon="10.4092355"><ele>333.0</ele><time>2026-04-24T10:21:49.142Z</time></trkpt><trkpt lat="44.1225298" lon="10.4092265"><ele>333.0</ele><time>2026-04-24T10:21:50.147Z</time></trkpt><trkpt lat="44.1224508" lon="10.4092147"><ele>333.0</ele><time>2026-04-24T10:21:51.147Z</time></trkpt><trkpt lat="44.1223726" lon="10.4091987"><ele>333.0</ele><time>2026-04-24T10:21:52.146Z</time></trkpt><trkpt lat="44.1222908" lon="10.4091879"><ele>332.5</ele><time>2026-04-24T10:21:53.14Z</time></trkpt><trkpt lat="44.1222112" lon="10.409172"><ele>332.0</ele><time>2026-04-24T10:21:54.141Z</time></trkpt><trkpt lat="44.1221327" lon="10.4091578"><ele>331.5</ele><time>2026-04-24T10:21:55.134Z</time></trkpt><trkpt lat="44.1220483" lon="10.4091388"><ele>331.0</ele><time>2026-04-24T10:21:56.145Z</time></trkpt><trkpt lat="44.1219662" lon="10.4091206"><ele>330.5</ele><time>2026-04-24T10:21:57.143Z</time></trkpt><trkpt lat="44.1218858" lon="10.4091067"><ele>330.0</ele><time>2026-04-24T10:21:58.146Z</time></trkpt><trkpt lat="44.121806" lon="10.4090944"><ele>330.0</ele><time>2026-04-24T10:21:59.155Z</time></trkpt><trkpt lat="44.1217239" lon="10.4090851"><ele>330.0</ele><time>2026-04-24T10:22:00.151Z</time></trkpt><trkpt lat="44.1216413" lon="10.4090695"><ele>330.0</ele><time>2026-04-24T10:22:01.145Z</time></trkpt><trkpt lat="44.1215538" lon="10.4090608"><ele>330.0</ele><time>2026-04-24T10:22:02.151Z</time></trkpt><trkpt lat="44.1214706" lon="10.409053"><ele>330.0</ele><time>2026-04-24T10:22:03.153Z</time></trkpt><trkpt lat="44.1213864" lon="10.4090471"><ele>330.0</ele><time>2026-04-24T10:22:04.145Z</time></trkpt><trkpt lat="44.1213035" lon="10.4090343"><ele>329.5</ele><time>2026-04-24T10:22:05.145Z</time></trkpt><trkpt lat="44.1212169" lon="10.4090241"><ele>329.0</ele><time>2026-04-24T10:22:06.139Z</time></trkpt><trkpt lat="44.121128" lon="10.4090121"><ele>328.5</ele><time>2026-04-24T10:22:07.147Z</time></trkpt><trkpt lat="44.1210426" lon="10.4090008"><ele>328.0</ele><time>2026-04-24T10:22:08.151Z</time></trkpt><trkpt lat="44.1209566" lon="10.4089878"><ele>327.5</ele><time>2026-04-24T10:22:09.148Z</time></trkpt><trkpt lat="44.1208686" lon="10.4089778"><ele>327.0</ele><time>2026-04-24T10:22:10.161Z</time></trkpt><trkpt lat="44.1207805" lon="10.4089703"><ele>325.5</ele><time>2026-04-24T10:22:11.15Z</time></trkpt><trkpt lat="44.1206936" lon="10.4089636"><ele>324.0</ele><time>2026-04-24T10:22:12.148Z</time></trkpt><trkpt lat="44.1206057" lon="10.4089561"><ele>322.5</ele><time>2026-04-24T10:22:13.151Z</time></trkpt><trkpt lat="44.1205181" lon="10.4089612"><ele>321.0</ele><time>2026-04-24T10:22:14.154Z</time></trkpt><trkpt lat="44.1204366" lon="10.4089808"><ele>319.5</ele><time>2026-04-24T10:22:15.15Z</time></trkpt><trkpt lat="44.1203581" lon="10.4090146"><ele>318.0</ele><time>2026-04-24T10:22:16.153Z</time></trkpt><trkpt lat="44.1202857" lon="10.4090633"><ele>318.0</ele><time>2026-04-24T10:22:17.158Z</time></trkpt><trkpt lat="44.1202168" lon="10.4091196"><ele>318.0</ele><time>2026-04-24T10:22:18.138Z</time></trkpt><trkpt lat="44.1201501" lon="10.4091796"><ele>318.0</ele><time>2026-04-24T10:22:19.157Z</time></trkpt><trkpt lat="44.1200814" lon="10.4092329"><ele>318.0</ele><time>2026-04-24T10:22:20.144Z</time></trkpt><trkpt lat="44.1200206" lon="10.4092865"><ele>318.0</ele><time>2026-04-24T10:22:21.143Z</time></trkpt><trkpt lat="44.1199551" lon="10.4093365"><ele>318.0</ele><time>2026-04-24T10:22:22.133Z</time></trkpt><trkpt lat="44.1198925" lon="10.4093821"><ele>317.5</ele><time>2026-04-24T10:22:23.143Z</time></trkpt><trkpt lat="44.119832" lon="10.4094274"><ele>317.0</ele><time>2026-04-24T10:22:24.148Z</time></trkpt><trkpt lat="44.1197691" lon="10.4095002"><ele>316.5</ele><time>2026-04-24T10:22:25.143Z</time></trkpt><trkpt lat="44.1197115" lon="10.4095523"><ele>316.0</ele><time>2026-04-24T10:22:26.139Z</time></trkpt><trkpt lat="44.1196527" lon="10.4095939"><ele>315.5</ele><time>2026-04-24T10:22:27.135Z</time></trkpt><trkpt lat="44.1195941" lon="10.4096424"><ele>315.0</ele><time>2026-04-24T10:22:28.141Z</time></trkpt><trkpt lat="44.1194848" lon="10.4097283"><ele>315.0</ele><time>2026-04-24T10:22:30.146Z</time></trkpt><trkpt lat="44.1193771" lon="10.4098272"><ele>315.0</ele><time>2026-04-24T10:22:32.146Z</time></trkpt><trkpt lat="44.1193166" lon="10.4098688"><ele>315.0</ele><time>2026-04-24T10:22:33.147Z</time></trkpt><trkpt lat="44.1192082" lon="10.4099598"><ele>315.0</ele><time>2026-04-24T10:22:35.144Z</time></trkpt><trkpt lat="44.1191108" lon="10.4100627"><ele>315.0</ele><time>2026-04-24T10:22:37.141Z</time></trkpt><trkpt lat="44.1190456" lon="10.4102045"><ele>314.1666666666667</ele><time>2026-04-24T10:22:39.146Z</time></trkpt><trkpt lat="44.1190247" lon="10.4103705"><ele>313.3333333333333</ele><time>2026-04-24T10:22:41.152Z</time></trkpt><trkpt lat="44.1190567" lon="10.4105392"><ele>312.5</ele><time>2026-04-24T10:22:43.147Z</time></trkpt><trkpt lat="44.1190935" lon="10.4106119"><ele>311.66666666666663</ele><time>2026-04-24T10:22:44.151Z</time></trkpt><trkpt lat="44.1191403" lon="10.4106774"><ele>310.8333333333333</ele><time>2026-04-24T10:22:45.132Z</time></trkpt><trkpt lat="44.1191922" lon="10.4107283"><ele>310.0</ele><time>2026-04-24T10:22:46.135Z</time></trkpt><trkpt lat="44.1192494" lon="10.4107683"><ele>310.0</ele><time>2026-04-24T10:22:47.145Z</time></trkpt><trkpt lat="44.1193198" lon="10.4107933"><ele>310.0</ele><time>2026-04-24T10:22:48.148Z</time></trkpt><trkpt lat="44.1194092" lon="10.410809"><ele>310.0</ele><time>2026-04-24T10:22:49.153Z</time></trkpt><trkpt lat="44.1194974" lon="10.4108231"><ele>310.0</ele><time>2026-04-24T10:22:50.154Z</time></trkpt><trkpt lat="44.1195825" lon="10.4108328"><ele>310.0</ele><time>2026-04-24T10:22:51.142Z</time></trkpt><trkpt lat="44.1196758" lon="10.4108507"><ele>310.0</ele><time>2026-04-24T10:22:52.143Z</time></trkpt><trkpt lat="44.1197729" lon="10.4108918"><ele>310.0</ele><time>2026-04-24T10:22:53.148Z</time></trkpt><trkpt lat="44.119851" lon="10.4109758"><ele>310.0</ele><time>2026-04-24T10:22:54.144Z</time></trkpt><trkpt lat="44.1199134" lon="10.41109"><ele>310.0</ele><time>2026-04-24T10:22:55.134Z</time></trkpt><trkpt lat="44.1199633" lon="10.4112215"><ele>310.0</ele><time>2026-04-24T10:22:56.148Z</time></trkpt><trkpt lat="44.1199906" lon="10.4113505"><ele>310.0</ele><time>2026-04-24T10:22:57.144Z</time></trkpt><trkpt lat="44.1199942" lon="10.4114516"><ele>310.0</ele><time>2026-04-24T10:22:58.148Z</time></trkpt><trkpt lat="44.1199658" lon="10.4115865"><ele>310.0</ele><time>2026-04-24T10:23:00.148Z</time></trkpt><trkpt lat="44.1198923" lon="10.4115478"><ele>310.0</ele><time>2026-04-24T10:23:02.144Z</time></trkpt><trkpt lat="44.1198863" lon="10.411395"><ele>310.0</ele><time>2026-04-24T10:23:04.145Z</time></trkpt><trkpt lat="44.1198533" lon="10.4112278"><ele>310.0</ele><time>2026-04-24T10:23:06.137Z</time></trkpt><trkpt lat="44.1198121" lon="10.4111535"><ele>310.0</ele><time>2026-04-24T10:23:07.15Z</time></trkpt><trkpt lat="44.1197623" lon="10.411083"><ele>310.0</ele><time>2026-04-24T10:23:08.148Z</time></trkpt><trkpt lat="44.119695" lon="10.4110412"><ele>310.0</ele><time>2026-04-24T10:23:09.144Z</time></trkpt><trkpt lat="44.1196147" lon="10.4110162"><ele>310.0</ele><time>2026-04-24T10:23:10.144Z</time></trkpt><trkpt lat="44.1195282" lon="10.4110091"><ele>310.0</ele><time>2026-04-24T10:23:11.15Z</time></trkpt><trkpt lat="44.1194424" lon="10.4110157"><ele>310.0</ele><time>2026-04-24T10:23:12.143Z</time></trkpt><trkpt lat="44.119353" lon="10.4110191"><ele>310.0</ele><time>2026-04-24T10:23:13.15Z</time></trkpt><trkpt lat="44.1192617" lon="10.4110228"><ele>310.0</ele><time>2026-04-24T10:23:14.145Z</time></trkpt><trkpt lat="44.119164" lon="10.4110263"><ele>310.0</ele><time>2026-04-24T10:23:15.151Z</time></trkpt><trkpt lat="44.1190624" lon="10.4110332"><ele>310.0</ele><time>2026-04-24T10:23:16.139Z</time></trkpt><trkpt lat="44.118957" lon="10.4110362"><ele>310.0</ele><time>2026-04-24T10:23:17.146Z</time></trkpt><trkpt lat="44.1188572" lon="10.4110373"><ele>309.0</ele><time>2026-04-24T10:23:18.149Z</time></trkpt><trkpt lat="44.1187675" lon="10.411015"><ele>308.0</ele><time>2026-04-24T10:23:19.14Z</time></trkpt><trkpt lat="44.1186861" lon="10.4109566"><ele>307.0</ele><time>2026-04-24T10:23:20.144Z</time></trkpt><trkpt lat="44.1186062" lon="10.4108705"><ele>306.0</ele><time>2026-04-24T10:23:21.141Z</time></trkpt><trkpt lat="44.118536" lon="10.4107705"><ele>305.0</ele><time>2026-04-24T10:23:22.137Z</time></trkpt><trkpt lat="44.1184722" lon="10.4106567"><ele>305.0</ele><time>2026-04-24T10:23:23.137Z</time></trkpt><trkpt lat="44.1184174" lon="10.41053"><ele>305.0</ele><time>2026-04-24T10:23:24.141Z</time></trkpt><trkpt lat="44.1183903" lon="10.4103839"><ele>305.0</ele><time>2026-04-24T10:23:25.141Z</time></trkpt><trkpt lat="44.1183652" lon="10.4102362"><ele>305.0</ele><time>2026-04-24T10:23:26.135Z</time></trkpt><trkpt lat="44.1183397" lon="10.4100967"><ele>305.0</ele><time>2026-04-24T10:23:27.139Z</time></trkpt><trkpt lat="44.1183038" lon="10.4099691"><ele>303.2</ele><time>2026-04-24T10:23:28.143Z</time></trkpt><trkpt lat="44.118253" lon="10.4098699"><ele>301.4</ele><time>2026-04-24T10:23:29.161Z</time></trkpt><trkpt lat="44.1181612" lon="10.4098006"><ele>299.6</ele><time>2026-04-24T10:23:30.143Z</time></trkpt><trkpt lat="44.1180678" lon="10.4097224"><ele>297.8</ele><time>2026-04-24T10:23:31.143Z</time></trkpt><trkpt lat="44.1179755" lon="10.4096461"><ele>296.0</ele><time>2026-04-24T10:23:32.142Z</time></trkpt><trkpt lat="44.1178798" lon="10.4095961"><ele>292.6</ele><time>2026-04-24T10:23:33.141Z</time></trkpt><trkpt lat="44.1177906" lon="10.4095718"><ele>289.20000000000005</ele><time>2026-04-24T10:23:34.135Z</time></trkpt><trkpt lat="44.1176943" lon="10.4095744"><ele>285.79999999999995</ele><time>2026-04-24T10:23:35.134Z</time></trkpt><trkpt lat="44.1176066" lon="10.4096011"><ele>282.4</ele><time>2026-04-24T10:23:36.137Z</time></trkpt><trkpt lat="44.1175033" lon="10.4096209"><ele>279.0</ele><time>2026-04-24T10:23:37.136Z</time></trkpt><trkpt lat="44.1174019" lon="10.4096457"><ele>281.4</ele><time>2026-04-24T10:23:38.136Z</time></trkpt><trkpt lat="44.1173033" lon="10.4096785"><ele>283.79999999999995</ele><time>2026-04-24T10:23:39.146Z</time></trkpt><trkpt lat="44.1172089" lon="10.4097068"><ele>286.20000000000005</ele><time>2026-04-24T10:23:40.14Z</time></trkpt><trkpt lat="44.1171144" lon="10.4097371"><ele>288.6</ele><time>2026-04-24T10:23:41.144Z</time></trkpt><trkpt lat="44.1170254" lon="10.4097657"><ele>291.0</ele><time>2026-04-24T10:23:42.14Z</time></trkpt><trkpt lat="44.1169421" lon="10.4097908"><ele>291.0</ele><time>2026-04-24T10:23:43.153Z</time></trkpt><trkpt lat="44.1168688" lon="10.4098109"><ele>291.0</ele><time>2026-04-24T10:23:44.143Z</time></trkpt><trkpt lat="44.1167657" lon="10.4098296"><ele>291.0</ele><time>2026-04-24T10:23:46.139Z</time></trkpt><trkpt lat="44.1166928" lon="10.4098192"><ele>291.0</ele><time>2026-04-24T10:23:49.132Z</time></trkpt><trkpt lat="44.1166114" lon="10.4097886"><ele>291.0</ele><time>2026-04-24T10:23:52.136Z</time></trkpt><trkpt lat="44.1165118" lon="10.4097736"><ele>291.0</ele><time>2026-04-24T10:23:55.145Z</time></trkpt><trkpt lat="44.1164471" lon="10.409835"><ele>290.42857142857144</ele><time>2026-04-24T10:23:57.155Z</time></trkpt><trkpt lat="44.1164083" lon="10.4099124"><ele>289.85714285714283</ele><time>2026-04-24T10:23:59.135Z</time></trkpt><trkpt lat="44.1163541" lon="10.4099842"><ele>289.2857142857143</ele><time>2026-04-24T10:24:01.143Z</time></trkpt><trkpt lat="44.1162966" lon="10.4100446"><ele>288.7142857142857</ele><time>2026-04-24T10:24:03.144Z</time></trkpt><trkpt lat="44.1162271" lon="10.4100856"><ele>288.1428571428571</ele><time>2026-04-24T10:24:05.147Z</time></trkpt><trkpt lat="44.1161511" lon="10.4101215"><ele>287.57142857142856</ele><time>2026-04-24T10:24:07.146Z</time></trkpt><trkpt lat="44.1160806" lon="10.4101603"><ele>287.0</ele><time>2026-04-24T10:24:09.142Z</time></trkpt><trkpt lat="44.1160009" lon="10.4102119"><ele>287.0</ele><time>2026-04-24T10:24:11.15Z</time></trkpt><trkpt lat="44.1159034" lon="10.4102677"><ele>287.0</ele><time>2026-04-24T10:24:13.142Z</time></trkpt><trkpt lat="44.1158139" lon="10.4103236"><ele>287.0</ele><time>2026-04-24T10:24:15.151Z</time></trkpt><trkpt lat="44.1157058" lon="10.4103854"><ele>287.0</ele><time>2026-04-24T10:24:17.144Z</time></trkpt><trkpt lat="44.1155961" lon="10.4104587"><ele>287.0</ele><time>2026-04-24T10:24:19.147Z</time></trkpt><trkpt lat="44.1155246" lon="10.4104786"><ele>287.83333333333337</ele><time>2026-04-24T10:24:20.144Z</time></trkpt><trkpt lat="44.1154616" lon="10.4104835"><ele>288.6666666666667</ele><time>2026-04-24T10:24:21.142Z</time></trkpt><trkpt lat="44.1153982" lon="10.4104752"><ele>289.5</ele><time>2026-04-24T10:24:22.143Z</time></trkpt><trkpt lat="44.1153336" lon="10.4104722"><ele>290.3333333333333</ele><time>2026-04-24T10:24:23.148Z</time></trkpt><trkpt lat="44.1152694" lon="10.4104768"><ele>291.16666666666663</ele><time>2026-04-24T10:24:24.144Z</time></trkpt><trkpt lat="44.1151529" lon="10.410504"><ele>292.0</ele><time>2026-04-24T10:24:26.145Z</time></trkpt><trkpt lat="44.1150611" lon="10.4105533"><ele>292.0</ele><time>2026-04-24T10:24:28.147Z</time></trkpt><trkpt lat="44.1149712" lon="10.4106027"><ele>292.0</ele><time>2026-04-24T10:24:30.146Z</time></trkpt><trkpt lat="44.1148881" lon="10.4106546"><ele>292.0</ele><time>2026-04-24T10:24:32.147Z</time></trkpt><trkpt lat="44.1148109" lon="10.4107001"><ele>292.0</ele><time>2026-04-24T10:24:34.132Z</time></trkpt><trkpt lat="44.1147327" lon="10.4107499"><ele>292.0</ele><time>2026-04-24T10:24:36.149Z</time></trkpt><trkpt lat="44.1146482" lon="10.4108063"><ele>289.66666666666663</ele><time>2026-04-24T10:24:38.15Z</time></trkpt><trkpt lat="44.1145707" lon="10.4108576"><ele>287.3333333333333</ele><time>2026-04-24T10:24:40.15Z</time></trkpt><trkpt lat="44.1145095" lon="10.4109169"><ele>285.0</ele><time>2026-04-24T10:24:42.137Z</time></trkpt><trkpt lat="44.1144344" lon="10.4109873"><ele>282.6666666666667</ele><time>2026-04-24T10:24:44.133Z</time></trkpt><trkpt lat="44.1143547" lon="10.4110567"><ele>280.33333333333337</ele><time>2026-04-24T10:24:46.148Z</time></trkpt><trkpt lat="44.1142786" lon="10.411136"><ele>278.0</ele><time>2026-04-24T10:24:48.142Z</time></trkpt><trkpt lat="44.1142038" lon="10.411213"><ele>278.0</ele><time>2026-04-24T10:24:50.142Z</time></trkpt><trkpt lat="44.1141319" lon="10.4112955"><ele>278.0</ele><time>2026-04-24T10:24:52.145Z</time></trkpt><trkpt lat="44.1140537" lon="10.4113712"><ele>278.0</ele><time>2026-04-24T10:24:54.146Z</time></trkpt><trkpt lat="44.1139738" lon="10.411448"><ele>278.0</ele><time>2026-04-24T10:24:56.151Z</time></trkpt><trkpt lat="44.1138994" lon="10.4115275"><ele>278.0</ele><time>2026-04-24T10:24:58.149Z</time></trkpt><trkpt lat="44.1138269" lon="10.4116107"><ele>278.8</ele><time>2026-04-24T10:25:00.151Z</time></trkpt><trkpt lat="44.1137514" lon="10.4116925"><ele>279.6</ele><time>2026-04-24T10:25:02.147Z</time></trkpt><trkpt lat="44.1136721" lon="10.4117683"><ele>280.4</ele><time>2026-04-24T10:25:04.146Z</time></trkpt><trkpt lat="44.1135966" lon="10.4118498"><ele>281.2</ele><time>2026-04-24T10:25:06.146Z</time></trkpt><trkpt lat="44.1135182" lon="10.4119205"><ele>282.0</ele><time>2026-04-24T10:25:08.141Z</time></trkpt><trkpt lat="44.1134428" lon="10.4119951"><ele>282.0</ele><time>2026-04-24T10:25:10.144Z</time></trkpt><trkpt lat="44.1133601" lon="10.4120612"><ele>282.0</ele><time>2026-04-24T10:25:12.157Z</time></trkpt><trkpt lat="44.1132635" lon="10.4121262"><ele>282.0</ele><time>2026-04-24T10:25:14.15Z</time></trkpt><trkpt lat="44.1131731" lon="10.4121919"><ele>282.0</ele><time>2026-04-24T10:25:16.15Z</time></trkpt><trkpt lat="44.1130787" lon="10.4122554"><ele>282.0</ele><time>2026-04-24T10:25:18.143Z</time></trkpt><trkpt lat="44.1129861" lon="10.4123232"><ele>281.75</ele><time>2026-04-24T10:25:20.149Z</time></trkpt><trkpt lat="44.1128847" lon="10.4123932"><ele>281.5</ele><time>2026-04-24T10:25:22.16Z</time></trkpt><trkpt lat="44.1127805" lon="10.412459"><ele>281.25</ele><time>2026-04-24T10:25:24.148Z</time></trkpt><trkpt lat="44.112667" lon="10.4125278"><ele>281.0</ele><time>2026-04-24T10:25:26.151Z</time></trkpt><trkpt lat="44.1125543" lon="10.412596"><ele>281.0</ele><time>2026-04-24T10:25:28.142Z</time></trkpt><trkpt lat="44.1124943" lon="10.4126283"><ele>281.0</ele><time>2026-04-24T10:25:29.144Z</time></trkpt><trkpt lat="44.112373" lon="10.4126899"><ele>281.0</ele><time>2026-04-24T10:25:31.151Z</time></trkpt><trkpt lat="44.1122599" lon="10.4127504"><ele>281.0</ele><time>2026-04-24T10:25:33.147Z</time></trkpt><trkpt lat="44.1121498" lon="10.4128131"><ele>281.0</ele><time>2026-04-24T10:25:35.14Z</time></trkpt><trkpt lat="44.1120407" lon="10.4128727"><ele>282.8</ele><time>2026-04-24T10:25:37.143Z</time></trkpt><trkpt lat="44.1119499" lon="10.4129272"><ele>284.6</ele><time>2026-04-24T10:25:39.147Z</time></trkpt><trkpt lat="44.1118638" lon="10.412984"><ele>286.4</ele><time>2026-04-24T10:25:41.145Z</time></trkpt><trkpt lat="44.1117788" lon="10.4130323"><ele>288.2</ele><time>2026-04-24T10:25:43.156Z</time></trkpt><trkpt lat="44.1117018" lon="10.4130698"><ele>290.0</ele><time>2026-04-24T10:25:45.139Z</time></trkpt><trkpt lat="44.1116192" lon="10.4131214"><ele>288.0</ele><time>2026-04-24T10:25:47.143Z</time></trkpt><trkpt lat="44.1115326" lon="10.4131667"><ele>286.0</ele><time>2026-04-24T10:25:49.156Z</time></trkpt><trkpt lat="44.1114496" lon="10.4132246"><ele>284.0</ele><time>2026-04-24T10:25:51.135Z</time></trkpt><trkpt lat="44.1113656" lon="10.4132742"><ele>282.0</ele><time>2026-04-24T10:25:53.16Z</time></trkpt><trkpt lat="44.1112845" lon="10.4133192"><ele>280.0</ele><time>2026-04-24T10:25:55.144Z</time></trkpt><trkpt lat="44.1112027" lon="10.4133663"><ele>280.0</ele><time>2026-04-24T10:25:57.148Z</time></trkpt><trkpt lat="44.1111178" lon="10.4134114"><ele>280.0</ele><time>2026-04-24T10:25:59.141Z</time></trkpt><trkpt lat="44.1110286" lon="10.4134581"><ele>280.0</ele><time>2026-04-24T10:26:01.144Z</time></trkpt><trkpt lat="44.1109458" lon="10.4135014"><ele>280.0</ele><time>2026-04-24T10:26:03.15Z</time></trkpt><trkpt lat="44.1108716" lon="10.4135451"><ele>280.0</ele><time>2026-04-24T10:26:05.155Z</time></trkpt><trkpt lat="44.11079" lon="10.413589"><ele>280.0</ele><time>2026-04-24T10:26:07.142Z</time></trkpt><trkpt lat="44.1107121" lon="10.4136321"><ele>279.5</ele><time>2026-04-24T10:26:09.15Z</time></trkpt><trkpt lat="44.1106435" lon="10.4136799"><ele>279.0</ele><time>2026-04-24T10:26:11.151Z</time></trkpt><trkpt lat="44.1105691" lon="10.4137283"><ele>278.5</ele><time>2026-04-24T10:26:13.144Z</time></trkpt><trkpt lat="44.1104903" lon="10.413761"><ele>278.0</ele><time>2026-04-24T10:26:15.165Z</time></trkpt><trkpt lat="44.1104088" lon="10.4137384"><ele>277.5</ele><time>2026-04-24T10:26:17.139Z</time></trkpt><trkpt lat="44.1103463" lon="10.4136608"><ele>277.0</ele><time>2026-04-24T10:26:19.144Z</time></trkpt><trkpt lat="44.1103027" lon="10.4135586"><ele>277.0</ele><time>2026-04-24T10:26:21.136Z</time></trkpt><trkpt lat="44.1102619" lon="10.4134504"><ele>277.0</ele><time>2026-04-24T10:26:23.134Z</time></trkpt><trkpt lat="44.1102252" lon="10.4133477"><ele>277.0</ele><time>2026-04-24T10:26:25.143Z</time></trkpt><trkpt lat="44.1101851" lon="10.4132436"><ele>277.0</ele><time>2026-04-24T10:26:27.131Z</time></trkpt><trkpt lat="44.1101441" lon="10.4131394"><ele>277.0</ele><time>2026-04-24T10:26:29.142Z</time></trkpt><trkpt lat="44.1101011" lon="10.4130379"><ele>277.0</ele><time>2026-04-24T10:26:31.135Z</time></trkpt><trkpt lat="44.1100496" lon="10.4129567"><ele>277.16666666666663</ele><time>2026-04-24T10:26:33.136Z</time></trkpt><trkpt lat="44.109993" lon="10.412905"><ele>277.3333333333333</ele><time>2026-04-24T10:26:35.141Z</time></trkpt><trkpt lat="44.1099236" lon="10.4128925"><ele>277.5</ele><time>2026-04-24T10:26:37.134Z</time></trkpt><trkpt lat="44.1098477" lon="10.4129147"><ele>277.6666666666667</ele><time>2026-04-24T10:26:39.138Z</time></trkpt><trkpt lat="44.1097553" lon="10.4129519"><ele>277.83333333333337</ele><time>2026-04-24T10:26:41.148Z</time></trkpt><trkpt lat="44.1096693" lon="10.4130206"><ele>278.0</ele><time>2026-04-24T10:26:43.138Z</time></trkpt><trkpt lat="44.1095822" lon="10.413086"><ele>278.2</ele><time>2026-04-24T10:26:45.133Z</time></trkpt><trkpt lat="44.1095006" lon="10.4131688"><ele>278.4</ele><time>2026-04-24T10:26:47.136Z</time></trkpt><trkpt lat="44.1094309" lon="10.4132891"><ele>278.59999999999997</ele><time>2026-04-24T10:26:49.133Z</time></trkpt><trkpt lat="44.1093762" lon="10.4134154"><ele>278.8</ele><time>2026-04-24T10:26:51.149Z</time></trkpt><trkpt lat="44.1093247" lon="10.4135385"><ele>279.0</ele><time>2026-04-24T10:26:53.144Z</time></trkpt><trkpt lat="44.1092688" lon="10.4136579"><ele>279.0</ele><time>2026-04-24T10:26:55.136Z</time></trkpt><trkpt lat="44.109218" lon="10.4137681"><ele>279.0</ele><time>2026-04-24T10:26:57.138Z</time></trkpt><trkpt lat="44.1091769" lon="10.4138809"><ele>279.0</ele><time>2026-04-24T10:26:59.147Z</time></trkpt><trkpt lat="44.1091287" lon="10.4139862"><ele>279.0</ele><time>2026-04-24T10:27:01.148Z</time></trkpt><trkpt lat="44.1090769" lon="10.414122"><ele>279.0</ele><time>2026-04-24T10:27:03.138Z</time></trkpt><trkpt lat="44.109041" lon="10.4142597"><ele>286.4</ele><time>2026-04-24T10:27:05.134Z</time></trkpt><trkpt lat="44.1090357" lon="10.4143951"><ele>293.79999999999995</ele><time>2026-04-24T10:27:07.14Z</time></trkpt><trkpt lat="44.1090246" lon="10.414532"><ele>301.20000000000005</ele><time>2026-04-24T10:27:09.156Z</time></trkpt><trkpt lat="44.1090179" lon="10.414665"><ele>308.6</ele><time>2026-04-24T10:27:11.152Z</time></trkpt><trkpt lat="44.10904" lon="10.4147995"><ele>316.0</ele><time>2026-04-24T10:27:13.137Z</time></trkpt><trkpt lat="44.1090687" lon="10.4149174"><ele>311.0</ele><time>2026-04-24T10:27:15.147Z</time></trkpt><trkpt lat="44.1091058" lon="10.4150433"><ele>306.0</ele><time>2026-04-24T10:27:17.158Z</time></trkpt><trkpt lat="44.1091528" lon="10.4151659"><ele>301.0</ele><time>2026-04-24T10:27:19.144Z</time></trkpt><trkpt lat="44.1092073" lon="10.4152823"><ele>296.0</ele><time>2026-04-24T10:27:21.138Z</time></trkpt><trkpt lat="44.1092669" lon="10.4153982"><ele>291.0</ele><time>2026-04-24T10:27:23.155Z</time></trkpt><trkpt lat="44.109324" lon="10.4155163"><ele>291.0</ele><time>2026-04-24T10:27:25.142Z</time></trkpt><trkpt lat="44.109382" lon="10.4156319"><ele>291.0</ele><time>2026-04-24T10:27:27.14Z</time></trkpt><trkpt lat="44.1094424" lon="10.4157439"><ele>291.0</ele><time>2026-04-24T10:27:29.144Z</time></trkpt><trkpt lat="44.109505" lon="10.4158602"><ele>291.0</ele><time>2026-04-24T10:27:31.143Z</time></trkpt><trkpt lat="44.1095669" lon="10.4159712"><ele>291.0</ele><time>2026-04-24T10:27:33.145Z</time></trkpt><trkpt lat="44.1096298" lon="10.416085"><ele>291.0</ele><time>2026-04-24T10:27:35.144Z</time></trkpt><trkpt lat="44.1096932" lon="10.4161943"><ele>291.0</ele><time>2026-04-24T10:27:37.145Z</time></trkpt><trkpt lat="44.1097522" lon="10.4163023"><ele>291.0</ele><time>2026-04-24T10:27:39.143Z</time></trkpt><trkpt lat="44.1098189" lon="10.4164142"><ele>291.0</ele><time>2026-04-24T10:27:41.15Z</time></trkpt><trkpt lat="44.1098839" lon="10.4165225"><ele>291.0</ele><time>2026-04-24T10:27:43.153Z</time></trkpt><trkpt lat="44.109942" lon="10.416643"><ele>291.0</ele><time>2026-04-24T10:27:45.15Z</time></trkpt><trkpt lat="44.1099954" lon="10.4167712"><ele>291.0</ele><time>2026-04-24T10:27:47.159Z</time></trkpt><trkpt lat="44.1100269" lon="10.4169069"><ele>291.0</ele><time>2026-04-24T10:27:49.137Z</time></trkpt><trkpt lat="44.1100414" lon="10.4170469"><ele>291.0</ele><time>2026-04-24T10:27:51.149Z</time></trkpt><trkpt lat="44.1100415" lon="10.4171831"><ele>291.0</ele><time>2026-04-24T10:27:53.146Z</time></trkpt><trkpt lat="44.1100436" lon="10.4173201"><ele>291.0</ele><time>2026-04-24T10:27:55.158Z</time></trkpt><trkpt lat="44.1100543" lon="10.4174451"><ele>291.0</ele><time>2026-04-24T10:27:57.144Z</time></trkpt><trkpt lat="44.1100605" lon="10.4175652"><ele>291.0</ele><time>2026-04-24T10:27:59.133Z</time></trkpt><trkpt lat="44.1100826" lon="10.4176911"><ele>291.0</ele><time>2026-04-24T10:28:01.149Z</time></trkpt><trkpt lat="44.1101228" lon="10.4178079"><ele>291.0</ele><time>2026-04-24T10:28:03.161Z</time></trkpt><trkpt lat="44.1101691" lon="10.4179181"><ele>294.40000000000003</ele><time>2026-04-24T10:28:05.147Z</time></trkpt><trkpt lat="44.1102287" lon="10.4180135"><ele>297.8</ele><time>2026-04-24T10:28:07.142Z</time></trkpt><trkpt lat="44.1103063" lon="10.4180955"><ele>301.20000000000005</ele><time>2026-04-24T10:28:09.145Z</time></trkpt><trkpt lat="44.1103875" lon="10.4181722"><ele>304.6</ele><time>2026-04-24T10:28:11.144Z</time></trkpt><trkpt lat="44.1104685" lon="10.4182441"><ele>308.0</ele><time>2026-04-24T10:28:13.141Z</time></trkpt><trkpt lat="44.110553" lon="10.4182969"><ele>308.0</ele><time>2026-04-24T10:28:15.147Z</time></trkpt><trkpt lat="44.1106249" lon="10.4183405"><ele>308.0</ele><time>2026-04-24T10:28:17.141Z</time></trkpt><trkpt lat="44.110708" lon="10.4183761"><ele>308.0</ele><time>2026-04-24T10:28:19.145Z</time></trkpt><trkpt lat="44.1108055" lon="10.418415"><ele>308.0</ele><time>2026-04-24T10:28:21.14Z</time></trkpt><trkpt lat="44.1108987" lon="10.4184531"><ele>308.0</ele><time>2026-04-24T10:28:23.134Z</time></trkpt><trkpt lat="44.1109961" lon="10.4184849"><ele>301.0</ele><time>2026-04-24T10:28:25.14Z</time></trkpt><trkpt lat="44.1110851" lon="10.4185205"><ele>294.0</ele><time>2026-04-24T10:28:27.152Z</time></trkpt><trkpt lat="44.1111856" lon="10.4185554"><ele>287.0</ele><time>2026-04-24T10:28:29.152Z</time></trkpt><trkpt lat="44.1112824" lon="10.4185857"><ele>280.0</ele><time>2026-04-24T10:28:31.144Z</time></trkpt><trkpt lat="44.1113662" lon="10.4186144"><ele>273.0</ele><time>2026-04-24T10:28:33.152Z</time></trkpt><trkpt lat="44.1114521" lon="10.4186289"><ele>273.0</ele><time>2026-04-24T10:28:35.143Z</time></trkpt><trkpt lat="44.1115422" lon="10.4186334"><ele>273.0</ele><time>2026-04-24T10:28:37.151Z</time></trkpt><trkpt lat="44.1116289" lon="10.4186441"><ele>273.0</ele><time>2026-04-24T10:28:39.145Z</time></trkpt><trkpt lat="44.1117193" lon="10.4186431"><ele>273.0</ele><time>2026-04-24T10:28:41.156Z</time></trkpt><trkpt lat="44.1118179" lon="10.4186504"><ele>273.0</ele><time>2026-04-24T10:28:43.16Z</time></trkpt><trkpt lat="44.111909" lon="10.4186634"><ele>273.0</ele><time>2026-04-24T10:28:45.137Z</time></trkpt><trkpt lat="44.112" lon="10.4186786"><ele>273.0</ele><time>2026-04-24T10:28:47.143Z</time></trkpt><trkpt lat="44.1120902" lon="10.4186925"><ele>273.0</ele><time>2026-04-24T10:28:49.155Z</time></trkpt><trkpt lat="44.1121796" lon="10.4186946"><ele>273.0</ele><time>2026-04-24T10:28:51.139Z</time></trkpt><trkpt lat="44.1122618" lon="10.4186871"><ele>273.0</ele><time>2026-04-24T10:28:53.143Z</time></trkpt><trkpt lat="44.1123462" lon="10.4186815"><ele>273.0</ele><time>2026-04-24T10:28:55.142Z</time></trkpt><trkpt lat="44.1124316" lon="10.4186718"><ele>273.4</ele><time>2026-04-24T10:28:57.132Z</time></trkpt><trkpt lat="44.112522" lon="10.4186517"><ele>273.8</ele><time>2026-04-24T10:28:59.14Z</time></trkpt><trkpt lat="44.1126219" lon="10.4186403"><ele>274.2</ele><time>2026-04-24T10:29:01.141Z</time></trkpt><trkpt lat="44.1127148" lon="10.4186322"><ele>274.6</ele><time>2026-04-24T10:29:03.142Z</time></trkpt><trkpt lat="44.1128137" lon="10.418612"><ele>275.0</ele><time>2026-04-24T10:29:05.152Z</time></trkpt><trkpt lat="44.1129034" lon="10.4185918"><ele>275.0</ele><time>2026-04-24T10:29:07.144Z</time></trkpt><trkpt lat="44.1129926" lon="10.4185825"><ele>275.0</ele><time>2026-04-24T10:29:09.133Z</time></trkpt><trkpt lat="44.1130844" lon="10.4185597"><ele>275.0</ele><time>2026-04-24T10:29:11.133Z</time></trkpt><trkpt lat="44.1131763" lon="10.4185377"><ele>275.0</ele><time>2026-04-24T10:29:13.152Z</time></trkpt><trkpt lat="44.1132696" lon="10.4185338"><ele>275.0</ele><time>2026-04-24T10:29:15.153Z</time></trkpt><trkpt lat="44.1133687" lon="10.4185438"><ele>273.6</ele><time>2026-04-24T10:29:17.145Z</time></trkpt><trkpt lat="44.1134655" lon="10.4185631"><ele>272.2</ele><time>2026-04-24T10:29:19.147Z</time></trkpt><trkpt lat="44.1135604" lon="10.4185987"><ele>270.8</ele><time>2026-04-24T10:29:21.148Z</time></trkpt><trkpt lat="44.1136568" lon="10.4186522"><ele>269.4</ele><time>2026-04-24T10:29:23.145Z</time></trkpt><trkpt lat="44.1137455" lon="10.4187115"><ele>268.0</ele><time>2026-04-24T10:29:25.141Z</time></trkpt><trkpt lat="44.1138248" lon="10.4187963"><ele>269.2</ele><time>2026-04-24T10:29:27.15Z</time></trkpt><trkpt lat="44.1139129" lon="10.4188782"><ele>270.4</ele><time>2026-04-24T10:29:29.144Z</time></trkpt><trkpt lat="44.1139894" lon="10.4189677"><ele>271.59999999999997</ele><time>2026-04-24T10:29:31.157Z</time></trkpt><trkpt lat="44.1140685" lon="10.4190556"><ele>272.8</ele><time>2026-04-24T10:29:33.139Z</time></trkpt><trkpt lat="44.1141418" lon="10.4191513"><ele>274.0</ele><time>2026-04-24T10:29:35.15Z</time></trkpt><trkpt lat="44.1142033" lon="10.4192537"><ele>274.0</ele><time>2026-04-24T10:29:37.138Z</time></trkpt><trkpt lat="44.1142439" lon="10.4193711"><ele>274.0</ele><time>2026-04-24T10:29:39.149Z</time></trkpt><trkpt lat="44.1142701" lon="10.4194926"><ele>274.0</ele><time>2026-04-24T10:29:41.15Z</time></trkpt><trkpt lat="44.1142762" lon="10.4196162"><ele>274.0</ele><time>2026-04-24T10:29:43.148Z</time></trkpt><trkpt lat="44.1142946" lon="10.4197339"><ele>274.0</ele><time>2026-04-24T10:29:45.146Z</time></trkpt><trkpt lat="44.1143424" lon="10.4198588"><ele>277.4</ele><time>2026-04-24T10:29:47.14Z</time></trkpt><trkpt lat="44.1143921" lon="10.4199959"><ele>280.79999999999995</ele><time>2026-04-24T10:29:49.157Z</time></trkpt><trkpt lat="44.1144236" lon="10.4201445"><ele>284.20000000000005</ele><time>2026-04-24T10:29:51.152Z</time></trkpt><trkpt lat="44.1144415" lon="10.4202985"><ele>287.6</ele><time>2026-04-24T10:29:53.159Z</time></trkpt><trkpt lat="44.1144609" lon="10.4204534"><ele>291.0</ele><time>2026-04-24T10:29:55.149Z</time></trkpt><trkpt lat="44.1144796" lon="10.4206031"><ele>291.0</ele><time>2026-04-24T10:29:57.145Z</time></trkpt><trkpt lat="44.1144984" lon="10.4207524"><ele>291.0</ele><time>2026-04-24T10:29:59.15Z</time></trkpt><trkpt lat="44.1145133" lon="10.4209008"><ele>291.0</ele><time>2026-04-24T10:30:01.138Z</time></trkpt><trkpt lat="44.1145323" lon="10.4210511"><ele>291.0</ele><time>2026-04-24T10:30:03.147Z</time></trkpt><trkpt lat="44.1145497" lon="10.4212003"><ele>291.0</ele><time>2026-04-24T10:30:05.145Z</time></trkpt><trkpt lat="44.1145654" lon="10.4213487"><ele>290.0</ele><time>2026-04-24T10:30:07.139Z</time></trkpt><trkpt lat="44.1145879" lon="10.4214952"><ele>289.0</ele><time>2026-04-24T10:30:09.151Z</time></trkpt><trkpt lat="44.1146074" lon="10.4216491"><ele>288.0</ele><time>2026-04-24T10:30:11.145Z</time></trkpt><trkpt lat="44.1146278" lon="10.4217982"><ele>287.0</ele><time>2026-04-24T10:30:13.155Z</time></trkpt><trkpt lat="44.1146422" lon="10.4219468"><ele>286.0</ele><time>2026-04-24T10:30:15.15Z</time></trkpt><trkpt lat="44.1146585" lon="10.4220965"><ele>285.0</ele><time>2026-04-24T10:30:17.145Z</time></trkpt><trkpt lat="44.114677" lon="10.4222493"><ele>284.0</ele><time>2026-04-24T10:30:19.143Z</time></trkpt><trkpt lat="44.1146943" lon="10.4224063"><ele>283.0</ele><time>2026-04-24T10:30:21.154Z</time></trkpt><trkpt lat="44.1147144" lon="10.4225576"><ele>282.0</ele><time>2026-04-24T10:30:23.146Z</time></trkpt><trkpt lat="44.114733" lon="10.4227063"><ele>281.0</ele><time>2026-04-24T10:30:25.151Z</time></trkpt><trkpt lat="44.1147481" lon="10.4228572"><ele>281.2</ele><time>2026-04-24T10:30:27.157Z</time></trkpt><trkpt lat="44.114767" lon="10.4230061"><ele>281.40000000000003</ele><time>2026-04-24T10:30:29.148Z</time></trkpt><trkpt lat="44.1147839" lon="10.4231571"><ele>281.6</ele><time>2026-04-24T10:30:31.148Z</time></trkpt><trkpt lat="44.1148071" lon="10.423301"><ele>281.8</ele><time>2026-04-24T10:30:33.148Z</time></trkpt><trkpt lat="44.1148262" lon="10.4234462"><ele>282.0</ele><time>2026-04-24T10:30:35.143Z</time></trkpt><trkpt lat="44.1148436" lon="10.4235918"><ele>282.0</ele><time>2026-04-24T10:30:37.156Z</time></trkpt><trkpt lat="44.1148593" lon="10.423743"><ele>282.0</ele><time>2026-04-24T10:30:39.143Z</time></trkpt><trkpt lat="44.1148769" lon="10.4238986"><ele>282.0</ele><time>2026-04-24T10:30:41.142Z</time></trkpt><trkpt lat="44.1148941" lon="10.4240544"><ele>282.0</ele><time>2026-04-24T10:30:43.155Z</time></trkpt><trkpt lat="44.1149143" lon="10.4242176"><ele>279.75</ele><time>2026-04-24T10:30:45.151Z</time></trkpt><trkpt lat="44.1149341" lon="10.4243756"><ele>277.5</ele><time>2026-04-24T10:30:47.148Z</time></trkpt><trkpt lat="44.1149561" lon="10.4245422"><ele>275.25</ele><time>2026-04-24T10:30:49.146Z</time></trkpt><trkpt lat="44.1149762" lon="10.4247052"><ele>273.0</ele><time>2026-04-24T10:30:51.144Z</time></trkpt><trkpt lat="44.1149971" lon="10.4248691"><ele>273.0</ele><time>2026-04-24T10:30:53.136Z</time></trkpt><trkpt lat="44.1150146" lon="10.4250398"><ele>273.0</ele><time>2026-04-24T10:30:55.142Z</time></trkpt><trkpt lat="44.1150276" lon="10.4252124"><ele>273.0</ele><time>2026-04-24T10:30:57.151Z</time></trkpt><trkpt lat="44.1150283" lon="10.425386"><ele>273.0</ele><time>2026-04-24T10:30:59.163Z</time></trkpt><trkpt lat="44.1150181" lon="10.4255482"><ele>273.8333333333333</ele><time>2026-04-24T10:31:01.156Z</time></trkpt><trkpt lat="44.1150021" lon="10.4256401"><ele>274.6666666666667</ele><time>2026-04-24T10:31:02.155Z</time></trkpt><trkpt lat="44.1149879" lon="10.4257262"><ele>275.5</ele><time>2026-04-24T10:31:03.162Z</time></trkpt><trkpt lat="44.1149722" lon="10.4258145"><ele>276.33333333333337</ele><time>2026-04-24T10:31:04.142Z</time></trkpt><trkpt lat="44.114953" lon="10.4258989"><ele>277.1666666666667</ele><time>2026-04-24T10:31:05.15Z</time></trkpt><trkpt lat="44.1149069" lon="10.426062"><ele>278.0</ele><time>2026-04-24T10:31:07.134Z</time></trkpt><trkpt lat="44.114884" lon="10.4261461"><ele>283.8</ele><time>2026-04-24T10:31:08.147Z</time></trkpt><trkpt lat="44.1148368" lon="10.4263084"><ele>289.6</ele><time>2026-04-24T10:31:10.142Z</time></trkpt><trkpt lat="44.1148153" lon="10.4263926"><ele>295.4</ele><time>2026-04-24T10:31:11.14Z</time></trkpt><trkpt lat="44.114776" lon="10.4265267"><ele>301.2</ele><time>2026-04-24T10:31:13.142Z</time></trkpt><trkpt lat="44.1147465" lon="10.426698"><ele>307.0</ele><time>2026-04-24T10:31:15.146Z</time></trkpt><trkpt lat="44.1147376" lon="10.4267864"><ele>307.71428571428567</ele><time>2026-04-24T10:31:16.146Z</time></trkpt><trkpt lat="44.114727" lon="10.4268807"><ele>308.42857142857144</ele><time>2026-04-24T10:31:17.151Z</time></trkpt><trkpt lat="44.1147189" lon="10.4269738"><ele>309.1428571428571</ele><time>2026-04-24T10:31:18.152Z</time></trkpt><trkpt lat="44.1147071" lon="10.4270743"><ele>309.85714285714283</ele><time>2026-04-24T10:31:19.153Z</time></trkpt><trkpt lat="44.1146988" lon="10.427171"><ele>310.57142857142856</ele><time>2026-04-24T10:31:20.149Z</time></trkpt><trkpt lat="44.1146909" lon="10.4272679"><ele>311.2857142857143</ele><time>2026-04-24T10:31:21.145Z</time></trkpt><trkpt lat="44.1146859" lon="10.4273557"><ele>312.0</ele><time>2026-04-24T10:31:22.159Z</time></trkpt><trkpt lat="44.114674" lon="10.4274503"><ele>312.0</ele><time>2026-04-24T10:31:23.156Z</time></trkpt><trkpt lat="44.1146623" lon="10.4275416"><ele>312.0</ele><time>2026-04-24T10:31:24.147Z</time></trkpt><trkpt lat="44.1146559" lon="10.4276297"><ele>312.0</ele><time>2026-04-24T10:31:25.159Z</time></trkpt><trkpt lat="44.1146466" lon="10.4277211"><ele>312.0</ele><time>2026-04-24T10:31:26.158Z</time></trkpt><trkpt lat="44.1146348" lon="10.4278157"><ele>312.0</ele><time>2026-04-24T10:31:27.137Z</time></trkpt><trkpt lat="44.1146288" lon="10.4279077"><ele>312.0</ele><time>2026-04-24T10:31:28.144Z</time></trkpt><trkpt lat="44.1146194" lon="10.4280801"><ele>311.0</ele><time>2026-04-24T10:31:30.149Z</time></trkpt><trkpt lat="44.1146075" lon="10.4282559"><ele>310.0</ele><time>2026-04-24T10:31:32.16Z</time></trkpt><trkpt lat="44.114598" lon="10.4283496"><ele>309.0</ele><time>2026-04-24T10:31:33.142Z</time></trkpt><trkpt lat="44.1145915" lon="10.4284406"><ele>308.0</ele><time>2026-04-24T10:31:34.135Z</time></trkpt><trkpt lat="44.1145828" lon="10.4285275"><ele>307.0</ele><time>2026-04-24T10:31:35.153Z</time></trkpt><trkpt lat="44.1145771" lon="10.4286179"><ele>306.0</ele><time>2026-04-24T10:31:36.149Z</time></trkpt><trkpt lat="44.114569" lon="10.4287113"><ele>303.85714285714283</ele><time>2026-04-24T10:31:37.148Z</time></trkpt><trkpt lat="44.1145474" lon="10.4288773"><ele>301.7142857142857</ele><time>2026-04-24T10:31:39.15Z</time></trkpt><trkpt lat="44.1145336" lon="10.428966"><ele>299.57142857142856</ele><time>2026-04-24T10:31:40.151Z</time></trkpt><trkpt lat="44.1145102" lon="10.4290481"><ele>297.42857142857144</ele><time>2026-04-24T10:31:41.145Z</time></trkpt><trkpt lat="44.1144815" lon="10.4291318"><ele>295.2857142857143</ele><time>2026-04-24T10:31:42.159Z</time></trkpt><trkpt lat="44.1144486" lon="10.4292115"><ele>293.1428571428571</ele><time>2026-04-24T10:31:43.142Z</time></trkpt><trkpt lat="44.1144137" lon="10.4292878"><ele>291.0</ele><time>2026-04-24T10:31:44.148Z</time></trkpt><trkpt lat="44.1143471" lon="10.4294434"><ele>291.0</ele><time>2026-04-24T10:31:46.148Z</time></trkpt><trkpt lat="44.1143096" lon="10.4295283"><ele>291.0</ele><time>2026-04-24T10:31:47.148Z</time></trkpt><trkpt lat="44.1142786" lon="10.4296053"><ele>291.0</ele><time>2026-04-24T10:31:48.15Z</time></trkpt><trkpt lat="44.1142425" lon="10.4296885"><ele>291.0</ele><time>2026-04-24T10:31:49.157Z</time></trkpt><trkpt lat="44.1142013" lon="10.4297714"><ele>291.0</ele><time>2026-04-24T10:31:50.148Z</time></trkpt><trkpt lat="44.1141583" lon="10.429849"><ele>291.0</ele><time>2026-04-24T10:31:51.151Z</time></trkpt><trkpt lat="44.1141127" lon="10.4299311"><ele>291.0</ele><time>2026-04-24T10:31:52.149Z</time></trkpt><trkpt lat="44.1140642" lon="10.4300095"><ele>289.85714285714283</ele><time>2026-04-24T10:31:53.139Z</time></trkpt><trkpt lat="44.1140124" lon="10.4300806"><ele>288.71428571428567</ele><time>2026-04-24T10:31:54.165Z</time></trkpt><trkpt lat="44.1139564" lon="10.4301512"><ele>287.57142857142856</ele><time>2026-04-24T10:31:55.142Z</time></trkpt><trkpt lat="44.113902" lon="10.4302177"><ele>286.42857142857144</ele><time>2026-04-24T10:31:56.143Z</time></trkpt><trkpt lat="44.1138424" lon="10.430283"><ele>285.28571428571433</ele><time>2026-04-24T10:31:57.145Z</time></trkpt><trkpt lat="44.1137795" lon="10.4303379"><ele>284.14285714285717</ele><time>2026-04-24T10:31:58.141Z</time></trkpt><trkpt lat="44.1137128" lon="10.4303951"><ele>283.0</ele><time>2026-04-24T10:31:59.149Z</time></trkpt><trkpt lat="44.1136478" lon="10.4304435"><ele>281.7142857142857</ele><time>2026-04-24T10:32:00.142Z</time></trkpt><trkpt lat="44.11358" lon="10.430486"><ele>280.42857142857144</ele><time>2026-04-24T10:32:01.148Z</time></trkpt><trkpt lat="44.1135098" lon="10.4305224"><ele>279.14285714285717</ele><time>2026-04-24T10:32:02.145Z</time></trkpt><trkpt lat="44.1134427" lon="10.4305616"><ele>277.8571428571429</ele><time>2026-04-24T10:32:03.152Z</time></trkpt><trkpt lat="44.1133765" lon="10.4305967"><ele>276.57142857142856</ele><time>2026-04-24T10:32:04.146Z</time></trkpt><trkpt lat="44.1133101" lon="10.4306313"><ele>275.28571428571433</ele><time>2026-04-24T10:32:05.15Z</time></trkpt><trkpt lat="44.1132517" lon="10.4306727"><ele>274.0</ele><time>2026-04-24T10:32:06.159Z</time></trkpt><trkpt lat="44.1131506" lon="10.4307447"><ele>274.0</ele><time>2026-04-24T10:32:08.144Z</time></trkpt><trkpt lat="44.1130654" lon="10.4308073"><ele>274.0</ele><time>2026-04-24T10:32:10.157Z</time></trkpt><trkpt lat="44.1129762" lon="10.4308846"><ele>274.0</ele><time>2026-04-24T10:32:12.154Z</time></trkpt><trkpt lat="44.1128958" lon="10.4309724"><ele>274.0</ele><time>2026-04-24T10:32:14.153Z</time></trkpt><trkpt lat="44.1128237" lon="10.4310846"><ele>274.0</ele><time>2026-04-24T10:32:16.158Z</time></trkpt><trkpt lat="44.1127568" lon="10.4311905"><ele>274.0</ele><time>2026-04-24T10:32:18.143Z</time></trkpt><trkpt lat="44.1126996" lon="10.4313041"><ele>274.0</ele><time>2026-04-24T10:32:20.155Z</time></trkpt><trkpt lat="44.1126449" lon="10.4314066"><ele>274.0</ele><time>2026-04-24T10:32:22.152Z</time></trkpt><trkpt lat="44.1125948" lon="10.4314947"><ele>274.0</ele><time>2026-04-24T10:32:24.137Z</time></trkpt><trkpt lat="44.1125379" lon="10.4315903"><ele>274.0</ele><time>2026-04-24T10:32:26.159Z</time></trkpt><trkpt lat="44.112486" lon="10.4316993"><ele>272.4</ele><time>2026-04-24T10:32:28.144Z</time></trkpt><trkpt lat="44.1124291" lon="10.431812"><ele>270.79999999999995</ele><time>2026-04-24T10:32:30.151Z</time></trkpt><trkpt lat="44.1123884" lon="10.4319327"><ele>269.20000000000005</ele><time>2026-04-24T10:32:32.148Z</time></trkpt><trkpt lat="44.1123473" lon="10.4320571"><ele>267.6</ele><time>2026-04-24T10:32:34.15Z</time></trkpt><trkpt lat="44.1123072" lon="10.4321878"><ele>266.0</ele><time>2026-04-24T10:32:36.144Z</time></trkpt><trkpt lat="44.1122699" lon="10.4322987"><ele>273.2</ele><time>2026-04-24T10:32:38.149Z</time></trkpt><trkpt lat="44.11223" lon="10.4324119"><ele>280.40000000000003</ele><time>2026-04-24T10:32:40.142Z</time></trkpt><trkpt lat="44.1121945" lon="10.4325196"><ele>287.6</ele><time>2026-04-24T10:32:42.131Z</time></trkpt><trkpt lat="44.1121576" lon="10.4326388"><ele>294.8</ele><time>2026-04-24T10:32:44.142Z</time></trkpt><trkpt lat="44.1121286" lon="10.432754"><ele>302.0</ele><time>2026-04-24T10:32:46.149Z</time></trkpt><trkpt lat="44.1121015" lon="10.4328901"><ele>300.4</ele><time>2026-04-24T10:32:48.149Z</time></trkpt><trkpt lat="44.1120871" lon="10.4330228"><ele>298.79999999999995</ele><time>2026-04-24T10:32:50.15Z</time></trkpt><trkpt lat="44.1120704" lon="10.4331563"><ele>297.2</ele><time>2026-04-24T10:32:52.154Z</time></trkpt><trkpt lat="44.1120519" lon="10.4332827"><ele>295.59999999999997</ele><time>2026-04-24T10:32:54.152Z</time></trkpt><trkpt lat="44.1120386" lon="10.433419"><ele>294.0</ele><time>2026-04-24T10:32:56.147Z</time></trkpt><trkpt lat="44.1120385" lon="10.4335422"><ele>294.0</ele><time>2026-04-24T10:32:58.152Z</time></trkpt><trkpt lat="44.1120463" lon="10.4336744"><ele>294.0</ele><time>2026-04-24T10:33:00.145Z</time></trkpt><trkpt lat="44.11207" lon="10.4337876"><ele>294.0</ele><time>2026-04-24T10:33:02.151Z</time></trkpt><trkpt lat="44.1120982" lon="10.4339147"><ele>294.0</ele><time>2026-04-24T10:33:04.137Z</time></trkpt><trkpt lat="44.1121311" lon="10.4340331"><ele>294.0</ele><time>2026-04-24T10:33:06.155Z</time></trkpt><trkpt lat="44.1121789" lon="10.4341495"><ele>295.0</ele><time>2026-04-24T10:33:08.16Z</time></trkpt><trkpt lat="44.1122266" lon="10.4342586"><ele>296.0</ele><time>2026-04-24T10:33:10.15Z</time></trkpt><trkpt lat="44.1122789" lon="10.434373"><ele>297.0</ele><time>2026-04-24T10:33:12.148Z</time></trkpt><trkpt lat="44.1123401" lon="10.4344923"><ele>298.0</ele><time>2026-04-24T10:33:14.158Z</time></trkpt><trkpt lat="44.1124023" lon="10.4345836"><ele>299.0</ele><time>2026-04-24T10:33:16.146Z</time></trkpt><trkpt lat="44.1124668" lon="10.4346687"><ele>293.2</ele><time>2026-04-24T10:33:18.144Z</time></trkpt><trkpt lat="44.1125368" lon="10.4347629"><ele>287.4</ele><time>2026-04-24T10:33:20.147Z</time></trkpt><trkpt lat="44.1126057" lon="10.43484"><ele>281.6</ele><time>2026-04-24T10:33:22.139Z</time></trkpt><trkpt lat="44.1126854" lon="10.4349173"><ele>275.8</ele><time>2026-04-24T10:33:24.141Z</time></trkpt><trkpt lat="44.1127742" lon="10.4349814"><ele>270.0</ele><time>2026-04-24T10:33:26.15Z</time></trkpt><trkpt lat="44.112849" lon="10.4350495"><ele>270.0</ele><time>2026-04-24T10:33:28.139Z</time></trkpt><trkpt lat="44.1129307" lon="10.4351003"><ele>270.0</ele><time>2026-04-24T10:33:30.144Z</time></trkpt><trkpt lat="44.1130224" lon="10.4351389"><ele>270.0</ele><time>2026-04-24T10:33:32.152Z</time></trkpt><trkpt lat="44.1131117" lon="10.4351757"><ele>270.0</ele><time>2026-04-24T10:33:34.148Z</time></trkpt><trkpt lat="44.1132084" lon="10.4352029"><ele>270.0</ele><time>2026-04-24T10:33:36.146Z</time></trkpt><trkpt lat="44.1133052" lon="10.4352123"><ele>266.8</ele><time>2026-04-24T10:33:38.159Z</time></trkpt><trkpt lat="44.1133981" lon="10.4352194"><ele>263.6</ele><time>2026-04-24T10:33:40.154Z</time></trkpt><trkpt lat="44.1134995" lon="10.4352297"><ele>260.4</ele><time>2026-04-24T10:33:42.149Z</time></trkpt><trkpt lat="44.1135959" lon="10.4352324"><ele>257.2</ele><time>2026-04-24T10:33:44.161Z</time></trkpt><trkpt lat="44.1136905" lon="10.4352408"><ele>254.0</ele><time>2026-04-24T10:33:46.141Z</time></trkpt><trkpt lat="44.113791" lon="10.4352508"><ele>254.0</ele><time>2026-04-24T10:33:48.148Z</time></trkpt><trkpt lat="44.1138904" lon="10.4352603"><ele>253.99999999999997</ele><time>2026-04-24T10:33:50.154Z</time></trkpt><trkpt lat="44.1139878" lon="10.4352733"><ele>253.99999999999997</ele><time>2026-04-24T10:33:52.146Z</time></trkpt><trkpt lat="44.1140805" lon="10.4352761"><ele>254.0</ele><time>2026-04-24T10:33:54.17Z</time></trkpt><trkpt lat="44.1141746" lon="10.4352823"><ele>254.0</ele><time>2026-04-24T10:33:56.149Z</time></trkpt><trkpt lat="44.1142623" lon="10.4352873"><ele>253.2</ele><time>2026-04-24T10:33:58.133Z</time></trkpt><trkpt lat="44.1143638" lon="10.4352891"><ele>252.39999999999998</ele><time>2026-04-24T10:34:00.161Z</time></trkpt><trkpt lat="44.1144636" lon="10.4353005"><ele>251.6</ele><time>2026-04-24T10:34:02.154Z</time></trkpt><trkpt lat="44.1145617" lon="10.4353065"><ele>250.8</ele><time>2026-04-24T10:34:04.142Z</time></trkpt><trkpt lat="44.114651" lon="10.4353081"><ele>250.0</ele><time>2026-04-24T10:34:06.134Z</time></trkpt><trkpt lat="44.1147399" lon="10.4353179"><ele>250.0</ele><time>2026-04-24T10:34:08.143Z</time></trkpt><trkpt lat="44.1148288" lon="10.4353201"><ele>250.0</ele><time>2026-04-24T10:34:10.136Z</time></trkpt><trkpt lat="44.1149193" lon="10.4353347"><ele>250.0</ele><time>2026-04-24T10:34:12.143Z</time></trkpt><trkpt lat="44.1150061" lon="10.435349"><ele>250.0</ele><time>2026-04-24T10:34:14.147Z</time></trkpt><trkpt lat="44.1151011" lon="10.4353595"><ele>250.0</ele><time>2026-04-24T10:34:16.155Z</time></trkpt><trkpt lat="44.115198" lon="10.4353743"><ele>249.8</ele><time>2026-04-24T10:34:18.138Z</time></trkpt><trkpt lat="44.1153008" lon="10.4354014"><ele>249.6</ele><time>2026-04-24T10:34:20.147Z</time></trkpt><trkpt lat="44.1153981" lon="10.4354309"><ele>249.39999999999998</ele><time>2026-04-24T10:34:22.15Z</time></trkpt><trkpt lat="44.1154777" lon="10.435476"><ele>249.2</ele><time>2026-04-24T10:34:24.149Z</time></trkpt><trkpt lat="44.1155699" lon="10.4355346"><ele>249.0</ele><time>2026-04-24T10:34:26.139Z</time></trkpt><trkpt lat="44.1156573" lon="10.4356013"><ele>251.2</ele><time>2026-04-24T10:34:28.15Z</time></trkpt><trkpt lat="44.1157418" lon="10.435674"><ele>253.39999999999998</ele><time>2026-04-24T10:34:30.14Z</time></trkpt><trkpt lat="44.1158167" lon="10.4357602"><ele>255.6</ele><time>2026-04-24T10:34:32.148Z</time></trkpt><trkpt lat="44.1158911" lon="10.4358437"><ele>257.8</ele><time>2026-04-24T10:34:34.144Z</time></trkpt><trkpt lat="44.1159586" lon="10.4359373"><ele>260.0</ele><time>2026-04-24T10:34:36.149Z</time></trkpt><trkpt lat="44.116014" lon="10.436032"><ele>260.0</ele><time>2026-04-24T10:34:38.137Z</time></trkpt><trkpt lat="44.1160635" lon="10.4361324"><ele>260.0</ele><time>2026-04-24T10:34:40.154Z</time></trkpt><trkpt lat="44.1161065" lon="10.4362426"><ele>260.0</ele><time>2026-04-24T10:34:42.149Z</time></trkpt><trkpt lat="44.1161446" lon="10.436361"><ele>260.0</ele><time>2026-04-24T10:34:44.147Z</time></trkpt><trkpt lat="44.116179" lon="10.4364842"><ele>260.0</ele><time>2026-04-24T10:34:46.139Z</time></trkpt><trkpt lat="44.1162093" lon="10.4366163"><ele>261.2</ele><time>2026-04-24T10:34:48.148Z</time></trkpt><trkpt lat="44.1162281" lon="10.4367519"><ele>262.4</ele><time>2026-04-24T10:34:50.148Z</time></trkpt><trkpt lat="44.116238" lon="10.4368831"><ele>263.6</ele><time>2026-04-24T10:34:52.144Z</time></trkpt><trkpt lat="44.1162376" lon="10.4370171"><ele>264.8</ele><time>2026-04-24T10:34:54.154Z</time></trkpt><trkpt lat="44.1162339" lon="10.4371485"><ele>266.0</ele><time>2026-04-24T10:34:56.139Z</time></trkpt><trkpt lat="44.1162136" lon="10.437271"><ele>266.0</ele><time>2026-04-24T10:34:58.152Z</time></trkpt><trkpt lat="44.1161933" lon="10.4373927"><ele>266.0</ele><time>2026-04-24T10:35:00.141Z</time></trkpt><trkpt lat="44.1161734" lon="10.4375285"><ele>266.0</ele><time>2026-04-24T10:35:02.16Z</time></trkpt><trkpt lat="44.1161618" lon="10.4376554"><ele>266.0</ele><time>2026-04-24T10:35:04.16Z</time></trkpt><trkpt lat="44.116162" lon="10.437783"><ele>266.0</ele><time>2026-04-24T10:35:06.147Z</time></trkpt><trkpt lat="44.1161779" lon="10.4379167"><ele>268.2</ele><time>2026-04-24T10:35:08.149Z</time></trkpt><trkpt lat="44.116197" lon="10.438054"><ele>270.40000000000003</ele><time>2026-04-24T10:35:10.146Z</time></trkpt><trkpt lat="44.1162258" lon="10.4381786"><ele>272.6</ele><time>2026-04-24T10:35:12.156Z</time></trkpt><trkpt lat="44.1162552" lon="10.438302"><ele>274.8</ele><time>2026-04-24T10:35:14.152Z</time></trkpt><trkpt lat="44.1162851" lon="10.4384221"><ele>277.0</ele><time>2026-04-24T10:35:16.148Z</time></trkpt><trkpt lat="44.1163153" lon="10.4385486"><ele>277.0</ele><time>2026-04-24T10:35:18.166Z</time></trkpt><trkpt lat="44.1163468" lon="10.4386597"><ele>277.0</ele><time>2026-04-24T10:35:20.14Z</time></trkpt><trkpt lat="44.1163681" lon="10.4387856"><ele>277.0</ele><time>2026-04-24T10:35:22.149Z</time></trkpt><trkpt lat="44.116396" lon="10.438902"><ele>277.0</ele><time>2026-04-24T10:35:24.145Z</time></trkpt><trkpt lat="44.1164241" lon="10.4390259"><ele>277.0</ele><time>2026-04-24T10:35:26.138Z</time></trkpt><trkpt lat="44.116455" lon="10.4391583"><ele>277.2</ele><time>2026-04-24T10:35:28.14Z</time></trkpt><trkpt lat="44.1164845" lon="10.4392948"><ele>277.4</ele><time>2026-04-24T10:35:30.155Z</time></trkpt><trkpt lat="44.1165265" lon="10.4394306"><ele>277.6</ele><time>2026-04-24T10:35:32.13Z</time></trkpt><trkpt lat="44.1165805" lon="10.4395651"><ele>277.8</ele><time>2026-04-24T10:35:34.142Z</time></trkpt><trkpt lat="44.1166305" lon="10.4396968"><ele>278.0</ele><time>2026-04-24T10:35:36.14Z</time></trkpt><trkpt lat="44.1166848" lon="10.4398337"><ele>278.0</ele><time>2026-04-24T10:35:38.144Z</time></trkpt><trkpt lat="44.1167515" lon="10.4399655"><ele>278.0</ele><time>2026-04-24T10:35:40.148Z</time></trkpt><trkpt lat="44.1168176" lon="10.440098"><ele>278.0</ele><time>2026-04-24T10:35:42.159Z</time></trkpt><trkpt lat="44.1168596" lon="10.4401661"><ele>278.0</ele><time>2026-04-24T10:35:43.145Z</time></trkpt><trkpt lat="44.1169036" lon="10.4402295"><ele>278.0</ele><time>2026-04-24T10:35:44.145Z</time></trkpt><trkpt lat="44.1169961" lon="10.4403443"><ele>278.0</ele><time>2026-04-24T10:35:46.152Z</time></trkpt><trkpt lat="44.1170468" lon="10.4404021"><ele>278.0</ele><time>2026-04-24T10:35:47.137Z</time></trkpt><trkpt lat="44.117093" lon="10.4404624"><ele>278.0</ele><time>2026-04-24T10:35:48.142Z</time></trkpt><trkpt lat="44.1171462" lon="10.4405151"><ele>278.0</ele><time>2026-04-24T10:35:49.14Z</time></trkpt><trkpt lat="44.1171969" lon="10.4405689"><ele>278.0</ele><time>2026-04-24T10:35:50.142Z</time></trkpt><trkpt lat="44.1172577" lon="10.440621"><ele>278.0</ele><time>2026-04-24T10:35:51.145Z</time></trkpt><trkpt lat="44.1173095" lon="10.4406796"><ele>278.0</ele><time>2026-04-24T10:35:52.149Z</time></trkpt><trkpt lat="44.1173641" lon="10.4407322"><ele>276.0</ele><time>2026-04-24T10:35:53.144Z</time></trkpt><trkpt lat="44.1174172" lon="10.440787"><ele>274.0</ele><time>2026-04-24T10:35:54.162Z</time></trkpt><trkpt lat="44.1174682" lon="10.4408405"><ele>272.0</ele><time>2026-04-24T10:35:55.147Z</time></trkpt><trkpt lat="44.1175239" lon="10.4408922"><ele>270.0</ele><time>2026-04-24T10:35:56.15Z</time></trkpt><trkpt lat="44.1175751" lon="10.4409444"><ele>268.0</ele><time>2026-04-24T10:35:57.147Z</time></trkpt><trkpt lat="44.1176282" lon="10.4410021"><ele>266.0</ele><time>2026-04-24T10:35:58.163Z</time></trkpt><trkpt lat="44.1176804" lon="10.4410609"><ele>264.0</ele><time>2026-04-24T10:35:59.144Z</time></trkpt><trkpt lat="44.1177334" lon="10.4411248"><ele>264.0</ele><time>2026-04-24T10:36:00.153Z</time></trkpt><trkpt lat="44.1177865" lon="10.4411911"><ele>264.0</ele><time>2026-04-24T10:36:01.14Z</time></trkpt><trkpt lat="44.1178357" lon="10.4412606"><ele>264.0</ele><time>2026-04-24T10:36:02.142Z</time></trkpt><trkpt lat="44.1178811" lon="10.4413315"><ele>264.0</ele><time>2026-04-24T10:36:03.148Z</time></trkpt><trkpt lat="44.1179259" lon="10.4414033"><ele>264.0</ele><time>2026-04-24T10:36:04.148Z</time></trkpt><trkpt lat="44.1179661" lon="10.4414802"><ele>264.0</ele><time>2026-04-24T10:36:05.158Z</time></trkpt><trkpt lat="44.118003" lon="10.4415622"><ele>264.0</ele><time>2026-04-24T10:36:06.142Z</time></trkpt><trkpt lat="44.1180364" lon="10.4416523"><ele>267.57142857142856</ele><time>2026-04-24T10:36:07.145Z</time></trkpt><trkpt lat="44.1180682" lon="10.4417461"><ele>271.14285714285717</ele><time>2026-04-24T10:36:08.142Z</time></trkpt><trkpt lat="44.1180934" lon="10.4418372"><ele>274.7142857142857</ele><time>2026-04-24T10:36:09.155Z</time></trkpt><trkpt lat="44.1181149" lon="10.441931"><ele>278.2857142857143</ele><time>2026-04-24T10:36:10.143Z</time></trkpt><trkpt lat="44.1181326" lon="10.4420304"><ele>281.85714285714283</ele><time>2026-04-24T10:36:11.144Z</time></trkpt><trkpt lat="44.1181406" lon="10.4421272"><ele>285.42857142857144</ele><time>2026-04-24T10:36:12.14Z</time></trkpt><trkpt lat="44.1181441" lon="10.4422295"><ele>289.0</ele><time>2026-04-24T10:36:13.139Z</time></trkpt><trkpt lat="44.1181435" lon="10.442327"><ele>289.2857142857143</ele><time>2026-04-24T10:36:14.13Z</time></trkpt><trkpt lat="44.11814" lon="10.4424263"><ele>289.57142857142856</ele><time>2026-04-24T10:36:15.156Z</time></trkpt><trkpt lat="44.1181345" lon="10.442522"><ele>289.85714285714283</ele><time>2026-04-24T10:36:16.141Z</time></trkpt><trkpt lat="44.118124" lon="10.4426259"><ele>290.1428571428571</ele><time>2026-04-24T10:36:17.135Z</time></trkpt><trkpt lat="44.1181096" lon="10.4427222"><ele>290.4285714285714</ele><time>2026-04-24T10:36:18.13Z</time></trkpt><trkpt lat="44.1181011" lon="10.4428191"><ele>290.7142857142857</ele><time>2026-04-24T10:36:19.154Z</time></trkpt><trkpt lat="44.1180916" lon="10.4429184"><ele>291.0</ele><time>2026-04-24T10:36:20.156Z</time></trkpt><trkpt lat="44.1180816" lon="10.4430175"><ele>291.0</ele><time>2026-04-24T10:36:21.132Z</time></trkpt><trkpt lat="44.1180649" lon="10.443115"><ele>291.0</ele><time>2026-04-24T10:36:22.146Z</time></trkpt><trkpt lat="44.1180492" lon="10.4432123"><ele>291.0</ele><time>2026-04-24T10:36:23.144Z</time></trkpt><trkpt lat="44.1180316" lon="10.4433075"><ele>291.0</ele><time>2026-04-24T10:36:24.155Z</time></trkpt><trkpt lat="44.1180137" lon="10.4433974"><ele>291.0</ele><time>2026-04-24T10:36:25.156Z</time></trkpt><trkpt lat="44.1179908" lon="10.4434818"><ele>291.0</ele><time>2026-04-24T10:36:26.151Z</time></trkpt><trkpt lat="44.1179482" lon="10.4436287"><ele>291.0</ele><time>2026-04-24T10:36:28.149Z</time></trkpt><trkpt lat="44.1178984" lon="10.4437547"><ele>291.0</ele><time>2026-04-24T10:36:30.147Z</time></trkpt><trkpt lat="44.117867" lon="10.4438407"><ele>291.0</ele><time>2026-04-24T10:36:33.141Z</time></trkpt><trkpt lat="44.1178398" lon="10.4439198"><ele>291.0</ele><time>2026-04-24T10:36:45.132Z</time></trkpt><trkpt lat="44.1178821" lon="10.4440118"><ele>291.0</ele><time>2026-04-24T10:36:48.132Z</time></trkpt><trkpt lat="44.1179375" lon="10.444081"><ele>291.0</ele><time>2026-04-24T10:36:50.154Z</time></trkpt><trkpt lat="44.1180011" lon="10.4441641"><ele>285.0</ele><time>2026-04-24T10:36:52.153Z</time></trkpt><trkpt lat="44.1180645" lon="10.4442512"><ele>279.0</ele><time>2026-04-24T10:36:54.139Z</time></trkpt><trkpt lat="44.118125" lon="10.4443343"><ele>273.0</ele><time>2026-04-24T10:36:56.135Z</time></trkpt><trkpt lat="44.1181835" lon="10.4444181"><ele>267.0</ele><time>2026-04-24T10:36:58.146Z</time></trkpt><trkpt lat="44.1182431" lon="10.4445016"><ele>261.0</ele><time>2026-04-24T10:37:00.135Z</time></trkpt><trkpt lat="44.1183043" lon="10.4445867"><ele>255.0</ele><time>2026-04-24T10:37:02.142Z</time></trkpt><trkpt lat="44.1183726" lon="10.4446791"><ele>252.5</ele><time>2026-04-24T10:37:04.15Z</time></trkpt><trkpt lat="44.1184331" lon="10.4447568"><ele>250.0</ele><time>2026-04-24T10:37:06.151Z</time></trkpt><trkpt lat="44.1184956" lon="10.4448121"><ele>247.5</ele><time>2026-04-24T10:37:08.151Z</time></trkpt><trkpt lat="44.1185757" lon="10.4448735"><ele>245.0</ele><time>2026-04-24T10:37:11.145Z</time></trkpt><trkpt lat="44.1186473" lon="10.4449271"><ele>242.5</ele><time>2026-04-24T10:37:14.143Z</time></trkpt><trkpt lat="44.1187252" lon="10.4449826"><ele>240.0</ele><time>2026-04-24T10:37:17.135Z</time></trkpt><trkpt lat="44.1187913" lon="10.4450359"><ele>240.0</ele><time>2026-04-24T10:37:20.15Z</time></trkpt><trkpt lat="44.1188578" lon="10.4450932"><ele>240.0</ele><time>2026-04-24T10:37:23.144Z</time></trkpt><trkpt lat="44.1189263" lon="10.4451389"><ele>240.0</ele><time>2026-04-24T10:37:26.14Z</time></trkpt><trkpt lat="44.118988" lon="10.4451866"><ele>240.0</ele><time>2026-04-24T10:37:29.151Z</time></trkpt><trkpt lat="44.1190443" lon="10.445248"><ele>240.0</ele><time>2026-04-24T10:37:32.147Z</time></trkpt><trkpt lat="44.1190896" lon="10.4453393"><ele>240.0</ele><time>2026-04-24T10:37:35.141Z</time></trkpt><trkpt lat="44.1190946" lon="10.445457"><ele>241.83333333333334</ele><time>2026-04-24T10:37:38.129Z</time></trkpt><trkpt lat="44.1191057" lon="10.4455647"><ele>243.66666666666669</ele><time>2026-04-24T10:37:41.142Z</time></trkpt><trkpt lat="44.119062" lon="10.4456514"><ele>245.5</ele><time>2026-04-24T10:37:44.142Z</time></trkpt><trkpt lat="44.1189777" lon="10.4456777"><ele>247.33333333333334</ele><time>2026-04-24T10:37:47.141Z</time></trkpt><trkpt lat="44.1188979" lon="10.4457209"><ele>249.16666666666669</ele><time>2026-04-24T10:37:50.145Z</time></trkpt><trkpt lat="44.1188196" lon="10.4457636"><ele>251.0</ele><time>2026-04-24T10:37:53.145Z</time></trkpt><trkpt lat="44.1187438" lon="10.4457764"><ele>251.50000000000003</ele><time>2026-04-24T10:37:56.144Z</time></trkpt><trkpt lat="44.1186644" lon="10.4457763"><ele>252.0</ele><time>2026-04-24T10:37:59.072Z</time></trkpt><trkpt lat="44.1185825" lon="10.4457591"><ele>252.5</ele><time>2026-04-24T10:38:02.138Z</time></trkpt><trkpt lat="44.1185013" lon="10.445733"><ele>253.0</ele><time>2026-04-24T10:38:05.146Z</time></trkpt><trkpt lat="44.1184224" lon="10.4457009"><ele>253.50000000000003</ele><time>2026-04-24T10:38:08.145Z</time></trkpt><trkpt lat="44.1183637" lon="10.4456594"><ele>254.0</ele><time>2026-04-24T10:38:11.142Z</time></trkpt><trkpt lat="44.1182902" lon="10.4456339"><ele>252.50000000000003</ele><time>2026-04-24T10:38:14.141Z</time></trkpt><trkpt lat="44.1182122" lon="10.4456234"><ele>251.0</ele><time>2026-04-24T10:38:17.144Z</time></trkpt><trkpt lat="44.1181316" lon="10.445633"><ele>249.5</ele><time>2026-04-24T10:38:20.141Z</time></trkpt><trkpt lat="44.1180595" lon="10.445658"><ele>248.0</ele><time>2026-04-24T10:38:23.147Z</time></trkpt><trkpt lat="44.1179888" lon="10.4456833"><ele>246.50000000000003</ele><time>2026-04-24T10:38:26.134Z</time></trkpt><trkpt lat="44.1179272" lon="10.4457052"><ele>245.0</ele><time>2026-04-24T10:38:29.136Z</time></trkpt><trkpt lat="44.1178529" lon="10.4457526"><ele>245.00000000000003</ele><time>2026-04-24T10:38:32.151Z</time></trkpt><trkpt lat="44.1177866" lon="10.4458286"><ele>245.0</ele><time>2026-04-24T10:38:35.137Z</time></trkpt><trkpt lat="44.1177212" lon="10.4458966"><ele>245.0</ele><time>2026-04-24T10:38:38.136Z</time></trkpt><trkpt lat="44.117668" lon="10.4459777"><ele>245.0</ele><time>2026-04-24T10:38:41.145Z</time></trkpt><trkpt lat="44.1176191" lon="10.4460581"><ele>245.00000000000003</ele><time>2026-04-24T10:38:44.142Z</time></trkpt><trkpt lat="44.1175729" lon="10.4461476"><ele>245.0</ele><time>2026-04-24T10:38:47.14Z</time></trkpt><trkpt lat="44.1175201" lon="10.4462333"><ele>245.66666666666669</ele><time>2026-04-24T10:38:50.14Z</time></trkpt><trkpt lat="44.1174607" lon="10.4463128"><ele>246.33333333333334</ele><time>2026-04-24T10:38:53.15Z</time></trkpt><trkpt lat="44.1174087" lon="10.4463949"><ele>247.0</ele><time>2026-04-24T10:38:56.145Z</time></trkpt><trkpt lat="44.117354" lon="10.4464871"><ele>247.66666666666669</ele><time>2026-04-24T10:38:59.138Z</time></trkpt><trkpt lat="44.1173004" lon="10.4465772"><ele>248.33333333333334</ele><time>2026-04-24T10:39:02.144Z</time></trkpt><trkpt lat="44.1172405" lon="10.4466547"><ele>249.0</ele><time>2026-04-24T10:39:05.165Z</time></trkpt><trkpt lat="44.1171881" lon="10.4467493"><ele>249.0</ele><time>2026-04-24T10:39:08.147Z</time></trkpt><trkpt lat="44.1171319" lon="10.4468316"><ele>249.0</ele><time>2026-04-24T10:39:11.136Z</time></trkpt><trkpt lat="44.1170831" lon="10.4469117"><ele>249.0</ele><time>2026-04-24T10:39:14.143Z</time></trkpt><trkpt lat="44.117033" lon="10.4469948"><ele>249.0</ele><time>2026-04-24T10:39:17.13Z</time></trkpt><trkpt lat="44.11698" lon="10.4470833"><ele>249.0</ele><time>2026-04-24T10:39:20.139Z</time></trkpt><trkpt lat="44.1169279" lon="10.4471594"><ele>249.0</ele><time>2026-04-24T10:39:23.139Z</time></trkpt><trkpt lat="44.1168703" lon="10.4472416"><ele>249.66666666666666</ele><time>2026-04-24T10:39:26.139Z</time></trkpt><trkpt lat="44.1168093" lon="10.4473155"><ele>250.33333333333331</ele><time>2026-04-24T10:39:29.137Z</time></trkpt><trkpt lat="44.1167436" lon="10.4473853"><ele>251.0</ele><time>2026-04-24T10:39:32.151Z</time></trkpt><trkpt lat="44.1166749" lon="10.4474481"><ele>251.66666666666666</ele><time>2026-04-24T10:39:35.137Z</time></trkpt><trkpt lat="44.1166186" lon="10.4475101"><ele>252.33333333333331</ele><time>2026-04-24T10:39:37.75Z</time></trkpt><trkpt lat="44.1165655" lon="10.4475713"><ele>253.0</ele><time>2026-04-24T10:39:40.128Z</time></trkpt><trkpt lat="44.1165032" lon="10.447651"><ele>252.99999999999997</ele><time>2026-04-24T10:39:43.137Z</time></trkpt><trkpt lat="44.116444" lon="10.4477218"><ele>253.0</ele><time>2026-04-24T10:39:46.131Z</time></trkpt><trkpt lat="44.1163831" lon="10.4477923"><ele>253.0</ele><time>2026-04-24T10:39:49.134Z</time></trkpt><trkpt lat="44.1163212" lon="10.4478604"><ele>253.0</ele><time>2026-04-24T10:39:52.137Z</time></trkpt><trkpt lat="44.1162647" lon="10.4479436"><ele>252.99999999999997</ele><time>2026-04-24T10:39:55.133Z</time></trkpt><trkpt lat="44.1162095" lon="10.4480277"><ele>253.0</ele><time>2026-04-24T10:39:58.134Z</time></trkpt><trkpt lat="44.1161622" lon="10.4481184"><ele>255.16666666666666</ele><time>2026-04-24T10:40:01.153Z</time></trkpt><trkpt lat="44.1161179" lon="10.4482149"><ele>257.3333333333333</ele><time>2026-04-24T10:40:04.136Z</time></trkpt><trkpt lat="44.1160882" lon="10.4483155"><ele>259.5</ele><time>2026-04-24T10:40:07.131Z</time></trkpt><trkpt lat="44.1160689" lon="10.448417"><ele>261.6666666666667</ele><time>2026-04-24T10:40:10.129Z</time></trkpt><trkpt lat="44.1160579" lon="10.4485274"><ele>263.83333333333337</ele><time>2026-04-24T10:40:13.13Z</time></trkpt><trkpt lat="44.1160469" lon="10.4486373"><ele>266.0</ele><time>2026-04-24T10:40:16.149Z</time></trkpt><trkpt lat="44.1160332" lon="10.4487415"><ele>268.1666666666667</ele><time>2026-04-24T10:40:19.144Z</time></trkpt><trkpt lat="44.1160151" lon="10.4488621"><ele>270.33333333333337</ele><time>2026-04-24T10:40:22.156Z</time></trkpt><trkpt lat="44.1160046" lon="10.4489547"><ele>272.5</ele><time>2026-04-24T10:40:25.152Z</time></trkpt><trkpt lat="44.115987" lon="10.4490593"><ele>274.6666666666667</ele><time>2026-04-24T10:40:28.142Z</time></trkpt><trkpt lat="44.1159693" lon="10.4491691"><ele>276.8333333333333</ele><time>2026-04-24T10:40:31.131Z</time></trkpt><trkpt lat="44.1159432" lon="10.4492732"><ele>279.0</ele><time>2026-04-24T10:40:34.146Z</time></trkpt><trkpt lat="44.1159225" lon="10.4493834"><ele>279.0</ele><time>2026-04-24T10:40:37.129Z</time></trkpt><trkpt lat="44.1158925" lon="10.4494907"><ele>279.0</ele><time>2026-04-24T10:40:40.142Z</time></trkpt><trkpt lat="44.11587" lon="10.4495995"><ele>279.0</ele><time>2026-04-24T10:40:43.133Z</time></trkpt><trkpt lat="44.1158463" lon="10.4497046"><ele>279.0</ele><time>2026-04-24T10:40:46.093Z</time></trkpt><trkpt lat="44.1158383" lon="10.4498111"><ele>279.0</ele><time>2026-04-24T10:40:49.132Z</time></trkpt><trkpt lat="44.1158331" lon="10.4499211"><ele>279.0</ele><time>2026-04-24T10:40:52.142Z</time></trkpt><trkpt lat="44.1158578" lon="10.4500295"><ele>280.5</ele><time>2026-04-24T10:40:55.088Z</time></trkpt><trkpt lat="44.1159062" lon="10.4501164"><ele>282.0</ele><time>2026-04-24T10:40:58.134Z</time></trkpt><trkpt lat="44.1159605" lon="10.4502039"><ele>283.5</ele><time>2026-04-24T10:41:01.131Z</time></trkpt><trkpt lat="44.1160085" lon="10.4502962"><ele>285.0</ele><time>2026-04-24T10:41:04.168Z</time></trkpt><trkpt lat="44.116037" lon="10.4503918"><ele>286.5</ele><time>2026-04-24T10:41:07.134Z</time></trkpt><trkpt lat="44.1159826" lon="10.4504856"><ele>288.0</ele><time>2026-04-24T10:41:10.14Z</time></trkpt><trkpt lat="44.1159166" lon="10.4504994"><ele>288.8333333333333</ele><time>2026-04-24T10:41:12.138Z</time></trkpt><trkpt lat="44.1158253" lon="10.4505077"><ele>289.6666666666667</ele><time>2026-04-24T10:41:15.132Z</time></trkpt><trkpt lat="44.1157448" lon="10.4505256"><ele>290.5</ele><time>2026-04-24T10:41:18.135Z</time></trkpt><trkpt lat="44.1156681" lon="10.4505701"><ele>291.33333333333337</ele><time>2026-04-24T10:41:21.133Z</time></trkpt><trkpt lat="44.1156159" lon="10.4506232"><ele>292.1666666666667</ele><time>2026-04-24T10:41:23.131Z</time></trkpt><trkpt lat="44.1155682" lon="10.4507118"><ele>293.0</ele><time>2026-04-24T10:41:26.153Z</time></trkpt><trkpt lat="44.115548" lon="10.4508369"><ele>294.1666666666667</ele><time>2026-04-24T10:41:29.131Z</time></trkpt><trkpt lat="44.1155625" lon="10.4509235"><ele>295.33333333333337</ele><time>2026-04-24T10:41:31.138Z</time></trkpt><trkpt lat="44.1155967" lon="10.4509977"><ele>296.5</ele><time>2026-04-24T10:41:33.13Z</time></trkpt><trkpt lat="44.1156545" lon="10.4510985"><ele>297.6666666666667</ele><time>2026-04-24T10:41:36.143Z</time></trkpt><trkpt lat="44.1157068" lon="10.4512057"><ele>298.8333333333333</ele><time>2026-04-24T10:41:39.148Z</time></trkpt><trkpt lat="44.1157592" lon="10.4513135"><ele>300.0</ele><time>2026-04-24T10:41:42.134Z</time></trkpt><trkpt lat="44.1157875" lon="10.4513935"><ele>300.0</ele><time>2026-04-24T10:41:44.143Z</time></trkpt><trkpt lat="44.1158266" lon="10.4515023"><ele>300.0</ele><time>2026-04-24T10:41:47.143Z</time></trkpt><trkpt lat="44.1158473" lon="10.4516226"><ele>300.0</ele><time>2026-04-24T10:41:50.135Z</time></trkpt><trkpt lat="44.115883" lon="10.4517329"><ele>300.0</ele><time>2026-04-24T10:41:53.145Z</time></trkpt><trkpt lat="44.1159093" lon="10.4518478"><ele>300.0</ele><time>2026-04-24T10:41:56.147Z</time></trkpt><trkpt lat="44.115939" lon="10.4519655"><ele>300.0</ele><time>2026-04-24T10:41:59.137Z</time></trkpt><trkpt lat="44.1159639" lon="10.4520463"><ele>300.3333333333333</ele><time>2026-04-24T10:42:01.142Z</time></trkpt><trkpt lat="44.1160013" lon="10.4521318"><ele>300.6666666666667</ele><time>2026-04-24T10:42:03.136Z</time></trkpt><trkpt lat="44.116062" lon="10.4522172"><ele>301.0</ele><time>2026-04-24T10:42:06.142Z</time></trkpt><trkpt lat="44.1161269" lon="10.4523097"><ele>301.33333333333337</ele><time>2026-04-24T10:42:09.132Z</time></trkpt><trkpt lat="44.1161713" lon="10.4524183"><ele>301.6666666666667</ele><time>2026-04-24T10:42:12.126Z</time></trkpt><trkpt lat="44.1161988" lon="10.452532"><ele>302.0</ele><time>2026-04-24T10:42:15.135Z</time></trkpt><trkpt lat="44.1162341" lon="10.4526411"><ele>302.0</ele><time>2026-04-24T10:42:18.135Z</time></trkpt><trkpt lat="44.1162507" lon="10.452751"><ele>302.0</ele><time>2026-04-24T10:42:21.139Z</time></trkpt><trkpt lat="44.1162245" lon="10.4528696"><ele>302.0</ele><time>2026-04-24T10:42:24.13Z</time></trkpt><trkpt lat="44.1161449" lon="10.4528982"><ele>302.0</ele><time>2026-04-24T10:42:27.137Z</time></trkpt><trkpt lat="44.1160812" lon="10.4528106"><ele>302.0</ele><time>2026-04-24T10:42:30.166Z</time></trkpt><trkpt lat="44.1160248" lon="10.4527445"><ele>302.0</ele><time>2026-04-24T10:42:33.129Z</time></trkpt><trkpt lat="44.1159567" lon="10.4526983"><ele>302.0</ele><time>2026-04-24T10:42:36.135Z</time></trkpt><trkpt lat="44.11588" lon="10.452674"><ele>302.0</ele><time>2026-04-24T10:42:39.147Z</time></trkpt><trkpt lat="44.1158052" lon="10.4526404"><ele>302.0</ele><time>2026-04-24T10:42:42.134Z</time></trkpt><trkpt lat="44.1157322" lon="10.4525997"><ele>302.0</ele><time>2026-04-24T10:42:45.139Z</time></trkpt><trkpt lat="44.1156642" lon="10.4525395"><ele>302.0</ele><time>2026-04-24T10:42:48.147Z</time></trkpt><trkpt lat="44.1155896" lon="10.4524872"><ele>302.0</ele><time>2026-04-24T10:42:51.144Z</time></trkpt><trkpt lat="44.1155116" lon="10.4524621"><ele>302.33333333333337</ele><time>2026-04-24T10:42:54.157Z</time></trkpt><trkpt lat="44.11543" lon="10.4524762"><ele>302.6666666666667</ele><time>2026-04-24T10:42:57.146Z</time></trkpt><trkpt lat="44.1153509" lon="10.452507"><ele>303.0</ele><time>2026-04-24T10:43:00.141Z</time></trkpt><trkpt lat="44.1152724" lon="10.4525331"><ele>303.3333333333333</ele><time>2026-04-24T10:43:03.139Z</time></trkpt><trkpt lat="44.1151911" lon="10.4525526"><ele>303.66666666666663</ele><time>2026-04-24T10:43:06.14Z</time></trkpt><trkpt lat="44.115113" lon="10.4525753"><ele>304.0</ele><time>2026-04-24T10:43:09.141Z</time></trkpt><trkpt lat="44.1150327" lon="10.4525821"><ele>304.0</ele><time>2026-04-24T10:43:12.146Z</time></trkpt><trkpt lat="44.1149555" lon="10.4526134"><ele>304.0</ele><time>2026-04-24T10:43:15.142Z</time></trkpt><trkpt lat="44.1148841" lon="10.4526627"><ele>304.0</ele><time>2026-04-24T10:43:18.147Z</time></trkpt><trkpt lat="44.1148119" lon="10.4527066"><ele>304.0</ele><time>2026-04-24T10:43:21.129Z</time></trkpt><trkpt lat="44.1147417" lon="10.4527508"><ele>304.0</ele><time>2026-04-24T10:43:24.137Z</time></trkpt><trkpt lat="44.1146715" lon="10.4528073"><ele>304.0</ele><time>2026-04-24T10:43:27.149Z</time></trkpt><trkpt lat="44.1146025" lon="10.4528554"><ele>306.16666666666663</ele><time>2026-04-24T10:43:30.154Z</time></trkpt><trkpt lat="44.1145301" lon="10.4529033"><ele>308.3333333333333</ele><time>2026-04-24T10:43:33.142Z</time></trkpt><trkpt lat="44.1144579" lon="10.452949"><ele>310.5</ele><time>2026-04-24T10:43:36.143Z</time></trkpt><trkpt lat="44.1143845" lon="10.4529849"><ele>312.6666666666667</ele><time>2026-04-24T10:43:39.137Z</time></trkpt><trkpt lat="44.1143071" lon="10.4530067"><ele>314.83333333333337</ele><time>2026-04-24T10:43:42.138Z</time></trkpt><trkpt lat="44.1142239" lon="10.4530351"><ele>317.0</ele><time>2026-04-24T10:43:45.134Z</time></trkpt><trkpt lat="44.1141553" lon="10.4530634"><ele>317.0</ele><time>2026-04-24T10:43:48.147Z</time></trkpt><trkpt lat="44.1140936" lon="10.4531349"><ele>317.0</ele><time>2026-04-24T10:43:51.15Z</time></trkpt><trkpt lat="44.1140443" lon="10.4532225"><ele>317.0</ele><time>2026-04-24T10:43:54.143Z</time></trkpt><trkpt lat="44.1139969" lon="10.4533086"><ele>317.0</ele><time>2026-04-24T10:43:57.133Z</time></trkpt><trkpt lat="44.1139447" lon="10.4533997"><ele>317.0</ele><time>2026-04-24T10:44:00.141Z</time></trkpt><trkpt lat="44.1139122" lon="10.4535014"><ele>317.0</ele><time>2026-04-24T10:44:03.131Z</time></trkpt><trkpt lat="44.1139231" lon="10.4536035"><ele>320.0</ele><time>2026-04-24T10:44:06.153Z</time></trkpt><trkpt lat="44.113942" lon="10.453702"><ele>323.0</ele><time>2026-04-24T10:44:09.14Z</time></trkpt><trkpt lat="44.1139527" lon="10.4538012"><ele>326.0</ele><time>2026-04-24T10:44:12.16Z</time></trkpt><trkpt lat="44.1139486" lon="10.4539012"><ele>329.0</ele><time>2026-04-24T10:44:15.141Z</time></trkpt><trkpt lat="44.1138927" lon="10.4539851"><ele>332.0</ele><time>2026-04-24T10:44:18.147Z</time></trkpt><trkpt lat="44.1138055" lon="10.4539968"><ele>335.0</ele><time>2026-04-24T10:44:21.13Z</time></trkpt><trkpt lat="44.1137205" lon="10.4539773"><ele>334.99999999999994</ele><time>2026-04-24T10:44:24.131Z</time></trkpt><trkpt lat="44.1136429" lon="10.4539712"><ele>335.0</ele><time>2026-04-24T10:44:27.149Z</time></trkpt><trkpt lat="44.1135687" lon="10.4539715"><ele>335.0</ele><time>2026-04-24T10:44:30.11Z</time></trkpt><trkpt lat="44.1134954" lon="10.4539616"><ele>335.0</ele><time>2026-04-24T10:44:33.134Z</time></trkpt><trkpt lat="44.1134171" lon="10.4539546"><ele>335.0</ele><time>2026-04-24T10:44:36.136Z</time></trkpt><trkpt lat="44.1133429" lon="10.453955"><ele>334.99999999999994</ele><time>2026-04-24T10:44:39.139Z</time></trkpt><trkpt lat="44.1132797" lon="10.4539965"><ele>335.0</ele><time>2026-04-24T10:44:42.14Z</time></trkpt><trkpt lat="44.1132175" lon="10.4540616"><ele>331.33333333333337</ele><time>2026-04-24T10:44:45.139Z</time></trkpt><trkpt lat="44.1131518" lon="10.4541344"><ele>327.6666666666667</ele><time>2026-04-24T10:44:48.14Z</time></trkpt><trkpt lat="44.1130867" lon="10.4542045"><ele>324.0</ele><time>2026-04-24T10:44:51.15Z</time></trkpt><trkpt lat="44.1130111" lon="10.4542552"><ele>320.3333333333333</ele><time>2026-04-24T10:44:54.157Z</time></trkpt><trkpt lat="44.1129247" lon="10.4542594"><ele>316.66666666666663</ele><time>2026-04-24T10:44:57.146Z</time></trkpt><trkpt lat="44.1128542" lon="10.454212"><ele>313.0</ele><time>2026-04-24T10:45:00.137Z</time></trkpt><trkpt lat="44.1127828" lon="10.4542011"><ele>313.0</ele><time>2026-04-24T10:45:03.166Z</time></trkpt><trkpt lat="44.1127614" lon="10.454309"><ele>313.0</ele><time>2026-04-24T10:45:06.152Z</time></trkpt><trkpt lat="44.1128339" lon="10.4543669"><ele>313.0</ele><time>2026-04-24T10:45:08.15Z</time></trkpt><trkpt lat="44.1129071" lon="10.4543941"><ele>313.0</ele><time>2026-04-24T10:45:11.155Z</time></trkpt><trkpt lat="44.1129896" lon="10.4543922"><ele>313.0</ele><time>2026-04-24T10:45:14.134Z</time></trkpt><trkpt lat="44.113064" lon="10.4544519"><ele>313.0</ele><time>2026-04-24T10:45:17.089Z</time></trkpt><trkpt lat="44.1131432" lon="10.4544372"><ele>313.0</ele><time>2026-04-24T10:45:20.144Z</time></trkpt><trkpt lat="44.1131921" lon="10.4543814"><ele>313.0</ele><time>2026-04-24T10:45:22.146Z</time></trkpt><trkpt lat="44.1132499" lon="10.4543256"><ele>313.0</ele><time>2026-04-24T10:45:25.144Z</time></trkpt><trkpt lat="44.1133051" lon="10.4542643"><ele>313.0</ele><time>2026-04-24T10:45:28.131Z</time></trkpt><trkpt lat="44.1133743" lon="10.4542273"><ele>313.0</ele><time>2026-04-24T10:45:31.143Z</time></trkpt><trkpt lat="44.1134534" lon="10.4542317"><ele>313.0</ele><time>2026-04-24T10:45:34.143Z</time></trkpt><trkpt lat="44.1135246" lon="10.4542565"><ele>313.0</ele><time>2026-04-24T10:45:37.144Z</time></trkpt><trkpt lat="44.1135956" lon="10.4542827"><ele>316.1428571428571</ele><time>2026-04-24T10:45:40.149Z</time></trkpt><trkpt lat="44.1136706" lon="10.454309"><ele>319.2857142857143</ele><time>2026-04-24T10:45:43.141Z</time></trkpt><trkpt lat="44.1137532" lon="10.4543135"><ele>322.42857142857144</ele><time>2026-04-24T10:45:46.143Z</time></trkpt><trkpt lat="44.1138312" lon="10.4543262"><ele>325.57142857142856</ele><time>2026-04-24T10:45:49.141Z</time></trkpt><trkpt lat="44.1138644" lon="10.4544048"><ele>328.7142857142857</ele><time>2026-04-24T10:45:52.147Z</time></trkpt><trkpt lat="44.1138038" lon="10.4544515"><ele>331.85714285714283</ele><time>2026-04-24T10:45:54.134Z</time></trkpt><trkpt lat="44.1137394" lon="10.4544216"><ele>335.0</ele><time>2026-04-24T10:45:56.089Z</time></trkpt><trkpt lat="44.1136806" lon="10.4543737"><ele>334.99999999999994</ele><time>2026-04-24T10:45:58.141Z</time></trkpt><trkpt lat="44.1136048" lon="10.4543466"><ele>335.0</ele><time>2026-04-24T10:46:01.136Z</time></trkpt><trkpt lat="44.1135298" lon="10.4543408"><ele>335.0</ele><time>2026-04-24T10:46:04.148Z</time></trkpt><trkpt lat="44.1134574" lon="10.4543658"><ele>335.0</ele><time>2026-04-24T10:46:07.144Z</time></trkpt><trkpt lat="44.1133914" lon="10.4544019"><ele>335.0</ele><time>2026-04-24T10:46:10.139Z</time></trkpt><trkpt lat="44.1133251" lon="10.4544391"><ele>334.99999999999994</ele><time>2026-04-24T10:46:13.142Z</time></trkpt><trkpt lat="44.1132547" lon="10.4544877"><ele>335.0</ele><time>2026-04-24T10:46:16.127Z</time></trkpt><trkpt lat="44.1131759" lon="10.4545292"><ele>335.33333333333337</ele><time>2026-04-24T10:46:19.145Z</time></trkpt><trkpt lat="44.1130944" lon="10.4545642"><ele>335.6666666666667</ele><time>2026-04-24T10:46:22.138Z</time></trkpt><trkpt lat="44.1130234" lon="10.4546146"><ele>336.0</ele><time>2026-04-24T10:46:25.132Z</time></trkpt><trkpt lat="44.1129438" lon="10.4546481"><ele>336.3333333333333</ele><time>2026-04-24T10:46:28.144Z</time></trkpt><trkpt lat="44.1128766" lon="10.4547075"><ele>336.66666666666663</ele><time>2026-04-24T10:46:31.135Z</time></trkpt><trkpt lat="44.1128081" lon="10.454762"><ele>337.0</ele><time>2026-04-24T10:46:34.154Z</time></trkpt><trkpt lat="44.1127394" lon="10.4548085"><ele>337.0</ele><time>2026-04-24T10:46:37.141Z</time></trkpt><trkpt lat="44.1126706" lon="10.4548511"><ele>337.0</ele><time>2026-04-24T10:46:40.151Z</time></trkpt><trkpt lat="44.1126032" lon="10.4549092"><ele>337.0</ele><time>2026-04-24T10:46:43.15Z</time></trkpt><trkpt lat="44.1125489" lon="10.4549896"><ele>337.0</ele><time>2026-04-24T10:46:46.135Z</time></trkpt><trkpt lat="44.1125265" lon="10.4550965"><ele>337.0</ele><time>2026-04-24T10:46:49.144Z</time></trkpt><trkpt lat="44.112556" lon="10.4552092"><ele>337.0</ele><time>2026-04-24T10:46:52.146Z</time></trkpt><trkpt lat="44.1126313" lon="10.4552675"><ele>337.0</ele><time>2026-04-24T10:46:55.134Z</time></trkpt><trkpt lat="44.1127039" lon="10.455292"><ele>337.0</ele><time>2026-04-24T10:46:58.135Z</time></trkpt><trkpt lat="44.1127833" lon="10.4553192"><ele>337.0</ele><time>2026-04-24T10:47:01.15Z</time></trkpt><trkpt lat="44.1128571" lon="10.4553387"><ele>337.0</ele><time>2026-04-24T10:47:04.135Z</time></trkpt><trkpt lat="44.1129272" lon="10.4553931"><ele>337.0</ele><time>2026-04-24T10:47:07.143Z</time></trkpt><trkpt lat="44.112999" lon="10.4554388"><ele>337.0</ele><time>2026-04-24T10:47:10.072Z</time></trkpt><trkpt lat="44.1130702" lon="10.4554993"><ele>338.28571428571433</ele><time>2026-04-24T10:47:13.136Z</time></trkpt><trkpt lat="44.1131279" lon="10.4555699"><ele>339.57142857142856</ele><time>2026-04-24T10:47:16.139Z</time></trkpt><trkpt lat="44.1131763" lon="10.4556505"><ele>340.8571428571429</ele><time>2026-04-24T10:47:19.144Z</time></trkpt><trkpt lat="44.1132157" lon="10.4557427"><ele>342.14285714285717</ele><time>2026-04-24T10:47:22.097Z</time></trkpt><trkpt lat="44.1132613" lon="10.455829"><ele>343.42857142857144</ele><time>2026-04-24T10:47:25.143Z</time></trkpt><trkpt lat="44.1133019" lon="10.4559036"><ele>344.7142857142857</ele><time>2026-04-24T10:47:28.149Z</time></trkpt><trkpt lat="44.1133445" lon="10.4559776"><ele>346.0</ele><time>2026-04-24T10:47:31.146Z</time></trkpt><trkpt lat="44.1133921" lon="10.4560574"><ele>348.0</ele><time>2026-04-24T10:47:35.139Z</time></trkpt><trkpt lat="44.113437" lon="10.4561328"><ele>350.0</ele><time>2026-04-24T10:47:42.15Z</time></trkpt><trkpt lat="44.1134958" lon="10.4561799"><ele>352.0</ele><time>2026-04-24T10:47:52.135Z</time></trkpt><trkpt lat="44.1135513" lon="10.4562508"><ele>354.0</ele><time>2026-04-24T10:47:57.138Z</time></trkpt><trkpt lat="44.1135907" lon="10.4563229"><ele>356.0</ele><time>2026-04-24T10:48:00.141Z</time></trkpt><trkpt lat="44.1136312" lon="10.4563998"><ele>358.0</ele><time>2026-04-24T10:48:03.154Z</time></trkpt><trkpt lat="44.1136621" lon="10.4564858"><ele>360.0</ele><time>2026-04-24T10:48:06.134Z</time></trkpt><trkpt lat="44.1136783" lon="10.4565835"><ele>360.57142857142856</ele><time>2026-04-24T10:48:09.145Z</time></trkpt><trkpt lat="44.1136544" lon="10.4566783"><ele>361.14285714285717</ele><time>2026-04-24T10:48:12.142Z</time></trkpt><trkpt lat="44.1135922" lon="10.4567245"><ele>361.7142857142857</ele><time>2026-04-24T10:48:15.136Z</time></trkpt><trkpt lat="44.1135219" lon="10.4567426"><ele>362.2857142857143</ele><time>2026-04-24T10:48:18.143Z</time></trkpt><trkpt lat="44.1134449" lon="10.4567537"><ele>362.8571428571429</ele><time>2026-04-24T10:48:21.134Z</time></trkpt><trkpt lat="44.1133673" lon="10.4567887"><ele>363.42857142857144</ele><time>2026-04-24T10:48:24.139Z</time></trkpt><trkpt lat="44.1132981" lon="10.4568042"><ele>364.0</ele><time>2026-04-24T10:48:27.134Z</time></trkpt><trkpt lat="44.1132151" lon="10.4568326"><ele>364.0</ele><time>2026-04-24T10:48:31.133Z</time></trkpt><trkpt lat="44.1131355" lon="10.4568581"><ele>364.0</ele><time>2026-04-24T10:48:35.142Z</time></trkpt><trkpt lat="44.1130667" lon="10.4568718"><ele>364.0</ele><time>2026-04-24T10:48:38.144Z</time></trkpt><trkpt lat="44.1129847" lon="10.4568724"><ele>364.0</ele><time>2026-04-24T10:48:42.141Z</time></trkpt><trkpt lat="44.112909" lon="10.4568621"><ele>364.0</ele><time>2026-04-24T10:48:46.137Z</time></trkpt><trkpt lat="44.1128457" lon="10.4568595"><ele>364.0</ele><time>2026-04-24T10:48:49.144Z</time></trkpt><trkpt lat="44.1127794" lon="10.4568338"><ele>364.0</ele><time>2026-04-24T10:48:52.158Z</time></trkpt><trkpt lat="44.1127074" lon="10.4568181"><ele>364.0</ele><time>2026-04-24T10:48:55.135Z</time></trkpt><trkpt lat="44.112638" lon="10.4567903"><ele>364.0</ele><time>2026-04-24T10:48:58.136Z</time></trkpt><trkpt lat="44.1125736" lon="10.4567682"><ele>364.0</ele><time>2026-04-24T10:49:01.14Z</time></trkpt><trkpt lat="44.1125085" lon="10.4567604"><ele>364.0</ele><time>2026-04-24T10:49:04.14Z</time></trkpt><trkpt lat="44.1124304" lon="10.456746"><ele>364.0</ele><time>2026-04-24T10:49:07.141Z</time></trkpt><trkpt lat="44.112335" lon="10.4567626"><ele>364.0</ele><time>2026-04-24T10:49:10.158Z</time></trkpt><trkpt lat="44.1122599" lon="10.4567978"><ele>365.6</ele><time>2026-04-24T10:49:12.144Z</time></trkpt><trkpt lat="44.1121731" lon="10.4568597"><ele>367.2</ele><time>2026-04-24T10:49:14.141Z</time></trkpt><trkpt lat="44.1120873" lon="10.4569495"><ele>368.8</ele><time>2026-04-24T10:49:16.135Z</time></trkpt><trkpt lat="44.1120002" lon="10.4570413"><ele>370.40000000000003</ele><time>2026-04-24T10:49:18.15Z</time></trkpt><trkpt lat="44.1118942" lon="10.4571269"><ele>372.0</ele><time>2026-04-24T10:49:20.143Z</time></trkpt><trkpt lat="44.1118361" lon="10.4571645"><ele>372.0</ele><time>2026-04-24T10:49:21.134Z</time></trkpt><trkpt lat="44.111772" lon="10.4571693"><ele>372.0</ele><time>2026-04-24T10:49:22.14Z</time></trkpt><trkpt lat="44.1116593" lon="10.4572059"><ele>372.0</ele><time>2026-04-24T10:49:24.137Z</time></trkpt><trkpt lat="44.1115596" lon="10.4572875"><ele>372.0</ele><time>2026-04-24T10:49:26.137Z</time></trkpt><trkpt lat="44.1114466" lon="10.4573616"><ele>372.0</ele><time>2026-04-24T10:49:28.132Z</time></trkpt><trkpt lat="44.1113373" lon="10.4574489"><ele>371.00000000000006</ele><time>2026-04-24T10:49:30.149Z</time></trkpt><trkpt lat="44.1112764" lon="10.4574862"><ele>370.0</ele><time>2026-04-24T10:49:31.132Z</time></trkpt><trkpt lat="44.1112214" lon="10.4575304"><ele>369.0</ele><time>2026-04-24T10:49:32.137Z</time></trkpt><trkpt lat="44.1111643" lon="10.457581"><ele>368.0</ele><time>2026-04-24T10:49:33.139Z</time></trkpt><trkpt lat="44.1110999" lon="10.4576023"><ele>367.0</ele><time>2026-04-24T10:49:34.128Z</time></trkpt><trkpt lat="44.1110314" lon="10.4576037"><ele>366.00000000000006</ele><time>2026-04-24T10:49:35.133Z</time></trkpt><trkpt lat="44.1109671" lon="10.4575694"><ele>365.0</ele><time>2026-04-24T10:49:36.134Z</time></trkpt><trkpt lat="44.1109073" lon="10.4575215"><ele>365.0</ele><time>2026-04-24T10:49:37.145Z</time></trkpt><trkpt lat="44.1108484" lon="10.4574562"><ele>365.0</ele><time>2026-04-24T10:49:38.14Z</time></trkpt><trkpt lat="44.1107889" lon="10.4573881"><ele>365.0</ele><time>2026-04-24T10:49:39.146Z</time></trkpt><trkpt lat="44.1107277" lon="10.4573157"><ele>365.0</ele><time>2026-04-24T10:49:40.143Z</time></trkpt><trkpt lat="44.1106558" lon="10.4572485"><ele>365.0</ele><time>2026-04-24T10:49:41.154Z</time></trkpt><trkpt lat="44.1105843" lon="10.4571698"><ele>365.0</ele><time>2026-04-24T10:49:42.143Z</time></trkpt><trkpt lat="44.1105171" lon="10.4570806"><ele>359.8</ele><time>2026-04-24T10:49:43.133Z</time></trkpt><trkpt lat="44.1104585" lon="10.4569812"><ele>354.6</ele><time>2026-04-24T10:49:44.146Z</time></trkpt><trkpt lat="44.1104124" lon="10.4568707"><ele>349.4</ele><time>2026-04-24T10:49:45.144Z</time></trkpt><trkpt lat="44.110368" lon="10.456753"><ele>344.2</ele><time>2026-04-24T10:49:46.134Z</time></trkpt><trkpt lat="44.1103191" lon="10.4566475"><ele>339.0</ele><time>2026-04-24T10:49:47.139Z</time></trkpt><trkpt lat="44.1102742" lon="10.4565405"><ele>339.0</ele><time>2026-04-24T10:49:48.129Z</time></trkpt><trkpt lat="44.1102303" lon="10.4564359"><ele>339.0</ele><time>2026-04-24T10:49:49.146Z</time></trkpt><trkpt lat="44.1101836" lon="10.4563349"><ele>339.0</ele><time>2026-04-24T10:49:50.129Z</time></trkpt><trkpt lat="44.1101267" lon="10.456248"><ele>339.0</ele><time>2026-04-24T10:49:51.145Z</time></trkpt><trkpt lat="44.1100569" lon="10.456193"><ele>339.0</ele><time>2026-04-24T10:49:52.144Z</time></trkpt><trkpt lat="44.1099885" lon="10.4561779"><ele>339.0</ele><time>2026-04-24T10:49:53.137Z</time></trkpt><trkpt lat="44.1098938" lon="10.4562636"><ele>339.0</ele><time>2026-04-24T10:49:55.14Z</time></trkpt><trkpt lat="44.1098721" lon="10.4563473"><ele>339.0</ele><time>2026-04-24T10:49:56.137Z</time></trkpt><trkpt lat="44.1098749" lon="10.456437"><ele>339.0</ele><time>2026-04-24T10:49:57.148Z</time></trkpt><trkpt lat="44.1099037" lon="10.4565211"><ele>339.0</ele><time>2026-04-24T10:49:58.145Z</time></trkpt><trkpt lat="44.1099438" lon="10.456601"><ele>339.0</ele><time>2026-04-24T10:49:59.142Z</time></trkpt><trkpt lat="44.1099882" lon="10.4566888"><ele>339.0</ele><time>2026-04-24T10:50:00.147Z</time></trkpt><trkpt lat="44.1100344" lon="10.4567816"><ele>339.0</ele><time>2026-04-24T10:50:01.14Z</time></trkpt><trkpt lat="44.110074" lon="10.4568823"><ele>339.0</ele><time>2026-04-24T10:50:02.145Z</time></trkpt><trkpt lat="44.1101011" lon="10.4569966"><ele>339.0</ele><time>2026-04-24T10:50:03.14Z</time></trkpt><trkpt lat="44.1101075" lon="10.4571303"><ele>339.0</ele><time>2026-04-24T10:50:04.138Z</time></trkpt><trkpt lat="44.1100962" lon="10.4572633"><ele>339.0</ele><time>2026-04-24T10:50:05.143Z</time></trkpt><trkpt lat="44.1100739" lon="10.457406"><ele>339.0</ele><time>2026-04-24T10:50:06.148Z</time></trkpt><trkpt lat="44.1100529" lon="10.4575528"><ele>339.4</ele><time>2026-04-24T10:50:07.141Z</time></trkpt><trkpt lat="44.1100306" lon="10.4577029"><ele>339.79999999999995</ele><time>2026-04-24T10:50:08.141Z</time></trkpt><trkpt lat="44.1100118" lon="10.4578574"><ele>340.20000000000005</ele><time>2026-04-24T10:50:09.134Z</time></trkpt><trkpt lat="44.1100064" lon="10.4580076"><ele>340.6</ele><time>2026-04-24T10:50:10.137Z</time></trkpt><trkpt lat="44.1099965" lon="10.4581686"><ele>341.0</ele><time>2026-04-24T10:50:11.141Z</time></trkpt><trkpt lat="44.1099692" lon="10.4583488"><ele>341.25</ele><time>2026-04-24T10:50:12.14Z</time></trkpt><trkpt lat="44.1099316" lon="10.4585115"><ele>341.5</ele><time>2026-04-24T10:50:13.146Z</time></trkpt><trkpt lat="44.1098895" lon="10.4586835"><ele>341.75</ele><time>2026-04-24T10:50:14.144Z</time></trkpt><trkpt lat="44.1098467" lon="10.4588539"><ele>342.0</ele><time>2026-04-24T10:50:15.148Z</time></trkpt><trkpt lat="44.1098069" lon="10.4590283"><ele>342.0</ele><time>2026-04-24T10:50:16.142Z</time></trkpt><trkpt lat="44.1097644" lon="10.4592036"><ele>342.0</ele><time>2026-04-24T10:50:17.142Z</time></trkpt><trkpt lat="44.1097285" lon="10.4593548"><ele>342.0</ele><time>2026-04-24T10:50:18.146Z</time></trkpt><trkpt lat="44.1097022" lon="10.459494"><ele>342.0</ele><time>2026-04-24T10:50:19.141Z</time></trkpt><trkpt lat="44.1096682" lon="10.4596145"><ele>342.0</ele><time>2026-04-24T10:50:20.141Z</time></trkpt><trkpt lat="44.1096195" lon="10.4597131"><ele>343.6666666666667</ele><time>2026-04-24T10:50:21.133Z</time></trkpt><trkpt lat="44.1095531" lon="10.4597911"><ele>345.3333333333333</ele><time>2026-04-24T10:50:22.141Z</time></trkpt><trkpt lat="44.1094807" lon="10.4598518"><ele>347.0</ele><time>2026-04-24T10:50:23.141Z</time></trkpt><trkpt lat="44.1094208" lon="10.4599229"><ele>348.66666666666663</ele><time>2026-04-24T10:50:24.131Z</time></trkpt><trkpt lat="44.1093823" lon="10.4599945"><ele>350.3333333333333</ele><time>2026-04-24T10:50:25.132Z</time></trkpt><trkpt lat="44.1093692" lon="10.4600821"><ele>352.0</ele><time>2026-04-24T10:50:26.128Z</time></trkpt><trkpt lat="44.1093702" lon="10.4602413"><ele>352.0</ele><time>2026-04-24T10:50:28.139Z</time></trkpt><trkpt lat="44.1093059" lon="10.4602974"><ele>352.0</ele><time>2026-04-24T10:50:30.139Z</time></trkpt><trkpt lat="44.1092699" lon="10.4601939"><ele>352.0</ele><time>2026-04-24T10:50:32.132Z</time></trkpt><trkpt lat="44.1092847" lon="10.4600525"><ele>352.0</ele><time>2026-04-24T10:50:34.141Z</time></trkpt><trkpt lat="44.1092829" lon="10.4599602"><ele>352.0</ele><time>2026-04-24T10:50:35.141Z</time></trkpt><trkpt lat="44.1092761" lon="10.4598635"><ele>352.0</ele><time>2026-04-24T10:50:36.142Z</time></trkpt><trkpt lat="44.1092661" lon="10.4597603"><ele>352.0</ele><time>2026-04-24T10:50:37.142Z</time></trkpt><trkpt lat="44.1092567" lon="10.4596522"><ele>352.0</ele><time>2026-04-24T10:50:38.146Z</time></trkpt><trkpt lat="44.1092449" lon="10.459536"><ele>352.0</ele><time>2026-04-24T10:50:39.145Z</time></trkpt><trkpt lat="44.1092332" lon="10.4594146"><ele>352.0</ele><time>2026-04-24T10:50:40.143Z</time></trkpt><trkpt lat="44.1092436" lon="10.4593058"><ele>352.0</ele><time>2026-04-24T10:50:41.151Z</time></trkpt><trkpt lat="44.1092691" lon="10.4592132"><ele>352.0</ele><time>2026-04-24T10:50:42.139Z</time></trkpt><trkpt lat="44.1092886" lon="10.4591295"><ele>350.0</ele><time>2026-04-24T10:50:43.144Z</time></trkpt><trkpt lat="44.1092856" lon="10.4589662"><ele>348.0</ele><time>2026-04-24T10:50:45.147Z</time></trkpt><trkpt lat="44.1092669" lon="10.4588108"><ele>346.0</ele><time>2026-04-24T10:50:47.155Z</time></trkpt><trkpt lat="44.1092478" lon="10.4586954"><ele>344.0</ele><time>2026-04-24T10:50:49.138Z</time></trkpt><trkpt lat="44.1092318" lon="10.4585936"><ele>342.0</ele><time>2026-04-24T10:50:51.143Z</time></trkpt><trkpt lat="44.1092029" lon="10.4584971"><ele>342.71428571428567</ele><time>2026-04-24T10:50:54.13Z</time></trkpt><trkpt lat="44.1091642" lon="10.4583991"><ele>343.42857142857144</ele><time>2026-04-24T10:50:58.133Z</time></trkpt><trkpt lat="44.1091083" lon="10.4583353"><ele>344.1428571428571</ele><time>2026-04-24T10:51:02.142Z</time></trkpt><trkpt lat="44.109046" lon="10.4582793"><ele>344.85714285714283</ele><time>2026-04-24T10:51:06.136Z</time></trkpt><trkpt lat="44.1089873" lon="10.4582341"><ele>345.57142857142856</ele><time>2026-04-24T10:51:10.141Z</time></trkpt><trkpt lat="44.1089222" lon="10.4581889"><ele>346.2857142857143</ele><time>2026-04-24T10:51:14.132Z</time></trkpt><trkpt lat="44.108862" lon="10.4581264"><ele>347.0</ele><time>2026-04-24T10:51:18.139Z</time></trkpt><trkpt lat="44.1087961" lon="10.4580738"><ele>347.0</ele><time>2026-04-24T10:51:22.142Z</time></trkpt><trkpt lat="44.1087345" lon="10.4580141"><ele>347.0</ele><time>2026-04-24T10:51:26.136Z</time></trkpt><trkpt lat="44.1086625" lon="10.4579768"><ele>347.0</ele><time>2026-04-24T10:51:30.143Z</time></trkpt><trkpt lat="44.1085959" lon="10.4579307"><ele>347.0</ele><time>2026-04-24T10:51:34.145Z</time></trkpt><trkpt lat="44.1085262" lon="10.4579069"><ele>347.0</ele><time>2026-04-24T10:51:38.15Z</time></trkpt><trkpt lat="44.1084465" lon="10.4578943"><ele>347.0</ele><time>2026-04-24T10:51:43.134Z</time></trkpt><trkpt lat="44.1083707" lon="10.4578811"><ele>347.42857142857144</ele><time>2026-04-24T10:51:47.142Z</time></trkpt><trkpt lat="44.1082956" lon="10.457871"><ele>347.85714285714283</ele><time>2026-04-24T10:51:51.13Z</time></trkpt><trkpt lat="44.1082239" lon="10.4578559"><ele>348.2857142857143</ele><time>2026-04-24T10:51:55.149Z</time></trkpt><trkpt lat="44.1081507" lon="10.4578648"><ele>348.7142857142857</ele><time>2026-04-24T10:51:59.145Z</time></trkpt><trkpt lat="44.1080793" lon="10.4578441"><ele>349.1428571428571</ele><time>2026-04-24T10:52:03.139Z</time></trkpt><trkpt lat="44.1080076" lon="10.4578236"><ele>349.57142857142856</ele><time>2026-04-24T10:52:07.151Z</time></trkpt><trkpt lat="44.1079422" lon="10.4577863"><ele>350.0</ele><time>2026-04-24T10:52:11.148Z</time></trkpt><trkpt lat="44.1078865" lon="10.4577311"><ele>350.0</ele><time>2026-04-24T10:52:15.145Z</time></trkpt><trkpt lat="44.1078227" lon="10.4576805"><ele>350.0</ele><time>2026-04-24T10:52:19.135Z</time></trkpt><trkpt lat="44.1077877" lon="10.4575842"><ele>350.0</ele><time>2026-04-24T10:52:23.135Z</time></trkpt><trkpt lat="44.1077685" lon="10.4574872"><ele>350.0</ele><time>2026-04-24T10:52:27.141Z</time></trkpt><trkpt lat="44.1077503" lon="10.4573967"><ele>350.0</ele><time>2026-04-24T10:52:31.149Z</time></trkpt><trkpt lat="44.1077308" lon="10.4573073"><ele>350.0</ele><time>2026-04-24T10:52:35.097Z</time></trkpt><trkpt lat="44.1076975" lon="10.4572141"><ele>350.0</ele><time>2026-04-24T10:52:39.132Z</time></trkpt><trkpt lat="44.1076502" lon="10.4571304"><ele>349.57142857142856</ele><time>2026-04-24T10:52:43.152Z</time></trkpt><trkpt lat="44.1075941" lon="10.4570679"><ele>349.1428571428571</ele><time>2026-04-24T10:52:47.133Z</time></trkpt><trkpt lat="44.1075302" lon="10.4570121"><ele>348.7142857142857</ele><time>2026-04-24T10:52:51.129Z</time></trkpt><trkpt lat="44.1074733" lon="10.4569464"><ele>348.2857142857143</ele><time>2026-04-24T10:52:55.13Z</time></trkpt><trkpt lat="44.1074102" lon="10.4568905"><ele>347.85714285714283</ele><time>2026-04-24T10:52:59.137Z</time></trkpt><trkpt lat="44.1073443" lon="10.4568539"><ele>347.42857142857144</ele><time>2026-04-24T10:53:03.136Z</time></trkpt><trkpt lat="44.1072918" lon="10.4567944"><ele>347.0</ele><time>2026-04-24T10:53:07.135Z</time></trkpt><trkpt lat="44.1072223" lon="10.4567535"><ele>347.0</ele><time>2026-04-24T10:53:11.143Z</time></trkpt><trkpt lat="44.1071574" lon="10.4567294"><ele>347.0</ele><time>2026-04-24T10:53:15.14Z</time></trkpt><trkpt lat="44.1070877" lon="10.4567345"><ele>347.0</ele><time>2026-04-24T10:53:19.139Z</time></trkpt><trkpt lat="44.1070171" lon="10.4567761"><ele>347.0</ele><time>2026-04-24T10:53:24.142Z</time></trkpt><trkpt lat="44.1069389" lon="10.4567855"><ele>347.0</ele><time>2026-04-24T10:53:29.129Z</time></trkpt><trkpt lat="44.1068964" lon="10.4568535"><ele>347.0</ele><time>2026-04-24T10:53:33.134Z</time></trkpt><trkpt lat="44.1069245" lon="10.4569483"><ele>347.0</ele><time>2026-04-24T10:53:37.065Z</time></trkpt><trkpt lat="44.1069928" lon="10.4569549"><ele>347.0</ele><time>2026-04-24T10:53:40.134Z</time></trkpt><trkpt lat="44.1070687" lon="10.4569554"><ele>347.0</ele><time>2026-04-24T10:53:44.152Z</time></trkpt><trkpt lat="44.1071358" lon="10.4569622"><ele>347.0</ele><time>2026-04-24T10:53:48.141Z</time></trkpt><trkpt lat="44.1072034" lon="10.4569875"><ele>347.0</ele><time>2026-04-24T10:53:52.131Z</time></trkpt><trkpt lat="44.1072622" lon="10.4570538"><ele>347.0</ele><time>2026-04-24T10:53:56.138Z</time></trkpt><trkpt lat="44.1073064" lon="10.4571337"><ele>347.0</ele><time>2026-04-24T10:54:00.139Z</time></trkpt><trkpt lat="44.1073465" lon="10.4572109"><ele>347.0</ele><time>2026-04-24T10:54:04.135Z</time></trkpt><trkpt lat="44.1073889" lon="10.4572855"><ele>347.14285714285717</ele><time>2026-04-24T10:54:08.143Z</time></trkpt><trkpt lat="44.107414" lon="10.4573806"><ele>347.2857142857143</ele><time>2026-04-24T10:54:12.147Z</time></trkpt><trkpt lat="44.107435" lon="10.4574764"><ele>347.42857142857144</ele><time>2026-04-24T10:54:16.133Z</time></trkpt><trkpt lat="44.1074401" lon="10.4575787"><ele>347.57142857142856</ele><time>2026-04-24T10:54:20.165Z</time></trkpt><trkpt lat="44.1074265" lon="10.4576751"><ele>347.7142857142857</ele><time>2026-04-24T10:54:24.128Z</time></trkpt><trkpt lat="44.1074013" lon="10.4577638"><ele>347.85714285714283</ele><time>2026-04-24T10:54:28.15Z</time></trkpt><trkpt lat="44.1073765" lon="10.4578589"><ele>348.0</ele><time>2026-04-24T10:54:32.14Z</time></trkpt><trkpt lat="44.1073748" lon="10.4579564"><ele>349.57142857142856</ele><time>2026-04-24T10:54:36.144Z</time></trkpt><trkpt lat="44.1073894" lon="10.4580555"><ele>351.14285714285717</ele><time>2026-04-24T10:54:40.146Z</time></trkpt><trkpt lat="44.1074237" lon="10.4581456"><ele>352.7142857142857</ele><time>2026-04-24T10:54:44.14Z</time></trkpt><trkpt lat="44.1074669" lon="10.458216"><ele>354.2857142857143</ele><time>2026-04-24T10:54:48.139Z</time></trkpt><trkpt lat="44.1075265" lon="10.4582647"><ele>355.8571428571429</ele><time>2026-04-24T10:54:52.141Z</time></trkpt><trkpt lat="44.1075392" lon="10.4583624"><ele>357.42857142857144</ele><time>2026-04-24T10:54:56.136Z</time></trkpt><trkpt lat="44.1074796" lon="10.4584131"><ele>359.0</ele><time>2026-04-24T10:55:00.142Z</time></trkpt><trkpt lat="44.1074117" lon="10.4583684"><ele>359.0</ele><time>2026-04-24T10:55:04.148Z</time></trkpt><trkpt lat="44.1073524" lon="10.4583093"><ele>359.0</ele><time>2026-04-24T10:55:08.137Z</time></trkpt><trkpt lat="44.1072952" lon="10.4582543"><ele>359.0</ele><time>2026-04-24T10:55:12.145Z</time></trkpt><trkpt lat="44.1072228" lon="10.4582342"><ele>359.0</ele><time>2026-04-24T10:55:16.129Z</time></trkpt><trkpt lat="44.1071496" lon="10.458237"><ele>359.0</ele><time>2026-04-24T10:55:20.156Z</time></trkpt><trkpt lat="44.1070822" lon="10.4582528"><ele>359.0</ele><time>2026-04-24T10:55:24.141Z</time></trkpt><trkpt lat="44.1070232" lon="10.4582999"><ele>359.0</ele><time>2026-04-24T10:55:28.141Z</time></trkpt><trkpt lat="44.1069811" lon="10.4583735"><ele>359.0</ele><time>2026-04-24T10:55:32.132Z</time></trkpt><trkpt lat="44.1069505" lon="10.4584584"><ele>359.0</ele><time>2026-04-24T10:55:36.129Z</time></trkpt><trkpt lat="44.1069145" lon="10.4585433"><ele>359.0</ele><time>2026-04-24T10:55:40.143Z</time></trkpt><trkpt lat="44.1068705" lon="10.4586241"><ele>359.0</ele><time>2026-04-24T10:55:44.156Z</time></trkpt><trkpt lat="44.1068195" lon="10.4586974"><ele>359.0</ele><time>2026-04-24T10:55:48.165Z</time></trkpt><trkpt lat="44.1067602" lon="10.4587565"><ele>359.0</ele><time>2026-04-24T10:55:52.163Z</time></trkpt><trkpt lat="44.1066998" lon="10.4588082"><ele>359.0</ele><time>2026-04-24T10:55:56.137Z</time></trkpt><trkpt lat="44.1066513" lon="10.4588735"><ele>362.2857142857143</ele><time>2026-04-24T10:56:00.146Z</time></trkpt><trkpt lat="44.1066175" lon="10.458974"><ele>365.57142857142856</ele><time>2026-04-24T10:56:04.131Z</time></trkpt><trkpt lat="44.1065882" lon="10.4590733"><ele>368.8571428571429</ele><time>2026-04-24T10:56:08.144Z</time></trkpt><trkpt lat="44.1065917" lon="10.4591827"><ele>372.1428571428571</ele><time>2026-04-24T10:56:12.148Z</time></trkpt><trkpt lat="44.1065895" lon="10.459271"><ele>375.4285714285714</ele><time>2026-04-24T10:56:16.139Z</time></trkpt><trkpt lat="44.1065977" lon="10.4593739"><ele>378.7142857142857</ele><time>2026-04-24T10:56:21.159Z</time></trkpt><trkpt lat="44.1066035" lon="10.459469"><ele>382.0</ele><time>2026-04-24T10:56:25.081Z</time></trkpt><trkpt lat="44.1065903" lon="10.4595772"><ele>381.8571428571429</ele><time>2026-04-24T10:56:29.138Z</time></trkpt><trkpt lat="44.1065274" lon="10.4596621"><ele>381.71428571428567</ele><time>2026-04-24T10:56:33.156Z</time></trkpt><trkpt lat="44.106462" lon="10.4596952"><ele>381.57142857142856</ele><time>2026-04-24T10:56:36.133Z</time></trkpt><trkpt lat="44.1063937" lon="10.4597088"><ele>381.42857142857144</ele><time>2026-04-24T10:56:39.098Z</time></trkpt><trkpt lat="44.1063333" lon="10.459679"><ele>381.28571428571433</ele><time>2026-04-24T10:56:42.141Z</time></trkpt><trkpt lat="44.1062837" lon="10.4596192"><ele>381.1428571428571</ele><time>2026-04-24T10:56:45.166Z</time></trkpt><trkpt lat="44.1062317" lon="10.459533"><ele>381.0</ele><time>2026-04-24T10:56:49.14Z</time></trkpt><trkpt lat="44.106182" lon="10.4594485"><ele>381.0</ele><time>2026-04-24T10:56:53.143Z</time></trkpt><trkpt lat="44.1061272" lon="10.4593637"><ele>381.0</ele><time>2026-04-24T10:56:57.145Z</time></trkpt><trkpt lat="44.1060856" lon="10.4592886"><ele>381.0</ele><time>2026-04-24T10:57:00.163Z</time></trkpt><trkpt lat="44.1060455" lon="10.459194"><ele>381.0</ele><time>2026-04-24T10:57:04.135Z</time></trkpt><trkpt lat="44.1060096" lon="10.4591176"><ele>381.0</ele><time>2026-04-24T10:57:07.142Z</time></trkpt><trkpt lat="44.1059464" lon="10.4590596"><ele>381.0</ele><time>2026-04-24T10:57:11.154Z</time></trkpt><trkpt lat="44.1058736" lon="10.4590936"><ele>381.0</ele><time>2026-04-24T10:57:15.156Z</time></trkpt><trkpt lat="44.1058273" lon="10.4591665"><ele>381.0</ele><time>2026-04-24T10:57:18.144Z</time></trkpt><trkpt lat="44.1057858" lon="10.459243"><ele>381.0</ele><time>2026-04-24T10:57:21.142Z</time></trkpt><trkpt lat="44.1057582" lon="10.4593491"><ele>381.0</ele><time>2026-04-24T10:57:25.152Z</time></trkpt><trkpt lat="44.1057483" lon="10.4594574"><ele>381.0</ele><time>2026-04-24T10:57:29.137Z</time></trkpt><trkpt lat="44.1057268" lon="10.4595691"><ele>381.0</ele><time>2026-04-24T10:57:33.129Z</time></trkpt><trkpt lat="44.1057112" lon="10.459656"><ele>381.0</ele><time>2026-04-24T10:57:36.246Z</time></trkpt><trkpt lat="44.1056907" lon="10.4597673"><ele>380.0</ele><time>2026-04-24T10:57:40.131Z</time></trkpt><trkpt lat="44.1056649" lon="10.4598728"><ele>379.0</ele><time>2026-04-24T10:57:44.139Z</time></trkpt><trkpt lat="44.1056188" lon="10.4599677"><ele>378.0</ele><time>2026-04-24T10:57:48.138Z</time></trkpt><trkpt lat="44.1055724" lon="10.460061"><ele>377.0</ele><time>2026-04-24T10:57:52.162Z</time></trkpt><trkpt lat="44.1055189" lon="10.4601417"><ele>376.0</ele><time>2026-04-24T10:57:56.14Z</time></trkpt><trkpt lat="44.1054599" lon="10.4602138"><ele>375.0</ele><time>2026-04-24T10:58:00.138Z</time></trkpt><trkpt lat="44.1053964" lon="10.4602847"><ele>375.0</ele><time>2026-04-24T10:58:04.135Z</time></trkpt><trkpt lat="44.1053289" lon="10.4603539"><ele>375.0</ele><time>2026-04-24T10:58:08.134Z</time></trkpt><trkpt lat="44.1052629" lon="10.4604222"><ele>375.0</ele><time>2026-04-24T10:58:12.144Z</time></trkpt><trkpt lat="44.1052034" lon="10.4605004"><ele>375.0</ele><time>2026-04-24T10:58:16.148Z</time></trkpt><trkpt lat="44.1051589" lon="10.460564"><ele>375.0</ele><time>2026-04-24T10:58:19.145Z</time></trkpt><trkpt lat="44.1051086" lon="10.4606482"><ele>375.0</ele><time>2026-04-24T10:58:23.135Z</time></trkpt><trkpt lat="44.1050676" lon="10.4607162"><ele>375.14285714285717</ele><time>2026-04-24T10:58:26.099Z</time></trkpt><trkpt lat="44.1050018" lon="10.4607865"><ele>375.2857142857143</ele><time>2026-04-24T10:58:30.139Z</time></trkpt><trkpt lat="44.1049517" lon="10.4608403"><ele>375.42857142857144</ele><time>2026-04-24T10:58:33.141Z</time></trkpt><trkpt lat="44.1048935" lon="10.4609053"><ele>375.57142857142856</ele><time>2026-04-24T10:58:37.139Z</time></trkpt><trkpt lat="44.1048353" lon="10.4609706"><ele>375.71428571428567</ele><time>2026-04-24T10:58:41.14Z</time></trkpt><trkpt lat="44.1047826" lon="10.4610591"><ele>375.85714285714283</ele><time>2026-04-24T10:58:45.143Z</time></trkpt><trkpt lat="44.1047542" lon="10.4611391"><ele>376.0</ele><time>2026-04-24T10:58:48.141Z</time></trkpt><trkpt lat="44.1047452" lon="10.461226"><ele>381.2857142857143</ele><time>2026-04-24T10:58:51.148Z</time></trkpt><trkpt lat="44.1047403" lon="10.4613161"><ele>386.57142857142856</ele><time>2026-04-24T10:58:54.15Z</time></trkpt><trkpt lat="44.104732" lon="10.4614043"><ele>391.8571428571429</ele><time>2026-04-24T10:58:58.14Z</time></trkpt><trkpt lat="44.1047073" lon="10.4615023"><ele>397.1428571428571</ele><time>2026-04-24T10:59:02.14Z</time></trkpt><trkpt lat="44.104642" lon="10.4615684"><ele>402.42857142857144</ele><time>2026-04-24T10:59:06.139Z</time></trkpt><trkpt lat="44.104565" lon="10.4615981"><ele>407.7142857142857</ele><time>2026-04-24T10:59:09.135Z</time></trkpt><trkpt lat="44.1044941" lon="10.4616191"><ele>413.0</ele><time>2026-04-24T10:59:12.136Z</time></trkpt><trkpt lat="44.1044266" lon="10.461652"><ele>413.0</ele><time>2026-04-24T10:59:15.136Z</time></trkpt><trkpt lat="44.1043574" lon="10.4616682"><ele>413.0</ele><time>2026-04-24T10:59:18.159Z</time></trkpt><trkpt lat="44.1042938" lon="10.4616944"><ele>413.0</ele><time>2026-04-24T10:59:21.145Z</time></trkpt><trkpt lat="44.1042271" lon="10.4617145"><ele>413.0</ele><time>2026-04-24T10:59:24.174Z</time></trkpt><trkpt lat="44.1041625" lon="10.4617258"><ele>413.0</ele><time>2026-04-24T10:59:27.137Z</time></trkpt><trkpt lat="44.1040868" lon="10.4617666"><ele>413.0</ele><time>2026-04-24T10:59:31.123Z</time></trkpt><trkpt lat="44.1040233" lon="10.4617971"><ele>413.0</ele><time>2026-04-24T10:59:34.131Z</time></trkpt><trkpt lat="44.1039575" lon="10.4618412"><ele>412.0</ele><time>2026-04-24T10:59:37.157Z</time></trkpt><trkpt lat="44.1038982" lon="10.461886"><ele>411.0</ele><time>2026-04-24T10:59:40.135Z</time></trkpt><trkpt lat="44.1038358" lon="10.4619131"><ele>410.0</ele><time>2026-04-24T10:59:43.144Z</time></trkpt><trkpt lat="44.1037794" lon="10.4619571"><ele>409.0</ele><time>2026-04-24T10:59:46.144Z</time></trkpt><trkpt lat="44.1037203" lon="10.4620314"><ele>408.0</ele><time>2026-04-24T10:59:50.147Z</time></trkpt><trkpt lat="44.1036831" lon="10.4621215"><ele>407.0</ele><time>2026-04-24T10:59:55.147Z</time></trkpt><trkpt lat="44.1036554" lon="10.4622101"><ele>406.0</ele><time>2026-04-24T10:59:58.132Z</time></trkpt><trkpt lat="44.1036113" lon="10.4622982"><ele>409.2857142857143</ele><time>2026-04-24T11:00:01.146Z</time></trkpt><trkpt lat="44.1035675" lon="10.4623677"><ele>412.57142857142856</ele><time>2026-04-24T11:00:04.15Z</time></trkpt><trkpt lat="44.1035081" lon="10.4624054"><ele>415.8571428571429</ele><time>2026-04-24T11:00:07.138Z</time></trkpt><trkpt lat="44.1034425" lon="10.462393"><ele>419.1428571428571</ele><time>2026-04-24T11:00:10.145Z</time></trkpt><trkpt lat="44.1033727" lon="10.4623286"><ele>422.42857142857144</ele><time>2026-04-24T11:00:14.145Z</time></trkpt><trkpt lat="44.1033204" lon="10.4622695"><ele>425.7142857142857</ele><time>2026-04-24T11:00:17.142Z</time></trkpt><trkpt lat="44.1032613" lon="10.4622096"><ele>429.0</ele><time>2026-04-24T11:00:20.138Z</time></trkpt><trkpt lat="44.1032119" lon="10.4621498"><ele>426.42857142857144</ele><time>2026-04-24T11:00:23.153Z</time></trkpt><trkpt lat="44.1031583" lon="10.4620909"><ele>423.8571428571429</ele><time>2026-04-24T11:00:26.161Z</time></trkpt><trkpt lat="44.1031162" lon="10.4620194"><ele>421.2857142857143</ele><time>2026-04-24T11:00:29.135Z</time></trkpt><trkpt lat="44.1030651" lon="10.461963"><ele>418.7142857142857</ele><time>2026-04-24T11:00:32.131Z</time></trkpt><trkpt lat="44.1030081" lon="10.4619237"><ele>416.1428571428571</ele><time>2026-04-24T11:00:35.141Z</time></trkpt><trkpt lat="44.1029446" lon="10.4619176"><ele>413.57142857142856</ele><time>2026-04-24T11:00:38.131Z</time></trkpt><trkpt lat="44.1028806" lon="10.461943"><ele>411.0</ele><time>2026-04-24T11:00:41.149Z</time></trkpt><trkpt lat="44.102803" lon="10.4619847"><ele>411.0</ele><time>2026-04-24T11:00:45.146Z</time></trkpt><trkpt lat="44.1027416" lon="10.4620158"><ele>411.0</ele><time>2026-04-24T11:00:48.144Z</time></trkpt><trkpt lat="44.1026795" lon="10.4620496"><ele>411.0</ele><time>2026-04-24T11:00:51.139Z</time></trkpt><trkpt lat="44.1026164" lon="10.462082"><ele>411.0</ele><time>2026-04-24T11:00:54.145Z</time></trkpt><trkpt lat="44.1025534" lon="10.4621051"><ele>411.0</ele><time>2026-04-24T11:00:57.137Z</time></trkpt><trkpt lat="44.1024901" lon="10.462127"><ele>411.0</ele><time>2026-04-24T11:01:00.143Z</time></trkpt><trkpt lat="44.1024142" lon="10.4621725"><ele>411.0</ele><time>2026-04-24T11:01:04.143Z</time></trkpt><trkpt lat="44.1023542" lon="10.462203"><ele>411.42857142857144</ele><time>2026-04-24T11:01:07.149Z</time></trkpt><trkpt lat="44.1022895" lon="10.462218"><ele>411.85714285714283</ele><time>2026-04-24T11:01:10.133Z</time></trkpt><trkpt lat="44.1022418" lon="10.4622861"><ele>412.28571428571433</ele><time>2026-04-24T11:01:13.143Z</time></trkpt><trkpt lat="44.1021931" lon="10.4623456"><ele>412.7142857142857</ele><time>2026-04-24T11:01:16.139Z</time></trkpt><trkpt lat="44.102135" lon="10.4624293"><ele>413.14285714285717</ele><time>2026-04-24T11:01:20.141Z</time></trkpt><trkpt lat="44.1020899" lon="10.4625199"><ele>413.5714285714286</ele><time>2026-04-24T11:01:24.136Z</time></trkpt><trkpt lat="44.1020407" lon="10.4626105"><ele>414.0</ele><time>2026-04-24T11:01:28.15Z</time></trkpt><trkpt lat="44.1019913" lon="10.4626658"><ele>414.00000000000006</ele><time>2026-04-24T11:01:31.146Z</time></trkpt><trkpt lat="44.1019483" lon="10.4627335"><ele>414.0</ele><time>2026-04-24T11:01:34.127Z</time></trkpt><trkpt lat="44.1019008" lon="10.4628272"><ele>414.0</ele><time>2026-04-24T11:01:38.139Z</time></trkpt><trkpt lat="44.101849" lon="10.4629068"><ele>414.0</ele><time>2026-04-24T11:01:41.866Z</time></trkpt><trkpt lat="44.1018028" lon="10.4629795"><ele>414.0</ele><time>2026-04-24T11:01:45.15Z</time></trkpt><trkpt lat="44.1017561" lon="10.4630663"><ele>414.00000000000006</ele><time>2026-04-24T11:01:49.133Z</time></trkpt><trkpt lat="44.1016998" lon="10.4631149"><ele>414.0</ele><time>2026-04-24T11:03:41.147Z</time></trkpt><trkpt lat="44.1016312" lon="10.4631539"><ele>415.14285714285717</ele><time>2026-04-24T11:03:45.14Z</time></trkpt><trkpt lat="44.1015742" lon="10.4632235"><ele>416.2857142857143</ele><time>2026-04-24T11:03:48.134Z</time></trkpt><trkpt lat="44.1015212" lon="10.4632893"><ele>417.42857142857144</ele><time>2026-04-24T11:03:51.141Z</time></trkpt><trkpt lat="44.101468" lon="10.4633374"><ele>418.57142857142856</ele><time>2026-04-24T11:03:54.138Z</time></trkpt><trkpt lat="44.1014078" lon="10.4633971"><ele>419.7142857142857</ele><time>2026-04-24T11:03:58.143Z</time></trkpt><trkpt lat="44.1013496" lon="10.463438"><ele>420.8571428571429</ele><time>2026-04-24T11:04:02.131Z</time></trkpt><trkpt lat="44.1012897" lon="10.4634675"><ele>422.0</ele><time>2026-04-24T11:04:05.137Z</time></trkpt><trkpt lat="44.1012333" lon="10.4635208"><ele>422.0</ele><time>2026-04-24T11:04:08.138Z</time></trkpt><trkpt lat="44.1011606" lon="10.4635719"><ele>422.0</ele><time>2026-04-24T11:04:12.156Z</time></trkpt><trkpt lat="44.101098" lon="10.4635996"><ele>422.0</ele><time>2026-04-24T11:04:15.137Z</time></trkpt><trkpt lat="44.1010345" lon="10.4636659"><ele>422.0</ele><time>2026-04-24T11:04:19.142Z</time></trkpt><trkpt lat="44.1009765" lon="10.4637117"><ele>422.0</ele><time>2026-04-24T11:04:22.139Z</time></trkpt><trkpt lat="44.1009264" lon="10.4637955"><ele>422.0</ele><time>2026-04-24T11:04:26.139Z</time></trkpt><trkpt lat="44.1008798" lon="10.4638582"><ele>422.0</ele><time>2026-04-24T11:04:29.157Z</time></trkpt><trkpt lat="44.1008402" lon="10.4639279"><ele>421.16666666666663</ele><time>2026-04-24T11:04:32.138Z</time></trkpt><trkpt lat="44.1007971" lon="10.4640249"><ele>420.3333333333333</ele><time>2026-04-24T11:04:36.127Z</time></trkpt><trkpt lat="44.1007687" lon="10.4641085"><ele>419.5</ele><time>2026-04-24T11:04:39.148Z</time></trkpt><trkpt lat="44.1007292" lon="10.4642148"><ele>418.66666666666663</ele><time>2026-04-24T11:04:43.144Z</time></trkpt><trkpt lat="44.1006985" lon="10.4642918"><ele>417.8333333333333</ele><time>2026-04-24T11:04:46.138Z</time></trkpt><trkpt lat="44.1006435" lon="10.464379"><ele>417.0</ele><time>2026-04-24T11:04:50.139Z</time></trkpt><trkpt lat="44.1005852" lon="10.4644596"><ele>417.0</ele><time>2026-04-24T11:04:54.135Z</time></trkpt><trkpt lat="44.1005393" lon="10.4645203"><ele>417.0</ele><time>2026-04-24T11:04:57.136Z</time></trkpt><trkpt lat="44.1004919" lon="10.4645783"><ele>417.0</ele><time>2026-04-24T11:05:00.156Z</time></trkpt><trkpt lat="44.1004351" lon="10.4646619"><ele>417.0</ele><time>2026-04-24T11:05:04.138Z</time></trkpt><trkpt lat="44.1003903" lon="10.4647243"><ele>417.0</ele><time>2026-04-24T11:05:07.132Z</time></trkpt><trkpt lat="44.1003374" lon="10.4648128"><ele>417.0</ele><time>2026-04-24T11:05:11.138Z</time></trkpt><trkpt lat="44.1002721" lon="10.4648816"><ele>417.0</ele><time>2026-04-24T11:05:15.135Z</time></trkpt><trkpt lat="44.1002131" lon="10.4649524"><ele>420.0</ele><time>2026-04-24T11:05:19.128Z</time></trkpt><trkpt lat="44.1001654" lon="10.4650101"><ele>423.0</ele><time>2026-04-24T11:05:22.148Z</time></trkpt><trkpt lat="44.1001148" lon="10.4650657"><ele>426.0</ele><time>2026-04-24T11:05:25.136Z</time></trkpt><trkpt lat="44.1000671" lon="10.4651266"><ele>429.0</ele><time>2026-04-24T11:05:28.135Z</time></trkpt><trkpt lat="44.1000082" lon="10.4652052"><ele>432.0</ele><time>2026-04-24T11:05:32.145Z</time></trkpt><trkpt lat="44.0999515" lon="10.465286"><ele>435.0</ele><time>2026-04-24T11:05:36.132Z</time></trkpt><trkpt lat="44.0998889" lon="10.4653631"><ele>438.0</ele><time>2026-04-24T11:05:40.134Z</time></trkpt><trkpt lat="44.0998372" lon="10.4654184"><ele>442.1666666666667</ele><time>2026-04-24T11:05:43.133Z</time></trkpt><trkpt lat="44.0997892" lon="10.4654767"><ele>446.33333333333337</ele><time>2026-04-24T11:05:46.138Z</time></trkpt><trkpt lat="44.099732" lon="10.4655586"><ele>450.5</ele><time>2026-04-24T11:05:50.136Z</time></trkpt><trkpt lat="44.0996619" lon="10.4656176"><ele>454.6666666666667</ele><time>2026-04-24T11:05:54.136Z</time></trkpt><trkpt lat="44.0995856" lon="10.4656646"><ele>458.83333333333337</ele><time>2026-04-24T11:05:58.142Z</time></trkpt><trkpt lat="44.0995083" lon="10.465702"><ele>463.0</ele><time>2026-04-24T11:06:02.142Z</time></trkpt><trkpt lat="44.0994307" lon="10.465735"><ele>463.0</ele><time>2026-04-24T11:06:06.137Z</time></trkpt><trkpt lat="44.0993671" lon="10.4657558"><ele>462.99999999999994</ele><time>2026-04-24T11:06:09.133Z</time></trkpt><trkpt lat="44.0993021" lon="10.4657629"><ele>463.0</ele><time>2026-04-24T11:06:12.139Z</time></trkpt><trkpt lat="44.0992381" lon="10.4657587"><ele>463.0</ele><time>2026-04-24T11:06:15.143Z</time></trkpt><trkpt lat="44.0991753" lon="10.4657744"><ele>462.99999999999994</ele><time>2026-04-24T11:06:18.148Z</time></trkpt><trkpt lat="44.0990937" lon="10.4657735"><ele>463.0</ele><time>2026-04-24T11:06:22.15Z</time></trkpt><trkpt lat="44.099029" lon="10.4657799"><ele>463.0</ele><time>2026-04-24T11:06:25.139Z</time></trkpt><trkpt lat="44.098947" lon="10.4657905"><ele>464.00000000000006</ele><time>2026-04-24T11:06:29.145Z</time></trkpt><trkpt lat="44.0988638" lon="10.4657987"><ele>465.0</ele><time>2026-04-24T11:06:33.143Z</time></trkpt><trkpt lat="44.0988" lon="10.4657821"><ele>466.0</ele><time>2026-04-24T11:06:36.135Z</time></trkpt><trkpt lat="44.098727" lon="10.4657359"><ele>467.0</ele><time>2026-04-24T11:06:40.147Z</time></trkpt><trkpt lat="44.0986652" lon="10.4656918"><ele>468.00000000000006</ele><time>2026-04-24T11:06:44.139Z</time></trkpt><trkpt lat="44.0985875" lon="10.4656681"><ele>469.0</ele><time>2026-04-24T11:06:48.137Z</time></trkpt><trkpt lat="44.0985066" lon="10.4656511"><ele>469.00000000000006</ele><time>2026-04-24T11:06:52.143Z</time></trkpt><trkpt lat="44.0984281" lon="10.4656632"><ele>469.0</ele><time>2026-04-24T11:06:56.14Z</time></trkpt><trkpt lat="44.0983474" lon="10.4656728"><ele>469.0</ele><time>2026-04-24T11:07:00.14Z</time></trkpt><trkpt lat="44.09827" lon="10.4656837"><ele>469.0</ele><time>2026-04-24T11:07:04.129Z</time></trkpt><trkpt lat="44.0981872" lon="10.4656831"><ele>469.00000000000006</ele><time>2026-04-24T11:07:08.129Z</time></trkpt><trkpt lat="44.0981194" lon="10.4657038"><ele>469.0</ele><time>2026-04-24T11:07:12.137Z</time></trkpt><trkpt lat="44.0980561" lon="10.4657322"><ele>468.42857142857144</ele><time>2026-04-24T11:07:15.134Z</time></trkpt><trkpt lat="44.0979942" lon="10.4657582"><ele>467.8571428571429</ele><time>2026-04-24T11:07:18.13Z</time></trkpt><trkpt lat="44.0979354" lon="10.4657955"><ele>467.2857142857143</ele><time>2026-04-24T11:07:21.136Z</time></trkpt><trkpt lat="44.0978751" lon="10.465835"><ele>466.7142857142857</ele><time>2026-04-24T11:07:24.137Z</time></trkpt><trkpt lat="44.0978134" lon="10.4658735"><ele>466.14285714285717</ele><time>2026-04-24T11:07:27.138Z</time></trkpt><trkpt lat="44.0977503" lon="10.4659013"><ele>465.57142857142856</ele><time>2026-04-24T11:07:30.137Z</time></trkpt><trkpt lat="44.0976882" lon="10.4659189"><ele>465.0</ele><time>2026-04-24T11:07:33.145Z</time></trkpt><trkpt lat="44.0976056" lon="10.4659294"><ele>465.0</ele><time>2026-04-24T11:07:37.128Z</time></trkpt><trkpt lat="44.0975239" lon="10.4659364"><ele>465.0</ele><time>2026-04-24T11:07:41.137Z</time></trkpt><trkpt lat="44.097452" lon="10.4659539"><ele>465.0</ele><time>2026-04-24T11:07:45.128Z</time></trkpt><trkpt lat="44.0973725" lon="10.4659653"><ele>465.0</ele><time>2026-04-24T11:07:50.129Z</time></trkpt><trkpt lat="44.0973045" lon="10.4659618"><ele>465.0</ele><time>2026-04-24T11:07:54.14Z</time></trkpt><trkpt lat="44.0972309" lon="10.4659457"><ele>465.0</ele><time>2026-04-24T11:07:58.139Z</time></trkpt><trkpt lat="44.0971589" lon="10.4659369"><ele>465.8333333333333</ele><time>2026-04-24T11:08:02.146Z</time></trkpt><trkpt lat="44.0970828" lon="10.4659427"><ele>466.66666666666663</ele><time>2026-04-24T11:08:06.143Z</time></trkpt><trkpt lat="44.0970043" lon="10.4659752"><ele>467.5</ele><time>2026-04-24T11:08:10.136Z</time></trkpt><trkpt lat="44.096925" lon="10.4660051"><ele>468.3333333333333</ele><time>2026-04-24T11:08:14.136Z</time></trkpt><trkpt lat="44.0968516" lon="10.4660473"><ele>469.16666666666663</ele><time>2026-04-24T11:08:18.137Z</time></trkpt><trkpt lat="44.096775" lon="10.4660782"><ele>470.0</ele><time>2026-04-24T11:08:22.132Z</time></trkpt><trkpt lat="44.0966996" lon="10.4660982"><ele>470.0</ele><time>2026-04-24T11:08:26.148Z</time></trkpt><trkpt lat="44.096623" lon="10.466103"><ele>469.99999999999994</ele><time>2026-04-24T11:08:30.133Z</time></trkpt><trkpt lat="44.0965453" lon="10.4661125"><ele>470.0</ele><time>2026-04-24T11:08:34.143Z</time></trkpt><trkpt lat="44.0964658" lon="10.466115"><ele>470.0</ele><time>2026-04-24T11:08:38.136Z</time></trkpt><trkpt lat="44.0963856" lon="10.4661113"><ele>469.99999999999994</ele><time>2026-04-24T11:08:42.143Z</time></trkpt><trkpt lat="44.0963221" lon="10.4661084"><ele>470.0</ele><time>2026-04-24T11:08:45.131Z</time></trkpt><trkpt lat="44.0962567" lon="10.4660996"><ele>470.0</ele><time>2026-04-24T11:08:48.136Z</time></trkpt><trkpt lat="44.0961907" lon="10.4661044"><ele>469.57142857142856</ele><time>2026-04-24T11:08:51.138Z</time></trkpt><trkpt lat="44.0961279" lon="10.4661119"><ele>469.1428571428571</ele><time>2026-04-24T11:08:54.143Z</time></trkpt><trkpt lat="44.0960701" lon="10.4661484"><ele>468.71428571428567</ele><time>2026-04-24T11:08:58.135Z</time></trkpt><trkpt lat="44.0960551" lon="10.4662371"><ele>468.2857142857142</ele><time>2026-04-24T11:09:03.129Z</time></trkpt><trkpt lat="44.0960875" lon="10.4663237"><ele>467.85714285714283</ele><time>2026-04-24T11:09:07.137Z</time></trkpt><trkpt lat="44.0961453" lon="10.4663717"><ele>467.42857142857133</ele><time>2026-04-24T11:09:12.146Z</time></trkpt><trkpt lat="44.0962076" lon="10.4663858"><ele>466.99999999999994</ele><time>2026-04-24T11:09:16.143Z</time></trkpt><trkpt lat="44.0962789" lon="10.4663836"><ele>470.99999999999994</ele><time>2026-04-24T11:09:20.13Z</time></trkpt><trkpt lat="44.0963515" lon="10.4663748"><ele>475.0</ele><time>2026-04-24T11:09:24.144Z</time></trkpt><trkpt lat="44.0964227" lon="10.4663691"><ele>478.99999999999994</ele><time>2026-04-24T11:09:28.136Z</time></trkpt><trkpt lat="44.0964943" lon="10.4663678"><ele>482.99999999999994</ele><time>2026-04-24T11:09:32.147Z</time></trkpt><trkpt lat="44.0965626" lon="10.4663635"><ele>487.0</ele><time>2026-04-24T11:09:36.139Z</time></trkpt><trkpt lat="44.0966318" lon="10.4663657"><ele>490.99999999999994</ele><time>2026-04-24T11:09:40.127Z</time></trkpt><trkpt lat="44.0967114" lon="10.4663722"><ele>494.99999999999994</ele><time>2026-04-24T11:09:45.136Z</time></trkpt><trkpt lat="44.096775" lon="10.4663921"><ele>496.42857142857133</ele><time>2026-04-24T11:09:49.134Z</time></trkpt><trkpt lat="44.0968391" lon="10.4664045"><ele>497.85714285714283</ele><time>2026-04-24T11:09:53.143Z</time></trkpt><trkpt lat="44.0969112" lon="10.4664334"><ele>499.2857142857142</ele><time>2026-04-24T11:09:58.063Z</time></trkpt><trkpt lat="44.0969939" lon="10.4664543"><ele>500.71428571428567</ele><time>2026-04-24T11:10:02.151Z</time></trkpt><trkpt lat="44.0970625" lon="10.4664814"><ele>502.1428571428571</ele><time>2026-04-24T11:10:06.084Z</time></trkpt><trkpt lat="44.0971234" lon="10.4665304"><ele>503.57142857142856</ele><time>2026-04-24T11:10:10.125Z</time></trkpt><trkpt lat="44.097177" lon="10.4665967"><ele>505.0</ele><time>2026-04-24T11:10:14.107Z</time></trkpt><trkpt lat="44.0972389" lon="10.4666611"><ele>505.0</ele><time>2026-04-24T11:10:18.146Z</time></trkpt><trkpt lat="44.0972885" lon="10.466727"><ele>504.99999999999994</ele><time>2026-04-24T11:10:22.137Z</time></trkpt><trkpt lat="44.0973446" lon="10.4668004"><ele>505.0</ele><time>2026-04-24T11:10:26.154Z</time></trkpt><trkpt lat="44.0974094" lon="10.4668723"><ele>505.0</ele><time>2026-04-24T11:10:30.128Z</time></trkpt><trkpt lat="44.0974552" lon="10.466941"><ele>504.99999999999994</ele><time>2026-04-24T11:10:33.13Z</time></trkpt><trkpt lat="44.0975136" lon="10.4669982"><ele>505.0</ele><time>2026-04-24T11:10:37.148Z</time></trkpt><trkpt lat="44.0975648" lon="10.4670868"><ele>505.0</ele><time>2026-04-24T11:10:41.148Z</time></trkpt><trkpt lat="44.0976174" lon="10.4671766"><ele>507.00000000000006</ele><time>2026-04-24T11:10:45.087Z</time></trkpt><trkpt lat="44.0976885" lon="10.4672257"><ele>509.0</ele><time>2026-04-24T11:10:49.133Z</time></trkpt><trkpt lat="44.0977571" lon="10.46726"><ele>511.0</ele><time>2026-04-24T11:10:53.132Z</time></trkpt><trkpt lat="44.0978293" lon="10.4672965"><ele>513.0</ele><time>2026-04-24T11:10:57.103Z</time></trkpt><trkpt lat="44.0978944" lon="10.4673248"><ele>515.0</ele><time>2026-04-24T11:11:01.135Z</time></trkpt><trkpt lat="44.0979705" lon="10.4673081"><ele>517.0</ele><time>2026-04-24T11:11:05.136Z</time></trkpt><trkpt lat="44.0980467" lon="10.4673084"><ele>517.0</ele><time>2026-04-24T11:11:09.13Z</time></trkpt><trkpt lat="44.098123" lon="10.4672695"><ele>517.0</ele><time>2026-04-24T11:11:13.131Z</time></trkpt><trkpt lat="44.0981976" lon="10.4672444"><ele>517.0</ele><time>2026-04-24T11:11:17.134Z</time></trkpt><trkpt lat="44.0982643" lon="10.4672308"><ele>517.0</ele><time>2026-04-24T11:11:21.13Z</time></trkpt><trkpt lat="44.0983405" lon="10.4671982"><ele>517.0</ele><time>2026-04-24T11:11:25.139Z</time></trkpt><trkpt lat="44.0984082" lon="10.4671812"><ele>517.0</ele><time>2026-04-24T11:11:29.133Z</time></trkpt><trkpt lat="44.0984757" lon="10.467162"><ele>517.0</ele><time>2026-04-24T11:11:33.136Z</time></trkpt><trkpt lat="44.0985387" lon="10.4671356"><ele>517.4285714285714</ele><time>2026-04-24T11:11:37.142Z</time></trkpt><trkpt lat="44.0986037" lon="10.4671139"><ele>517.8571428571429</ele><time>2026-04-24T11:11:41.137Z</time></trkpt><trkpt lat="44.0986735" lon="10.4670923"><ele>518.2857142857143</ele><time>2026-04-24T11:11:45.135Z</time></trkpt><trkpt lat="44.0987512" lon="10.4670685"><ele>518.7142857142858</ele><time>2026-04-24T11:11:49.143Z</time></trkpt><trkpt lat="44.0988166" lon="10.4670752"><ele>519.1428571428571</ele><time>2026-04-24T11:11:52.131Z</time></trkpt><trkpt lat="44.0988742" lon="10.4670395"><ele>519.5714285714287</ele><time>2026-04-24T11:11:55.089Z</time></trkpt><trkpt lat="44.0989519" lon="10.4670301"><ele>520.0</ele><time>2026-04-24T11:11:59.139Z</time></trkpt><trkpt lat="44.0990265" lon="10.4670108"><ele>516.5714285714287</ele><time>2026-04-24T11:12:03.139Z</time></trkpt><trkpt lat="44.0990945" lon="10.4670011"><ele>513.1428571428571</ele><time>2026-04-24T11:12:07.142Z</time></trkpt><trkpt lat="44.099168" lon="10.4670085"><ele>509.7142857142858</ele><time>2026-04-24T11:12:11.143Z</time></trkpt><trkpt lat="44.0992308" lon="10.467021"><ele>506.28571428571433</ele><time>2026-04-24T11:12:14.137Z</time></trkpt><trkpt lat="44.0992968" lon="10.4670294"><ele>502.8571428571429</ele><time>2026-04-24T11:12:17.133Z</time></trkpt><trkpt lat="44.0993613" lon="10.4670213"><ele>499.42857142857144</ele><time>2026-04-24T11:12:20.138Z</time></trkpt><trkpt lat="44.099426" lon="10.467027"><ele>496.0</ele><time>2026-04-24T11:12:23.14Z</time></trkpt><trkpt lat="44.099503" lon="10.4670159"><ele>496.0</ele><time>2026-04-24T11:12:27.168Z</time></trkpt><trkpt lat="44.0995631" lon="10.4669673"><ele>496.00000000000006</ele><time>2026-04-24T11:12:31.136Z</time></trkpt><trkpt lat="44.0996322" lon="10.4669493"><ele>496.0</ele><time>2026-04-24T11:12:35.142Z</time></trkpt><trkpt lat="44.0997072" lon="10.466947"><ele>496.0</ele><time>2026-04-24T11:12:39.143Z</time></trkpt><trkpt lat="44.0997839" lon="10.4669815"><ele>496.00000000000006</ele><time>2026-04-24T11:12:43.133Z</time></trkpt><trkpt lat="44.0998537" lon="10.4670317"><ele>496.0</ele><time>2026-04-24T11:12:47.127Z</time></trkpt><trkpt lat="44.0999146" lon="10.4670604"><ele>496.0</ele><time>2026-04-24T11:12:51.135Z</time></trkpt><trkpt lat="44.0999718" lon="10.4671209"><ele>502.1666666666667</ele><time>2026-04-24T11:12:55.129Z</time></trkpt><trkpt lat="44.1000219" lon="10.4671926"><ele>508.33333333333337</ele><time>2026-04-24T11:12:59.13Z</time></trkpt><trkpt lat="44.1000757" lon="10.467259"><ele>514.5</ele><time>2026-04-24T11:13:03.126Z</time></trkpt><trkpt lat="44.1001328" lon="10.4673212"><ele>520.6666666666666</ele><time>2026-04-24T11:13:07.128Z</time></trkpt><trkpt lat="44.1001946" lon="10.4673891"><ele>526.8333333333333</ele><time>2026-04-24T11:13:11.13Z</time></trkpt><trkpt lat="44.1002457" lon="10.4674808"><ele>533.0</ele><time>2026-04-24T11:13:15.131Z</time></trkpt><trkpt lat="44.1003099" lon="10.4675336"><ele>533.0</ele><time>2026-04-24T11:13:19.129Z</time></trkpt><trkpt lat="44.1003647" lon="10.4675808"><ele>533.0</ele><time>2026-04-24T11:13:22.131Z</time></trkpt><trkpt lat="44.1004158" lon="10.4676666"><ele>533.0</ele><time>2026-04-24T11:13:26.128Z</time></trkpt><trkpt lat="44.1004656" lon="10.4677373"><ele>533.0</ele><time>2026-04-24T11:13:30.137Z</time></trkpt><trkpt lat="44.1004187" lon="10.4677974"><ele>533.0</ele><time>2026-04-24T11:15:02.135Z</time></trkpt><trkpt lat="44.1003508" lon="10.4678311"><ele>533.0</ele><time>2026-04-24T11:15:07.143Z</time></trkpt><trkpt lat="44.1003921" lon="10.467921"><ele>533.0</ele><time>2026-04-24T11:15:13.133Z</time></trkpt><trkpt lat="44.1004558" lon="10.467954"><ele>533.0</ele><time>2026-04-24T11:15:19.132Z</time></trkpt><trkpt lat="44.1005213" lon="10.4679622"><ele>533.0</ele><time>2026-04-24T11:15:25.14Z</time></trkpt><trkpt lat="44.1005815" lon="10.4679289"><ele>533.0</ele><time>2026-04-24T11:15:32.114Z</time></trkpt><trkpt lat="44.1006199" lon="10.4678439"><ele>533.0</ele><time>2026-04-24T11:15:38.138Z</time></trkpt><trkpt lat="44.1006743" lon="10.4677801"><ele>533.0</ele><time>2026-04-24T11:15:45.127Z</time></trkpt><trkpt lat="44.1007146" lon="10.4677097"><ele>533.0</ele><time>2026-04-24T11:15:51.131Z</time></trkpt><trkpt lat="44.1007604" lon="10.4676368"><ele>533.0</ele><time>2026-04-24T11:15:57.126Z</time></trkpt><trkpt lat="44.1008187" lon="10.4675682"><ele>533.4285714285714</ele><time>2026-04-24T11:16:02.135Z</time></trkpt><trkpt lat="44.1008597" lon="10.4674939"><ele>533.8571428571428</ele><time>2026-04-24T11:16:06.136Z</time></trkpt><trkpt lat="44.1009105" lon="10.4674202"><ele>534.2857142857142</ele><time>2026-04-24T11:16:10.123Z</time></trkpt><trkpt lat="44.1009669" lon="10.4673613"><ele>534.7142857142857</ele><time>2026-04-24T11:16:14.136Z</time></trkpt><trkpt lat="44.1010245" lon="10.4673227"><ele>535.1428571428571</ele><time>2026-04-24T11:16:19.135Z</time></trkpt><trkpt lat="44.1010976" lon="10.4673171"><ele>535.5714285714286</ele><time>2026-04-24T11:16:26.139Z</time></trkpt><trkpt lat="44.1011607" lon="10.4673124"><ele>536.0</ele><time>2026-04-24T11:16:31.132Z</time></trkpt><trkpt lat="44.1012278" lon="10.4672953"><ele>536.0</ele><time>2026-04-24T11:16:36.144Z</time></trkpt><trkpt lat="44.1012879" lon="10.4672658"><ele>536.0</ele><time>2026-04-24T11:16:42.129Z</time></trkpt><trkpt lat="44.1013533" lon="10.4672478"><ele>536.0</ele><time>2026-04-24T11:16:48.127Z</time></trkpt><trkpt lat="44.1014198" lon="10.467242"><ele>536.0</ele><time>2026-04-24T11:16:53.132Z</time></trkpt><trkpt lat="44.1014841" lon="10.4672168"><ele>536.0</ele><time>2026-04-24T11:16:58.146Z</time></trkpt><trkpt lat="44.1015428" lon="10.4671773"><ele>536.0</ele><time>2026-04-24T11:17:03.126Z</time></trkpt><trkpt lat="44.1016123" lon="10.4671557"><ele>536.0</ele><time>2026-04-24T11:17:08.142Z</time></trkpt><trkpt lat="44.1016742" lon="10.4671337"><ele>535.5714285714286</ele><time>2026-04-24T11:17:13.136Z</time></trkpt><trkpt lat="44.1017386" lon="10.4671235"><ele>535.1428571428571</ele><time>2026-04-24T11:17:17.154Z</time></trkpt><trkpt lat="44.1018099" lon="10.4671002"><ele>534.7142857142857</ele><time>2026-04-24T11:17:21.158Z</time></trkpt><trkpt lat="44.1018733" lon="10.4670792"><ele>534.2857142857142</ele><time>2026-04-24T11:17:24.146Z</time></trkpt><trkpt lat="44.1019434" lon="10.4670494"><ele>533.8571428571428</ele><time>2026-04-24T11:17:28.142Z</time></trkpt><trkpt lat="44.1020217" lon="10.4670428"><ele>533.4285714285714</ele><time>2026-04-24T11:17:33.131Z</time></trkpt><trkpt lat="44.1020897" lon="10.4670261"><ele>533.0</ele><time>2026-04-24T11:17:38.142Z</time></trkpt><trkpt lat="44.1021627" lon="10.4670052"><ele>533.0</ele><time>2026-04-24T11:17:43.13Z</time></trkpt><trkpt lat="44.1022243" lon="10.4669803"><ele>533.0</ele><time>2026-04-24T11:17:47.141Z</time></trkpt><trkpt lat="44.1022895" lon="10.4669499"><ele>533.0</ele><time>2026-04-24T11:17:51.13Z</time></trkpt><trkpt lat="44.102353" lon="10.4669504"><ele>533.0</ele><time>2026-04-24T11:17:55.141Z</time></trkpt><trkpt lat="44.1024262" lon="10.4669331"><ele>533.0</ele><time>2026-04-24T11:18:00.14Z</time></trkpt><trkpt lat="44.1024964" lon="10.4669164"><ele>533.0</ele><time>2026-04-24T11:18:05.138Z</time></trkpt><trkpt lat="44.1025594" lon="10.466889"><ele>533.0</ele><time>2026-04-24T11:18:10.143Z</time></trkpt><trkpt lat="44.102634" lon="10.4668656"><ele>534.8571428571429</ele><time>2026-04-24T11:18:14.137Z</time></trkpt><trkpt lat="44.1026973" lon="10.4668484"><ele>536.7142857142857</ele><time>2026-04-24T11:18:17.147Z</time></trkpt><trkpt lat="44.1027694" lon="10.4668256"><ele>538.5714285714286</ele><time>2026-04-24T11:18:21.143Z</time></trkpt><trkpt lat="44.1028387" lon="10.4667812"><ele>540.4285714285714</ele><time>2026-04-24T11:18:25.141Z</time></trkpt><trkpt lat="44.1029163" lon="10.4667584"><ele>542.2857142857142</ele><time>2026-04-24T11:18:29.139Z</time></trkpt><trkpt lat="44.1029852" lon="10.4667622"><ele>544.1428571428571</ele><time>2026-04-24T11:18:33.138Z</time></trkpt><trkpt lat="44.1030518" lon="10.4667469"><ele>546.0</ele><time>2026-04-24T11:18:37.146Z</time></trkpt><trkpt lat="44.1031152" lon="10.4667496"><ele>546.0</ele><time>2026-04-24T11:18:41.142Z</time></trkpt><trkpt lat="44.1031859" lon="10.4667459"><ele>546.0</ele><time>2026-04-24T11:18:46.141Z</time></trkpt><trkpt lat="44.1032621" lon="10.4667622"><ele>546.0</ele><time>2026-04-24T11:18:51.145Z</time></trkpt><trkpt lat="44.1033306" lon="10.4667799"><ele>546.0</ele><time>2026-04-24T11:18:55.127Z</time></trkpt><trkpt lat="44.1033995" lon="10.466802"><ele>546.0</ele><time>2026-04-24T11:19:00.128Z</time></trkpt><trkpt lat="44.1034729" lon="10.4668115"><ele>546.0</ele><time>2026-04-24T11:19:16.144Z</time></trkpt><trkpt lat="44.1035353" lon="10.4668332"><ele>546.0</ele><time>2026-04-24T11:19:19.129Z</time></trkpt><trkpt lat="44.1035955" lon="10.4669068"><ele>548.3333333333334</ele><time>2026-04-24T11:19:24.143Z</time></trkpt><trkpt lat="44.1036577" lon="10.4669531"><ele>550.6666666666666</ele><time>2026-04-24T11:19:28.143Z</time></trkpt><trkpt lat="44.1037397" lon="10.4669586"><ele>553.0</ele><time>2026-04-24T11:19:32.139Z</time></trkpt><trkpt lat="44.1038196" lon="10.4669683"><ele>555.3333333333333</ele><time>2026-04-24T11:19:36.143Z</time></trkpt><trkpt lat="44.1038925" lon="10.4669769"><ele>557.6666666666666</ele><time>2026-04-24T11:19:40.139Z</time></trkpt><trkpt lat="44.1039702" lon="10.4669972"><ele>560.0</ele><time>2026-04-24T11:19:45.136Z</time></trkpt><trkpt lat="44.1040438" lon="10.467001"><ele>562.4285714285714</ele><time>2026-04-24T11:19:49.151Z</time></trkpt><trkpt lat="44.104117" lon="10.4670223"><ele>564.8571428571429</ele><time>2026-04-24T11:19:53.144Z</time></trkpt><trkpt lat="44.1041805" lon="10.4670444"><ele>567.2857142857142</ele><time>2026-04-24T11:19:57.14Z</time></trkpt><trkpt lat="44.1042482" lon="10.4670842"><ele>569.7142857142858</ele><time>2026-04-24T11:20:02.152Z</time></trkpt><trkpt lat="44.1043207" lon="10.4671102"><ele>572.1428571428571</ele><time>2026-04-24T11:20:06.146Z</time></trkpt><trkpt lat="44.1043828" lon="10.4671387"><ele>574.5714285714286</ele><time>2026-04-24T11:20:09.138Z</time></trkpt><trkpt lat="44.1044538" lon="10.4671207"><ele>577.0</ele><time>2026-04-24T11:20:12.135Z</time></trkpt><trkpt lat="44.1045166" lon="10.4670489"><ele>577.0</ele><time>2026-04-24T11:20:16.155Z</time></trkpt><trkpt lat="44.1045742" lon="10.4669716"><ele>577.0</ele><time>2026-04-24T11:20:20.142Z</time></trkpt><trkpt lat="44.1046307" lon="10.466897"><ele>577.0</ele><time>2026-04-24T11:20:24.15Z</time></trkpt><trkpt lat="44.1046867" lon="10.4668456"><ele>577.0</ele><time>2026-04-24T11:20:28.143Z</time></trkpt><trkpt lat="44.1047346" lon="10.4667813"><ele>577.0</ele><time>2026-04-24T11:20:32.16Z</time></trkpt><trkpt lat="44.1047876" lon="10.4667085"><ele>577.0</ele><time>2026-04-24T11:20:36.153Z</time></trkpt><trkpt lat="44.1048513" lon="10.4666349"><ele>577.0</ele><time>2026-04-24T11:20:41.058Z</time></trkpt><trkpt lat="44.1049292" lon="10.4666165"><ele>580.4285714285714</ele><time>2026-04-24T11:20:45.13Z</time></trkpt><trkpt lat="44.1050072" lon="10.4665864"><ele>583.8571428571429</ele><time>2026-04-24T11:20:50.137Z</time></trkpt><trkpt lat="44.1050698" lon="10.4665729"><ele>587.2857142857142</ele><time>2026-04-24T11:20:54.143Z</time></trkpt><trkpt lat="44.1051465" lon="10.4665836"><ele>590.7142857142858</ele><time>2026-04-24T11:20:59.158Z</time></trkpt><trkpt lat="44.1052106" lon="10.466617"><ele>594.1428571428572</ele><time>2026-04-24T11:21:04.137Z</time></trkpt><trkpt lat="44.1052776" lon="10.4666597"><ele>597.5714285714286</ele><time>2026-04-24T11:21:10.131Z</time></trkpt><trkpt lat="44.1053426" lon="10.4667152"><ele>601.0</ele><time>2026-04-24T11:21:17.165Z</time></trkpt><trkpt lat="44.105401" lon="10.4667635"><ele>601.0</ele><time>2026-04-24T11:21:22.149Z</time></trkpt><trkpt lat="44.1054647" lon="10.4668283"><ele>601.0</ele><time>2026-04-24T11:21:27.141Z</time></trkpt><trkpt lat="44.1055189" lon="10.4668937"><ele>601.0</ele><time>2026-04-24T11:21:31.158Z</time></trkpt><trkpt lat="44.1055779" lon="10.4669533"><ele>601.0</ele><time>2026-04-24T11:21:36.15Z</time></trkpt><trkpt lat="44.1056381" lon="10.4670089"><ele>601.0</ele><time>2026-04-24T11:21:41.146Z</time></trkpt><trkpt lat="44.1056853" lon="10.4670683"><ele>601.0</ele><time>2026-04-24T11:21:45.14Z</time></trkpt><trkpt lat="44.1057406" lon="10.4671317"><ele>601.0</ele><time>2026-04-24T11:21:50.147Z</time></trkpt><trkpt lat="44.1057948" lon="10.4671928"><ele>603.2857142857142</ele><time>2026-04-24T11:21:55.142Z</time></trkpt><trkpt lat="44.1058361" lon="10.4672753"><ele>605.5714285714287</ele><time>2026-04-24T11:22:01.155Z</time></trkpt><trkpt lat="44.1058416" lon="10.4673659"><ele>607.8571428571429</ele><time>2026-04-24T11:22:06.142Z</time></trkpt><trkpt lat="44.1058437" lon="10.4674647"><ele>610.1428571428571</ele><time>2026-04-24T11:22:12.135Z</time></trkpt><trkpt lat="44.1058425" lon="10.467556"><ele>612.4285714285713</ele><time>2026-04-24T11:22:17.137Z</time></trkpt><trkpt lat="44.1058433" lon="10.4676467"><ele>614.7142857142858</ele><time>2026-04-24T11:22:21.146Z</time></trkpt><trkpt lat="44.1058469" lon="10.4677471"><ele>617.0</ele><time>2026-04-24T11:22:26.141Z</time></trkpt><trkpt lat="44.1058517" lon="10.4678428"><ele>617.0</ele><time>2026-04-24T11:22:31.13Z</time></trkpt><trkpt lat="44.1058645" lon="10.4679422"><ele>617.0</ele><time>2026-04-24T11:22:36.137Z</time></trkpt><trkpt lat="44.1058724" lon="10.4680336"><ele>617.0</ele><time>2026-04-24T11:22:40.131Z</time></trkpt><trkpt lat="44.1058793" lon="10.4681339"><ele>617.0</ele><time>2026-04-24T11:22:45.136Z</time></trkpt><trkpt lat="44.1058674" lon="10.4682202"><ele>617.0</ele><time>2026-04-24T11:22:50.141Z</time></trkpt><trkpt lat="44.1058511" lon="10.4683069"><ele>617.0</ele><time>2026-04-24T11:22:55.127Z</time></trkpt><trkpt lat="44.1058316" lon="10.4683973"><ele>617.0</ele><time>2026-04-24T11:23:01.139Z</time></trkpt><trkpt lat="44.1058214" lon="10.4684862"><ele>617.4285714285714</ele><time>2026-04-24T11:23:05.13Z</time></trkpt><trkpt lat="44.1058034" lon="10.4685869"><ele>617.8571428571428</ele><time>2026-04-24T11:23:10.148Z</time></trkpt><trkpt lat="44.1057756" lon="10.4686837"><ele>618.2857142857142</ele><time>2026-04-24T11:23:15.142Z</time></trkpt><trkpt lat="44.1057447" lon="10.4687737"><ele>618.7142857142858</ele><time>2026-04-24T11:23:20.136Z</time></trkpt><trkpt lat="44.1057029" lon="10.4688528"><ele>619.1428571428571</ele><time>2026-04-24T11:23:25.142Z</time></trkpt><trkpt lat="44.1056565" lon="10.4689299"><ele>619.5714285714286</ele><time>2026-04-24T11:23:31.137Z</time></trkpt><trkpt lat="44.1056054" lon="10.469"><ele>620.0</ele><time>2026-04-24T11:23:36.137Z</time></trkpt><trkpt lat="44.1055655" lon="10.4690861"><ele>625.4285714285714</ele><time>2026-04-24T11:23:41.134Z</time></trkpt><trkpt lat="44.1055732" lon="10.4691737"><ele>630.8571428571429</ele><time>2026-04-24T11:23:46.146Z</time></trkpt><trkpt lat="44.1056063" lon="10.4692587"><ele>636.2857142857142</ele><time>2026-04-24T11:23:50.133Z</time></trkpt><trkpt lat="44.1056289" lon="10.4693725"><ele>641.7142857142858</ele><time>2026-04-24T11:23:54.129Z</time></trkpt><trkpt lat="44.1056507" lon="10.4694833"><ele>647.1428571428571</ele><time>2026-04-24T11:23:58.145Z</time></trkpt><trkpt lat="44.1056389" lon="10.469582"><ele>652.5714285714286</ele><time>2026-04-24T11:24:02.132Z</time></trkpt><trkpt lat="44.1056186" lon="10.4696794"><ele>658.0</ele><time>2026-04-24T11:24:06.117Z</time></trkpt><trkpt lat="44.1056171" lon="10.4697888"><ele>658.2857142857143</ele><time>2026-04-24T11:24:10.138Z</time></trkpt><trkpt lat="44.105629" lon="10.4698857"><ele>658.5714285714286</ele><time>2026-04-24T11:24:14.137Z</time></trkpt><trkpt lat="44.1056477" lon="10.4699695"><ele>658.8571428571429</ele><time>2026-04-24T11:24:17.135Z</time></trkpt><trkpt lat="44.1056741" lon="10.4700558"><ele>659.1428571428571</ele><time>2026-04-24T11:24:21.135Z</time></trkpt><trkpt lat="44.1057035" lon="10.4701352"><ele>659.4285714285714</ele><time>2026-04-24T11:24:26.137Z</time></trkpt><trkpt lat="44.1057416" lon="10.470221"><ele>659.7142857142858</ele><time>2026-04-24T11:24:31.135Z</time></trkpt><trkpt lat="44.1057562" lon="10.4703167"><ele>660.0</ele><time>2026-04-24T11:24:37.134Z</time></trkpt><trkpt lat="44.1057162" lon="10.4703868"><ele>661.7142857142858</ele><time>2026-04-24T11:25:05.129Z</time></trkpt><trkpt lat="44.1056561" lon="10.4704438"><ele>663.4285714285714</ele><time>2026-04-24T11:25:11.144Z</time></trkpt><trkpt lat="44.1055953" lon="10.4704819"><ele>665.1428571428571</ele><time>2026-04-24T11:25:17.14Z</time></trkpt><trkpt lat="44.1055319" lon="10.4705313"><ele>666.8571428571429</ele><time>2026-04-24T11:25:23.134Z</time></trkpt><trkpt lat="44.1055176" lon="10.470619"><ele>668.5714285714286</ele><time>2026-04-24T11:25:32.128Z</time></trkpt><trkpt lat="44.1055404" lon="10.4707026"><ele>670.2857142857143</ele><time>2026-04-24T11:25:59.138Z</time></trkpt><trkpt lat="44.1055707" lon="10.4707882"><ele>672.0</ele><time>2026-04-24T11:26:04.147Z</time></trkpt><trkpt lat="44.1055908" lon="10.4708825"><ele>672.0</ele><time>2026-04-24T11:26:08.125Z</time></trkpt><trkpt lat="44.1056215" lon="10.4709784"><ele>672.0</ele><time>2026-04-24T11:26:12.138Z</time></trkpt><trkpt lat="44.1056352" lon="10.471066"><ele>672.0</ele><time>2026-04-24T11:26:17.127Z</time></trkpt><trkpt lat="44.1056336" lon="10.471165"><ele>672.0</ele><time>2026-04-24T11:26:22.124Z</time></trkpt><trkpt lat="44.1056492" lon="10.4712721"><ele>672.0</ele><time>2026-04-24T11:26:27.134Z</time></trkpt><trkpt lat="44.1056457" lon="10.4713732"><ele>672.0</ele><time>2026-04-24T11:26:33.135Z</time></trkpt><trkpt lat="44.1056247" lon="10.4714692"><ele>672.0</ele><time>2026-04-24T11:26:38.148Z</time></trkpt><trkpt lat="44.1055958" lon="10.4715578"><ele>674.0</ele><time>2026-04-24T11:26:43.133Z</time></trkpt><trkpt lat="44.1055528" lon="10.4716382"><ele>676.0</ele><time>2026-04-24T11:26:48.147Z</time></trkpt><trkpt lat="44.1055221" lon="10.4717346"><ele>678.0</ele><time>2026-04-24T11:26:53.134Z</time></trkpt><trkpt lat="44.1055123" lon="10.4718247"><ele>680.0</ele><time>2026-04-24T11:27:00.141Z</time></trkpt><trkpt lat="44.1055761" lon="10.4718615"><ele>682.0</ele><time>2026-04-24T11:27:05.14Z</time></trkpt><trkpt lat="44.1056438" lon="10.4718845"><ele>684.0</ele><time>2026-04-24T11:27:11.135Z</time></trkpt><trkpt lat="44.1057493" lon="10.4718655"><ele>682.9999999999999</ele><time>2026-04-24T11:27:49.135Z</time></trkpt><trkpt lat="44.105822" lon="10.4718651"><ele>682.0</ele><time>2026-04-24T11:27:55.142Z</time></trkpt><trkpt lat="44.1058872" lon="10.4718887"><ele>681.0</ele><time>2026-04-24T11:28:02.141Z</time></trkpt><trkpt lat="44.105934" lon="10.4719613"><ele>680.0</ele><time>2026-04-24T11:28:07.13Z</time></trkpt><trkpt lat="44.1059701" lon="10.4720339"><ele>679.0</ele><time>2026-04-24T11:28:12.152Z</time></trkpt><trkpt lat="44.1060052" lon="10.4721172"><ele>677.9999999999999</ele><time>2026-04-24T11:28:17.124Z</time></trkpt><trkpt lat="44.1060496" lon="10.4722045"><ele>677.0</ele><time>2026-04-24T11:28:22.143Z</time></trkpt><trkpt lat="44.1061089" lon="10.4722428"><ele>677.0</ele><time>2026-04-24T11:28:28.133Z</time></trkpt><trkpt lat="44.1061925" lon="10.4722406"><ele>677.0</ele><time>2026-04-24T11:28:33.123Z</time></trkpt><trkpt lat="44.1062695" lon="10.4722261"><ele>677.0</ele><time>2026-04-24T11:28:36.135Z</time></trkpt><trkpt lat="44.1063578" lon="10.4722074"><ele>677.0</ele><time>2026-04-24T11:28:39.142Z</time></trkpt><trkpt lat="44.1064239" lon="10.4721881"><ele>677.0</ele><time>2026-04-24T11:28:41.125Z</time></trkpt><trkpt lat="44.1064953" lon="10.4721854"><ele>677.0</ele><time>2026-04-24T11:28:44.131Z</time></trkpt><trkpt lat="44.106567" lon="10.4721978"><ele>675.2857142857142</ele><time>2026-04-24T11:28:47.143Z</time></trkpt><trkpt lat="44.1066449" lon="10.4722471"><ele>673.5714285714286</ele><time>2026-04-24T11:28:51.124Z</time></trkpt><trkpt lat="44.1067133" lon="10.4722724"><ele>671.8571428571429</ele><time>2026-04-24T11:28:53.135Z</time></trkpt><trkpt lat="44.1067696" lon="10.4723175"><ele>670.1428571428571</ele><time>2026-04-24T11:28:55.126Z</time></trkpt><trkpt lat="44.1068356" lon="10.472359"><ele>668.4285714285714</ele><time>2026-04-24T11:28:58.124Z</time></trkpt><trkpt lat="44.106905" lon="10.4723792"><ele>666.7142857142857</ele><time>2026-04-24T11:29:02.135Z</time></trkpt><trkpt lat="44.1069676" lon="10.4723567"><ele>665.0</ele><time>2026-04-24T11:29:07.133Z</time></trkpt><trkpt lat="44.1070363" lon="10.4723634"><ele>665.0</ele><time>2026-04-24T11:29:13.132Z</time></trkpt><trkpt lat="44.107133" lon="10.4723847"><ele>665.0</ele><time>2026-04-24T11:29:38.132Z</time></trkpt><trkpt lat="44.1071838" lon="10.4724554"><ele>665.0</ele><time>2026-04-24T11:29:44.139Z</time></trkpt><trkpt lat="44.1072461" lon="10.4724792"><ele>665.0</ele><time>2026-04-24T11:29:50.139Z</time></trkpt><trkpt lat="44.1073047" lon="10.4724449"><ele>665.0</ele><time>2026-04-24T11:29:55.129Z</time></trkpt><trkpt lat="44.1073641" lon="10.4723936"><ele>665.0</ele><time>2026-04-24T11:30:14.126Z</time></trkpt><trkpt lat="44.107412" lon="10.4723268"><ele>665.0</ele><time>2026-04-24T11:30:31.136Z</time></trkpt><trkpt lat="44.107478" lon="10.4723246"><ele>662.8571428571429</ele><time>2026-04-24T11:30:45.132Z</time></trkpt><trkpt lat="44.1075428" lon="10.4723699"><ele>660.7142857142858</ele><time>2026-04-24T11:30:50.136Z</time></trkpt><trkpt lat="44.1076048" lon="10.472425"><ele>658.5714285714286</ele><time>2026-04-24T11:30:54.133Z</time></trkpt><trkpt lat="44.1076733" lon="10.4724168"><ele>656.4285714285714</ele><time>2026-04-24T11:30:57.132Z</time></trkpt><trkpt lat="44.1077415" lon="10.4724044"><ele>654.2857142857143</ele><time>2026-04-24T11:31:00.141Z</time></trkpt><trkpt lat="44.1078226" lon="10.4723772"><ele>652.1428571428571</ele><time>2026-04-24T11:31:04.133Z</time></trkpt><trkpt lat="44.1078826" lon="10.4723495"><ele>650.0</ele><time>2026-04-24T11:31:07.125Z</time></trkpt><trkpt lat="44.1079442" lon="10.472328"><ele>650.0</ele><time>2026-04-24T11:31:11.136Z</time></trkpt><trkpt lat="44.108018" lon="10.4723166"><ele>650.0</ele><time>2026-04-24T11:31:15.125Z</time></trkpt><trkpt lat="44.1080863" lon="10.4722769"><ele>650.0</ele><time>2026-04-24T11:31:19.14Z</time></trkpt><trkpt lat="44.1081595" lon="10.4722558"><ele>650.0</ele><time>2026-04-24T11:31:23.132Z</time></trkpt><trkpt lat="44.1082326" lon="10.472238"><ele>650.0</ele><time>2026-04-24T11:31:27.139Z</time></trkpt><trkpt lat="44.1082942" lon="10.4722708"><ele>650.0</ele><time>2026-04-24T11:31:31.133Z</time></trkpt><trkpt lat="44.108369" lon="10.4723039"><ele>650.0</ele><time>2026-04-24T11:31:35.151Z</time></trkpt><trkpt lat="44.1084513" lon="10.4723393"><ele>646.6</ele><time>2026-04-24T11:31:38.131Z</time></trkpt><trkpt lat="44.1085456" lon="10.4723981"><ele>643.2</ele><time>2026-04-24T11:31:40.141Z</time></trkpt><trkpt lat="44.10866" lon="10.4725029"><ele>639.8</ele><time>2026-04-24T11:31:42.138Z</time></trkpt><trkpt lat="44.1087139" lon="10.4725528"><ele>636.4</ele><time>2026-04-24T11:31:43.138Z</time></trkpt><trkpt lat="44.1087846" lon="10.4725959"><ele>633.0</ele><time>2026-04-24T11:31:44.136Z</time></trkpt><trkpt lat="44.1088459" lon="10.4726388"><ele>633.0</ele><time>2026-04-24T11:31:45.131Z</time></trkpt><trkpt lat="44.1088973" lon="10.4726971"><ele>633.0</ele><time>2026-04-24T11:31:46.152Z</time></trkpt><trkpt lat="44.1089778" lon="10.4727713"><ele>633.0</ele><time>2026-04-24T11:31:48.137Z</time></trkpt><trkpt lat="44.1090406" lon="10.4728313"><ele>633.0</ele><time>2026-04-24T11:31:51.133Z</time></trkpt><trkpt lat="44.1091021" lon="10.4728659"><ele>633.0</ele><time>2026-04-24T11:31:55.14Z</time></trkpt><trkpt lat="44.1091665" lon="10.4729019"><ele>633.0</ele><time>2026-04-24T11:32:01.138Z</time></trkpt><trkpt lat="44.1092213" lon="10.4729452"><ele>633.0</ele><time>2026-04-24T11:32:05.135Z</time></trkpt><trkpt lat="44.1092787" lon="10.4729981"><ele>632.1428571428571</ele><time>2026-04-24T11:32:10.132Z</time></trkpt><trkpt lat="44.1093387" lon="10.4730686"><ele>631.2857142857143</ele><time>2026-04-24T11:32:15.131Z</time></trkpt><trkpt lat="44.1093881" lon="10.4731276"><ele>630.4285714285714</ele><time>2026-04-24T11:32:20.131Z</time></trkpt><trkpt lat="44.1094455" lon="10.4731979"><ele>629.5714285714286</ele><time>2026-04-24T11:32:33.121Z</time></trkpt><trkpt lat="44.1094999" lon="10.4732608"><ele>628.7142857142857</ele><time>2026-04-24T11:32:37.134Z</time></trkpt><trkpt lat="44.1095473" lon="10.4733399"><ele>627.8571428571429</ele><time>2026-04-24T11:32:42.129Z</time></trkpt><trkpt lat="44.1095895" lon="10.4734196"><ele>627.0</ele><time>2026-04-24T11:32:47.123Z</time></trkpt><trkpt lat="44.1095981" lon="10.4735265"><ele>627.0</ele><time>2026-04-24T11:32:51.122Z</time></trkpt><trkpt lat="44.1095939" lon="10.4736265"><ele>627.0</ele><time>2026-04-24T11:32:54.14Z</time></trkpt><trkpt lat="44.1095915" lon="10.4737334"><ele>627.0</ele><time>2026-04-24T11:32:58.123Z</time></trkpt><trkpt lat="44.1095953" lon="10.4738565"><ele>627.0</ele><time>2026-04-24T11:33:01.134Z</time></trkpt><trkpt lat="44.1095937" lon="10.4739647"><ele>627.0</ele><time>2026-04-24T11:33:03.137Z</time></trkpt><trkpt lat="44.1095747" lon="10.474058"><ele>627.0</ele><time>2026-04-24T11:33:07.133Z</time></trkpt><trkpt lat="44.109561" lon="10.4741582"><ele>629.0</ele><time>2026-04-24T11:33:11.132Z</time></trkpt><trkpt lat="44.1095925" lon="10.4742567"><ele>631.0</ele><time>2026-04-24T11:33:15.152Z</time></trkpt><trkpt lat="44.1096413" lon="10.4743138"><ele>633.0</ele><time>2026-04-24T11:33:21.133Z</time></trkpt><trkpt lat="44.1096887" lon="10.4743813"><ele>635.0</ele><time>2026-04-24T11:33:36.135Z</time></trkpt><trkpt lat="44.1097333" lon="10.4744451"><ele>637.0</ele><time>2026-04-24T11:33:47.134Z</time></trkpt><trkpt lat="44.109781" lon="10.4745071"><ele>639.0</ele><time>2026-04-24T11:33:58.127Z</time></trkpt><trkpt lat="44.1098309" lon="10.47457"><ele>641.0</ele><time>2026-04-24T11:34:11.125Z</time></trkpt><trkpt lat="44.1098242" lon="10.4746587"><ele>642.1428571428571</ele><time>2026-04-24T11:34:40.132Z</time></trkpt><trkpt lat="44.1097514" lon="10.4746594"><ele>643.2857142857142</ele><time>2026-04-24T11:34:45.134Z</time></trkpt><trkpt lat="44.1096909" lon="10.4746967"><ele>644.4285714285713</ele><time>2026-04-24T11:34:52.125Z</time></trkpt><trkpt lat="44.1096777" lon="10.4747882"><ele>645.5714285714286</ele><time>2026-04-24T11:34:58.143Z</time></trkpt><trkpt lat="44.1097182" lon="10.4748788"><ele>646.7142857142857</ele><time>2026-04-24T11:35:04.136Z</time></trkpt><trkpt lat="44.1097593" lon="10.4749465"><ele>647.8571428571428</ele><time>2026-04-24T11:35:09.138Z</time></trkpt><trkpt lat="44.109826" lon="10.4750049"><ele>649.0</ele><time>2026-04-24T11:35:14.129Z</time></trkpt><trkpt lat="44.1098901" lon="10.4750493"><ele>648.5714285714286</ele><time>2026-04-24T11:35:19.133Z</time></trkpt><trkpt lat="44.1099499" lon="10.475112"><ele>648.1428571428571</ele><time>2026-04-24T11:35:25.142Z</time></trkpt><trkpt lat="44.1100105" lon="10.4751699"><ele>647.7142857142858</ele><time>2026-04-24T11:35:30.134Z</time></trkpt><trkpt lat="44.1100572" lon="10.4752334"><ele>647.2857142857142</ele><time>2026-04-24T11:35:44.131Z</time></trkpt><trkpt lat="44.1101118" lon="10.4752823"><ele>646.8571428571429</ele><time>2026-04-24T11:35:59.128Z</time></trkpt><trkpt lat="44.110105" lon="10.4753839"><ele>646.4285714285714</ele><time>2026-04-24T11:36:23.134Z</time></trkpt><trkpt lat="44.1100704" lon="10.4754789"><ele>646.0</ele><time>2026-04-24T11:36:28.147Z</time></trkpt><trkpt lat="44.1100454" lon="10.4755625"><ele>646.0000000000001</ele><time>2026-04-24T11:36:32.132Z</time></trkpt><trkpt lat="44.1100395" lon="10.4756551"><ele>646.0</ele><time>2026-04-24T11:36:37.135Z</time></trkpt><trkpt lat="44.1100587" lon="10.4757476"><ele>646.0</ele><time>2026-04-24T11:36:41.139Z</time></trkpt><trkpt lat="44.1100852" lon="10.4758329"><ele>646.0</ele><time>2026-04-24T11:36:53.13Z</time></trkpt><trkpt lat="44.1101305" lon="10.4759416"><ele>646.0</ele><time>2026-04-24T11:37:14.123Z</time></trkpt><trkpt lat="44.1101623" lon="10.4760261"><ele>646.0000000000001</ele><time>2026-04-24T11:37:19.137Z</time></trkpt><trkpt lat="44.1101815" lon="10.4761126"><ele>646.0</ele><time>2026-04-24T11:37:24.132Z</time></trkpt><trkpt lat="44.1101917" lon="10.4762166"><ele>649.4285714285714</ele><time>2026-04-24T11:37:29.13Z</time></trkpt><trkpt lat="44.1102121" lon="10.4763151"><ele>652.8571428571429</ele><time>2026-04-24T11:37:34.128Z</time></trkpt><trkpt lat="44.1102357" lon="10.4764078"><ele>656.2857142857142</ele><time>2026-04-24T11:37:38.128Z</time></trkpt><trkpt lat="44.1102802" lon="10.4764705"><ele>659.7142857142858</ele><time>2026-04-24T11:38:00.142Z</time></trkpt><trkpt lat="44.1103306" lon="10.4765376"><ele>663.1428571428571</ele><time>2026-04-24T11:38:05.133Z</time></trkpt><trkpt lat="44.110375" lon="10.4766247"><ele>666.5714285714286</ele><time>2026-04-24T11:38:09.14Z</time></trkpt><trkpt lat="44.1104345" lon="10.4766991"><ele>670.0</ele><time>2026-04-24T11:38:27.129Z</time></trkpt><trkpt lat="44.110477" lon="10.4767761"><ele>669.9999999999999</ele><time>2026-04-24T11:38:40.133Z</time></trkpt><trkpt lat="44.1105355" lon="10.476822"><ele>670.0</ele><time>2026-04-24T11:38:51.132Z</time></trkpt><trkpt lat="44.1105917" lon="10.476869"><ele>670.0</ele><time>2026-04-24T11:39:04.136Z</time></trkpt><trkpt lat="44.110653" lon="10.4769038"><ele>670.0</ele><time>2026-04-24T11:39:56.127Z</time></trkpt><trkpt lat="44.1107202" lon="10.4769467"><ele>670.0</ele><time>2026-04-24T11:40:01.129Z</time></trkpt><trkpt lat="44.1107817" lon="10.476996"><ele>669.9999999999999</ele><time>2026-04-24T11:40:05.14Z</time></trkpt><trkpt lat="44.1108296" lon="10.4770537"><ele>670.0</ele><time>2026-04-24T11:40:09.141Z</time></trkpt><trkpt lat="44.1108712" lon="10.4771383"><ele>671.2857142857142</ele><time>2026-04-24T11:40:13.141Z</time></trkpt><trkpt lat="44.1109164" lon="10.4772182"><ele>672.5714285714286</ele><time>2026-04-24T11:40:17.131Z</time></trkpt><trkpt lat="44.1109197" lon="10.47732"><ele>673.8571428571429</ele><time>2026-04-24T11:40:23.14Z</time></trkpt><trkpt lat="44.110905" lon="10.4774076"><ele>675.1428571428571</ele><time>2026-04-24T11:40:27.137Z</time></trkpt><trkpt lat="44.1108894" lon="10.4775027"><ele>676.4285714285714</ele><time>2026-04-24T11:40:32.144Z</time></trkpt><trkpt lat="44.1108716" lon="10.4775921"><ele>677.7142857142857</ele><time>2026-04-24T11:40:37.133Z</time></trkpt><trkpt lat="44.110876" lon="10.4776847"><ele>679.0</ele><time>2026-04-24T11:40:41.144Z</time></trkpt><trkpt lat="44.1108857" lon="10.4777775"><ele>679.0</ele><time>2026-04-24T11:40:45.138Z</time></trkpt><trkpt lat="44.1108695" lon="10.4778678"><ele>679.0</ele><time>2026-04-24T11:40:49.132Z</time></trkpt><trkpt lat="44.1108431" lon="10.4779515"><ele>679.0</ele><time>2026-04-24T11:40:54.132Z</time></trkpt><trkpt lat="44.1108212" lon="10.478044"><ele>679.0</ele><time>2026-04-24T11:40:59.136Z</time></trkpt><trkpt lat="44.1107905" lon="10.4781269"><ele>679.0</ele><time>2026-04-24T11:41:03.133Z</time></trkpt><trkpt lat="44.1107604" lon="10.4782152"><ele>679.0</ele><time>2026-04-24T11:41:08.131Z</time></trkpt><trkpt lat="44.1107789" lon="10.4783159"><ele>679.0</ele><time>2026-04-24T11:41:21.13Z</time></trkpt><trkpt lat="44.110781" lon="10.4784056"><ele>679.0</ele><time>2026-04-24T11:41:25.126Z</time></trkpt><trkpt lat="44.1108006" lon="10.4784962"><ele>679.0</ele><time>2026-04-24T11:41:29.131Z</time></trkpt><trkpt lat="44.1108421" lon="10.4785877"><ele>679.0</ele><time>2026-04-24T11:41:33.125Z</time></trkpt><trkpt lat="44.1108483" lon="10.4786777"><ele>679.0</ele><time>2026-04-24T11:41:37.137Z</time></trkpt><trkpt lat="44.110863" lon="10.4787667"><ele>679.0</ele><time>2026-04-24T11:41:40.142Z</time></trkpt><trkpt lat="44.1108834" lon="10.4788557"><ele>679.0</ele><time>2026-04-24T11:41:44.128Z</time></trkpt><trkpt lat="44.1108904" lon="10.4789523"><ele>679.0</ele><time>2026-04-24T11:41:48.137Z</time></trkpt><trkpt lat="44.110908" lon="10.4790598"><ele>681.0</ele><time>2026-04-24T11:41:53.143Z</time></trkpt><trkpt lat="44.1109208" lon="10.4791541"><ele>683.0</ele><time>2026-04-24T11:41:57.136Z</time></trkpt><trkpt lat="44.1109354" lon="10.4792417"><ele>685.0</ele><time>2026-04-24T11:42:00.126Z</time></trkpt><trkpt lat="44.1109405" lon="10.4793491"><ele>687.0</ele><time>2026-04-24T11:42:04.124Z</time></trkpt><trkpt lat="44.1109747" lon="10.479462"><ele>689.0</ele><time>2026-04-24T11:42:19.131Z</time></trkpt><trkpt lat="44.1109819" lon="10.4795667"><ele>691.0</ele><time>2026-04-24T11:42:24.123Z</time></trkpt><trkpt lat="44.1109699" lon="10.4796718"><ele>693.7142857142857</ele><time>2026-04-24T11:42:28.132Z</time></trkpt><trkpt lat="44.1109615" lon="10.4797807"><ele>696.4285714285714</ele><time>2026-04-24T11:42:32.138Z</time></trkpt><trkpt lat="44.1109692" lon="10.4798736"><ele>699.1428571428571</ele><time>2026-04-24T11:42:36.128Z</time></trkpt><trkpt lat="44.1109864" lon="10.4799671"><ele>701.8571428571429</ele><time>2026-04-24T11:42:40.129Z</time></trkpt><trkpt lat="44.1109924" lon="10.4800768"><ele>704.5714285714286</ele><time>2026-04-24T11:42:45.128Z</time></trkpt><trkpt lat="44.1109949" lon="10.4801754"><ele>707.2857142857142</ele><time>2026-04-24T11:42:51.122Z</time></trkpt><trkpt lat="44.1110045" lon="10.4802779"><ele>710.0</ele><time>2026-04-24T11:42:55.141Z</time></trkpt><trkpt lat="44.1110419" lon="10.4803778"><ele>713.8571428571429</ele><time>2026-04-24T11:43:00.132Z</time></trkpt><trkpt lat="44.1110982" lon="10.4804332"><ele>717.7142857142858</ele><time>2026-04-24T11:43:04.123Z</time></trkpt><trkpt lat="44.1111541" lon="10.4804841"><ele>721.5714285714287</ele><time>2026-04-24T11:43:09.137Z</time></trkpt><trkpt lat="44.111221" lon="10.4805095"><ele>725.4285714285714</ele><time>2026-04-24T11:43:22.128Z</time></trkpt><trkpt lat="44.1112852" lon="10.480517"><ele>729.2857142857143</ele><time>2026-04-24T11:44:21.145Z</time></trkpt><trkpt lat="44.1113558" lon="10.4805446"><ele>733.1428571428572</ele><time>2026-04-24T11:45:07.13Z</time></trkpt><trkpt lat="44.1114187" lon="10.4805553"><ele>737.0</ele><time>2026-04-24T11:45:11.138Z</time></trkpt><trkpt lat="44.1114876" lon="10.4805651"><ele>737.0000000000001</ele><time>2026-04-24T11:45:15.13Z</time></trkpt><trkpt lat="44.111562" lon="10.4805757"><ele>737.0</ele><time>2026-04-24T11:45:19.129Z</time></trkpt><trkpt lat="44.1116282" lon="10.4805914"><ele>737.0</ele><time>2026-04-24T11:45:23.136Z</time></trkpt><trkpt lat="44.1117037" lon="10.4806126"><ele>737.0</ele><time>2026-04-24T11:45:28.132Z</time></trkpt><trkpt lat="44.11177" lon="10.4806617"><ele>737.0</ele><time>2026-04-24T11:45:33.151Z</time></trkpt><trkpt lat="44.111832" lon="10.4806819"><ele>737.0000000000001</ele><time>2026-04-24T11:45:37.132Z</time></trkpt><trkpt lat="44.1118929" lon="10.4807114"><ele>737.0</ele><time>2026-04-24T11:45:41.129Z</time></trkpt><trkpt lat="44.1119544" lon="10.4807618"><ele>738.2857142857143</ele><time>2026-04-24T11:45:45.126Z</time></trkpt><trkpt lat="44.1119913" lon="10.4808392"><ele>739.5714285714286</ele><time>2026-04-24T11:45:50.138Z</time></trkpt><trkpt lat="44.1120229" lon="10.4809239"><ele>740.8571428571429</ele><time>2026-04-24T11:45:54.132Z</time></trkpt><trkpt lat="44.1120404" lon="10.4810114"><ele>742.1428571428571</ele><time>2026-04-24T11:45:58.143Z</time></trkpt><trkpt lat="44.112089" lon="10.4810886"><ele>743.4285714285714</ele><time>2026-04-24T11:46:02.132Z</time></trkpt><trkpt lat="44.1121407" lon="10.4811737"><ele>744.7142857142858</ele><time>2026-04-24T11:46:07.134Z</time></trkpt><trkpt lat="44.1121746" lon="10.4812479"><ele>746.0</ele><time>2026-04-24T11:46:11.132Z</time></trkpt><trkpt lat="44.1121948" lon="10.481345"><ele>746.0</ele><time>2026-04-24T11:46:16.131Z</time></trkpt><trkpt lat="44.1122344" lon="10.4814194"><ele>746.0</ele><time>2026-04-24T11:46:20.145Z</time></trkpt><trkpt lat="44.1122848" lon="10.481496"><ele>746.0</ele><time>2026-04-24T11:46:24.135Z</time></trkpt><trkpt lat="44.1123148" lon="10.481583"><ele>746.0</ele><time>2026-04-24T11:46:30.135Z</time></trkpt><trkpt lat="44.1123307" lon="10.4816867"><ele>746.0</ele><time>2026-04-24T11:46:46.128Z</time></trkpt><trkpt lat="44.1123418" lon="10.4817776"><ele>746.0</ele><time>2026-04-24T11:47:03.14Z</time></trkpt><trkpt lat="44.1123586" lon="10.4818792"><ele>746.0</ele><time>2026-04-24T11:47:08.137Z</time></trkpt><trkpt lat="44.1123897" lon="10.4819622"><ele>744.2857142857143</ele><time>2026-04-24T11:47:12.141Z</time></trkpt><trkpt lat="44.1124296" lon="10.4820457"><ele>742.5714285714287</ele><time>2026-04-24T11:47:17.125Z</time></trkpt><trkpt lat="44.112469" lon="10.4821377"><ele>740.8571428571429</ele><time>2026-04-24T11:47:22.143Z</time></trkpt><trkpt lat="44.1124731" lon="10.4822408"><ele>739.1428571428571</ele><time>2026-04-24T11:47:27.127Z</time></trkpt><trkpt lat="44.1124617" lon="10.4823297"><ele>737.4285714285714</ele><time>2026-04-24T11:47:31.134Z</time></trkpt><trkpt lat="44.1124434" lon="10.4824317"><ele>735.7142857142857</ele><time>2026-04-24T11:47:37.131Z</time></trkpt><trkpt lat="44.1124212" lon="10.4825262"><ele>734.0</ele><time>2026-04-24T11:47:44.127Z</time></trkpt><trkpt lat="44.1123959" lon="10.4826116"><ele>738.1666666666666</ele><time>2026-04-24T11:47:49.129Z</time></trkpt><trkpt lat="44.112401" lon="10.4827013"><ele>742.3333333333333</ele><time>2026-04-24T11:48:04.125Z</time></trkpt><trkpt lat="44.1124037" lon="10.4828762"><ele>746.5</ele><time>2026-04-24T11:48:34.131Z</time></trkpt><trkpt lat="44.1123891" lon="10.4829627"><ele>750.6666666666666</ele><time>2026-04-24T11:48:39.133Z</time></trkpt><trkpt lat="44.1123853" lon="10.4830673"><ele>754.8333333333334</ele><time>2026-04-24T11:48:44.13Z</time></trkpt><trkpt lat="44.1123812" lon="10.4831724"><ele>759.0</ele><time>2026-04-24T11:48:49.127Z</time></trkpt><trkpt lat="44.1124377" lon="10.4832479"><ele>759.0</ele><time>2026-04-24T11:48:54.13Z</time></trkpt><trkpt lat="44.1124942" lon="10.4833027"><ele>759.0</ele><time>2026-04-24T11:48:59.129Z</time></trkpt><trkpt lat="44.1125468" lon="10.4833534"><ele>759.0</ele><time>2026-04-24T11:49:04.127Z</time></trkpt><trkpt lat="44.1125761" lon="10.4834313"><ele>759.0</ele><time>2026-04-24T11:49:08.124Z</time></trkpt><trkpt lat="44.112627" lon="10.4834916"><ele>759.0</ele><time>2026-04-24T11:49:12.132Z</time></trkpt><trkpt lat="44.1125868" lon="10.4835593"><ele>759.0</ele><time>2026-04-24T11:49:55.127Z</time></trkpt><trkpt lat="44.1125226" lon="10.4835649"><ele>759.0</ele><time>2026-04-24T11:50:05.127Z</time></trkpt><trkpt lat="44.1124584" lon="10.4835655"><ele>762.8571428571429</ele><time>2026-04-24T11:50:17.14Z</time></trkpt><trkpt lat="44.1123935" lon="10.4835823"><ele>766.7142857142857</ele><time>2026-04-24T11:51:02.127Z</time></trkpt><trkpt lat="44.1123935" lon="10.483677"><ele>770.5714285714287</ele><time>2026-04-24T11:51:19.123Z</time></trkpt><trkpt lat="44.1123919" lon="10.4837682"><ele>774.4285714285714</ele><time>2026-04-24T11:51:31.125Z</time></trkpt><trkpt lat="44.1124221" lon="10.4838556"><ele>778.2857142857143</ele><time>2026-04-24T11:51:43.16Z</time></trkpt><trkpt lat="44.11248" lon="10.4839008"><ele>782.1428571428572</ele><time>2026-04-24T11:51:52.138Z</time></trkpt><trkpt lat="44.1125372" lon="10.4839392"><ele>786.0</ele><time>2026-04-24T11:52:01.138Z</time></trkpt><trkpt lat="44.1125985" lon="10.4839709"><ele>786.0000000000001</ele><time>2026-04-24T11:52:16.121Z</time></trkpt><trkpt lat="44.1126481" lon="10.4840383"><ele>786.0</ele><time>2026-04-24T11:52:53.125Z</time></trkpt><trkpt lat="44.1126814" lon="10.4841143"><ele>786.0</ele><time>2026-04-24T11:53:05.13Z</time></trkpt><trkpt lat="44.112688" lon="10.4842037"><ele>786.0</ele><time>2026-04-24T11:53:16.134Z</time></trkpt><trkpt lat="44.1127301" lon="10.4842714"><ele>786.0</ele><time>2026-04-24T11:53:25.129Z</time></trkpt><trkpt lat="44.1127761" lon="10.4843347"><ele>786.0000000000001</ele><time>2026-04-24T11:53:38.138Z</time></trkpt><trkpt lat="44.1128123" lon="10.4844105"><ele>786.0</ele><time>2026-04-24T11:53:51.128Z</time></trkpt><trkpt lat="44.1128866" lon="10.4844572"><ele>786.0000000000001</ele><time>2026-04-24T11:54:14.142Z</time></trkpt><trkpt lat="44.1129326" lon="10.4845245"><ele>786.0</ele><time>2026-04-24T11:54:50.127Z</time></trkpt><trkpt lat="44.1129664" lon="10.4846023"><ele>786.0</ele><time>2026-04-24T11:54:56.136Z</time></trkpt><trkpt lat="44.1129069" lon="10.4846443"><ele>786.0</ele><time>2026-04-24T11:55:05.135Z</time></trkpt><trkpt lat="44.1128413" lon="10.4846243"><ele>786.0</ele><time>2026-04-24T11:55:28.13Z</time></trkpt><trkpt lat="44.1127791" lon="10.4845898"><ele>786.0000000000001</ele><time>2026-04-24T11:55:32.132Z</time></trkpt><trkpt lat="44.1127147" lon="10.484528"><ele>786.0</ele><time>2026-04-24T11:55:37.146Z</time></trkpt><trkpt lat="44.1126452" lon="10.4845134"><ele>786.0000000000001</ele><time>2026-04-24T11:55:42.134Z</time></trkpt><trkpt lat="44.1125857" lon="10.4844734"><ele>786.0</ele><time>2026-04-24T11:56:03.123Z</time></trkpt><trkpt lat="44.1125221" lon="10.4844606"><ele>786.0</ele><time>2026-04-24T11:56:07.128Z</time></trkpt><trkpt lat="44.1124563" lon="10.4844271"><ele>786.0</ele><time>2026-04-24T11:56:12.127Z</time></trkpt><trkpt lat="44.1123871" lon="10.4844273"><ele>786.0</ele><time>2026-04-24T11:56:16.134Z</time></trkpt><trkpt lat="44.1123211" lon="10.484414"><ele>786.0000000000001</ele><time>2026-04-24T11:56:20.129Z</time></trkpt><trkpt lat="44.1122467" lon="10.4844271"><ele>786.0</ele><time>2026-04-24T11:56:24.131Z</time></trkpt><trkpt lat="44.1121744" lon="10.4844223"><ele>790.2857142857143</ele><time>2026-04-24T11:56:29.129Z</time></trkpt><trkpt lat="44.1120954" lon="10.4844295"><ele>794.5714285714286</ele><time>2026-04-24T11:56:33.131Z</time></trkpt><trkpt lat="44.1119964" lon="10.4843992"><ele>798.8571428571429</ele><time>2026-04-24T11:56:52.128Z</time></trkpt><trkpt lat="44.1119303" lon="10.4843685"><ele>803.1428571428571</ele><time>2026-04-24T11:57:04.131Z</time></trkpt><trkpt lat="44.1118646" lon="10.4843433"><ele>807.4285714285714</ele><time>2026-04-24T11:57:15.128Z</time></trkpt><trkpt lat="44.1118122" lon="10.4842931"><ele>811.7142857142858</ele><time>2026-04-24T11:57:33.131Z</time></trkpt><trkpt lat="44.1117663" lon="10.4842265"><ele>816.0</ele><time>2026-04-24T11:57:48.126Z</time></trkpt><trkpt lat="44.1117261" lon="10.4841521"><ele>816.0</ele><time>2026-04-24T11:57:57.14Z</time></trkpt><trkpt lat="44.1117174" lon="10.4840633"><ele>816.0</ele><time>2026-04-24T11:58:10.122Z</time></trkpt><trkpt lat="44.1116841" lon="10.483964"><ele>816.0</ele><time>2026-04-24T11:58:44.122Z</time></trkpt><trkpt lat="44.1116468" lon="10.4838931"><ele>816.0</ele><time>2026-04-24T11:58:52.132Z</time></trkpt><trkpt lat="44.1116285" lon="10.4838082"><ele>816.0</ele><time>2026-04-24T11:59:05.121Z</time></trkpt><trkpt lat="44.1115844" lon="10.4837327"><ele>816.0</ele><time>2026-04-24T11:59:15.121Z</time></trkpt><trkpt lat="44.1115509" lon="10.4836533"><ele>816.0</ele><time>2026-04-24T11:59:23.125Z</time></trkpt><trkpt lat="44.1115119" lon="10.4835807"><ele>819.5</ele><time>2026-04-24T11:59:32.131Z</time></trkpt><trkpt lat="44.1114715" lon="10.4834802"><ele>823.0</ele><time>2026-04-24T11:59:47.154Z</time></trkpt><trkpt lat="44.1114097" lon="10.4834234"><ele>826.5</ele><time>2026-04-24T12:00:17.123Z</time></trkpt><trkpt lat="44.1113434" lon="10.4834189"><ele>830.0</ele><time>2026-04-24T12:00:20.128Z</time></trkpt><trkpt lat="44.111276" lon="10.483411"><ele>833.5</ele><time>2026-04-24T12:00:24.123Z</time></trkpt><trkpt lat="44.1111979" lon="10.4833964"><ele>837.0</ele><time>2026-04-24T12:00:28.133Z</time></trkpt><trkpt lat="44.1111167" lon="10.4833829"><ele>837.0</ele><time>2026-04-24T12:00:32.13Z</time></trkpt><trkpt lat="44.1110362" lon="10.4833259"><ele>837.0</ele><time>2026-04-24T12:01:12.131Z</time></trkpt><trkpt lat="44.1109735" lon="10.4833014"><ele>837.0</ele><time>2026-04-24T12:01:20.129Z</time></trkpt><trkpt lat="44.11091" lon="10.4832853"><ele>837.0</ele><time>2026-04-24T12:01:28.132Z</time></trkpt><trkpt lat="44.1108426" lon="10.4832754"><ele>837.0</ele><time>2026-04-24T12:01:37.132Z</time></trkpt><trkpt lat="44.1107749" lon="10.4832633"><ele>837.0</ele><time>2026-04-24T12:02:15.121Z</time></trkpt><trkpt lat="44.110698" lon="10.483234"><ele>837.0</ele><time>2026-04-24T12:02:19.124Z</time></trkpt><trkpt lat="44.1106384" lon="10.4831818"><ele>841.1428571428571</ele><time>2026-04-24T12:02:24.138Z</time></trkpt><trkpt lat="44.1105723" lon="10.4831812"><ele>845.2857142857143</ele><time>2026-04-24T12:02:28.134Z</time></trkpt><trkpt lat="44.1104964" lon="10.4831546"><ele>849.4285714285713</ele><time>2026-04-24T12:02:33.134Z</time></trkpt><trkpt lat="44.1104301" lon="10.4831114"><ele>853.5714285714286</ele><time>2026-04-24T12:02:37.134Z</time></trkpt><trkpt lat="44.1103563" lon="10.4830734"><ele>857.7142857142857</ele><time>2026-04-24T12:02:42.126Z</time></trkpt><trkpt lat="44.1102901" lon="10.4830472"><ele>861.8571428571428</ele><time>2026-04-24T12:02:46.131Z</time></trkpt><trkpt lat="44.110224" lon="10.4830142"><ele>866.0</ele><time>2026-04-24T12:03:35.131Z</time></trkpt><trkpt lat="44.1101497" lon="10.4829534"><ele>861.5000000000001</ele><time>2026-04-24T12:03:38.127Z</time></trkpt><trkpt lat="44.1100961" lon="10.4828676"><ele>857.0</ele><time>2026-04-24T12:03:40.128Z</time></trkpt><trkpt lat="44.1100619" lon="10.4827573"><ele>852.5</ele><time>2026-04-24T12:03:42.133Z</time></trkpt><trkpt lat="44.11004" lon="10.4826672"><ele>848.0</ele><time>2026-04-24T12:03:44.124Z</time></trkpt><trkpt lat="44.1099902" lon="10.4825786"><ele>843.5000000000001</ele><time>2026-04-24T12:03:47.127Z</time></trkpt><trkpt lat="44.1099733" lon="10.4824907"><ele>839.0</ele><time>2026-04-24T12:03:51.133Z</time></trkpt><trkpt lat="44.1099311" lon="10.4823771"><ele>843.8000000000001</ele><time>2026-04-24T12:03:55.136Z</time></trkpt><trkpt lat="44.1098809" lon="10.4822851"><ele>848.6</ele><time>2026-04-24T12:03:57.136Z</time></trkpt><trkpt lat="44.1098382" lon="10.4822126"><ele>853.4</ele><time>2026-04-24T12:03:58.136Z</time></trkpt><trkpt lat="44.1098004" lon="10.4821381"><ele>858.2</ele><time>2026-04-24T12:03:59.158Z</time></trkpt><trkpt lat="44.1097519" lon="10.481978"><ele>863.0</ele><time>2026-04-24T12:04:01.129Z</time></trkpt><trkpt lat="44.1097045" lon="10.4818271"><ele>863.0</ele><time>2026-04-24T12:04:03.152Z</time></trkpt><trkpt lat="44.1096585" lon="10.4816775"><ele>863.0</ele><time>2026-04-24T12:04:05.128Z</time></trkpt><trkpt lat="44.1096182" lon="10.4815697"><ele>863.0</ele><time>2026-04-24T12:04:07.122Z</time></trkpt><trkpt lat="44.1095687" lon="10.4814743"><ele>863.0</ele><time>2026-04-24T12:04:09.127Z</time></trkpt><trkpt lat="44.109523" lon="10.4813608"><ele>863.0</ele><time>2026-04-24T12:04:11.132Z</time></trkpt><trkpt lat="44.1094864" lon="10.4812498"><ele>858.2</ele><time>2026-04-24T12:04:13.145Z</time></trkpt><trkpt lat="44.1094784" lon="10.4811007"><ele>853.4</ele><time>2026-04-24T12:04:15.132Z</time></trkpt><trkpt lat="44.1094578" lon="10.4809711"><ele>848.6</ele><time>2026-04-24T12:04:17.123Z</time></trkpt><trkpt lat="44.1094338" lon="10.4808593"><ele>843.8000000000001</ele><time>2026-04-24T12:04:19.123Z</time></trkpt><trkpt lat="44.109405" lon="10.4807661"><ele>839.0</ele><time>2026-04-24T12:04:21.137Z</time></trkpt><trkpt lat="44.1093412" lon="10.4806747"><ele>839.0000000000001</ele><time>2026-04-24T12:04:23.145Z</time></trkpt><trkpt lat="44.1092782" lon="10.4806272"><ele>839.0</ele><time>2026-04-24T12:04:25.132Z</time></trkpt><trkpt lat="44.1092363" lon="10.4805271"><ele>839.0</ele><time>2026-04-24T12:04:28.136Z</time></trkpt><trkpt lat="44.1091867" lon="10.4804511"><ele>839.0</ele><time>2026-04-24T12:04:30.134Z</time></trkpt><trkpt lat="44.1091476" lon="10.4803357"><ele>839.0000000000001</ele><time>2026-04-24T12:04:33.148Z</time></trkpt><trkpt lat="44.1091393" lon="10.4802073"><ele>839.0</ele><time>2026-04-24T12:04:36.127Z</time></trkpt><trkpt lat="44.1091328" lon="10.4801015"><ele>837.5000000000001</ele><time>2026-04-24T12:04:39.131Z</time></trkpt><trkpt lat="44.1090983" lon="10.4799961"><ele>836.0</ele><time>2026-04-24T12:04:42.135Z</time></trkpt><trkpt lat="44.1090684" lon="10.47991"><ele>834.5</ele><time>2026-04-24T12:04:45.143Z</time></trkpt><trkpt lat="44.1090209" lon="10.4798238"><ele>833.0</ele><time>2026-04-24T12:04:48.126Z</time></trkpt><trkpt lat="44.1089808" lon="10.4797327"><ele>831.5000000000001</ele><time>2026-04-24T12:04:51.127Z</time></trkpt><trkpt lat="44.1089458" lon="10.4796268"><ele>830.0</ele><time>2026-04-24T12:04:54.134Z</time></trkpt><trkpt lat="44.1089272" lon="10.4795126"><ele>830.0000000000001</ele><time>2026-04-24T12:04:57.125Z</time></trkpt><trkpt lat="44.1088907" lon="10.4794081"><ele>830.0</ele><time>2026-04-24T12:05:00.144Z</time></trkpt><trkpt lat="44.1088485" lon="10.4792986"><ele>830.0</ele><time>2026-04-24T12:05:03.134Z</time></trkpt><trkpt lat="44.1088048" lon="10.479221"><ele>830.0</ele><time>2026-04-24T12:05:05.146Z</time></trkpt><trkpt lat="44.1087455" lon="10.4791467"><ele>830.0000000000001</ele><time>2026-04-24T12:05:07.143Z</time></trkpt><trkpt lat="44.1086668" lon="10.4790757"><ele>830.0</ele><time>2026-04-24T12:05:09.125Z</time></trkpt><trkpt lat="44.1085906" lon="10.4790326"><ele>830.0000000000001</ele><time>2026-04-24T12:05:11.135Z</time></trkpt><trkpt lat="44.1085204" lon="10.4789699"><ele>830.0</ele><time>2026-04-24T12:05:13.131Z</time></trkpt><trkpt lat="44.108448" lon="10.47888"><ele>830.0</ele><time>2026-04-24T12:05:16.131Z</time></trkpt><trkpt lat="44.1084062" lon="10.4787982"><ele>830.0</ele><time>2026-04-24T12:05:17.137Z</time></trkpt><trkpt lat="44.1083394" lon="10.4786838"><ele>830.0000000000001</ele><time>2026-04-24T12:05:19.138Z</time></trkpt><trkpt lat="44.1083056" lon="10.4785734"><ele>830.0</ele><time>2026-04-24T12:05:22.131Z</time></trkpt><trkpt lat="44.1082675" lon="10.4784653"><ele>827.6666666666667</ele><time>2026-04-24T12:05:25.135Z</time></trkpt><trkpt lat="44.108236" lon="10.4783637"><ele>825.3333333333334</ele><time>2026-04-24T12:05:28.122Z</time></trkpt><trkpt lat="44.1082068" lon="10.4782709"><ele>823.0</ele><time>2026-04-24T12:05:30.127Z</time></trkpt><trkpt lat="44.1081721" lon="10.4781969"><ele>820.6666666666667</ele><time>2026-04-24T12:05:32.136Z</time></trkpt><trkpt lat="44.1081104" lon="10.4781225"><ele>818.3333333333334</ele><time>2026-04-24T12:05:35.149Z</time></trkpt><trkpt lat="44.1080289" lon="10.4780804"><ele>816.0</ele><time>2026-04-24T12:05:38.144Z</time></trkpt><trkpt lat="44.1079465" lon="10.4780501"><ele>816.0</ele><time>2026-04-24T12:05:40.125Z</time></trkpt><trkpt lat="44.1078531" lon="10.478008"><ele>816.0</ele><time>2026-04-24T12:05:42.144Z</time></trkpt><trkpt lat="44.1077538" lon="10.4779604"><ele>816.0</ele><time>2026-04-24T12:05:44.143Z</time></trkpt><trkpt lat="44.107698" lon="10.4779194"><ele>816.0</ele><time>2026-04-24T12:05:45.132Z</time></trkpt><trkpt lat="44.107609" lon="10.4778635"><ele>816.0</ele><time>2026-04-24T12:05:47.134Z</time></trkpt><trkpt lat="44.1075518" lon="10.4778071"><ele>816.0</ele><time>2026-04-24T12:05:49.125Z</time></trkpt><trkpt lat="44.1074927" lon="10.4777674"><ele>812.1999999999999</ele><time>2026-04-24T12:05:51.123Z</time></trkpt><trkpt lat="44.1074058" lon="10.4777306"><ele>808.4</ele><time>2026-04-24T12:05:54.13Z</time></trkpt><trkpt lat="44.1073116" lon="10.4777325"><ele>804.6</ele><time>2026-04-24T12:05:57.134Z</time></trkpt><trkpt lat="44.1072158" lon="10.477717"><ele>800.8</ele><time>2026-04-24T12:05:59.126Z</time></trkpt><trkpt lat="44.1071349" lon="10.477675"><ele>797.0</ele><time>2026-04-24T12:06:01.129Z</time></trkpt><trkpt lat="44.1070552" lon="10.4776412"><ele>797.0000000000001</ele><time>2026-04-24T12:06:03.135Z</time></trkpt><trkpt lat="44.1069931" lon="10.4775563"><ele>797.0</ele><time>2026-04-24T12:06:05.133Z</time></trkpt><trkpt lat="44.1069252" lon="10.477441"><ele>797.0</ele><time>2026-04-24T12:06:07.12Z</time></trkpt><trkpt lat="44.1068694" lon="10.4773582"><ele>797.0</ele><time>2026-04-24T12:06:09.127Z</time></trkpt><trkpt lat="44.1067993" lon="10.4773153"><ele>797.0000000000001</ele><time>2026-04-24T12:06:11.139Z</time></trkpt><trkpt lat="44.1067333" lon="10.477266"><ele>797.0</ele><time>2026-04-24T12:06:14.131Z</time></trkpt><trkpt lat="44.1066645" lon="10.4771957"><ele>797.0</ele><time>2026-04-24T12:06:17.12Z</time></trkpt><trkpt lat="44.1065958" lon="10.4771506"><ele>797.0</ele><time>2026-04-24T12:06:20.128Z</time></trkpt><trkpt lat="44.1065648" lon="10.4770638"><ele>797.0</ele><time>2026-04-24T12:06:24.138Z</time></trkpt><trkpt lat="44.1065164" lon="10.476997"><ele>797.0</ele><time>2026-04-24T12:06:29.125Z</time></trkpt><trkpt lat="44.1064818" lon="10.4769187"><ele>797.0</ele><time>2026-04-24T12:06:33.133Z</time></trkpt><trkpt lat="44.1064377" lon="10.4768381"><ele>797.0</ele><time>2026-04-24T12:06:37.13Z</time></trkpt><trkpt lat="44.1064001" lon="10.4767653"><ele>797.0</ele><time>2026-04-24T12:06:41.125Z</time></trkpt><trkpt lat="44.1063541" lon="10.4766959"><ele>797.4285714285714</ele><time>2026-04-24T12:07:00.123Z</time></trkpt><trkpt lat="44.1063146" lon="10.4766206"><ele>797.8571428571429</ele><time>2026-04-24T12:07:05.126Z</time></trkpt><trkpt lat="44.1062758" lon="10.4765394"><ele>798.2857142857143</ele><time>2026-04-24T12:07:09.12Z</time></trkpt><trkpt lat="44.1062351" lon="10.4764517"><ele>798.7142857142858</ele><time>2026-04-24T12:07:13.122Z</time></trkpt><trkpt lat="44.1062266" lon="10.4763591"><ele>799.1428571428571</ele><time>2026-04-24T12:07:16.129Z</time></trkpt><trkpt lat="44.1062073" lon="10.4762678"><ele>799.5714285714287</ele><time>2026-04-24T12:07:19.122Z</time></trkpt><trkpt lat="44.1061708" lon="10.4761877"><ele>800.0</ele><time>2026-04-24T12:07:23.121Z</time></trkpt><trkpt lat="44.1061302" lon="10.4760963"><ele>800.0000000000001</ele><time>2026-04-24T12:07:27.127Z</time></trkpt><trkpt lat="44.1060937" lon="10.4760049"><ele>800.0</ele><time>2026-04-24T12:07:30.126Z</time></trkpt><trkpt lat="44.1060526" lon="10.4759259"><ele>800.0</ele><time>2026-04-24T12:07:34.125Z</time></trkpt><trkpt lat="44.1060214" lon="10.475841"><ele>800.0</ele><time>2026-04-24T12:07:38.019Z</time></trkpt><trkpt lat="44.1059732" lon="10.4757753"><ele>800.0</ele><time>2026-04-24T12:07:41.13Z</time></trkpt><trkpt lat="44.1059284" lon="10.475698"><ele>800.0000000000001</ele><time>2026-04-24T12:07:44.118Z</time></trkpt><trkpt lat="44.1058857" lon="10.4756271"><ele>800.0</ele><time>2026-04-24T12:07:47.117Z</time></trkpt><trkpt lat="44.1058245" lon="10.4755744"><ele>800.0000000000001</ele><time>2026-04-24T12:07:51.126Z</time></trkpt><trkpt lat="44.1057558" lon="10.4755473"><ele>800.0</ele><time>2026-04-24T12:07:55.127Z</time></trkpt><trkpt lat="44.1056857" lon="10.4755841"><ele>800.0</ele><time>2026-04-24T12:08:00.126Z</time></trkpt><trkpt lat="44.1056198" lon="10.4756248"><ele>800.0</ele><time>2026-04-24T12:08:04.126Z</time></trkpt><trkpt lat="44.1055504" lon="10.4756303"><ele>800.0</ele><time>2026-04-24T12:08:08.12Z</time></trkpt><trkpt lat="44.1054696" lon="10.4756175"><ele>800.0000000000001</ele><time>2026-04-24T12:08:12.126Z</time></trkpt><trkpt lat="44.1053969" lon="10.4755993"><ele>800.0</ele><time>2026-04-24T12:08:16.125Z</time></trkpt><trkpt lat="44.1053176" lon="10.4755677"><ele>800.2857142857143</ele><time>2026-04-24T12:08:20.119Z</time></trkpt><trkpt lat="44.10525" lon="10.4755496"><ele>800.5714285714286</ele><time>2026-04-24T12:08:23.154Z</time></trkpt><trkpt lat="44.1051774" lon="10.4755338"><ele>800.8571428571429</ele><time>2026-04-24T12:08:27.126Z</time></trkpt><trkpt lat="44.1050998" lon="10.4755087"><ele>801.1428571428571</ele><time>2026-04-24T12:08:31.128Z</time></trkpt><trkpt lat="44.1050209" lon="10.4754787"><ele>801.4285714285714</ele><time>2026-04-24T12:08:35.134Z</time></trkpt><trkpt lat="44.1049586" lon="10.4754493"><ele>801.7142857142858</ele><time>2026-04-24T12:08:38.119Z</time></trkpt><trkpt lat="44.1048922" lon="10.475404"><ele>802.0</ele><time>2026-04-24T12:08:42.128Z</time></trkpt><trkpt lat="44.1048229" lon="10.475357"><ele>801.9999999999999</ele><time>2026-04-24T12:08:46.132Z</time></trkpt><trkpt lat="44.1047454" lon="10.4753147"><ele>802.0</ele><time>2026-04-24T12:08:50.123Z</time></trkpt><trkpt lat="44.1046702" lon="10.475303"><ele>802.0</ele><time>2026-04-24T12:08:54.132Z</time></trkpt><trkpt lat="44.1045913" lon="10.4752894"><ele>802.0</ele><time>2026-04-24T12:08:58.126Z</time></trkpt><trkpt lat="44.1045125" lon="10.4752861"><ele>801.9999999999999</ele><time>2026-04-24T12:09:02.129Z</time></trkpt><trkpt lat="44.1044378" lon="10.4752955"><ele>802.0</ele><time>2026-04-24T12:09:06.13Z</time></trkpt><trkpt lat="44.1043705" lon="10.4753031"><ele>801.9999999999999</ele><time>2026-04-24T12:09:10.128Z</time></trkpt><trkpt lat="44.1042996" lon="10.4753273"><ele>802.0</ele><time>2026-04-24T12:09:14.119Z</time></trkpt><trkpt lat="44.1042161" lon="10.4753501"><ele>802.0</ele><time>2026-04-24T12:09:18.126Z</time></trkpt><trkpt lat="44.1041514" lon="10.4753763"><ele>802.0</ele><time>2026-04-24T12:09:21.12Z</time></trkpt><trkpt lat="44.1040818" lon="10.4753958"><ele>801.9999999999999</ele><time>2026-04-24T12:09:25.138Z</time></trkpt><trkpt lat="44.1039953" lon="10.475392"><ele>802.0</ele><time>2026-04-24T12:09:29.122Z</time></trkpt><trkpt lat="44.1039018" lon="10.4753404"><ele>802.8571428571429</ele><time>2026-04-24T12:09:32.124Z</time></trkpt><trkpt lat="44.1038362" lon="10.4753444"><ele>803.7142857142858</ele><time>2026-04-24T12:09:33.127Z</time></trkpt><trkpt lat="44.1037581" lon="10.4753478"><ele>804.5714285714286</ele><time>2026-04-24T12:09:36.125Z</time></trkpt><trkpt lat="44.1036795" lon="10.4753477"><ele>805.4285714285714</ele><time>2026-04-24T12:09:41.136Z</time></trkpt><trkpt lat="44.1036125" lon="10.4753417"><ele>806.2857142857142</ele><time>2026-04-24T12:09:45.15Z</time></trkpt><trkpt lat="44.1035429" lon="10.4753548"><ele>807.1428571428571</ele><time>2026-04-24T12:09:50.119Z</time></trkpt><trkpt lat="44.103471" lon="10.4753785"><ele>808.0</ele><time>2026-04-24T12:09:55.125Z</time></trkpt><trkpt lat="44.1034095" lon="10.475399"><ele>808.0</ele><time>2026-04-24T12:09:59.118Z</time></trkpt><trkpt lat="44.1033383" lon="10.4754259"><ele>808.0</ele><time>2026-04-24T12:10:04.12Z</time></trkpt><trkpt lat="44.1032742" lon="10.475458"><ele>808.0</ele><time>2026-04-24T12:10:10.124Z</time></trkpt><trkpt lat="44.1032058" lon="10.4754416"><ele>808.0</ele><time>2026-04-24T12:10:15.128Z</time></trkpt><trkpt lat="44.1031369" lon="10.4754619"><ele>808.0</ele><time>2026-04-24T12:10:20.121Z</time></trkpt><trkpt lat="44.1030802" lon="10.4755042"><ele>808.0</ele><time>2026-04-24T12:10:26.12Z</time></trkpt><trkpt lat="44.1030196" lon="10.4755409"><ele>808.0</ele><time>2026-04-24T12:10:30.122Z</time></trkpt><trkpt lat="44.1029618" lon="10.475578"><ele>810.0</ele><time>2026-04-24T12:10:34.126Z</time></trkpt><trkpt lat="44.1029084" lon="10.4756254"><ele>812.0</ele><time>2026-04-24T12:10:38.118Z</time></trkpt><trkpt lat="44.1028477" lon="10.4756833"><ele>814.0</ele><time>2026-04-24T12:10:43.129Z</time></trkpt><trkpt lat="44.1027945" lon="10.4757443"><ele>816.0</ele><time>2026-04-24T12:10:48.126Z</time></trkpt><trkpt lat="44.1027346" lon="10.4758173"><ele>818.0</ele><time>2026-04-24T12:10:53.127Z</time></trkpt><trkpt lat="44.1026778" lon="10.4758709"><ele>820.0</ele><time>2026-04-24T12:10:57.124Z</time></trkpt><trkpt lat="44.1026267" lon="10.4759364"><ele>822.0</ele><time>2026-04-24T12:11:02.124Z</time></trkpt><trkpt lat="44.1025614" lon="10.4759949"><ele>822.0</ele><time>2026-04-24T12:11:08.125Z</time></trkpt><trkpt lat="44.1024804" lon="10.4760215"><ele>822.0</ele><time>2026-04-24T12:11:12.132Z</time></trkpt><trkpt lat="44.1024196" lon="10.476064"><ele>822.0</ele><time>2026-04-24T12:11:17.125Z</time></trkpt><trkpt lat="44.1024024" lon="10.4761534"><ele>822.0</ele><time>2026-04-24T12:11:26.123Z</time></trkpt><trkpt lat="44.1024569" lon="10.4761021"><ele>822.0</ele><time>2026-04-24T12:11:59.119Z</time></trkpt><trkpt lat="44.10252" lon="10.476055"><ele>822.0</ele><time>2026-04-24T12:12:04.13Z</time></trkpt><trkpt lat="44.1025878" lon="10.4760366"><ele>822.0</ele><time>2026-04-24T12:12:10.13Z</time></trkpt><trkpt lat="44.1026526" lon="10.4760361"><ele>822.0</ele><time>2026-04-24T12:12:16.125Z</time></trkpt><trkpt lat="44.102717" lon="10.4760237"><ele>822.0</ele><time>2026-04-24T12:12:21.136Z</time></trkpt><trkpt lat="44.1027888" lon="10.4760096"><ele>822.0</ele><time>2026-04-24T12:12:28.145Z</time></trkpt><trkpt lat="44.1028581" lon="10.4760156"><ele>822.0</ele><time>2026-04-24T12:12:34.121Z</time></trkpt><trkpt lat="44.1029269" lon="10.4760149"><ele>822.0</ele><time>2026-04-24T12:12:40.138Z</time></trkpt><trkpt lat="44.1029929" lon="10.4760145"><ele>822.0</ele><time>2026-04-24T12:12:45.127Z</time></trkpt><trkpt lat="44.1030632" lon="10.4760192"><ele>822.0</ele><time>2026-04-24T12:12:50.128Z</time></trkpt><trkpt lat="44.1031269" lon="10.476038"><ele>822.0</ele><time>2026-04-24T12:12:56.147Z</time></trkpt><trkpt lat="44.1031983" lon="10.4760583"><ele>822.0</ele><time>2026-04-24T12:13:02.128Z</time></trkpt><trkpt lat="44.1032731" lon="10.4760744"><ele>822.0</ele><time>2026-04-24T12:13:07.129Z</time></trkpt><trkpt lat="44.1033461" lon="10.4760887"><ele>822.0</ele><time>2026-04-24T12:13:11.123Z</time></trkpt><trkpt lat="44.1034141" lon="10.476113"><ele>822.0</ele><time>2026-04-24T12:13:15.125Z</time></trkpt><trkpt lat="44.1034806" lon="10.4761406"><ele>822.0</ele><time>2026-04-24T12:13:20.125Z</time></trkpt><trkpt lat="44.103559" lon="10.4761685"><ele>822.0</ele><time>2026-04-24T12:13:25.125Z</time></trkpt><trkpt lat="44.1036319" lon="10.476197"><ele>824.3333333333334</ele><time>2026-04-24T12:13:29.125Z</time></trkpt><trkpt lat="44.1037053" lon="10.4762391"><ele>826.6666666666667</ele><time>2026-04-24T12:13:34.129Z</time></trkpt><trkpt lat="44.1037715" lon="10.4762761"><ele>829.0</ele><time>2026-04-24T12:13:38.117Z</time></trkpt><trkpt lat="44.1038444" lon="10.476317"><ele>831.3333333333334</ele><time>2026-04-24T12:13:43.139Z</time></trkpt><trkpt lat="44.1039148" lon="10.4763525"><ele>833.6666666666667</ele><time>2026-04-24T12:13:47.134Z</time></trkpt><trkpt lat="44.1039882" lon="10.4763933"><ele>836.0</ele><time>2026-04-24T12:13:51.125Z</time></trkpt><trkpt lat="44.1040498" lon="10.4764368"><ele>839.0</ele><time>2026-04-24T12:13:55.13Z</time></trkpt><trkpt lat="44.1041118" lon="10.4764865"><ele>842.0</ele><time>2026-04-24T12:13:59.14Z</time></trkpt><trkpt lat="44.1041807" lon="10.4765417"><ele>845.0</ele><time>2026-04-24T12:14:03.12Z</time></trkpt><trkpt lat="44.1042544" lon="10.4765695"><ele>848.0</ele><time>2026-04-24T12:14:07.122Z</time></trkpt><trkpt lat="44.1043133" lon="10.476609"><ele>851.0</ele><time>2026-04-24T12:14:11.122Z</time></trkpt><trkpt lat="44.104386" lon="10.4766363"><ele>854.0</ele><time>2026-04-24T12:14:15.12Z</time></trkpt><trkpt lat="44.1044425" lon="10.4766801"><ele>857.0</ele><time>2026-04-24T12:14:18.121Z</time></trkpt><trkpt lat="44.1045041" lon="10.4767334"><ele>857.0</ele><time>2026-04-24T12:14:22.118Z</time></trkpt><trkpt lat="44.1045637" lon="10.4767935"><ele>857.0</ele><time>2026-04-24T12:14:27.117Z</time></trkpt><trkpt lat="44.1046181" lon="10.4768693"><ele>857.0</ele><time>2026-04-24T12:14:31.143Z</time></trkpt><trkpt lat="44.1046804" lon="10.4769334"><ele>857.0</ele><time>2026-04-24T12:14:34.118Z</time></trkpt><trkpt lat="44.1047306" lon="10.4770012"><ele>857.0</ele><time>2026-04-24T12:14:38.132Z</time></trkpt><trkpt lat="44.1047815" lon="10.4770545"><ele>857.0</ele><time>2026-04-24T12:14:41.13Z</time></trkpt><trkpt lat="44.104841" lon="10.4771276"><ele>857.0</ele><time>2026-04-24T12:14:45.133Z</time></trkpt><trkpt lat="44.1048846" lon="10.477209"><ele>858.1428571428571</ele><time>2026-04-24T12:14:49.126Z</time></trkpt><trkpt lat="44.1049051" lon="10.4772937"><ele>859.2857142857142</ele><time>2026-04-24T12:14:53.128Z</time></trkpt><trkpt lat="44.1049176" lon="10.4773839"><ele>860.4285714285714</ele><time>2026-04-24T12:14:58.117Z</time></trkpt><trkpt lat="44.1049282" lon="10.477472"><ele>861.5714285714286</ele><time>2026-04-24T12:15:02.118Z</time></trkpt><trkpt lat="44.1049697" lon="10.4775667"><ele>862.7142857142858</ele><time>2026-04-24T12:15:06.134Z</time></trkpt><trkpt lat="44.1049807" lon="10.4776637"><ele>863.8571428571429</ele><time>2026-04-24T12:15:10.129Z</time></trkpt><trkpt lat="44.105011" lon="10.4777555"><ele>865.0</ele><time>2026-04-24T12:15:14.127Z</time></trkpt><trkpt lat="44.1050502" lon="10.4778456"><ele>865.0</ele><time>2026-04-24T12:15:19.13Z</time></trkpt><trkpt lat="44.1050541" lon="10.4779342"><ele>865.0</ele><time>2026-04-24T12:15:23.15Z</time></trkpt><trkpt lat="44.1050436" lon="10.4780359"><ele>865.0</ele><time>2026-04-24T12:15:27.145Z</time></trkpt><trkpt lat="44.1050267" lon="10.4781222"><ele>865.0</ele><time>2026-04-24T12:15:31.124Z</time></trkpt><trkpt lat="44.1050111" lon="10.4782121"><ele>865.0</ele><time>2026-04-24T12:15:35.118Z</time></trkpt><trkpt lat="44.1050039" lon="10.478306"><ele>865.0</ele><time>2026-04-24T12:15:39.122Z</time></trkpt><trkpt lat="44.105006" lon="10.478415"><ele>865.0</ele><time>2026-04-24T12:15:43.121Z</time></trkpt><trkpt lat="44.1050172" lon="10.4785185"><ele>865.8333333333333</ele><time>2026-04-24T12:15:47.121Z</time></trkpt><trkpt lat="44.1050329" lon="10.4786336"><ele>866.6666666666666</ele><time>2026-04-24T12:15:51.123Z</time></trkpt><trkpt lat="44.105072" lon="10.478731"><ele>867.5</ele><time>2026-04-24T12:15:55.135Z</time></trkpt><trkpt lat="44.1051189" lon="10.4788021"><ele>868.3333333333333</ele><time>2026-04-24T12:15:59.12Z</time></trkpt><trkpt lat="44.1051735" lon="10.4788787"><ele>869.1666666666666</ele><time>2026-04-24T12:16:03.132Z</time></trkpt><trkpt lat="44.1052242" lon="10.4789533"><ele>870.0</ele><time>2026-04-24T12:16:07.124Z</time></trkpt><trkpt lat="44.1052784" lon="10.4790265"><ele>868.5714285714287</ele><time>2026-04-24T12:16:11.128Z</time></trkpt><trkpt lat="44.105339" lon="10.4790953"><ele>867.1428571428571</ele><time>2026-04-24T12:16:15.153Z</time></trkpt><trkpt lat="44.1053829" lon="10.4791745"><ele>865.7142857142858</ele><time>2026-04-24T12:16:19.121Z</time></trkpt><trkpt lat="44.1054247" lon="10.4792503"><ele>864.2857142857143</ele><time>2026-04-24T12:16:23.145Z</time></trkpt><trkpt lat="44.1054614" lon="10.4793432"><ele>862.8571428571429</ele><time>2026-04-24T12:16:27.134Z</time></trkpt><trkpt lat="44.105505" lon="10.4794233"><ele>861.4285714285714</ele><time>2026-04-24T12:16:31.118Z</time></trkpt><trkpt lat="44.1055503" lon="10.4795066"><ele>860.0</ele><time>2026-04-24T12:16:35.12Z</time></trkpt><trkpt lat="44.1055824" lon="10.4795945"><ele>862.5714285714286</ele><time>2026-04-24T12:16:39.118Z</time></trkpt><trkpt lat="44.105632" lon="10.479679"><ele>865.1428571428572</ele><time>2026-04-24T12:16:44.129Z</time></trkpt><trkpt lat="44.1056746" lon="10.479762"><ele>867.7142857142858</ele><time>2026-04-24T12:16:48.123Z</time></trkpt><trkpt lat="44.105703" lon="10.4798468"><ele>870.2857142857142</ele><time>2026-04-24T12:16:52.122Z</time></trkpt><trkpt lat="44.1057329" lon="10.479934"><ele>872.8571428571429</ele><time>2026-04-24T12:16:56.127Z</time></trkpt><trkpt lat="44.1057749" lon="10.480015"><ele>875.4285714285714</ele><time>2026-04-24T12:17:00.128Z</time></trkpt><trkpt lat="44.1058267" lon="10.4800842"><ele>878.0</ele><time>2026-04-24T12:17:04.126Z</time></trkpt><trkpt lat="44.1058869" lon="10.4801452"><ele>878.0</ele><time>2026-04-24T12:17:08.127Z</time></trkpt><trkpt lat="44.1059528" lon="10.4801846"><ele>878.0</ele><time>2026-04-24T12:17:12.124Z</time></trkpt><trkpt lat="44.1060129" lon="10.4802145"><ele>878.0</ele><time>2026-04-24T12:17:16.14Z</time></trkpt><trkpt lat="44.1060772" lon="10.4802183"><ele>878.0</ele><time>2026-04-24T12:17:20.131Z</time></trkpt><trkpt lat="44.1061406" lon="10.4802246"><ele>878.0</ele><time>2026-04-24T12:17:24.132Z</time></trkpt><trkpt lat="44.1062156" lon="10.4802471"><ele>878.0</ele><time>2026-04-24T12:17:29.121Z</time></trkpt><trkpt lat="44.1062794" lon="10.480256"><ele>878.0</ele><time>2026-04-24T12:17:33.127Z</time></trkpt><trkpt lat="44.106342" lon="10.4802785"><ele>878.0</ele><time>2026-04-24T12:17:37.144Z</time></trkpt><trkpt lat="44.1064136" lon="10.4802973"><ele>878.0</ele><time>2026-04-24T12:17:42.12Z</time></trkpt><trkpt lat="44.1064881" lon="10.4803052"><ele>878.0</ele><time>2026-04-24T12:17:47.122Z</time></trkpt><trkpt lat="44.1065619" lon="10.4803046"><ele>878.0</ele><time>2026-04-24T12:17:52.121Z</time></trkpt><trkpt lat="44.1066419" lon="10.4803159"><ele>878.0</ele><time>2026-04-24T12:17:57.132Z</time></trkpt><trkpt lat="44.1067121" lon="10.4803136"><ele>878.0</ele><time>2026-04-24T12:18:01.12Z</time></trkpt><trkpt lat="44.1067803" lon="10.4803408"><ele>878.0</ele><time>2026-04-24T12:18:05.118Z</time></trkpt><trkpt lat="44.1068439" lon="10.4803558"><ele>877.5714285714286</ele><time>2026-04-24T12:18:09.121Z</time></trkpt><trkpt lat="44.1069181" lon="10.48038"><ele>877.1428571428571</ele><time>2026-04-24T12:18:13.125Z</time></trkpt><trkpt lat="44.1069882" lon="10.4804161"><ele>876.7142857142858</ele><time>2026-04-24T12:18:18.122Z</time></trkpt><trkpt lat="44.1070518" lon="10.4804287"><ele>876.2857142857142</ele><time>2026-04-24T12:18:23.124Z</time></trkpt><trkpt lat="44.1071289" lon="10.480462"><ele>875.8571428571429</ele><time>2026-04-24T12:18:28.143Z</time></trkpt><trkpt lat="44.1071918" lon="10.4805083"><ele>875.4285714285714</ele><time>2026-04-24T12:18:33.12Z</time></trkpt><trkpt lat="44.1072524" lon="10.4804641"><ele>875.0</ele><time>2026-04-24T12:18:39.123Z</time></trkpt><trkpt lat="44.1072152" lon="10.480377"><ele>875.0</ele><time>2026-04-24T12:18:44.118Z</time></trkpt><trkpt lat="44.1071786" lon="10.480304"><ele>875.0</ele><time>2026-04-24T12:18:48.122Z</time></trkpt><trkpt lat="44.107212" lon="10.4803858"><ele>875.0</ele><time>2026-04-24T12:18:55.138Z</time></trkpt><trkpt lat="44.1072592" lon="10.4804588"><ele>875.0</ele><time>2026-04-24T12:18:59.124Z</time></trkpt><trkpt lat="44.1073055" lon="10.4805425"><ele>875.0</ele><time>2026-04-24T12:19:03.146Z</time></trkpt><trkpt lat="44.1073672" lon="10.480597"><ele>875.0</ele><time>2026-04-24T12:19:08.126Z</time></trkpt><trkpt lat="44.1074224" lon="10.4806611"><ele>875.0</ele><time>2026-04-24T12:19:13.13Z</time></trkpt><trkpt lat="44.1074966" lon="10.4806997"><ele>877.7142857142857</ele><time>2026-04-24T12:19:18.12Z</time></trkpt><trkpt lat="44.1075511" lon="10.480765"><ele>880.4285714285714</ele><time>2026-04-24T12:19:23.142Z</time></trkpt><trkpt lat="44.1075946" lon="10.4808384"><ele>883.1428571428571</ele><time>2026-04-24T12:19:27.115Z</time></trkpt><trkpt lat="44.1076298" lon="10.480923"><ele>885.8571428571429</ele><time>2026-04-24T12:19:31.119Z</time></trkpt><trkpt lat="44.1076647" lon="10.4810174"><ele>888.5714285714286</ele><time>2026-04-24T12:19:36.119Z</time></trkpt><trkpt lat="44.1076844" lon="10.4811019"><ele>891.2857142857142</ele><time>2026-04-24T12:19:40.116Z</time></trkpt><trkpt lat="44.1077088" lon="10.4811983"><ele>894.0</ele><time>2026-04-24T12:19:44.123Z</time></trkpt><trkpt lat="44.1077495" lon="10.4812958"><ele>894.4285714285713</ele><time>2026-04-24T12:19:48.122Z</time></trkpt><trkpt lat="44.1078004" lon="10.4813783"><ele>894.8571428571429</ele><time>2026-04-24T12:19:52.123Z</time></trkpt><trkpt lat="44.1078509" lon="10.4814448"><ele>895.2857142857142</ele><time>2026-04-24T12:19:56.123Z</time></trkpt><trkpt lat="44.1078917" lon="10.4815219"><ele>895.7142857142857</ele><time>2026-04-24T12:20:00.139Z</time></trkpt><trkpt lat="44.1079246" lon="10.4816024"><ele>896.1428571428571</ele><time>2026-04-24T12:20:04.121Z</time></trkpt><trkpt lat="44.1079455" lon="10.4816858"><ele>896.5714285714286</ele><time>2026-04-24T12:20:08.133Z</time></trkpt><trkpt lat="44.1079728" lon="10.4817731"><ele>897.0</ele><time>2026-04-24T12:20:12.135Z</time></trkpt><trkpt lat="44.1080003" lon="10.4818704"><ele>897.0</ele><time>2026-04-24T12:20:16.131Z</time></trkpt><trkpt lat="44.108036" lon="10.4819645"><ele>897.0</ele><time>2026-04-24T12:20:20.126Z</time></trkpt><trkpt lat="44.1080674" lon="10.4820698"><ele>897.0</ele><time>2026-04-24T12:20:25.139Z</time></trkpt><trkpt lat="44.1081081" lon="10.4821697"><ele>897.0</ele><time>2026-04-24T12:20:29.133Z</time></trkpt><trkpt lat="44.1081538" lon="10.4822484"><ele>897.0</ele><time>2026-04-24T12:20:33.121Z</time></trkpt><trkpt lat="44.1081797" lon="10.482334"><ele>897.0</ele><time>2026-04-24T12:20:37.128Z</time></trkpt><trkpt lat="44.1082225" lon="10.4824166"><ele>900.4285714285714</ele><time>2026-04-24T12:20:41.122Z</time></trkpt><trkpt lat="44.108254" lon="10.4824931"><ele>903.8571428571429</ele><time>2026-04-24T12:20:44.131Z</time></trkpt><trkpt lat="44.1082816" lon="10.4825758"><ele>907.2857142857143</ele><time>2026-04-24T12:20:47.124Z</time></trkpt><trkpt lat="44.1083414" lon="10.4826548"><ele>910.7142857142858</ele><time>2026-04-24T12:20:51.123Z</time></trkpt><trkpt lat="44.1083609" lon="10.4827532"><ele>914.1428571428571</ele><time>2026-04-24T12:20:55.129Z</time></trkpt><trkpt lat="44.1083981" lon="10.4828409"><ele>917.5714285714287</ele><time>2026-04-24T12:20:59.122Z</time></trkpt><trkpt lat="44.1084378" lon="10.4829301"><ele>921.0000000000001</ele><time>2026-04-24T12:21:03.132Z</time></trkpt><trkpt lat="44.108461" lon="10.483018"><ele>922.5714285714287</ele><time>2026-04-24T12:21:07.124Z</time></trkpt><trkpt lat="44.1084955" lon="10.4830966"><ele>924.1428571428571</ele><time>2026-04-24T12:21:11.119Z</time></trkpt><trkpt lat="44.1085244" lon="10.483185"><ele>925.7142857142858</ele><time>2026-04-24T12:21:15.136Z</time></trkpt><trkpt lat="44.1085446" lon="10.4832848"><ele>927.2857142857143</ele><time>2026-04-24T12:21:19.141Z</time></trkpt><trkpt lat="44.10859" lon="10.4833787"><ele>928.8571428571429</ele><time>2026-04-24T12:21:23.145Z</time></trkpt><trkpt lat="44.1086076" lon="10.4834711"><ele>930.4285714285714</ele><time>2026-04-24T12:21:27.12Z</time></trkpt><trkpt lat="44.1086023" lon="10.4835769"><ele>932.0</ele><time>2026-04-24T12:21:31.136Z</time></trkpt><trkpt lat="44.1086074" lon="10.4836671"><ele>932.0</ele><time>2026-04-24T12:21:34.115Z</time></trkpt><trkpt lat="44.1085931" lon="10.4837582"><ele>932.0</ele><time>2026-04-24T12:21:37.127Z</time></trkpt><trkpt lat="44.1085672" lon="10.483855"><ele>932.0</ele><time>2026-04-24T12:21:40.127Z</time></trkpt><trkpt lat="44.1085451" lon="10.4839441"><ele>932.0</ele><time>2026-04-24T12:21:43.146Z</time></trkpt><trkpt lat="44.1085229" lon="10.4840331"><ele>932.0</ele><time>2026-04-24T12:21:47.126Z</time></trkpt><trkpt lat="44.108512" lon="10.4841362"><ele>932.0</ele><time>2026-04-24T12:21:52.129Z</time></trkpt><trkpt lat="44.1085538" lon="10.484203"><ele>932.0</ele><time>2026-04-24T12:21:55.123Z</time></trkpt><trkpt lat="44.1086046" lon="10.4842636"><ele>931.8333333333334</ele><time>2026-04-24T12:21:58.123Z</time></trkpt><trkpt lat="44.1086601" lon="10.4843447"><ele>931.6666666666667</ele><time>2026-04-24T12:22:02.12Z</time></trkpt><trkpt lat="44.1087212" lon="10.4844194"><ele>931.5</ele><time>2026-04-24T12:22:06.123Z</time></trkpt><trkpt lat="44.1087731" lon="10.4844707"><ele>931.3333333333333</ele><time>2026-04-24T12:22:09.127Z</time></trkpt><trkpt lat="44.1088372" lon="10.4845359"><ele>931.1666666666666</ele><time>2026-04-24T12:22:13.131Z</time></trkpt><trkpt lat="44.1088926" lon="10.484591"><ele>931.0</ele><time>2026-04-24T12:22:18.119Z</time></trkpt><trkpt lat="44.1089676" lon="10.4846453"><ele>931.1666666666666</ele><time>2026-04-24T12:22:22.148Z</time></trkpt><trkpt lat="44.1090291" lon="10.4847075"><ele>931.3333333333333</ele><time>2026-04-24T12:22:25.123Z</time></trkpt><trkpt lat="44.1091016" lon="10.4847785"><ele>931.5</ele><time>2026-04-24T12:22:29.121Z</time></trkpt><trkpt lat="44.1091534" lon="10.4848469"><ele>931.6666666666667</ele><time>2026-04-24T12:22:32.131Z</time></trkpt><trkpt lat="44.1092134" lon="10.4849084"><ele>931.8333333333334</ele><time>2026-04-24T12:22:35.136Z</time></trkpt><trkpt lat="44.1092743" lon="10.4849727"><ele>932.0</ele><time>2026-04-24T12:22:38.12Z</time></trkpt><trkpt lat="44.1093344" lon="10.4850347"><ele>932.0</ele><time>2026-04-24T12:22:41.145Z</time></trkpt><trkpt lat="44.1094003" lon="10.4850913"><ele>932.0</ele><time>2026-04-24T12:22:45.123Z</time></trkpt><trkpt lat="44.10946" lon="10.48517"><ele>932.0</ele><time>2026-04-24T12:22:50.124Z</time></trkpt><trkpt lat="44.1094961" lon="10.4852536"><ele>932.0</ele><time>2026-04-24T12:22:54.123Z</time></trkpt><trkpt lat="44.1095233" lon="10.4853442"><ele>932.0</ele><time>2026-04-24T12:22:58.122Z</time></trkpt><trkpt lat="44.1095735" lon="10.4854155"><ele>932.0</ele><time>2026-04-24T12:23:22.134Z</time></trkpt><trkpt lat="44.1096321" lon="10.4854492"><ele>932.0</ele><time>2026-04-24T12:23:26.118Z</time></trkpt><trkpt lat="44.1097005" lon="10.4855002"><ele>932.1428571428571</ele><time>2026-04-24T12:23:30.132Z</time></trkpt><trkpt lat="44.1097307" lon="10.4855922"><ele>932.2857142857142</ele><time>2026-04-24T12:23:34.132Z</time></trkpt><trkpt lat="44.1097682" lon="10.485686"><ele>932.4285714285713</ele><time>2026-04-24T12:23:38.122Z</time></trkpt><trkpt lat="44.1097983" lon="10.4857749"><ele>932.5714285714286</ele><time>2026-04-24T12:23:42.136Z</time></trkpt><trkpt lat="44.1098317" lon="10.4858573"><ele>932.7142857142856</ele><time>2026-04-24T12:23:46.142Z</time></trkpt><trkpt lat="44.1098757" lon="10.4859449"><ele>932.8571428571428</ele><time>2026-04-24T12:23:50.127Z</time></trkpt><trkpt lat="44.1099054" lon="10.4860276"><ele>933.0</ele><time>2026-04-24T12:23:54.125Z</time></trkpt><trkpt lat="44.1099597" lon="10.4860954"><ele>933.0</ele><time>2026-04-24T12:24:05.125Z</time></trkpt><trkpt lat="44.1099984" lon="10.4861945"><ele>932.9999999999999</ele><time>2026-04-24T12:24:09.124Z</time></trkpt><trkpt lat="44.1100347" lon="10.4862965"><ele>933.0</ele><time>2026-04-24T12:24:13.122Z</time></trkpt><trkpt lat="44.1100588" lon="10.4863825"><ele>933.0</ele><time>2026-04-24T12:24:16.123Z</time></trkpt><trkpt lat="44.1100863" lon="10.4864756"><ele>932.9999999999999</ele><time>2026-04-24T12:24:19.124Z</time></trkpt><trkpt lat="44.1101067" lon="10.4865617"><ele>933.0</ele><time>2026-04-24T12:24:22.122Z</time></trkpt><trkpt lat="44.1101307" lon="10.4866479"><ele>933.0</ele><time>2026-04-24T12:24:25.132Z</time></trkpt><trkpt lat="44.1101688" lon="10.4867429"><ele>936.1428571428571</ele><time>2026-04-24T12:24:29.152Z</time></trkpt><trkpt lat="44.1102136" lon="10.4868175"><ele>939.2857142857142</ele><time>2026-04-24T12:24:32.129Z</time></trkpt><trkpt lat="44.1102603" lon="10.4868833"><ele>942.4285714285713</ele><time>2026-04-24T12:24:35.12Z</time></trkpt><trkpt lat="44.1103124" lon="10.4869561"><ele>945.5714285714284</ele><time>2026-04-24T12:24:39.125Z</time></trkpt><trkpt lat="44.1103632" lon="10.4870213"><ele>948.7142857142857</ele><time>2026-04-24T12:24:43.124Z</time></trkpt><trkpt lat="44.1104232" lon="10.4870868"><ele>951.8571428571427</ele><time>2026-04-24T12:24:46.128Z</time></trkpt><trkpt lat="44.1104798" lon="10.4871323"><ele>954.9999999999999</ele><time>2026-04-24T12:24:48.131Z</time></trkpt><trkpt lat="44.1105559" lon="10.487181"><ele>955.2857142857142</ele><time>2026-04-24T12:24:51.12Z</time></trkpt><trkpt lat="44.1106214" lon="10.4872543"><ele>955.5714285714286</ele><time>2026-04-24T12:24:55.129Z</time></trkpt><trkpt lat="44.1106874" lon="10.487297"><ele>955.8571428571429</ele><time>2026-04-24T12:24:58.136Z</time></trkpt><trkpt lat="44.1107484" lon="10.487341"><ele>956.1428571428571</ele><time>2026-04-24T12:25:01.134Z</time></trkpt><trkpt lat="44.1108112" lon="10.4873881"><ele>956.4285714285716</ele><time>2026-04-24T12:25:05.154Z</time></trkpt><trkpt lat="44.1108864" lon="10.4874322"><ele>956.7142857142858</ele><time>2026-04-24T12:25:09.135Z</time></trkpt><trkpt lat="44.110944" lon="10.487471"><ele>957.0</ele><time>2026-04-24T12:25:12.126Z</time></trkpt><trkpt lat="44.1110066" lon="10.4875067"><ele>957.0</ele><time>2026-04-24T12:25:15.122Z</time></trkpt><trkpt lat="44.1110781" lon="10.4875495"><ele>957.0</ele><time>2026-04-24T12:25:18.149Z</time></trkpt><trkpt lat="44.1111343" lon="10.4875993"><ele>957.0</ele><time>2026-04-24T12:25:21.129Z</time></trkpt><trkpt lat="44.1111948" lon="10.4876556"><ele>957.0</ele><time>2026-04-24T12:25:25.14Z</time></trkpt><trkpt lat="44.1112635" lon="10.4877136"><ele>957.0</ele><time>2026-04-24T12:25:29.117Z</time></trkpt><trkpt lat="44.1113295" lon="10.4877458"><ele>957.0</ele><time>2026-04-24T12:25:33.125Z</time></trkpt><trkpt lat="44.1114124" lon="10.4877618"><ele>957.0</ele><time>2026-04-24T12:25:37.129Z</time></trkpt><trkpt lat="44.1114884" lon="10.4877862"><ele>957.0000000000001</ele><time>2026-04-24T12:25:41.158Z</time></trkpt><trkpt lat="44.1115487" lon="10.4878509"><ele>957.0</ele><time>2026-04-24T12:25:45.13Z</time></trkpt><trkpt lat="44.1115026" lon="10.4879371"><ele>957.0</ele><time>2026-04-24T12:25:49.133Z</time></trkpt><trkpt lat="44.1114373" lon="10.4879298"><ele>957.0000000000001</ele><time>2026-04-24T12:25:53.13Z</time></trkpt><trkpt lat="44.1113681" lon="10.4879229"><ele>957.0</ele><time>2026-04-24T12:25:57.128Z</time></trkpt><trkpt lat="44.1112962" lon="10.4879182"><ele>957.0</ele><time>2026-04-24T12:26:00.13Z</time></trkpt><trkpt lat="44.1112201" lon="10.4879522"><ele>963.1666666666666</ele><time>2026-04-24T12:26:04.133Z</time></trkpt><trkpt lat="44.1111594" lon="10.4880118"><ele>969.3333333333333</ele><time>2026-04-24T12:26:09.156Z</time></trkpt><trkpt lat="44.1110846" lon="10.4880374"><ele>975.5</ele><time>2026-04-24T12:26:13.162Z</time></trkpt><trkpt lat="44.1110037" lon="10.4880365"><ele>981.6666666666666</ele><time>2026-04-24T12:26:17.146Z</time></trkpt><trkpt lat="44.1109331" lon="10.4880109"><ele>987.8333333333333</ele><time>2026-04-24T12:26:21.131Z</time></trkpt><trkpt lat="44.1108605" lon="10.4879651"><ele>994.0</ele><time>2026-04-24T12:26:25.137Z</time></trkpt><trkpt lat="44.1107888" lon="10.4879305"><ele>991.5714285714286</ele><time>2026-04-24T12:26:29.126Z</time></trkpt><trkpt lat="44.1107212" lon="10.4878753"><ele>989.1428571428571</ele><time>2026-04-24T12:26:33.127Z</time></trkpt><trkpt lat="44.1106608" lon="10.4878324"><ele>986.7142857142858</ele><time>2026-04-24T12:26:36.118Z</time></trkpt><trkpt lat="44.1106029" lon="10.4877726"><ele>984.2857142857143</ele><time>2026-04-24T12:26:39.13Z</time></trkpt><trkpt lat="44.1105457" lon="10.4877191"><ele>981.8571428571429</ele><time>2026-04-24T12:26:42.119Z</time></trkpt><trkpt lat="44.1104843" lon="10.4876747"><ele>979.4285714285716</ele><time>2026-04-24T12:26:45.13Z</time></trkpt><trkpt lat="44.1104252" lon="10.4876285"><ele>977.0000000000001</ele><time>2026-04-24T12:26:48.125Z</time></trkpt><trkpt lat="44.1103739" lon="10.4875727"><ele>977.0000000000001</ele><time>2026-04-24T12:26:52.131Z</time></trkpt><trkpt lat="44.1103002" lon="10.4875159"><ele>977.0</ele><time>2026-04-24T12:26:55.129Z</time></trkpt><trkpt lat="44.1102402" lon="10.4874624"><ele>977.0000000000001</ele><time>2026-04-24T12:26:58.129Z</time></trkpt><trkpt lat="44.1101695" lon="10.4874105"><ele>977.0000000000001</ele><time>2026-04-24T12:27:01.124Z</time></trkpt><trkpt lat="44.1101078" lon="10.4873774"><ele>977.0</ele><time>2026-04-24T12:27:04.149Z</time></trkpt><trkpt lat="44.1100506" lon="10.4873318"><ele>977.0000000000001</ele><time>2026-04-24T12:27:07.128Z</time></trkpt><trkpt lat="44.1099917" lon="10.4872981"><ele>977.0000000000001</ele><time>2026-04-24T12:27:09.12Z</time></trkpt><trkpt lat="44.1099179" lon="10.4872703"><ele>975.857142857143</ele><time>2026-04-24T12:27:12.125Z</time></trkpt><trkpt lat="44.1098518" lon="10.4872618"><ele>974.7142857142858</ele><time>2026-04-24T12:27:15.124Z</time></trkpt><trkpt lat="44.109792" lon="10.4873002"><ele>973.5714285714286</ele><time>2026-04-24T12:27:18.123Z</time></trkpt><trkpt lat="44.1097588" lon="10.4873961"><ele>972.4285714285714</ele><time>2026-04-24T12:27:22.138Z</time></trkpt><trkpt lat="44.1097438" lon="10.4874937"><ele>971.2857142857142</ele><time>2026-04-24T12:27:26.123Z</time></trkpt><trkpt lat="44.109722" lon="10.487586"><ele>970.142857142857</ele><time>2026-04-24T12:27:30.145Z</time></trkpt><trkpt lat="44.1097076" lon="10.4876765"><ele>968.9999999999999</ele><time>2026-04-24T12:27:34.128Z</time></trkpt><trkpt lat="44.10971" lon="10.4877736"><ele>969.0</ele><time>2026-04-24T12:27:38.126Z</time></trkpt><trkpt lat="44.1097171" lon="10.487885"><ele>969.0</ele><time>2026-04-24T12:27:42.132Z</time></trkpt><trkpt lat="44.1097365" lon="10.4880012"><ele>969.0</ele><time>2026-04-24T12:27:46.131Z</time></trkpt><trkpt lat="44.1097603" lon="10.4881075"><ele>969.0</ele><time>2026-04-24T12:27:50.129Z</time></trkpt><trkpt lat="44.109748" lon="10.488197"><ele>969.0</ele><time>2026-04-24T12:27:53.122Z</time></trkpt><trkpt lat="44.1097324" lon="10.488285"><ele>969.0</ele><time>2026-04-24T12:27:56.12Z</time></trkpt><trkpt lat="44.1097355" lon="10.488395"><ele>972.8333333333334</ele><time>2026-04-24T12:28:00.135Z</time></trkpt><trkpt lat="44.1097343" lon="10.4885095"><ele>976.6666666666667</ele><time>2026-04-24T12:28:04.128Z</time></trkpt><trkpt lat="44.1097343" lon="10.4886092"><ele>980.5</ele><time>2026-04-24T12:28:08.123Z</time></trkpt><trkpt lat="44.1097086" lon="10.4887008"><ele>984.3333333333334</ele><time>2026-04-24T12:28:11.131Z</time></trkpt><trkpt lat="44.1096732" lon="10.488814"><ele>988.1666666666667</ele><time>2026-04-24T12:28:15.127Z</time></trkpt><trkpt lat="44.1096448" lon="10.4889035"><ele>992.0</ele><time>2026-04-24T12:28:18.126Z</time></trkpt><trkpt lat="44.1096159" lon="10.488989"><ele>994.1428571428572</ele><time>2026-04-24T12:28:21.124Z</time></trkpt><trkpt lat="44.1095731" lon="10.4890655"><ele>996.2857142857144</ele><time>2026-04-24T12:28:24.126Z</time></trkpt><trkpt lat="44.1095174" lon="10.4891379"><ele>998.4285714285714</ele><time>2026-04-24T12:28:27.117Z</time></trkpt><trkpt lat="44.109477" lon="10.4892057"><ele>1000.5714285714287</ele><time>2026-04-24T12:28:30.124Z</time></trkpt><trkpt lat="44.1094292" lon="10.4892894"><ele>1002.7142857142858</ele><time>2026-04-24T12:28:34.128Z</time></trkpt><trkpt lat="44.1093827" lon="10.4893551"><ele>1004.8571428571429</ele><time>2026-04-24T12:28:37.126Z</time></trkpt><trkpt lat="44.1093522" lon="10.489435"><ele>1007.0</ele><time>2026-04-24T12:28:40.147Z</time></trkpt><trkpt lat="44.1093117" lon="10.4895037"><ele>1007.0</ele><time>2026-04-24T12:28:43.127Z</time></trkpt><trkpt lat="44.1092615" lon="10.4895688"><ele>1007.0</ele><time>2026-04-24T12:28:46.123Z</time></trkpt><trkpt lat="44.1092047" lon="10.4896258"><ele>1007.0</ele><time>2026-04-24T12:28:49.117Z</time></trkpt><trkpt lat="44.1091413" lon="10.4896314"><ele>1007.0</ele><time>2026-04-24T12:28:55.123Z</time></trkpt><trkpt lat="44.1091328" lon="10.4897245"><ele>1007.0</ele><time>2026-04-24T12:28:59.155Z</time></trkpt><trkpt lat="44.1091051" lon="10.4898194"><ele>1007.0</ele><time>2026-04-24T12:29:03.132Z</time></trkpt><trkpt lat="44.1090807" lon="10.4899114"><ele>1007.0</ele><time>2026-04-24T12:29:07.125Z</time></trkpt><trkpt lat="44.1090635" lon="10.4900191"><ele>1011.2857142857142</ele><time>2026-04-24T12:29:11.126Z</time></trkpt><trkpt lat="44.1090518" lon="10.4901101"><ele>1015.5714285714287</ele><time>2026-04-24T12:29:14.133Z</time></trkpt><trkpt lat="44.1090275" lon="10.490221"><ele>1019.8571428571429</ele><time>2026-04-24T12:29:18.122Z</time></trkpt><trkpt lat="44.1090168" lon="10.4903336"><ele>1024.142857142857</ele><time>2026-04-24T12:29:22.127Z</time></trkpt><trkpt lat="44.1090001" lon="10.490425"><ele>1028.4285714285713</ele><time>2026-04-24T12:29:25.129Z</time></trkpt><trkpt lat="44.1089705" lon="10.4905029"><ele>1032.7142857142858</ele><time>2026-04-24T12:29:28.122Z</time></trkpt><trkpt lat="44.1089436" lon="10.4905949"><ele>1037.0</ele><time>2026-04-24T12:29:31.125Z</time></trkpt><trkpt lat="44.1089691" lon="10.4906755"><ele>1037.0</ele><time>2026-04-24T12:29:34.118Z</time></trkpt><trkpt lat="44.1090418" lon="10.4906665"><ele>1037.0</ele><time>2026-04-24T12:29:38.125Z</time></trkpt><trkpt lat="44.1091135" lon="10.4906408"><ele>1037.0</ele><time>2026-04-24T12:29:41.115Z</time></trkpt><trkpt lat="44.109178" lon="10.4905774"><ele>1037.0</ele><time>2026-04-24T12:29:45.129Z</time></trkpt><trkpt lat="44.1092309" lon="10.4905279"><ele>1037.0</ele><time>2026-04-24T12:29:48.127Z</time></trkpt><trkpt lat="44.1093033" lon="10.4904858"><ele>1037.0</ele><time>2026-04-24T12:29:51.122Z</time></trkpt><trkpt lat="44.1093619" lon="10.4904411"><ele>1037.0</ele><time>2026-04-24T12:29:54.131Z</time></trkpt><trkpt lat="44.1094034" lon="10.4903668"><ele>1033.5714285714287</ele><time>2026-04-24T12:29:57.116Z</time></trkpt><trkpt lat="44.1094461" lon="10.4902845"><ele>1030.142857142857</ele><time>2026-04-24T12:30:01.14Z</time></trkpt><trkpt lat="44.1094895" lon="10.4901967"><ele>1026.7142857142858</ele><time>2026-04-24T12:30:05.136Z</time></trkpt><trkpt lat="44.1095183" lon="10.4901019"><ele>1023.2857142857143</ele><time>2026-04-24T12:30:09.12Z</time></trkpt><trkpt lat="44.1095741" lon="10.4900507"><ele>1019.8571428571429</ele><time>2026-04-24T12:30:15.138Z</time></trkpt><trkpt lat="44.1096208" lon="10.4899808"><ele>1016.4285714285714</ele><time>2026-04-24T12:30:19.126Z</time></trkpt><trkpt lat="44.1096771" lon="10.4899228"><ele>1013.0</ele><time>2026-04-24T12:30:23.127Z</time></trkpt><trkpt lat="44.1097415" lon="10.4898738"><ele>1013.0</ele><time>2026-04-24T12:30:27.142Z</time></trkpt><trkpt lat="44.1097962" lon="10.4898137"><ele>1013.0000000000001</ele><time>2026-04-24T12:30:31.13Z</time></trkpt><trkpt lat="44.1098488" lon="10.4897583"><ele>1013.0</ele><time>2026-04-24T12:30:35.136Z</time></trkpt><trkpt lat="44.1099123" lon="10.48974"><ele>1013.0</ele><time>2026-04-24T12:30:40.13Z</time></trkpt><trkpt lat="44.1099375" lon="10.4896589"><ele>1013.0000000000001</ele><time>2026-04-24T12:33:19.126Z</time></trkpt><trkpt lat="44.1099961" lon="10.4896086"><ele>1013.0</ele><time>2026-04-24T12:33:24.132Z</time></trkpt><trkpt lat="44.1100578" lon="10.4895467"><ele>1013.0</ele><time>2026-04-24T12:33:29.116Z</time></trkpt><trkpt lat="44.1101181" lon="10.4894977"><ele>1013.1666666666667</ele><time>2026-04-24T12:33:33.12Z</time></trkpt><trkpt lat="44.110176" lon="10.4894553"><ele>1013.3333333333334</ele><time>2026-04-24T12:33:37.137Z</time></trkpt><trkpt lat="44.1102442" lon="10.4893886"><ele>1013.5</ele><time>2026-04-24T12:33:41.118Z</time></trkpt><trkpt lat="44.1103129" lon="10.48934"><ele>1013.6666666666667</ele><time>2026-04-24T12:33:44.127Z</time></trkpt><trkpt lat="44.1103744" lon="10.489277"><ele>1013.8333333333334</ele><time>2026-04-24T12:33:48.128Z</time></trkpt><trkpt lat="44.1104436" lon="10.4892299"><ele>1014.0</ele><time>2026-04-24T12:33:52.127Z</time></trkpt><trkpt lat="44.1105076" lon="10.489167"><ele>1014.0</ele><time>2026-04-24T12:33:56.128Z</time></trkpt><trkpt lat="44.1105836" lon="10.4891579"><ele>1014.0</ele><time>2026-04-24T12:34:00.117Z</time></trkpt><trkpt lat="44.1106634" lon="10.4891853"><ele>1014.0</ele><time>2026-04-24T12:34:04.128Z</time></trkpt><trkpt lat="44.1107432" lon="10.4892384"><ele>1014.0</ele><time>2026-04-24T12:34:08.13Z</time></trkpt><trkpt lat="44.1108107" lon="10.489285"><ele>1014.0</ele><time>2026-04-24T12:34:11.116Z</time></trkpt><trkpt lat="44.110877" lon="10.4893251"><ele>1014.0</ele><time>2026-04-24T12:34:14.125Z</time></trkpt><trkpt lat="44.1109482" lon="10.4893619"><ele>1016.6666666666666</ele><time>2026-04-24T12:34:17.116Z</time></trkpt><trkpt lat="44.1110088" lon="10.4893952"><ele>1019.3333333333333</ele><time>2026-04-24T12:34:19.126Z</time></trkpt><trkpt lat="44.1110739" lon="10.4894252"><ele>1022.0</ele><time>2026-04-24T12:34:21.134Z</time></trkpt><trkpt lat="44.11116" lon="10.4894487"><ele>1024.6666666666665</ele><time>2026-04-24T12:34:24.124Z</time></trkpt><trkpt lat="44.1112398" lon="10.4894703"><ele>1027.3333333333333</ele><time>2026-04-24T12:34:27.124Z</time></trkpt><trkpt lat="44.1113072" lon="10.4894853"><ele>1030.0</ele><time>2026-04-24T12:34:30.133Z</time></trkpt><trkpt lat="44.111387" lon="10.4895162"><ele>1030.0</ele><time>2026-04-24T12:34:33.122Z</time></trkpt><trkpt lat="44.1114746" lon="10.4895683"><ele>1030.0</ele><time>2026-04-24T12:34:36.127Z</time></trkpt><trkpt lat="44.1115425" lon="10.4896023"><ele>1030.0</ele><time>2026-04-24T12:34:38.127Z</time></trkpt><trkpt lat="44.111613" lon="10.4896291"><ele>1030.0</ele><time>2026-04-24T12:34:40.115Z</time></trkpt><trkpt lat="44.1116926" lon="10.4896655"><ele>1030.0</ele><time>2026-04-24T12:34:43.122Z</time></trkpt><trkpt lat="44.1117791" lon="10.4896997"><ele>1030.0</ele><time>2026-04-24T12:34:46.12Z</time></trkpt><trkpt lat="44.1118573" lon="10.4897485"><ele>1033.8333333333333</ele><time>2026-04-24T12:34:49.128Z</time></trkpt><trkpt lat="44.1119367" lon="10.4897832"><ele>1037.6666666666665</ele><time>2026-04-24T12:34:52.126Z</time></trkpt><trkpt lat="44.1120229" lon="10.4898389"><ele>1041.5</ele><time>2026-04-24T12:34:55.128Z</time></trkpt><trkpt lat="44.1121113" lon="10.4898841"><ele>1045.3333333333333</ele><time>2026-04-24T12:34:58.118Z</time></trkpt><trkpt lat="44.1121911" lon="10.4899388"><ele>1049.1666666666667</ele><time>2026-04-24T12:35:01.127Z</time></trkpt><trkpt lat="44.1122571" lon="10.4899966"><ele>1053.0</ele><time>2026-04-24T12:35:04.123Z</time></trkpt><trkpt lat="44.1123233" lon="10.4900727"><ele>1053.0</ele><time>2026-04-24T12:35:07.118Z</time></trkpt><trkpt lat="44.1123952" lon="10.4901492"><ele>1053.0</ele><time>2026-04-24T12:35:10.125Z</time></trkpt><trkpt lat="44.1124627" lon="10.4902318"><ele>1053.0</ele><time>2026-04-24T12:35:13.119Z</time></trkpt><trkpt lat="44.1125241" lon="10.4902984"><ele>1053.0</ele><time>2026-04-24T12:35:16.126Z</time></trkpt><trkpt lat="44.1125796" lon="10.4903665"><ele>1053.0</ele><time>2026-04-24T12:35:19.126Z</time></trkpt><trkpt lat="44.1126432" lon="10.4904169"><ele>1053.0</ele><time>2026-04-24T12:35:22.121Z</time></trkpt><trkpt lat="44.1127133" lon="10.4904587"><ele>1053.6666666666667</ele><time>2026-04-24T12:35:25.142Z</time></trkpt><trkpt lat="44.1127977" lon="10.4904865"><ele>1054.3333333333333</ele><time>2026-04-24T12:35:29.123Z</time></trkpt><trkpt lat="44.112867" lon="10.4904917"><ele>1055.0</ele><time>2026-04-24T12:35:32.12Z</time></trkpt><trkpt lat="44.1129483" lon="10.4905096"><ele>1055.6666666666665</ele><time>2026-04-24T12:35:35.127Z</time></trkpt><trkpt lat="44.1130317" lon="10.4905312"><ele>1056.3333333333333</ele><time>2026-04-24T12:35:38.126Z</time></trkpt><trkpt lat="44.1131039" lon="10.4905442"><ele>1057.0</ele><time>2026-04-24T12:35:41.129Z</time></trkpt><trkpt lat="44.1131736" lon="10.4905826"><ele>1056.7142857142858</ele><time>2026-04-24T12:35:44.127Z</time></trkpt><trkpt lat="44.1132438" lon="10.4906341"><ele>1056.4285714285716</ele><time>2026-04-24T12:35:47.138Z</time></trkpt><trkpt lat="44.1133011" lon="10.4906826"><ele>1056.142857142857</ele><time>2026-04-24T12:35:50.122Z</time></trkpt><trkpt lat="44.1133616" lon="10.4907087"><ele>1055.857142857143</ele><time>2026-04-24T12:35:53.122Z</time></trkpt><trkpt lat="44.1134255" lon="10.4907255"><ele>1055.5714285714287</ele><time>2026-04-24T12:35:56.121Z</time></trkpt><trkpt lat="44.1134949" lon="10.4907467"><ele>1055.2857142857142</ele><time>2026-04-24T12:35:59.125Z</time></trkpt><trkpt lat="44.1135578" lon="10.4907749"><ele>1055.0</ele><time>2026-04-24T12:36:02.129Z</time></trkpt><trkpt lat="44.1136229" lon="10.4908113"><ele>1055.0</ele><time>2026-04-24T12:36:05.13Z</time></trkpt><trkpt lat="44.1136992" lon="10.490838"><ele>1055.0</ele><time>2026-04-24T12:36:08.126Z</time></trkpt><trkpt lat="44.1137683" lon="10.4908626"><ele>1055.0</ele><time>2026-04-24T12:36:11.12Z</time></trkpt><trkpt lat="44.1138441" lon="10.4908978"><ele>1055.0</ele><time>2026-04-24T12:36:14.115Z</time></trkpt><trkpt lat="44.1139092" lon="10.4909121"><ele>1055.0</ele><time>2026-04-24T12:36:17.131Z</time></trkpt><trkpt lat="44.1139812" lon="10.4909568"><ele>1055.0</ele><time>2026-04-24T12:36:20.145Z</time></trkpt><trkpt lat="44.1140519" lon="10.4910108"><ele>1053.5</ele><time>2026-04-24T12:36:23.119Z</time></trkpt><trkpt lat="44.1141141" lon="10.4910551"><ele>1052.0</ele><time>2026-04-24T12:36:26.118Z</time></trkpt><trkpt lat="44.1141825" lon="10.4910973"><ele>1050.5</ele><time>2026-04-24T12:36:30.13Z</time></trkpt><trkpt lat="44.1142464" lon="10.4911716"><ele>1049.0</ele><time>2026-04-24T12:36:34.121Z</time></trkpt><trkpt lat="44.114302" lon="10.491217"><ele>1047.5</ele><time>2026-04-24T12:36:37.138Z</time></trkpt><trkpt lat="44.1143544" lon="10.4913166"><ele>1046.0</ele><time>2026-04-24T12:36:41.127Z</time></trkpt><trkpt lat="44.1144021" lon="10.4914036"><ele>1050.142857142857</ele><time>2026-04-24T12:36:44.138Z</time></trkpt><trkpt lat="44.1144216" lon="10.4914919"><ele>1054.2857142857142</ele><time>2026-04-24T12:36:47.121Z</time></trkpt><trkpt lat="44.1144506" lon="10.491574"><ele>1058.4285714285716</ele><time>2026-04-24T12:36:50.144Z</time></trkpt><trkpt lat="44.1144829" lon="10.4916558"><ele>1062.5714285714284</ele><time>2026-04-24T12:36:53.122Z</time></trkpt><trkpt lat="44.1145049" lon="10.491738"><ele>1066.7142857142858</ele><time>2026-04-24T12:36:56.134Z</time></trkpt><trkpt lat="44.1145409" lon="10.49184"><ele>1070.857142857143</ele><time>2026-04-24T12:37:00.123Z</time></trkpt><trkpt lat="44.1145725" lon="10.4919189"><ele>1075.0</ele><time>2026-04-24T12:37:03.123Z</time></trkpt><trkpt lat="44.1146071" lon="10.4920093"><ele>1075.6666666666665</ele><time>2026-04-24T12:37:07.121Z</time></trkpt><trkpt lat="44.1146433" lon="10.4920903"><ele>1076.3333333333333</ele><time>2026-04-24T12:37:12.121Z</time></trkpt><trkpt lat="44.114691" lon="10.4921649"><ele>1077.0</ele><time>2026-04-24T12:37:16.131Z</time></trkpt><trkpt lat="44.1147395" lon="10.49225"><ele>1077.6666666666667</ele><time>2026-04-24T12:37:19.124Z</time></trkpt><trkpt lat="44.1147804" lon="10.492343"><ele>1078.3333333333335</ele><time>2026-04-24T12:37:21.118Z</time></trkpt><trkpt lat="44.1148394" lon="10.4924437"><ele>1079.0</ele><time>2026-04-24T12:37:23.124Z</time></trkpt><trkpt lat="44.1149168" lon="10.4925613"><ele>1079.0</ele><time>2026-04-24T12:37:25.135Z</time></trkpt><trkpt lat="44.1149903" lon="10.4926367"><ele>1079.0</ele><time>2026-04-24T12:37:27.116Z</time></trkpt><trkpt lat="44.1151072" lon="10.4926736"><ele>1079.0</ele><time>2026-04-24T12:37:29.118Z</time></trkpt><trkpt lat="44.115171" lon="10.4926466"><ele>1079.0</ele><time>2026-04-24T12:37:30.12Z</time></trkpt><trkpt lat="44.1152746" lon="10.4925531"><ele>1079.0</ele><time>2026-04-24T12:37:32.125Z</time></trkpt><trkpt lat="44.1153632" lon="10.4924197"><ele>1079.0</ele><time>2026-04-24T12:37:34.123Z</time></trkpt><trkpt lat="44.1154402" lon="10.4923252"><ele>1079.0</ele><time>2026-04-24T12:37:36.118Z</time></trkpt><trkpt lat="44.1155565" lon="10.4923231"><ele>1079.0</ele><time>2026-04-24T12:37:38.119Z</time></trkpt><trkpt lat="44.1156853" lon="10.4923184"><ele>1079.0</ele><time>2026-04-24T12:37:40.13Z</time></trkpt><trkpt lat="44.1157953" lon="10.492235"><ele>1078.8</ele><time>2026-04-24T12:37:42.124Z</time></trkpt><trkpt lat="44.1159014" lon="10.4921758"><ele>1078.6000000000001</ele><time>2026-04-24T12:37:44.13Z</time></trkpt><trkpt lat="44.1160149" lon="10.4921972"><ele>1078.4</ele><time>2026-04-24T12:37:46.126Z</time></trkpt><trkpt lat="44.1161173" lon="10.4922313"><ele>1078.2</ele><time>2026-04-24T12:37:48.125Z</time></trkpt><trkpt lat="44.1162302" lon="10.4922245"><ele>1078.0</ele><time>2026-04-24T12:37:50.126Z</time></trkpt><trkpt lat="44.1163431" lon="10.4921783"><ele>1075.2</ele><time>2026-04-24T12:37:52.13Z</time></trkpt><trkpt lat="44.1164367" lon="10.4920817"><ele>1072.4</ele><time>2026-04-24T12:37:54.125Z</time></trkpt><trkpt lat="44.116514" lon="10.4919818"><ele>1069.6000000000001</ele><time>2026-04-24T12:37:56.127Z</time></trkpt><trkpt lat="44.116586" lon="10.4918948"><ele>1066.8</ele><time>2026-04-24T12:37:58.127Z</time></trkpt><trkpt lat="44.1166658" lon="10.4918319"><ele>1064.0</ele><time>2026-04-24T12:38:00.118Z</time></trkpt><trkpt lat="44.1167421" lon="10.4917557"><ele>1064.0</ele><time>2026-04-24T12:38:02.12Z</time></trkpt><trkpt lat="44.1168041" lon="10.4916658"><ele>1064.0</ele><time>2026-04-24T12:38:04.116Z</time></trkpt><trkpt lat="44.1168487" lon="10.491553"><ele>1064.0</ele><time>2026-04-24T12:38:06.123Z</time></trkpt><trkpt lat="44.1168763" lon="10.4914295"><ele>1064.0</ele><time>2026-04-24T12:38:08.122Z</time></trkpt><trkpt lat="44.1168881" lon="10.491339"><ele>1064.0</ele><time>2026-04-24T12:38:10.123Z</time></trkpt><trkpt lat="44.1168925" lon="10.4912193"><ele>1064.0</ele><time>2026-04-24T12:38:13.125Z</time></trkpt><trkpt lat="44.1169087" lon="10.4911081"><ele>1059.6666666666667</ele><time>2026-04-24T12:38:16.132Z</time></trkpt><trkpt lat="44.1169284" lon="10.491005"><ele>1055.3333333333335</ele><time>2026-04-24T12:38:19.12Z</time></trkpt><trkpt lat="44.1169644" lon="10.490913"><ele>1051.0</ele><time>2026-04-24T12:38:22.131Z</time></trkpt><trkpt lat="44.1170205" lon="10.490835"><ele>1046.6666666666667</ele><time>2026-04-24T12:38:25.121Z</time></trkpt><trkpt lat="44.1170665" lon="10.4907634"><ele>1042.3333333333333</ele><time>2026-04-24T12:38:28.125Z</time></trkpt><trkpt lat="44.1171322" lon="10.490697"><ele>1038.0</ele><time>2026-04-24T12:38:32.133Z</time></trkpt><trkpt lat="44.1171905" lon="10.4906467"><ele>1038.0</ele><time>2026-04-24T12:38:35.13Z</time></trkpt><trkpt lat="44.1172504" lon="10.4905892"><ele>1038.0</ele><time>2026-04-24T12:38:38.12Z</time></trkpt><trkpt lat="44.1173196" lon="10.4905439"><ele>1038.0</ele><time>2026-04-24T12:38:41.12Z</time></trkpt><trkpt lat="44.117372" lon="10.490478"><ele>1038.0</ele><time>2026-04-24T12:38:45.126Z</time></trkpt><trkpt lat="44.117438" lon="10.4904411"><ele>1038.0</ele><time>2026-04-24T12:38:49.131Z</time></trkpt><trkpt lat="44.1175142" lon="10.4903964"><ele>1038.0</ele><time>2026-04-24T12:38:53.138Z</time></trkpt><trkpt lat="44.1175705" lon="10.4903185"><ele>1041.2857142857142</ele><time>2026-04-24T12:38:56.138Z</time></trkpt><trkpt lat="44.1176058" lon="10.4902322"><ele>1044.5714285714284</ele><time>2026-04-24T12:38:59.116Z</time></trkpt><trkpt lat="44.1176259" lon="10.4901464"><ele>1047.857142857143</ele><time>2026-04-24T12:39:02.132Z</time></trkpt><trkpt lat="44.1176519" lon="10.4900388"><ele>1051.142857142857</ele><time>2026-04-24T12:39:05.134Z</time></trkpt><trkpt lat="44.117674" lon="10.4899382"><ele>1054.4285714285716</ele><time>2026-04-24T12:39:08.126Z</time></trkpt><trkpt lat="44.1176913" lon="10.4898335"><ele>1057.7142857142858</ele><time>2026-04-24T12:39:11.117Z</time></trkpt><trkpt lat="44.1176896" lon="10.4897339"><ele>1061.0</ele><time>2026-04-24T12:39:14.132Z</time></trkpt><trkpt lat="44.1176768" lon="10.4896269"><ele>1060.0000000000002</ele><time>2026-04-24T12:39:17.134Z</time></trkpt><trkpt lat="44.1176606" lon="10.4895178"><ele>1059.0</ele><time>2026-04-24T12:39:20.137Z</time></trkpt><trkpt lat="44.1176439" lon="10.4894247"><ele>1058.0</ele><time>2026-04-24T12:39:23.133Z</time></trkpt><trkpt lat="44.1176337" lon="10.4893271"><ele>1057.0</ele><time>2026-04-24T12:39:26.134Z</time></trkpt><trkpt lat="44.1176262" lon="10.4892311"><ele>1056.0</ele><time>2026-04-24T12:39:29.125Z</time></trkpt><trkpt lat="44.1176299" lon="10.4891342"><ele>1055.0000000000002</ele><time>2026-04-24T12:39:32.135Z</time></trkpt><trkpt lat="44.1176579" lon="10.4890494"><ele>1054.0</ele><time>2026-04-24T12:39:35.121Z</time></trkpt><trkpt lat="44.1177089" lon="10.4889866"><ele>1054.0000000000002</ele><time>2026-04-24T12:39:38.131Z</time></trkpt><trkpt lat="44.1177678" lon="10.4889242"><ele>1054.0</ele><time>2026-04-24T12:39:42.118Z</time></trkpt><trkpt lat="44.11784" lon="10.4888677"><ele>1054.0</ele><time>2026-04-24T12:39:46.128Z</time></trkpt><trkpt lat="44.1179053" lon="10.4888266"><ele>1054.0</ele><time>2026-04-24T12:39:49.127Z</time></trkpt><trkpt lat="44.1179754" lon="10.4887854"><ele>1054.0</ele><time>2026-04-24T12:39:52.117Z</time></trkpt><trkpt lat="44.1180413" lon="10.4887644"><ele>1054.0000000000002</ele><time>2026-04-24T12:39:56.117Z</time></trkpt><trkpt lat="44.1181075" lon="10.488765"><ele>1054.0</ele><time>2026-04-24T12:39:59.126Z</time></trkpt><trkpt lat="44.1181834" lon="10.4887808"><ele>1056.857142857143</ele><time>2026-04-24T12:40:03.122Z</time></trkpt><trkpt lat="44.1182482" lon="10.4887914"><ele>1059.7142857142858</ele><time>2026-04-24T12:40:06.127Z</time></trkpt><trkpt lat="44.1183112" lon="10.4887909"><ele>1062.5714285714284</ele><time>2026-04-24T12:40:09.134Z</time></trkpt><trkpt lat="44.1183915" lon="10.4887433"><ele>1065.4285714285716</ele><time>2026-04-24T12:40:12.141Z</time></trkpt><trkpt lat="44.1184364" lon="10.4886806"><ele>1068.2857142857142</ele><time>2026-04-24T12:40:15.03Z</time></trkpt><trkpt lat="44.1184903" lon="10.4885757"><ele>1071.142857142857</ele><time>2026-04-24T12:40:18.117Z</time></trkpt><trkpt lat="44.1185326" lon="10.4885037"><ele>1074.0</ele><time>2026-04-24T12:40:20.119Z</time></trkpt><trkpt lat="44.1185639" lon="10.4884274"><ele>1073.9999999999998</ele><time>2026-04-24T12:40:22.121Z</time></trkpt><trkpt lat="44.1186114" lon="10.4883217"><ele>1074.0</ele><time>2026-04-24T12:40:25.12Z</time></trkpt><trkpt lat="44.1186526" lon="10.4882389"><ele>1074.0</ele><time>2026-04-24T12:40:28.116Z</time></trkpt><trkpt lat="44.1186927" lon="10.4881705"><ele>1074.0</ele><time>2026-04-24T12:40:31.12Z</time></trkpt><trkpt lat="44.1187421" lon="10.4880937"><ele>1074.0</ele><time>2026-04-24T12:40:35.125Z</time></trkpt><trkpt lat="44.1187961" lon="10.4880185"><ele>1073.9999999999998</ele><time>2026-04-24T12:40:39.126Z</time></trkpt><trkpt lat="44.1188432" lon="10.4879574"><ele>1074.0</ele><time>2026-04-24T12:40:42.119Z</time></trkpt><trkpt lat="44.1188889" lon="10.4878948"><ele>1073.9999999999998</ele><time>2026-04-24T12:40:45.122Z</time></trkpt><trkpt lat="44.1189342" lon="10.4878182"><ele>1074.0</ele><time>2026-04-24T12:40:48.12Z</time></trkpt><trkpt lat="44.1189836" lon="10.4877551"><ele>1074.0</ele><time>2026-04-24T12:40:52.119Z</time></trkpt><trkpt lat="44.1190184" lon="10.4878414"><ele>1074.0</ele><time>2026-04-24T12:40:56.119Z</time></trkpt><trkpt lat="44.1189741" lon="10.4879104"><ele>1074.0</ele><time>2026-04-24T12:40:59.136Z</time></trkpt><trkpt lat="44.1189191" lon="10.4879936"><ele>1073.9999999999998</ele><time>2026-04-24T12:41:03.127Z</time></trkpt><trkpt lat="44.1188652" lon="10.4880466"><ele>1074.0</ele><time>2026-04-24T12:41:06.116Z</time></trkpt><trkpt lat="44.118829" lon="10.48812"><ele>1074.0</ele><time>2026-04-24T12:41:09.122Z</time></trkpt><trkpt lat="44.1187973" lon="10.4882141"><ele>1074.0</ele><time>2026-04-24T12:41:13.136Z</time></trkpt><trkpt lat="44.1187585" lon="10.4883028"><ele>1074.0</ele><time>2026-04-24T12:41:17.119Z</time></trkpt><trkpt lat="44.118772" lon="10.4884042"><ele>1074.0</ele><time>2026-04-24T12:41:21.128Z</time></trkpt><trkpt lat="44.1188516" lon="10.488379"><ele>1074.0</ele><time>2026-04-24T12:41:26.131Z</time></trkpt><trkpt lat="44.118907" lon="10.4883292"><ele>1074.0</ele><time>2026-04-24T12:41:29.126Z</time></trkpt><trkpt lat="44.1189671" lon="10.4882505"><ele>1074.0</ele><time>2026-04-24T12:41:33.121Z</time></trkpt><trkpt lat="44.1190484" lon="10.4882069"><ele>1074.0</ele><time>2026-04-24T12:41:37.12Z</time></trkpt><trkpt lat="44.1191087" lon="10.4881645"><ele>1074.0</ele><time>2026-04-24T12:41:40.118Z</time></trkpt><trkpt lat="44.1191674" lon="10.4881121"><ele>1074.0</ele><time>2026-04-24T12:41:43.119Z</time></trkpt><trkpt lat="44.1192182" lon="10.488028"><ele>1074.0</ele><time>2026-04-24T12:41:46.146Z</time></trkpt><trkpt lat="44.119237" lon="10.4879278"><ele>1074.0</ele><time>2026-04-24T12:41:49.123Z</time></trkpt><trkpt lat="44.1192592" lon="10.4878162"><ele>1077.5714285714284</ele><time>2026-04-24T12:41:53.127Z</time></trkpt><trkpt lat="44.1192651" lon="10.487718"><ele>1081.142857142857</ele><time>2026-04-24T12:41:56.134Z</time></trkpt><trkpt lat="44.1192411" lon="10.4876132"><ele>1084.7142857142858</ele><time>2026-04-24T12:41:59.135Z</time></trkpt><trkpt lat="44.1192487" lon="10.4875234"><ele>1088.2857142857142</ele><time>2026-04-24T12:42:02.129Z</time></trkpt><trkpt lat="44.1192504" lon="10.4874238"><ele>1091.857142857143</ele><time>2026-04-24T12:42:06.128Z</time></trkpt><trkpt lat="44.1192465" lon="10.4873155"><ele>1095.4285714285713</ele><time>2026-04-24T12:42:10.122Z</time></trkpt><trkpt lat="44.11924" lon="10.487218"><ele>1099.0</ele><time>2026-04-24T12:42:13.133Z</time></trkpt><trkpt lat="44.1192399" lon="10.4871231"><ele>1096.7142857142858</ele><time>2026-04-24T12:42:16.125Z</time></trkpt><trkpt lat="44.1192665" lon="10.4870306"><ele>1094.4285714285716</ele><time>2026-04-24T12:42:20.127Z</time></trkpt><trkpt lat="44.1192797" lon="10.4869298"><ele>1092.142857142857</ele><time>2026-04-24T12:42:23.119Z</time></trkpt><trkpt lat="44.1193054" lon="10.4868474"><ele>1089.857142857143</ele><time>2026-04-24T12:42:26.119Z</time></trkpt><trkpt lat="44.119336" lon="10.4867592"><ele>1087.5714285714287</ele><time>2026-04-24T12:42:30.121Z</time></trkpt><trkpt lat="44.1193627" lon="10.486649"><ele>1085.2857142857142</ele><time>2026-04-24T12:43:03.142Z</time></trkpt><trkpt lat="44.1194144" lon="10.4865924"><ele>1083.0</ele><time>2026-04-24T12:43:07.142Z</time></trkpt><trkpt lat="44.1194769" lon="10.4865431"><ele>1083.0</ele><time>2026-04-24T12:43:14.12Z</time></trkpt><trkpt lat="44.1195482" lon="10.4865301"><ele>1083.0</ele><time>2026-04-24T12:43:20.128Z</time></trkpt><trkpt lat="44.119615" lon="10.4864859"><ele>1083.0</ele><time>2026-04-24T12:43:23.128Z</time></trkpt><trkpt lat="44.1196596" lon="10.486419"><ele>1083.0</ele><time>2026-04-24T12:43:26.13Z</time></trkpt><trkpt lat="44.1197103" lon="10.4863322"><ele>1083.0</ele><time>2026-04-24T12:43:30.134Z</time></trkpt><trkpt lat="44.1197399" lon="10.4862373"><ele>1083.0</ele><time>2026-04-24T12:43:34.135Z</time></trkpt><trkpt lat="44.1197839" lon="10.4861565"><ele>1083.0</ele><time>2026-04-24T12:43:38.132Z</time></trkpt><trkpt lat="44.1198385" lon="10.4860859"><ele>1086.142857142857</ele><time>2026-04-24T12:43:42.13Z</time></trkpt><trkpt lat="44.1198921" lon="10.4860053"><ele>1089.2857142857144</ele><time>2026-04-24T12:43:46.121Z</time></trkpt><trkpt lat="44.119934" lon="10.4859206"><ele>1092.4285714285716</ele><time>2026-04-24T12:43:50.129Z</time></trkpt><trkpt lat="44.1199554" lon="10.4858217"><ele>1095.5714285714287</ele><time>2026-04-24T12:43:54.127Z</time></trkpt><trkpt lat="44.1199892" lon="10.4857125"><ele>1098.7142857142858</ele><time>2026-04-24T12:43:58.128Z</time></trkpt><trkpt lat="44.1200207" lon="10.4856338"><ele>1101.857142857143</ele><time>2026-04-24T12:44:01.122Z</time></trkpt><trkpt lat="44.120052" lon="10.4855471"><ele>1105.0</ele><time>2026-04-24T12:44:04.121Z</time></trkpt><trkpt lat="44.1200913" lon="10.4854748"><ele>1102.6666666666665</ele><time>2026-04-24T12:44:07.128Z</time></trkpt><trkpt lat="44.1201336" lon="10.4853979"><ele>1100.3333333333333</ele><time>2026-04-24T12:44:10.131Z</time></trkpt><trkpt lat="44.1201878" lon="10.4853321"><ele>1098.0</ele><time>2026-04-24T12:44:13.131Z</time></trkpt><trkpt lat="44.1202686" lon="10.4852936"><ele>1095.6666666666667</ele><time>2026-04-24T12:44:16.122Z</time></trkpt><trkpt lat="44.1203682" lon="10.4852822"><ele>1093.3333333333335</ele><time>2026-04-24T12:44:19.133Z</time></trkpt><trkpt lat="44.1204613" lon="10.4852891"><ele>1091.0</ele><time>2026-04-24T12:44:21.131Z</time></trkpt><trkpt lat="44.1205331" lon="10.4853092"><ele>1091.0</ele><time>2026-04-24T12:44:23.116Z</time></trkpt><trkpt lat="44.1206424" lon="10.4853411"><ele>1091.0</ele><time>2026-04-24T12:44:25.13Z</time></trkpt><trkpt lat="44.1207545" lon="10.485376"><ele>1091.0</ele><time>2026-04-24T12:44:27.134Z</time></trkpt><trkpt lat="44.1208776" lon="10.4854332"><ele>1091.0</ele><time>2026-04-24T12:44:29.126Z</time></trkpt><trkpt lat="44.1209495" lon="10.4854657"><ele>1091.0</ele><time>2026-04-24T12:44:30.133Z</time></trkpt><trkpt lat="44.1210037" lon="10.485512"><ele>1094.6</ele><time>2026-04-24T12:44:31.129Z</time></trkpt><trkpt lat="44.1210833" lon="10.4855912"><ele>1098.1999999999998</ele><time>2026-04-24T12:44:33.135Z</time></trkpt><trkpt lat="44.1211407" lon="10.485694"><ele>1101.8000000000002</ele><time>2026-04-24T12:44:35.122Z</time></trkpt><trkpt lat="44.1212016" lon="10.4858175"><ele>1105.4</ele><time>2026-04-24T12:44:37.149Z</time></trkpt><trkpt lat="44.1212476" lon="10.4859647"><ele>1109.0</ele><time>2026-04-24T12:44:39.135Z</time></trkpt><trkpt lat="44.1212556" lon="10.4861155"><ele>1111.2</ele><time>2026-04-24T12:44:41.132Z</time></trkpt><trkpt lat="44.1212798" lon="10.4862618"><ele>1113.4</ele><time>2026-04-24T12:44:43.134Z</time></trkpt><trkpt lat="44.1213287" lon="10.4864093"><ele>1115.6</ele><time>2026-04-24T12:44:45.134Z</time></trkpt><trkpt lat="44.1213466" lon="10.4864995"><ele>1117.8</ele><time>2026-04-24T12:44:46.133Z</time></trkpt><trkpt lat="44.1213763" lon="10.4866522"><ele>1120.0</ele><time>2026-04-24T12:44:48.131Z</time></trkpt><trkpt lat="44.1214045" lon="10.4868148"><ele>1120.0</ele><time>2026-04-24T12:44:50.124Z</time></trkpt><trkpt lat="44.121462" lon="10.4869805"><ele>1120.0</ele><time>2026-04-24T12:44:52.132Z</time></trkpt><trkpt lat="44.1215511" lon="10.4870776"><ele>1120.0</ele><time>2026-04-24T12:44:54.121Z</time></trkpt><trkpt lat="44.1216015" lon="10.4871428"><ele>1120.0</ele><time>2026-04-24T12:44:56.13Z</time></trkpt><trkpt lat="44.1216916" lon="10.4871666"><ele>1120.0</ele><time>2026-04-24T12:44:58.115Z</time></trkpt><trkpt lat="44.1217649" lon="10.4872088"><ele>1118.3333333333333</ele><time>2026-04-24T12:45:00.122Z</time></trkpt><trkpt lat="44.121828" lon="10.487284"><ele>1116.6666666666665</ele><time>2026-04-24T12:45:02.123Z</time></trkpt><trkpt lat="44.1219004" lon="10.4873704"><ele>1115.0</ele><time>2026-04-24T12:45:04.136Z</time></trkpt><trkpt lat="44.1219069" lon="10.4874655"><ele>1113.3333333333333</ele><time>2026-04-24T12:45:06.123Z</time></trkpt><trkpt lat="44.1219233" lon="10.4875519"><ele>1111.6666666666667</ele><time>2026-04-24T12:45:09.119Z</time></trkpt><trkpt lat="44.1219321" lon="10.487647"><ele>1110.0</ele><time>2026-04-24T12:45:12.122Z</time></trkpt><trkpt lat="44.1219664" lon="10.487748"><ele>1110.0000000000002</ele><time>2026-04-24T12:45:15.134Z</time></trkpt><trkpt lat="44.1220097" lon="10.4878286"><ele>1110.0</ele><time>2026-04-24T12:45:17.129Z</time></trkpt><trkpt lat="44.1220507" lon="10.4878961"><ele>1110.0</ele><time>2026-04-24T12:45:19.135Z</time></trkpt><trkpt lat="44.1220751" lon="10.4879789"><ele>1110.0</ele><time>2026-04-24T12:45:22.128Z</time></trkpt><trkpt lat="44.1221508" lon="10.4880414"><ele>1110.0</ele><time>2026-04-24T12:45:26.126Z</time></trkpt><trkpt lat="44.1222185" lon="10.4880408"><ele>1110.0000000000002</ele><time>2026-04-24T12:45:28.127Z</time></trkpt><trkpt lat="44.1222888" lon="10.488069"><ele>1110.0</ele><time>2026-04-24T12:45:31.116Z</time></trkpt><trkpt lat="44.1223448" lon="10.4881162"><ele>1112.7142857142858</ele><time>2026-04-24T12:45:34.13Z</time></trkpt><trkpt lat="44.1224079" lon="10.4881501"><ele>1115.4285714285716</ele><time>2026-04-24T12:45:37.131Z</time></trkpt><trkpt lat="44.1224775" lon="10.4881447"><ele>1118.142857142857</ele><time>2026-04-24T12:45:39.133Z</time></trkpt><trkpt lat="44.1225342" lon="10.4881003"><ele>1120.857142857143</ele><time>2026-04-24T12:45:41.13Z</time></trkpt><trkpt lat="44.1225805" lon="10.4880357"><ele>1123.5714285714284</ele><time>2026-04-24T12:45:43.129Z</time></trkpt><trkpt lat="44.1226406" lon="10.4879719"><ele>1126.2857142857142</ele><time>2026-04-24T12:45:46.129Z</time></trkpt><trkpt lat="44.1226946" lon="10.4879207"><ele>1129.0</ele><time>2026-04-24T12:45:49.123Z</time></trkpt><trkpt lat="44.1227626" lon="10.4878874"><ele>1121.6666666666665</ele><time>2026-04-24T12:45:52.125Z</time></trkpt><trkpt lat="44.1228235" lon="10.4878479"><ele>1114.3333333333333</ele><time>2026-04-24T12:45:54.132Z</time></trkpt><trkpt lat="44.1228941" lon="10.4877868"><ele>1107.0</ele><time>2026-04-24T12:45:57.133Z</time></trkpt><trkpt lat="44.1229316" lon="10.4877"><ele>1099.6666666666667</ele><time>2026-04-24T12:46:00.129Z</time></trkpt><trkpt lat="44.1229866" lon="10.4875965"><ele>1092.3333333333335</ele><time>2026-04-24T12:46:03.129Z</time></trkpt><trkpt lat="44.1230474" lon="10.4875168"><ele>1085.0</ele><time>2026-04-24T12:46:06.122Z</time></trkpt><trkpt lat="44.1231184" lon="10.487469"><ele>1085.0</ele><time>2026-04-24T12:46:09.122Z</time></trkpt><trkpt lat="44.1231927" lon="10.4874124"><ele>1085.0</ele><time>2026-04-24T12:46:13.126Z</time></trkpt><trkpt lat="44.1232558" lon="10.4873599"><ele>1085.0</ele><time>2026-04-24T12:46:16.125Z</time></trkpt><trkpt lat="44.1233363" lon="10.4873423"><ele>1085.0</ele><time>2026-04-24T12:46:19.13Z</time></trkpt><trkpt lat="44.1234298" lon="10.4873244"><ele>1085.0</ele><time>2026-04-24T12:46:22.135Z</time></trkpt><trkpt lat="44.1234897" lon="10.4872909"><ele>1085.0</ele><time>2026-04-24T12:46:24.131Z</time></trkpt><trkpt lat="44.1235585" lon="10.4872073"><ele>1083.1666666666667</ele><time>2026-04-24T12:46:27.126Z</time></trkpt><trkpt lat="44.1236152" lon="10.4870904"><ele>1081.3333333333335</ele><time>2026-04-24T12:46:30.131Z</time></trkpt><trkpt lat="44.1236756" lon="10.4869919"><ele>1079.5</ele><time>2026-04-24T12:46:33.131Z</time></trkpt><trkpt lat="44.1237227" lon="10.4869066"><ele>1077.6666666666667</ele><time>2026-04-24T12:46:35.127Z</time></trkpt><trkpt lat="44.1237722" lon="10.4868277"><ele>1075.8333333333333</ele><time>2026-04-24T12:46:37.133Z</time></trkpt><trkpt lat="44.1238174" lon="10.4867376"><ele>1074.0</ele><time>2026-04-24T12:46:39.127Z</time></trkpt><trkpt lat="44.1238761" lon="10.4866327"><ele>1074.0</ele><time>2026-04-24T12:46:42.129Z</time></trkpt><trkpt lat="44.123921" lon="10.4865517"><ele>1074.0</ele><time>2026-04-24T12:46:44.121Z</time></trkpt><trkpt lat="44.1239779" lon="10.4864977"><ele>1074.0</ele><time>2026-04-24T12:46:46.13Z</time></trkpt><trkpt lat="44.1240313" lon="10.4864307"><ele>1074.0</ele><time>2026-04-24T12:46:48.12Z</time></trkpt><trkpt lat="44.1240879" lon="10.4863561"><ele>1074.0</ele><time>2026-04-24T12:46:50.131Z</time></trkpt><trkpt lat="44.1241476" lon="10.486287"><ele>1074.0</ele><time>2026-04-24T12:46:52.129Z</time></trkpt><trkpt lat="44.1242178" lon="10.4861941"><ele>1074.6000000000001</ele><time>2026-04-24T12:46:54.128Z</time></trkpt><trkpt lat="44.1242884" lon="10.4861212"><ele>1075.2</ele><time>2026-04-24T12:46:56.12Z</time></trkpt><trkpt lat="44.1243671" lon="10.4860408"><ele>1075.8000000000002</ele><time>2026-04-24T12:46:58.128Z</time></trkpt><trkpt lat="44.1244427" lon="10.4859651"><ele>1076.4</ele><time>2026-04-24T12:47:00.142Z</time></trkpt><trkpt lat="44.1245273" lon="10.4858868"><ele>1077.0</ele><time>2026-04-24T12:47:02.135Z</time></trkpt><trkpt lat="44.1246098" lon="10.4858215"><ele>1077.0</ele><time>2026-04-24T12:47:04.144Z</time></trkpt><trkpt lat="44.1246981" lon="10.4857787"><ele>1077.0</ele><time>2026-04-24T12:47:06.128Z</time></trkpt><trkpt lat="44.1247728" lon="10.4857272"><ele>1077.0</ele><time>2026-04-24T12:47:08.129Z</time></trkpt><trkpt lat="44.1248546" lon="10.4856753"><ele>1077.0</ele><time>2026-04-24T12:47:10.133Z</time></trkpt><trkpt lat="44.1249522" lon="10.4856096"><ele>1077.0</ele><time>2026-04-24T12:47:12.147Z</time></trkpt><trkpt lat="44.1250644" lon="10.4855541"><ele>1074.0</ele><time>2026-04-24T12:47:14.14Z</time></trkpt><trkpt lat="44.1251176" lon="10.4855068"><ele>1071.0</ele><time>2026-04-24T12:47:15.119Z</time></trkpt><trkpt lat="44.1252258" lon="10.4854134"><ele>1068.0</ele><time>2026-04-24T12:47:17.15Z</time></trkpt><trkpt lat="44.1253134" lon="10.485322"><ele>1065.0</ele><time>2026-04-24T12:47:19.126Z</time></trkpt><trkpt lat="44.1253905" lon="10.4852649"><ele>1062.0</ele><time>2026-04-24T12:47:21.124Z</time></trkpt><trkpt lat="44.1254505" lon="10.4852045"><ele>1062.0</ele><time>2026-04-24T12:47:23.128Z</time></trkpt><trkpt lat="44.1255036" lon="10.4851382"><ele>1062.0</ele><time>2026-04-24T12:47:25.122Z</time></trkpt><trkpt lat="44.1255605" lon="10.4850254"><ele>1062.0</ele><time>2026-04-24T12:47:27.126Z</time></trkpt><trkpt lat="44.1255923" lon="10.4849266"><ele>1062.0</ele><time>2026-04-24T12:47:28.135Z</time></trkpt><trkpt lat="44.1256708" lon="10.4848424"><ele>1062.0</ele><time>2026-04-24T12:47:30.122Z</time></trkpt><trkpt lat="44.1257349" lon="10.4848539"><ele>1062.0</ele><time>2026-04-24T12:47:32.121Z</time></trkpt><trkpt lat="44.1258314" lon="10.4848999"><ele>1066.0</ele><time>2026-04-24T12:47:34.125Z</time></trkpt><trkpt lat="44.1259437" lon="10.4849196"><ele>1070.0</ele><time>2026-04-24T12:47:36.135Z</time></trkpt><trkpt lat="44.1260562" lon="10.4849189"><ele>1074.0</ele><time>2026-04-24T12:47:38.131Z</time></trkpt><trkpt lat="44.1261367" lon="10.4849076"><ele>1078.0</ele><time>2026-04-24T12:47:39.134Z</time></trkpt><trkpt lat="44.1262086" lon="10.4848924"><ele>1082.0</ele><time>2026-04-24T12:47:40.128Z</time></trkpt><trkpt lat="44.1263302" lon="10.4848776"><ele>1082.0</ele><time>2026-04-24T12:47:42.126Z</time></trkpt><trkpt lat="44.1263966" lon="10.4849148"><ele>1082.0</ele><time>2026-04-24T12:47:43.115Z</time></trkpt><trkpt lat="44.126486" lon="10.484949"><ele>1082.0</ele><time>2026-04-24T12:47:45.127Z</time></trkpt><trkpt lat="44.1265579" lon="10.4850175"><ele>1082.0</ele><time>2026-04-24T12:47:47.125Z</time></trkpt><trkpt lat="44.1266043" lon="10.4850793"><ele>1082.0</ele><time>2026-04-24T12:47:49.118Z</time></trkpt><trkpt lat="44.1266471" lon="10.4851619"><ele>1082.0</ele><time>2026-04-24T12:47:53.128Z</time></trkpt><trkpt lat="44.1266831" lon="10.4852479"><ele>1079.8333333333335</ele><time>2026-04-24T12:47:57.127Z</time></trkpt><trkpt lat="44.1267196" lon="10.4853279"><ele>1077.6666666666667</ele><time>2026-04-24T12:48:00.132Z</time></trkpt><trkpt lat="44.1267709" lon="10.4854093"><ele>1075.5</ele><time>2026-04-24T12:48:03.138Z</time></trkpt><trkpt lat="44.1268225" lon="10.485503"><ele>1073.3333333333333</ele><time>2026-04-24T12:48:06.127Z</time></trkpt><trkpt lat="44.1268802" lon="10.4855765"><ele>1071.1666666666665</ele><time>2026-04-24T12:48:09.132Z</time></trkpt><trkpt lat="44.1269444" lon="10.4856246"><ele>1069.0</ele><time>2026-04-24T12:48:12.124Z</time></trkpt><trkpt lat="44.1270091" lon="10.4856607"><ele>1068.5</ele><time>2026-04-24T12:48:16.125Z</time></trkpt><trkpt lat="44.1270678" lon="10.4857188"><ele>1068.0</ele><time>2026-04-24T12:48:20.128Z</time></trkpt><trkpt lat="44.1271214" lon="10.4857769"><ele>1067.5</ele><time>2026-04-24T12:48:23.129Z</time></trkpt><trkpt lat="44.1271799" lon="10.4858512"><ele>1067.0</ele><time>2026-04-24T12:48:26.135Z</time></trkpt><trkpt lat="44.1272561" lon="10.4859072"><ele>1066.5</ele><time>2026-04-24T12:48:30.127Z</time></trkpt><trkpt lat="44.1273335" lon="10.4859642"><ele>1066.0</ele><time>2026-04-24T12:48:33.131Z</time></trkpt><trkpt lat="44.1273983" lon="10.4860249"><ele>1066.0</ele><time>2026-04-24T12:48:36.127Z</time></trkpt><trkpt lat="44.1274625" lon="10.4860808"><ele>1066.0</ele><time>2026-04-24T12:48:40.128Z</time></trkpt><trkpt lat="44.127523" lon="10.4861263"><ele>1066.0</ele><time>2026-04-24T12:48:43.153Z</time></trkpt><trkpt lat="44.1275713" lon="10.4861888"><ele>1066.0</ele><time>2026-04-24T12:48:46.129Z</time></trkpt><trkpt lat="44.1276043" lon="10.4862846"><ele>1066.0</ele><time>2026-04-24T12:48:50.131Z</time></trkpt><trkpt lat="44.127619" lon="10.486397"><ele>1066.0</ele><time>2026-04-24T12:48:54.128Z</time></trkpt><trkpt lat="44.1276155" lon="10.486503"><ele>1066.0</ele><time>2026-04-24T12:48:58.138Z</time></trkpt><trkpt lat="44.127609" lon="10.4865996"><ele>1069.5714285714284</ele><time>2026-04-24T12:49:01.127Z</time></trkpt><trkpt lat="44.1276095" lon="10.4866896"><ele>1073.142857142857</ele><time>2026-04-24T12:49:05.128Z</time></trkpt><trkpt lat="44.1276053" lon="10.48678"><ele>1076.7142857142858</ele><time>2026-04-24T12:49:09.123Z</time></trkpt><trkpt lat="44.1275866" lon="10.4868799"><ele>1080.2857142857142</ele><time>2026-04-24T12:49:13.123Z</time></trkpt><trkpt lat="44.127643" lon="10.4869795"><ele>1083.857142857143</ele><time>2026-04-24T12:49:16.123Z</time></trkpt><trkpt lat="44.1277146" lon="10.4869688"><ele>1087.4285714285713</ele><time>2026-04-24T12:49:19.128Z</time></trkpt><trkpt lat="44.1277656" lon="10.4869145"><ele>1091.0</ele><time>2026-04-24T12:49:22.122Z</time></trkpt><trkpt lat="44.1278264" lon="10.4868664"><ele>1091.0</ele><time>2026-04-24T12:49:26.129Z</time></trkpt><trkpt lat="44.127894" lon="10.4868492"><ele>1091.0</ele><time>2026-04-24T12:49:30.139Z</time></trkpt><trkpt lat="44.1279708" lon="10.4868234"><ele>1091.0</ele><time>2026-04-24T12:49:34.134Z</time></trkpt><trkpt lat="44.1280349" lon="10.4868123"><ele>1091.0</ele><time>2026-04-24T12:49:37.13Z</time></trkpt><trkpt lat="44.1281101" lon="10.486806"><ele>1091.0</ele><time>2026-04-24T12:49:41.129Z</time></trkpt><trkpt lat="44.1281755" lon="10.4867977"><ele>1091.0</ele><time>2026-04-24T12:49:44.122Z</time></trkpt><trkpt lat="44.1282617" lon="10.4867685"><ele>1091.0</ele><time>2026-04-24T12:49:48.123Z</time></trkpt><trkpt lat="44.1283353" lon="10.4867686"><ele>1089.0</ele><time>2026-04-24T12:49:52.126Z</time></trkpt><trkpt lat="44.1284084" lon="10.486776"><ele>1087.0</ele><time>2026-04-24T12:49:55.125Z</time></trkpt><trkpt lat="44.1284807" lon="10.4867437"><ele>1085.0</ele><time>2026-04-24T12:49:59.116Z</time></trkpt><trkpt lat="44.128545" lon="10.4867153"><ele>1083.0</ele><time>2026-04-24T12:50:03.123Z</time></trkpt><trkpt lat="44.1287016" lon="10.4866686"><ele>1081.0</ele><time>2026-04-24T12:50:15.131Z</time></trkpt><trkpt lat="44.1287557" lon="10.4865811"><ele>1080.9999999999998</ele><time>2026-04-24T12:50:19.127Z</time></trkpt><trkpt lat="44.1287803" lon="10.4864956"><ele>1081.0</ele><time>2026-04-24T12:50:22.122Z</time></trkpt><trkpt lat="44.1287741" lon="10.4863945"><ele>1081.0</ele><time>2026-04-24T12:50:25.136Z</time></trkpt><trkpt lat="44.1287677" lon="10.486284"><ele>1081.0</ele><time>2026-04-24T12:50:29.132Z</time></trkpt><trkpt lat="44.1287629" lon="10.4861809"><ele>1081.0</ele><time>2026-04-24T12:50:33.123Z</time></trkpt><trkpt lat="44.128752" lon="10.4860827"><ele>1080.9999999999998</ele><time>2026-04-24T12:50:36.128Z</time></trkpt><trkpt lat="44.1287261" lon="10.4859795"><ele>1081.0</ele><time>2026-04-24T12:50:39.127Z</time></trkpt><trkpt lat="44.1287025" lon="10.4858844"><ele>1078.0</ele><time>2026-04-24T12:50:42.124Z</time></trkpt><trkpt lat="44.128699" lon="10.4857697"><ele>1075.0</ele><time>2026-04-24T12:50:46.134Z</time></trkpt><trkpt lat="44.1287027" lon="10.4856489"><ele>1072.0</ele><time>2026-04-24T12:50:50.123Z</time></trkpt><trkpt lat="44.1287085" lon="10.4855457"><ele>1069.0</ele><time>2026-04-24T12:50:53.128Z</time></trkpt><trkpt lat="44.1287191" lon="10.48544"><ele>1066.0</ele><time>2026-04-24T12:50:56.12Z</time></trkpt><trkpt lat="44.1287374" lon="10.4853495"><ele>1063.0</ele><time>2026-04-24T12:50:59.128Z</time></trkpt><trkpt lat="44.1287588" lon="10.4852413"><ele>1061.0</ele><time>2026-04-24T12:51:02.134Z</time></trkpt><trkpt lat="44.1287907" lon="10.4851354"><ele>1059.0</ele><time>2026-04-24T12:51:05.142Z</time></trkpt><trkpt lat="44.1288327" lon="10.4850321"><ele>1057.0</ele><time>2026-04-24T12:51:08.133Z</time></trkpt><trkpt lat="44.128861" lon="10.4849172"><ele>1055.0</ele><time>2026-04-24T12:51:11.128Z</time></trkpt><trkpt lat="44.1288968" lon="10.4848025"><ele>1053.0</ele><time>2026-04-24T12:51:14.129Z</time></trkpt><trkpt lat="44.1289227" lon="10.4846883"><ele>1051.0</ele><time>2026-04-24T12:51:17.125Z</time></trkpt><trkpt lat="44.1289429" lon="10.4845988"><ele>1048.0</ele><time>2026-04-24T12:51:19.126Z</time></trkpt><trkpt lat="44.1289656" lon="10.4845005"><ele>1045.0</ele><time>2026-04-24T12:51:21.13Z</time></trkpt><trkpt lat="44.1289801" lon="10.48438"><ele>1042.0</ele><time>2026-04-24T12:51:24.12Z</time></trkpt><trkpt lat="44.1289779" lon="10.4842846"><ele>1039.0</ele><time>2026-04-24T12:51:26.127Z</time></trkpt><trkpt lat="44.1289779" lon="10.4841812"><ele>1036.0</ele><time>2026-04-24T12:51:28.122Z</time></trkpt><trkpt lat="44.1289959" lon="10.4840927"><ele>1033.0</ele><time>2026-04-24T12:51:30.122Z</time></trkpt><trkpt lat="44.129026" lon="10.4839851"><ele>1033.0000000000002</ele><time>2026-04-24T12:51:33.123Z</time></trkpt><trkpt lat="44.1290463" lon="10.4838741"><ele>1033.0</ele><time>2026-04-24T12:51:36.121Z</time></trkpt><trkpt lat="44.1290605" lon="10.483783"><ele>1033.0</ele><time>2026-04-24T12:51:38.125Z</time></trkpt><trkpt lat="44.1290729" lon="10.483693"><ele>1033.0</ele><time>2026-04-24T12:51:40.122Z</time></trkpt><trkpt lat="44.1290753" lon="10.4835851"><ele>1033.0</ele><time>2026-04-24T12:51:42.123Z</time></trkpt><trkpt lat="44.1290644" lon="10.483469"><ele>1033.0000000000002</ele><time>2026-04-24T12:51:45.118Z</time></trkpt><trkpt lat="44.1290456" lon="10.4833707"><ele>1033.0</ele><time>2026-04-24T12:51:48.121Z</time></trkpt><trkpt lat="44.1290301" lon="10.4832526"><ele>1031.3333333333333</ele><time>2026-04-24T12:51:51.127Z</time></trkpt><trkpt lat="44.1290388" lon="10.4831486"><ele>1029.6666666666665</ele><time>2026-04-24T12:51:54.133Z</time></trkpt><trkpt lat="44.1290621" lon="10.4830394"><ele>1028.0</ele><time>2026-04-24T12:51:57.127Z</time></trkpt><trkpt lat="44.1290836" lon="10.4829349"><ele>1026.3333333333333</ele><time>2026-04-24T12:52:00.127Z</time></trkpt><trkpt lat="44.1291044" lon="10.4828153"><ele>1024.6666666666667</ele><time>2026-04-24T12:52:03.119Z</time></trkpt><trkpt lat="44.1291234" lon="10.4826891"><ele>1023.0</ele><time>2026-04-24T12:52:06.116Z</time></trkpt><trkpt lat="44.1291422" lon="10.482568"><ele>1029.142857142857</ele><time>2026-04-24T12:52:09.126Z</time></trkpt><trkpt lat="44.1291817" lon="10.4824808"><ele>1035.2857142857142</ele><time>2026-04-24T12:52:12.132Z</time></trkpt><trkpt lat="44.1292406" lon="10.482435"><ele>1041.4285714285713</ele><time>2026-04-24T12:52:16.133Z</time></trkpt><trkpt lat="44.1292909" lon="10.4825109"><ele>1047.5714285714284</ele><time>2026-04-24T12:52:20.126Z</time></trkpt><trkpt lat="44.1293499" lon="10.4825537"><ele>1053.7142857142856</ele><time>2026-04-24T12:52:25.123Z</time></trkpt><trkpt lat="44.1293796" lon="10.4826397"><ele>1059.857142857143</ele><time>2026-04-24T12:58:58.127Z</time></trkpt><trkpt lat="44.1293751" lon="10.4827369"><ele>1066.0</ele><time>2026-04-24T12:59:02.131Z</time></trkpt><trkpt lat="44.1293759" lon="10.4828276"><ele>1066.0</ele><time>2026-04-24T12:59:05.117Z</time></trkpt><trkpt lat="44.1293719" lon="10.4829187"><ele>1066.0</ele><time>2026-04-24T12:59:10.117Z</time></trkpt><trkpt lat="44.1293727" lon="10.4830224"><ele>1066.0</ele><time>2026-04-24T12:59:13.122Z</time></trkpt><trkpt lat="44.1294052" lon="10.4831431"><ele>1066.0</ele><time>2026-04-24T12:59:15.128Z</time></trkpt><trkpt lat="44.1294635" lon="10.4832443"><ele>1066.0</ele><time>2026-04-24T12:59:17.129Z</time></trkpt><trkpt lat="44.1295018" lon="10.4833204"><ele>1066.0</ele><time>2026-04-24T12:59:18.127Z</time></trkpt><trkpt lat="44.1295523" lon="10.4834536"><ele>1067.8</ele><time>2026-04-24T12:59:20.132Z</time></trkpt><trkpt lat="44.129639" lon="10.4835623"><ele>1069.6</ele><time>2026-04-24T12:59:22.135Z</time></trkpt><trkpt lat="44.1297146" lon="10.4836472"><ele>1071.4</ele><time>2026-04-24T12:59:24.119Z</time></trkpt><trkpt lat="44.1297906" lon="10.4837777"><ele>1073.2</ele><time>2026-04-24T12:59:26.13Z</time></trkpt><trkpt lat="44.1298266" lon="10.4838504"><ele>1075.0</ele><time>2026-04-24T12:59:27.132Z</time></trkpt><trkpt lat="44.1298684" lon="10.4839185"><ele>1076.25</ele><time>2026-04-24T12:59:28.132Z</time></trkpt><trkpt lat="44.1299628" lon="10.4840396"><ele>1077.5</ele><time>2026-04-24T12:59:30.128Z</time></trkpt><trkpt lat="44.1300564" lon="10.484146"><ele>1078.75</ele><time>2026-04-24T12:59:32.132Z</time></trkpt><trkpt lat="44.1301383" lon="10.484239"><ele>1080.0</ele><time>2026-04-24T12:59:34.13Z</time></trkpt><trkpt lat="44.1302068" lon="10.4843505"><ele>1080.0</ele><time>2026-04-24T12:59:36.126Z</time></trkpt><trkpt lat="44.130206" lon="10.4844471"><ele>1080.0</ele><time>2026-04-24T12:59:38.129Z</time></trkpt><trkpt lat="44.1302195" lon="10.4845543"><ele>1080.0</ele><time>2026-04-24T12:59:41.119Z</time></trkpt><trkpt lat="44.1302522" lon="10.4846701"><ele>1080.0</ele><time>2026-04-24T12:59:43.121Z</time></trkpt><trkpt lat="44.1303471" lon="10.4847666"><ele>1080.0</ele><time>2026-04-24T12:59:45.125Z</time></trkpt><trkpt lat="44.130429" lon="10.4848459"><ele>1077.4</ele><time>2026-04-24T12:59:47.116Z</time></trkpt><trkpt lat="44.1305122" lon="10.4849191"><ele>1074.8</ele><time>2026-04-24T12:59:49.122Z</time></trkpt><trkpt lat="44.1306016" lon="10.4849968"><ele>1072.2</ele><time>2026-04-24T12:59:51.127Z</time></trkpt><trkpt lat="44.1306698" lon="10.4850752"><ele>1069.6</ele><time>2026-04-24T12:59:53.127Z</time></trkpt><trkpt lat="44.1307298" lon="10.4851734"><ele>1067.0</ele><time>2026-04-24T12:59:55.12Z</time></trkpt><trkpt lat="44.1307844" lon="10.4852577"><ele>1067.0</ele><time>2026-04-24T12:59:57.113Z</time></trkpt><trkpt lat="44.1308501" lon="10.485332"><ele>1067.0</ele><time>2026-04-24T13:00:01.123Z</time></trkpt><trkpt lat="44.1309213" lon="10.4853922"><ele>1067.0</ele><time>2026-04-24T13:00:04.119Z</time></trkpt><trkpt lat="44.130995" lon="10.4854396"><ele>1067.0</ele><time>2026-04-24T13:00:08.119Z</time></trkpt><trkpt lat="44.1310771" lon="10.485468"><ele>1067.0</ele><time>2026-04-24T13:00:11.128Z</time></trkpt><trkpt lat="44.1311853" lon="10.4855361"><ele>1067.0</ele><time>2026-04-24T13:00:14.141Z</time></trkpt><trkpt lat="44.1312503" lon="10.485569"><ele>1067.0</ele><time>2026-04-24T13:00:16.119Z</time></trkpt><trkpt lat="44.1313165" lon="10.4856154"><ele>1067.0</ele><time>2026-04-24T13:00:18.145Z</time></trkpt><trkpt lat="44.131387" lon="10.4856688"><ele>1067.0</ele><time>2026-04-24T13:00:21.124Z</time></trkpt><trkpt lat="44.1314624" lon="10.4857383"><ele>1067.0</ele><time>2026-04-24T13:00:24.124Z</time></trkpt><trkpt lat="44.1315154" lon="10.4858108"><ele>1067.0</ele><time>2026-04-24T13:00:27.115Z</time></trkpt><trkpt lat="44.131582" lon="10.4858966"><ele>1067.0</ele><time>2026-04-24T13:00:31.114Z</time></trkpt><trkpt lat="44.1316337" lon="10.4859815"><ele>1067.0</ele><time>2026-04-24T13:00:34.114Z</time></trkpt><trkpt lat="44.1316724" lon="10.4860743"><ele>1067.0</ele><time>2026-04-24T13:00:37.12Z</time></trkpt><trkpt lat="44.1317115" lon="10.4861786"><ele>1067.0</ele><time>2026-04-24T13:00:40.129Z</time></trkpt><trkpt lat="44.1317494" lon="10.4862882"><ele>1067.0</ele><time>2026-04-24T13:00:43.129Z</time></trkpt><trkpt lat="44.1317813" lon="10.4863825"><ele>1067.0</ele><time>2026-04-24T13:00:45.128Z</time></trkpt><trkpt lat="44.1318315" lon="10.4865295"><ele>1068.6</ele><time>2026-04-24T13:00:47.122Z</time></trkpt><trkpt lat="44.1318813" lon="10.4866875"><ele>1070.2</ele><time>2026-04-24T13:00:49.121Z</time></trkpt><trkpt lat="44.1319736" lon="10.4868054"><ele>1071.8</ele><time>2026-04-24T13:00:51.119Z</time></trkpt><trkpt lat="44.1320226" lon="10.4868607"><ele>1073.4</ele><time>2026-04-24T13:00:52.127Z</time></trkpt><trkpt lat="44.1320988" lon="10.486941"><ele>1075.0</ele><time>2026-04-24T13:00:54.131Z</time></trkpt><trkpt lat="44.1321368" lon="10.4870506"><ele>1074.4</ele><time>2026-04-24T13:00:56.116Z</time></trkpt><trkpt lat="44.132129" lon="10.4872213"><ele>1073.8</ele><time>2026-04-24T13:00:58.117Z</time></trkpt><trkpt lat="44.1321381" lon="10.4874076"><ele>1073.2</ele><time>2026-04-24T13:01:00.117Z</time></trkpt><trkpt lat="44.1321496" lon="10.4875041"><ele>1072.6</ele><time>2026-04-24T13:01:01.13Z</time></trkpt><trkpt lat="44.1321516" lon="10.4875927"><ele>1072.0</ele><time>2026-04-24T13:01:02.13Z</time></trkpt><trkpt lat="44.132168" lon="10.4877689"><ele>1072.0</ele><time>2026-04-24T13:01:04.114Z</time></trkpt><trkpt lat="44.1321747" lon="10.4878568"><ele>1072.0</ele><time>2026-04-24T13:01:05.122Z</time></trkpt><trkpt lat="44.1321819" lon="10.4879627"><ele>1072.0</ele><time>2026-04-24T13:01:06.121Z</time></trkpt><trkpt lat="44.1321888" lon="10.4880529"><ele>1072.0</ele><time>2026-04-24T13:01:07.128Z</time></trkpt><trkpt lat="44.1321985" lon="10.4881401"><ele>1072.0</ele><time>2026-04-24T13:01:08.131Z</time></trkpt><trkpt lat="44.1322012" lon="10.4882836"><ele>1072.0</ele><time>2026-04-24T13:01:10.125Z</time></trkpt><trkpt lat="44.1322356" lon="10.4884438"><ele>1071.2</ele><time>2026-04-24T13:01:12.122Z</time></trkpt><trkpt lat="44.1322858" lon="10.4886138"><ele>1070.4</ele><time>2026-04-24T13:01:14.125Z</time></trkpt><trkpt lat="44.1323327" lon="10.4887351"><ele>1069.6</ele><time>2026-04-24T13:01:15.119Z</time></trkpt><trkpt lat="44.1323612" lon="10.4888665"><ele>1068.8</ele><time>2026-04-24T13:01:16.134Z</time></trkpt><trkpt lat="44.1324054" lon="10.4890169"><ele>1068.0</ele><time>2026-04-24T13:01:18.129Z</time></trkpt><trkpt lat="44.1324473" lon="10.4891558"><ele>1064.0</ele><time>2026-04-24T13:01:20.127Z</time></trkpt><trkpt lat="44.132432" lon="10.489279"><ele>1060.0</ele><time>2026-04-24T13:01:22.114Z</time></trkpt><trkpt lat="44.1324107" lon="10.4894128"><ele>1056.0</ele><time>2026-04-24T13:01:24.121Z</time></trkpt><trkpt lat="44.1324343" lon="10.4895393"><ele>1052.0</ele><time>2026-04-24T13:01:26.126Z</time></trkpt><trkpt lat="44.1324441" lon="10.4896869"><ele>1048.0</ele><time>2026-04-24T13:01:28.131Z</time></trkpt><trkpt lat="44.1324526" lon="10.4898043"><ele>1046.6666666666665</ele><time>2026-04-24T13:01:30.128Z</time></trkpt><trkpt lat="44.1324704" lon="10.489902"><ele>1045.3333333333333</ele><time>2026-04-24T13:01:32.123Z</time></trkpt><trkpt lat="44.1325299" lon="10.4899922"><ele>1044.0</ele><time>2026-04-24T13:01:35.121Z</time></trkpt><trkpt lat="44.1325961" lon="10.4899805"><ele>1042.6666666666667</ele><time>2026-04-24T13:01:37.128Z</time></trkpt><trkpt lat="44.1326826" lon="10.4899241"><ele>1041.3333333333335</ele><time>2026-04-24T13:01:39.136Z</time></trkpt><trkpt lat="44.132775" lon="10.4898692"><ele>1040.0</ele><time>2026-04-24T13:01:41.132Z</time></trkpt><trkpt lat="44.132845" lon="10.4898721"><ele>1040.0</ele><time>2026-04-24T13:01:43.123Z</time></trkpt><trkpt lat="44.1329004" lon="10.4899619"><ele>1040.0</ele><time>2026-04-24T13:01:46.114Z</time></trkpt><trkpt lat="44.1329137" lon="10.4900668"><ele>1040.0</ele><time>2026-04-24T13:01:48.122Z</time></trkpt><trkpt lat="44.1329276" lon="10.4901823"><ele>1040.0</ele><time>2026-04-24T13:01:50.126Z</time></trkpt><trkpt lat="44.1329521" lon="10.4902645"><ele>1040.0</ele><time>2026-04-24T13:01:52.125Z</time></trkpt><trkpt lat="44.1329718" lon="10.4903781"><ele>1040.0</ele><time>2026-04-24T13:01:54.127Z</time></trkpt><trkpt lat="44.1330006" lon="10.4905124"><ele>1040.0</ele><time>2026-04-24T13:01:56.115Z</time></trkpt><trkpt lat="44.1330236" lon="10.490635"><ele>1040.0</ele><time>2026-04-24T13:01:58.13Z</time></trkpt><trkpt lat="44.13308" lon="10.4907324"><ele>1040.0</ele><time>2026-04-24T13:02:00.137Z</time></trkpt><trkpt lat="44.1331732" lon="10.4908235"><ele>1040.0</ele><time>2026-04-24T13:02:02.138Z</time></trkpt><trkpt lat="44.133226" lon="10.4908723"><ele>1040.0</ele><time>2026-04-24T13:02:03.128Z</time></trkpt><trkpt lat="44.1332861" lon="10.4909326"><ele>1040.0</ele><time>2026-04-24T13:02:04.14Z</time></trkpt><trkpt lat="44.1333456" lon="10.4909945"><ele>1035.857142857143</ele><time>2026-04-24T13:02:05.119Z</time></trkpt><trkpt lat="44.1334074" lon="10.4910659"><ele>1031.7142857142858</ele><time>2026-04-24T13:02:06.115Z</time></trkpt><trkpt lat="44.1334602" lon="10.4911435"><ele>1027.5714285714284</ele><time>2026-04-24T13:02:07.12Z</time></trkpt><trkpt lat="44.1335041" lon="10.4912095"><ele>1023.4285714285714</ele><time>2026-04-24T13:02:08.134Z</time></trkpt><trkpt lat="44.1335493" lon="10.4912733"><ele>1019.2857142857142</ele><time>2026-04-24T13:02:09.134Z</time></trkpt><trkpt lat="44.1335967" lon="10.4913437"><ele>1015.142857142857</ele><time>2026-04-24T13:02:10.134Z</time></trkpt><trkpt lat="44.1336401" lon="10.4914221"><ele>1010.9999999999999</ele><time>2026-04-24T13:02:11.124Z</time></trkpt><trkpt lat="44.1336792" lon="10.491509"><ele>1010.6666666666666</ele><time>2026-04-24T13:02:12.127Z</time></trkpt><trkpt lat="44.1337424" lon="10.4916291"><ele>1010.3333333333333</ele><time>2026-04-24T13:02:14.122Z</time></trkpt><trkpt lat="44.1338031" lon="10.491667"><ele>1010.0</ele><time>2026-04-24T13:02:16.129Z</time></trkpt><trkpt lat="44.1338675" lon="10.4916448"><ele>1009.6666666666666</ele><time>2026-04-24T13:02:18.139Z</time></trkpt><trkpt lat="44.1339325" lon="10.4916327"><ele>1009.3333333333333</ele><time>2026-04-24T13:02:20.124Z</time></trkpt><trkpt lat="44.1340209" lon="10.4916048"><ele>1009.0</ele><time>2026-04-24T13:02:23.129Z</time></trkpt><trkpt lat="44.1340831" lon="10.4915523"><ele>1007.2</ele><time>2026-04-24T13:02:25.136Z</time></trkpt><trkpt lat="44.1341574" lon="10.4914907"><ele>1005.4000000000001</ele><time>2026-04-24T13:02:27.124Z</time></trkpt><trkpt lat="44.1342369" lon="10.4914054"><ele>1003.6</ele><time>2026-04-24T13:02:29.119Z</time></trkpt><trkpt lat="44.1342898" lon="10.4912967"><ele>1001.8</ele><time>2026-04-24T13:02:31.115Z</time></trkpt><trkpt lat="44.1343281" lon="10.4911884"><ele>1000.0</ele><time>2026-04-24T13:02:33.123Z</time></trkpt><trkpt lat="44.1343672" lon="10.4910639"><ele>999.6666666666666</ele><time>2026-04-24T13:02:35.132Z</time></trkpt><trkpt lat="44.1344165" lon="10.4909181"><ele>999.3333333333333</ele><time>2026-04-24T13:02:37.129Z</time></trkpt><trkpt lat="44.1344402" lon="10.49083"><ele>999.0</ele><time>2026-04-24T13:02:38.13Z</time></trkpt><trkpt lat="44.1344737" lon="10.4907515"><ele>998.6666666666667</ele><time>2026-04-24T13:02:39.121Z</time></trkpt><trkpt lat="44.1344701" lon="10.490644"><ele>998.3333333333334</ele><time>2026-04-24T13:02:40.122Z</time></trkpt><trkpt lat="44.1344692" lon="10.4905465"><ele>998.0</ele><time>2026-04-24T13:02:41.125Z</time></trkpt><trkpt lat="44.1344665" lon="10.4904518"><ele>997.1666666666667</ele><time>2026-04-24T13:02:42.13Z</time></trkpt><trkpt lat="44.1344532" lon="10.4903469"><ele>996.3333333333334</ele><time>2026-04-24T13:02:43.133Z</time></trkpt><trkpt lat="44.1344187" lon="10.490246"><ele>995.5</ele><time>2026-04-24T13:02:44.131Z</time></trkpt><trkpt lat="44.1343502" lon="10.4901382"><ele>994.6666666666667</ele><time>2026-04-24T13:02:46.128Z</time></trkpt><trkpt lat="44.1342705" lon="10.4900567"><ele>993.8333333333334</ele><time>2026-04-24T13:02:48.124Z</time></trkpt><trkpt lat="44.1342102" lon="10.4899893"><ele>993.0</ele><time>2026-04-24T13:02:50.114Z</time></trkpt><trkpt lat="44.1341484" lon="10.4899234"><ele>993.0</ele><time>2026-04-24T13:02:52.116Z</time></trkpt><trkpt lat="44.1340794" lon="10.4898402"><ele>993.0</ele><time>2026-04-24T13:02:54.12Z</time></trkpt><trkpt lat="44.1340101" lon="10.4897224"><ele>993.0</ele><time>2026-04-24T13:02:56.12Z</time></trkpt><trkpt lat="44.1339795" lon="10.4896442"><ele>993.0</ele><time>2026-04-24T13:02:57.128Z</time></trkpt><trkpt lat="44.1339445" lon="10.489561"><ele>993.0</ele><time>2026-04-24T13:02:58.126Z</time></trkpt><trkpt lat="44.1339305" lon="10.4893904"><ele>991.5999999999999</ele><time>2026-04-24T13:03:00.154Z</time></trkpt><trkpt lat="44.1339442" lon="10.4892271"><ele>990.1999999999999</ele><time>2026-04-24T13:03:02.129Z</time></trkpt><trkpt lat="44.1339978" lon="10.4891607"><ele>988.8</ele><time>2026-04-24T13:03:03.129Z</time></trkpt><trkpt lat="44.1340638" lon="10.4889935"><ele>987.4</ele><time>2026-04-24T13:03:05.13Z</time></trkpt><trkpt lat="44.134106" lon="10.4889041"><ele>986.0</ele><time>2026-04-24T13:03:06.122Z</time></trkpt><trkpt lat="44.1341581" lon="10.4888055"><ele>987.5000000000001</ele><time>2026-04-24T13:03:07.124Z</time></trkpt><trkpt lat="44.1341866" lon="10.4887022"><ele>989.0</ele><time>2026-04-24T13:03:08.116Z</time></trkpt><trkpt lat="44.1342146" lon="10.4885886"><ele>990.5</ele><time>2026-04-24T13:03:09.134Z</time></trkpt><trkpt lat="44.1342521" lon="10.4884938"><ele>992.0</ele><time>2026-04-24T13:03:10.132Z</time></trkpt><trkpt lat="44.1342752" lon="10.4883954"><ele>993.5000000000001</ele><time>2026-04-24T13:03:11.122Z</time></trkpt><trkpt lat="44.1343036" lon="10.488304"><ele>995.0</ele><time>2026-04-24T13:03:12.135Z</time></trkpt><trkpt lat="44.1343385" lon="10.4882116"><ele>995.0000000000001</ele><time>2026-04-24T13:03:13.124Z</time></trkpt><trkpt lat="44.1343827" lon="10.4881175"><ele>995.0</ele><time>2026-04-24T13:03:14.118Z</time></trkpt><trkpt lat="44.1344173" lon="10.4880076"><ele>995.0</ele><time>2026-04-24T13:03:15.121Z</time></trkpt><trkpt lat="44.1344505" lon="10.4879015"><ele>995.0</ele><time>2026-04-24T13:03:16.131Z</time></trkpt><trkpt lat="44.1344794" lon="10.4877993"><ele>995.0000000000001</ele><time>2026-04-24T13:03:17.139Z</time></trkpt><trkpt lat="44.1345173" lon="10.4877045"><ele>995.0</ele><time>2026-04-24T13:03:18.129Z</time></trkpt><trkpt lat="44.1345527" lon="10.4876261"><ele>994.6</ele><time>2026-04-24T13:03:19.121Z</time></trkpt><trkpt lat="44.1345961" lon="10.4875391"><ele>994.2</ele><time>2026-04-24T13:03:20.13Z</time></trkpt><trkpt lat="44.1346321" lon="10.4874621"><ele>993.8</ele><time>2026-04-24T13:03:21.116Z</time></trkpt><trkpt lat="44.1346755" lon="10.487373"><ele>993.4</ele><time>2026-04-24T13:03:22.124Z</time></trkpt><trkpt lat="44.1347271" lon="10.4872747"><ele>993.0</ele><time>2026-04-24T13:03:23.126Z</time></trkpt><trkpt lat="44.1340794" lon="10.4898402"><ele>997.4</ele><time>2026-04-24T13:02:54.12Z</time></trkpt><trkpt lat="44.1340101" lon="10.4897224"><ele>1001.8</ele><time>2026-04-24T13:02:56.12Z</time></trkpt><trkpt lat="44.1339795" lon="10.4896442"><ele>1006.2</ele><time>2026-04-24T13:02:57.128Z</time></trkpt><trkpt lat="44.1339445" lon="10.489561"><ele>1010.6</ele><time>2026-04-24T13:02:58.126Z</time></trkpt><trkpt lat="44.1339305" lon="10.4893904"><ele>1015.0</ele><time>2026-04-24T13:03:00.154Z</time></trkpt><trkpt lat="44.1339442" lon="10.4892271"><ele>1018.0</ele><time>2026-04-24T13:03:02.129Z</time></trkpt><trkpt lat="44.1339978" lon="10.4891607"><ele>1021.0</ele><time>2026-04-24T13:03:03.129Z</time></trkpt><trkpt lat="44.1340638" lon="10.4889935"><ele>1024.0</ele><time>2026-04-24T13:03:05.13Z</time></trkpt><trkpt lat="44.134106" lon="10.4889041"><ele>1027.0</ele><time>2026-04-24T13:03:06.122Z</time></trkpt><trkpt lat="44.1341581" lon="10.4888055"><ele>1030.0</ele><time>2026-04-24T13:03:07.124Z</time></trkpt><trkpt lat="44.1341866" lon="10.4887022"><ele>1024.1666666666665</ele><time>2026-04-24T13:03:08.116Z</time></trkpt><trkpt lat="44.1342146" lon="10.4885886"><ele>1018.3333333333333</ele><time>2026-04-24T13:03:09.134Z</time></trkpt><trkpt lat="44.1342521" lon="10.4884938"><ele>1012.5</ele><time>2026-04-24T13:03:10.132Z</time></trkpt><trkpt lat="44.1342752" lon="10.4883954"><ele>1006.6666666666667</ele><time>2026-04-24T13:03:11.122Z</time></trkpt><trkpt lat="44.1343036" lon="10.488304"><ele>1000.8333333333334</ele><time>2026-04-24T13:03:12.135Z</time></trkpt><trkpt lat="44.1343385" lon="10.4882116"><ele>995.0</ele><time>2026-04-24T13:03:13.124Z</time></trkpt><trkpt lat="44.1343827" lon="10.4881175"><ele>995.0000000000001</ele><time>2026-04-24T13:03:14.118Z</time></trkpt><trkpt lat="44.1344173" lon="10.4880076"><ele>995.0</ele><time>2026-04-24T13:03:15.121Z</time></trkpt><trkpt lat="44.1344505" lon="10.4879015"><ele>995.0</ele><time>2026-04-24T13:03:16.131Z</time></trkpt><trkpt lat="44.1344794" lon="10.4877993"><ele>995.0</ele><time>2026-04-24T13:03:17.139Z</time></trkpt><trkpt lat="44.1345173" lon="10.4877045"><ele>995.0000000000001</ele><time>2026-04-24T13:03:18.129Z</time></trkpt><trkpt lat="44.1345527" lon="10.4876261"><ele>995.0</ele><time>2026-04-24T13:03:19.121Z</time></trkpt><trkpt lat="44.1345961" lon="10.4875391"><ele>997.8333333333334</ele><time>2026-04-24T13:03:20.13Z</time></trkpt><trkpt lat="44.1346321" lon="10.4874621"><ele>1000.6666666666667</ele><time>2026-04-24T13:03:21.116Z</time></trkpt><trkpt lat="44.1346755" lon="10.487373"><ele>1003.5</ele><time>2026-04-24T13:03:22.124Z</time></trkpt><trkpt lat="44.1347271" lon="10.4872747"><ele>1006.3333333333333</ele><time>2026-04-24T13:03:23.126Z</time></trkpt><trkpt lat="44.1347741" lon="10.4871785"><ele>1009.1666666666666</ele><time>2026-04-24T13:03:24.133Z</time></trkpt><trkpt lat="44.1348142" lon="10.4870613"><ele>1012.0</ele><time>2026-04-24T13:03:25.125Z</time></trkpt><trkpt lat="44.1348297" lon="10.4869689"><ele>1012.9999999999999</ele><time>2026-04-24T13:03:26.123Z</time></trkpt><trkpt lat="44.1348499" lon="10.4868584"><ele>1014.0</ele><time>2026-04-24T13:03:27.124Z</time></trkpt><trkpt lat="44.1348862" lon="10.4867529"><ele>1015.0</ele><time>2026-04-24T13:03:28.125Z</time></trkpt><trkpt lat="44.1349239" lon="10.4866404"><ele>1016.0</ele><time>2026-04-24T13:03:29.119Z</time></trkpt><trkpt lat="44.1349761" lon="10.4865365"><ele>1016.9999999999999</ele><time>2026-04-24T13:03:30.136Z</time></trkpt><trkpt lat="44.1350133" lon="10.4864485"><ele>1018.0</ele><time>2026-04-24T13:03:31.126Z</time></trkpt><trkpt lat="44.1350878" lon="10.4863005"><ele>1007.2</ele><time>2026-04-24T13:03:33.12Z</time></trkpt><trkpt lat="44.1351182" lon="10.4861667"><ele>996.4</ele><time>2026-04-24T13:03:35.124Z</time></trkpt><trkpt lat="44.1351372" lon="10.4860388"><ele>985.6000000000001</ele><time>2026-04-24T13:03:37.123Z</time></trkpt><trkpt lat="44.1352076" lon="10.486115"><ele>974.8000000000001</ele><time>2026-04-24T13:03:41.117Z</time></trkpt><trkpt lat="44.1352241" lon="10.4862596"><ele>964.0</ele><time>2026-04-24T13:03:43.126Z</time></trkpt><trkpt lat="44.1352297" lon="10.4863686"><ele>963.8333333333333</ele><time>2026-04-24T13:03:45.126Z</time></trkpt><trkpt lat="44.135214" lon="10.4864684"><ele>963.6666666666666</ele><time>2026-04-24T13:03:47.123Z</time></trkpt><trkpt lat="44.1352132" lon="10.4865642"><ele>963.5</ele><time>2026-04-24T13:03:49.13Z</time></trkpt><trkpt lat="44.1352533" lon="10.4866687"><ele>963.3333333333333</ele><time>2026-04-24T13:03:52.127Z</time></trkpt><trkpt lat="44.1353239" lon="10.4866632"><ele>963.1666666666666</ele><time>2026-04-24T13:03:56.126Z</time></trkpt><trkpt lat="44.135356" lon="10.4865555"><ele>963.0</ele><time>2026-04-24T13:04:00.125Z</time></trkpt><trkpt lat="44.1353792" lon="10.4864261"><ele>963.2</ele><time>2026-04-24T13:04:03.146Z</time></trkpt><trkpt lat="44.1354054" lon="10.486246"><ele>963.4</ele><time>2026-04-24T13:04:05.128Z</time></trkpt><trkpt lat="44.1354315" lon="10.4860853"><ele>963.6000000000001</ele><time>2026-04-24T13:04:07.13Z</time></trkpt><trkpt lat="44.1354095" lon="10.4859983"><ele>963.8000000000001</ele><time>2026-04-24T13:04:08.122Z</time></trkpt><trkpt lat="44.1354321" lon="10.4858312"><ele>964.0</ele><time>2026-04-24T13:04:10.127Z</time></trkpt><trkpt lat="44.1354501" lon="10.4856606"><ele>964.0</ele><time>2026-04-24T13:04:12.14Z</time></trkpt><trkpt lat="44.135455" lon="10.4855089"><ele>964.0000000000001</ele><time>2026-04-24T13:04:14.142Z</time></trkpt><trkpt lat="44.1354666" lon="10.4853739"><ele>964.0000000000001</ele><time>2026-04-24T13:04:16.125Z</time></trkpt><trkpt lat="44.1354751" lon="10.4852594"><ele>964.0</ele><time>2026-04-24T13:04:18.125Z</time></trkpt><trkpt lat="44.1354496" lon="10.4851558"><ele>964.0</ele><time>2026-04-24T13:04:20.129Z</time></trkpt><trkpt lat="44.1353736" lon="10.4850514"><ele>961.4999999999999</ele><time>2026-04-24T13:04:22.127Z</time></trkpt><trkpt lat="44.1353157" lon="10.4850162"><ele>959.0</ele><time>2026-04-24T13:04:23.131Z</time></trkpt><trkpt lat="44.1352484" lon="10.4849769"><ele>956.5</ele><time>2026-04-24T13:04:24.134Z</time></trkpt><trkpt lat="44.135185" lon="10.4849223"><ele>954.0</ele><time>2026-04-24T13:04:25.14Z</time></trkpt><trkpt lat="44.1351144" lon="10.4848634"><ele>951.4999999999999</ele><time>2026-04-24T13:04:26.131Z</time></trkpt><trkpt lat="44.1350498" lon="10.4848129"><ele>949.0</ele><time>2026-04-24T13:04:27.134Z</time></trkpt><trkpt lat="44.1349828" lon="10.4847307"><ele>948.9999999999999</ele><time>2026-04-24T13:04:28.133Z</time></trkpt><trkpt lat="44.1349303" lon="10.4846629"><ele>949.0</ele><time>2026-04-24T13:04:29.15Z</time></trkpt><trkpt lat="44.1348898" lon="10.4845564"><ele>949.0</ele><time>2026-04-24T13:04:30.118Z</time></trkpt><trkpt lat="44.1348396" lon="10.4844712"><ele>949.0</ele><time>2026-04-24T13:04:31.126Z</time></trkpt><trkpt lat="44.1347695" lon="10.4844049"><ele>948.9999999999999</ele><time>2026-04-24T13:04:32.125Z</time></trkpt><trkpt lat="44.1347133" lon="10.484358"><ele>949.0</ele><time>2026-04-24T13:04:33.127Z</time></trkpt><trkpt lat="44.1346336" lon="10.4843165"><ele>948.4999999999999</ele><time>2026-04-24T13:04:34.137Z</time></trkpt><trkpt lat="44.1345506" lon="10.4842846"><ele>948.0</ele><time>2026-04-24T13:04:35.132Z</time></trkpt><trkpt lat="44.1344751" lon="10.4842167"><ele>947.5</ele><time>2026-04-24T13:04:36.123Z</time></trkpt><trkpt lat="44.1344071" lon="10.4841702"><ele>947.0</ele><time>2026-04-24T13:04:37.126Z</time></trkpt><trkpt lat="44.1343472" lon="10.484092"><ele>946.4999999999999</ele><time>2026-04-24T13:04:38.116Z</time></trkpt><trkpt lat="44.1342958" lon="10.4840075"><ele>946.0</ele><time>2026-04-24T13:04:39.129Z</time></trkpt><trkpt lat="44.1342498" lon="10.483903"><ele>945.9999999999999</ele><time>2026-04-24T13:04:40.128Z</time></trkpt><trkpt lat="44.134197" lon="10.4838417"><ele>946.0</ele><time>2026-04-24T13:04:41.127Z</time></trkpt><trkpt lat="44.1341312" lon="10.4837714"><ele>946.0</ele><time>2026-04-24T13:04:42.123Z</time></trkpt><trkpt lat="44.1340783" lon="10.4837044"><ele>946.0</ele><time>2026-04-24T13:04:43.132Z</time></trkpt><trkpt lat="44.13401" lon="10.4836037"><ele>945.9999999999999</ele><time>2026-04-24T13:04:44.142Z</time></trkpt><trkpt lat="44.1339404" lon="10.483517"><ele>946.0</ele><time>2026-04-24T13:04:45.149Z</time></trkpt><trkpt lat="44.1338759" lon="10.4834358"><ele>944.6666666666666</ele><time>2026-04-24T13:04:46.128Z</time></trkpt><trkpt lat="44.1338125" lon="10.4833519"><ele>943.3333333333333</ele><time>2026-04-24T13:04:47.12Z</time></trkpt><trkpt lat="44.1337426" lon="10.4832723"><ele>942.0</ele><time>2026-04-24T13:04:48.135Z</time></trkpt><trkpt lat="44.1337082" lon="10.4831639"><ele>940.6666666666667</ele><time>2026-04-24T13:04:50.129Z</time></trkpt><trkpt lat="44.1336609" lon="10.4830743"><ele>939.3333333333334</ele><time>2026-04-24T13:04:52.137Z</time></trkpt><trkpt lat="44.1336599" lon="10.4829732"><ele>938.0</ele><time>2026-04-24T13:06:17.125Z</time></trkpt><trkpt lat="44.1336491" lon="10.4828654"><ele>938.0000000000001</ele><time>2026-04-24T13:06:21.128Z</time></trkpt><trkpt lat="44.1336374" lon="10.4827487"><ele>938.0</ele><time>2026-04-24T13:06:25.131Z</time></trkpt><trkpt lat="44.1336433" lon="10.4826366"><ele>938.0</ele><time>2026-04-24T13:06:28.129Z</time></trkpt><trkpt lat="44.1336209" lon="10.4825428"><ele>938.0</ele><time>2026-04-24T13:06:31.129Z</time></trkpt><trkpt lat="44.1335574" lon="10.482445"><ele>938.0000000000001</ele><time>2026-04-24T13:06:34.119Z</time></trkpt><trkpt lat="44.1335223" lon="10.4823578"><ele>938.0</ele><time>2026-04-24T13:06:36.128Z</time></trkpt><trkpt lat="44.13348" lon="10.4822195"><ele>938.0</ele><time>2026-04-24T13:06:38.115Z</time></trkpt><trkpt lat="44.1334457" lon="10.4821402"><ele>938.0</ele><time>2026-04-24T13:06:39.13Z</time></trkpt><trkpt lat="44.1333834" lon="10.4820039"><ele>938.0</ele><time>2026-04-24T13:06:41.117Z</time></trkpt><trkpt lat="44.1333442" lon="10.4818545"><ele>938.0</ele><time>2026-04-24T13:06:43.126Z</time></trkpt><trkpt lat="44.1333051" lon="10.4817075"><ele>938.0</ele><time>2026-04-24T13:06:45.124Z</time></trkpt><trkpt lat="44.1332624" lon="10.4815715"><ele>936.2</ele><time>2026-04-24T13:06:47.128Z</time></trkpt><trkpt lat="44.1332558" lon="10.481457"><ele>934.4</ele><time>2026-04-24T13:06:49.118Z</time></trkpt><trkpt lat="44.1333143" lon="10.481409"><ele>932.6000000000001</ele><time>2026-04-24T13:06:50.121Z</time></trkpt><trkpt lat="44.1334041" lon="10.4813496"><ele>930.8000000000001</ele><time>2026-04-24T13:06:52.13Z</time></trkpt><trkpt lat="44.1334828" lon="10.4812965"><ele>929.0</ele><time>2026-04-24T13:06:54.139Z</time></trkpt><trkpt lat="44.133573" lon="10.4811683"><ele>929.0000000000001</ele><time>2026-04-24T13:06:56.117Z</time></trkpt><trkpt lat="44.1336477" lon="10.48102"><ele>929.0</ele><time>2026-04-24T13:06:58.129Z</time></trkpt><trkpt lat="44.1336799" lon="10.4809149"><ele>929.0</ele><time>2026-04-24T13:06:59.123Z</time></trkpt><trkpt lat="44.1337121" lon="10.4808082"><ele>929.0</ele><time>2026-04-24T13:07:00.114Z</time></trkpt><trkpt lat="44.1337232" lon="10.480716"><ele>929.0000000000001</ele><time>2026-04-24T13:07:01.126Z</time></trkpt><trkpt lat="44.133731" lon="10.4806044"><ele>929.0</ele><time>2026-04-24T13:07:02.132Z</time></trkpt><trkpt lat="44.1337485" lon="10.4805116"><ele>929.0</ele><time>2026-04-24T13:07:03.125Z</time></trkpt><trkpt lat="44.1337509" lon="10.4803905"><ele>929.0000000000001</ele><time>2026-04-24T13:07:04.125Z</time></trkpt><trkpt lat="44.133737" lon="10.4802789"><ele>929.0000000000001</ele><time>2026-04-24T13:07:05.128Z</time></trkpt><trkpt lat="44.1337193" lon="10.4801437"><ele>929.0</ele><time>2026-04-24T13:07:06.125Z</time></trkpt><trkpt lat="44.1336973" lon="10.4800115"><ele>929.0</ele><time>2026-04-24T13:07:07.139Z</time></trkpt><trkpt lat="44.1336732" lon="10.479883"><ele>929.0</ele><time>2026-04-24T13:07:08.12Z</time></trkpt><trkpt lat="44.133657" lon="10.4797317"><ele>929.0000000000001</ele><time>2026-04-24T13:07:09.12Z</time></trkpt><trkpt lat="44.1336566" lon="10.4795933"><ele>929.0000000000001</ele><time>2026-04-24T13:07:10.121Z</time></trkpt><trkpt lat="44.1336622" lon="10.4794571"><ele>929.0</ele><time>2026-04-24T13:07:11.124Z</time></trkpt><trkpt lat="44.1336565" lon="10.4793406"><ele>929.0</ele><time>2026-04-24T13:07:12.135Z</time></trkpt><trkpt lat="44.1336978" lon="10.4792489"><ele>929.0</ele><time>2026-04-24T13:07:13.123Z</time></trkpt><trkpt lat="44.133714" lon="10.4791615"><ele>929.0000000000001</ele><time>2026-04-24T13:07:14.13Z</time></trkpt><trkpt lat="44.1337691" lon="10.4790801"><ele>929.0</ele><time>2026-04-24T13:07:15.129Z</time></trkpt><trkpt lat="44.1338207" lon="10.4789953"><ele>929.0</ele><time>2026-04-24T13:07:16.121Z</time></trkpt><trkpt lat="44.1338541" lon="10.4789161"><ele>929.0000000000001</ele><time>2026-04-24T13:07:17.122Z</time></trkpt><trkpt lat="44.1338858" lon="10.4788383"><ele>929.0</ele><time>2026-04-24T13:07:18.137Z</time></trkpt><trkpt lat="44.1339123" lon="10.4787494"><ele>929.0</ele><time>2026-04-24T13:07:19.116Z</time></trkpt><trkpt lat="44.1338626" lon="10.4785374"><ele>928.5000000000001</ele><time>2026-04-24T13:07:21.115Z</time></trkpt><trkpt lat="44.1338485" lon="10.4784361"><ele>928.0</ele><time>2026-04-24T13:07:22.112Z</time></trkpt><trkpt lat="44.1338255" lon="10.4783216"><ele>927.5</ele><time>2026-04-24T13:07:23.122Z</time></trkpt><trkpt lat="44.1337803" lon="10.4782123"><ele>927.0</ele><time>2026-04-24T13:07:24.111Z</time></trkpt><trkpt lat="44.1337482" lon="10.47811"><ele>926.5000000000001</ele><time>2026-04-24T13:07:25.114Z</time></trkpt><trkpt lat="44.1337199" lon="10.4779849"><ele>926.0</ele><time>2026-04-24T13:07:26.114Z</time></trkpt><trkpt lat="44.1336829" lon="10.4778562"><ele>924.8333333333334</ele><time>2026-04-24T13:07:27.118Z</time></trkpt><trkpt lat="44.1336776" lon="10.4777557"><ele>923.6666666666667</ele><time>2026-04-24T13:07:28.137Z</time></trkpt><trkpt lat="44.1336605" lon="10.4776579"><ele>922.5</ele><time>2026-04-24T13:07:29.115Z</time></trkpt><trkpt lat="44.1336624" lon="10.4775003"><ele>921.3333333333333</ele><time>2026-04-24T13:07:31.119Z</time></trkpt><trkpt lat="44.1336754" lon="10.4774047"><ele>920.1666666666666</ele><time>2026-04-24T13:07:32.115Z</time></trkpt><trkpt lat="44.1336728" lon="10.4772969"><ele>919.0</ele><time>2026-04-24T13:07:33.12Z</time></trkpt><trkpt lat="44.1336714" lon="10.4771813"><ele>918.8000000000001</ele><time>2026-04-24T13:07:34.114Z</time></trkpt><trkpt lat="44.1336774" lon="10.4770742"><ele>918.6000000000001</ele><time>2026-04-24T13:07:35.116Z</time></trkpt><trkpt lat="44.1336996" lon="10.4769182"><ele>918.4</ele><time>2026-04-24T13:07:36.118Z</time></trkpt><trkpt lat="44.1337205" lon="10.4767954"><ele>918.2</ele><time>2026-04-24T13:07:37.113Z</time></trkpt><trkpt lat="44.1337419" lon="10.476659"><ele>918.0</ele><time>2026-04-24T13:07:38.121Z</time></trkpt><trkpt lat="44.1338012" lon="10.4765136"><ele>918.0</ele><time>2026-04-24T13:07:39.117Z</time></trkpt><trkpt lat="44.1338182" lon="10.4763602"><ele>918.0</ele><time>2026-04-24T13:07:40.117Z</time></trkpt><trkpt lat="44.1338156" lon="10.4762274"><ele>918.0</ele><time>2026-04-24T13:07:41.114Z</time></trkpt><trkpt lat="44.1338325" lon="10.4760787"><ele>918.0</ele><time>2026-04-24T13:07:42.118Z</time></trkpt><trkpt lat="44.1338445" lon="10.4759389"><ele>918.0</ele><time>2026-04-24T13:07:43.114Z</time></trkpt><trkpt lat="44.1338275" lon="10.475804"><ele>917.8571428571429</ele><time>2026-04-24T13:07:44.119Z</time></trkpt><trkpt lat="44.1338191" lon="10.4756863"><ele>917.7142857142857</ele><time>2026-04-24T13:07:45.12Z</time></trkpt><trkpt lat="44.1337983" lon="10.4755946"><ele>917.5714285714286</ele><time>2026-04-24T13:07:46.112Z</time></trkpt><trkpt lat="44.1337915" lon="10.4754969"><ele>917.4285714285714</ele><time>2026-04-24T13:07:47.126Z</time></trkpt><trkpt lat="44.1338007" lon="10.4753977"><ele>917.2857142857142</ele><time>2026-04-24T13:07:48.121Z</time></trkpt><trkpt lat="44.1338466" lon="10.4753231"><ele>917.1428571428571</ele><time>2026-04-24T13:07:49.13Z</time></trkpt><trkpt lat="44.1338859" lon="10.4752357"><ele>917.0</ele><time>2026-04-24T13:07:50.129Z</time></trkpt><trkpt lat="44.1339307" lon="10.4751586"><ele>916.0000000000001</ele><time>2026-04-24T13:07:51.13Z</time></trkpt><trkpt lat="44.1339776" lon="10.4750758"><ele>915.0</ele><time>2026-04-24T13:07:52.124Z</time></trkpt><trkpt lat="44.1339867" lon="10.4749732"><ele>914.0</ele><time>2026-04-24T13:07:53.119Z</time></trkpt><trkpt lat="44.1340024" lon="10.4748695"><ele>913.0</ele><time>2026-04-24T13:07:54.127Z</time></trkpt><trkpt lat="44.134" lon="10.4747666"><ele>912.0000000000001</ele><time>2026-04-24T13:07:55.119Z</time></trkpt><trkpt lat="44.133977" lon="10.4746513"><ele>911.0</ele><time>2026-04-24T13:07:56.123Z</time></trkpt><trkpt lat="44.1339414" lon="10.4745344"><ele>908.5714285714286</ele><time>2026-04-24T13:07:57.129Z</time></trkpt><trkpt lat="44.1339105" lon="10.4744293"><ele>906.1428571428571</ele><time>2026-04-24T13:07:58.114Z</time></trkpt><trkpt lat="44.1338953" lon="10.4743147"><ele>903.7142857142857</ele><time>2026-04-24T13:07:59.121Z</time></trkpt><trkpt lat="44.1338971" lon="10.4742248"><ele>901.2857142857142</ele><time>2026-04-24T13:08:00.114Z</time></trkpt><trkpt lat="44.1338886" lon="10.4741241"><ele>898.8571428571429</ele><time>2026-04-24T13:08:01.13Z</time></trkpt><trkpt lat="44.1338637" lon="10.4740387"><ele>896.4285714285713</ele><time>2026-04-24T13:08:02.116Z</time></trkpt><trkpt lat="44.1338402" lon="10.4739484"><ele>894.0</ele><time>2026-04-24T13:08:03.119Z</time></trkpt><trkpt lat="44.1337482" lon="10.4738208"><ele>890.0</ele><time>2026-04-24T13:08:05.115Z</time></trkpt><trkpt lat="44.1336837" lon="10.4737659"><ele>886.0</ele><time>2026-04-24T13:08:06.115Z</time></trkpt><trkpt lat="44.1336121" lon="10.4737137"><ele>882.0</ele><time>2026-04-24T13:08:07.113Z</time></trkpt><trkpt lat="44.1335458" lon="10.4736769"><ele>878.0</ele><time>2026-04-24T13:08:08.122Z</time></trkpt><trkpt lat="44.1334759" lon="10.4736285"><ele>874.0</ele><time>2026-04-24T13:08:09.125Z</time></trkpt><trkpt lat="44.1334033" lon="10.4735778"><ele>870.0</ele><time>2026-04-24T13:08:10.119Z</time></trkpt><trkpt lat="44.1333325" lon="10.4735264"><ele>870.0</ele><time>2026-04-24T13:08:11.12Z</time></trkpt><trkpt lat="44.1332165" lon="10.4734408"><ele>870.0</ele><time>2026-04-24T13:08:13.125Z</time></trkpt><trkpt lat="44.133189" lon="10.4733586"><ele>870.0</ele><time>2026-04-24T13:08:16.121Z</time></trkpt><trkpt lat="44.1332702" lon="10.4733484"><ele>870.0</ele><time>2026-04-24T13:08:19.116Z</time></trkpt><trkpt lat="44.133362" lon="10.4733933"><ele>870.0</ele><time>2026-04-24T13:08:21.127Z</time></trkpt><trkpt lat="44.1334598" lon="10.473449"><ele>870.0</ele><time>2026-04-24T13:08:23.116Z</time></trkpt><trkpt lat="44.1335606" lon="10.4734756"><ele>870.0</ele><time>2026-04-24T13:08:25.136Z</time></trkpt><trkpt lat="44.1336259" lon="10.473474"><ele>870.0</ele><time>2026-04-24T13:08:26.133Z</time></trkpt><trkpt lat="44.1336995" lon="10.4734582"><ele>870.0</ele><time>2026-04-24T13:08:27.114Z</time></trkpt><trkpt lat="44.1337724" lon="10.4734597"><ele>870.0</ele><time>2026-04-24T13:08:28.126Z</time></trkpt><trkpt lat="44.1338391" lon="10.4734787"><ele>870.0</ele><time>2026-04-24T13:08:29.122Z</time></trkpt><trkpt lat="44.1339236" lon="10.4734996"><ele>870.0</ele><time>2026-04-24T13:08:30.129Z</time></trkpt><trkpt lat="44.1340092" lon="10.4735052"><ele>870.0</ele><time>2026-04-24T13:08:31.137Z</time></trkpt><trkpt lat="44.1340872" lon="10.4735114"><ele>870.0</ele><time>2026-04-24T13:08:32.114Z</time></trkpt><trkpt lat="44.1342169" lon="10.4735245"><ele>870.0</ele><time>2026-04-24T13:08:34.112Z</time></trkpt><trkpt lat="44.1342732" lon="10.4735862"><ele>870.0</ele><time>2026-04-24T13:08:35.122Z</time></trkpt><trkpt lat="44.1343268" lon="10.4736457"><ele>870.0</ele><time>2026-04-24T13:08:36.114Z</time></trkpt><trkpt lat="44.1343817" lon="10.4737333"><ele>869.0</ele><time>2026-04-24T13:08:37.126Z</time></trkpt><trkpt lat="44.1344283" lon="10.4738255"><ele>868.0</ele><time>2026-04-24T13:08:38.119Z</time></trkpt><trkpt lat="44.1344666" lon="10.4739338"><ele>867.0</ele><time>2026-04-24T13:08:39.128Z</time></trkpt><trkpt lat="44.1345054" lon="10.4740519"><ele>866.0</ele><time>2026-04-24T13:08:40.13Z</time></trkpt><trkpt lat="44.1345216" lon="10.4741812"><ele>865.0</ele><time>2026-04-24T13:08:41.115Z</time></trkpt><trkpt lat="44.1345271" lon="10.4743206"><ele>865.0</ele><time>2026-04-24T13:08:42.124Z</time></trkpt><trkpt lat="44.1345338" lon="10.4744691"><ele>865.0</ele><time>2026-04-24T13:08:43.126Z</time></trkpt><trkpt lat="44.1345242" lon="10.4746139"><ele>865.0</ele><time>2026-04-24T13:08:44.115Z</time></trkpt><trkpt lat="44.1345252" lon="10.47476"><ele>865.0</ele><time>2026-04-24T13:08:45.116Z</time></trkpt><trkpt lat="44.1345274" lon="10.4749041"><ele>865.0</ele><time>2026-04-24T13:08:46.123Z</time></trkpt><trkpt lat="44.1345416" lon="10.4750485"><ele>865.3333333333333</ele><time>2026-04-24T13:08:47.143Z</time></trkpt><trkpt lat="44.13456" lon="10.4751725"><ele>865.6666666666666</ele><time>2026-04-24T13:08:48.114Z</time></trkpt><trkpt lat="44.1345653" lon="10.4752875"><ele>866.0</ele><time>2026-04-24T13:08:49.117Z</time></trkpt><trkpt lat="44.1345673" lon="10.4753943"><ele>866.3333333333333</ele><time>2026-04-24T13:08:50.137Z</time></trkpt><trkpt lat="44.1345528" lon="10.475502"><ele>866.6666666666666</ele><time>2026-04-24T13:08:51.123Z</time></trkpt><trkpt lat="44.1345658" lon="10.4756099"><ele>867.0</ele><time>2026-04-24T13:08:52.131Z</time></trkpt><trkpt lat="44.1345787" lon="10.4756987"><ele>867.3333333333334</ele><time>2026-04-24T13:08:53.124Z</time></trkpt><trkpt lat="44.1346197" lon="10.4758654"><ele>867.6666666666667</ele><time>2026-04-24T13:08:55.143Z</time></trkpt><trkpt lat="44.1346264" lon="10.4759684"><ele>868.0</ele><time>2026-04-24T13:08:56.128Z</time></trkpt><trkpt lat="44.1346307" lon="10.4760733"><ele>868.3333333333334</ele><time>2026-04-24T13:08:57.131Z</time></trkpt><trkpt lat="44.1346148" lon="10.476167"><ele>868.6666666666667</ele><time>2026-04-24T13:08:58.125Z</time></trkpt><trkpt lat="44.1345887" lon="10.4762884"><ele>869.0</ele><time>2026-04-24T13:08:59.127Z</time></trkpt><trkpt lat="44.1345637" lon="10.4764072"><ele>869.0000000000001</ele><time>2026-04-24T13:09:00.125Z</time></trkpt><trkpt lat="44.1345538" lon="10.4765061"><ele>869.0</ele><time>2026-04-24T13:09:01.116Z</time></trkpt><trkpt lat="44.1345748" lon="10.4766909"><ele>869.0</ele><time>2026-04-24T13:09:03.116Z</time></trkpt><trkpt lat="44.1346214" lon="10.4767695"><ele>869.0</ele><time>2026-04-24T13:09:04.128Z</time></trkpt><trkpt lat="44.1346411" lon="10.4768671"><ele>869.0000000000001</ele><time>2026-04-24T13:09:05.128Z</time></trkpt><trkpt lat="44.1346592" lon="10.4769617"><ele>869.0</ele><time>2026-04-24T13:09:06.123Z</time></trkpt><trkpt lat="44.134662" lon="10.4770708"><ele>870.4000000000001</ele><time>2026-04-24T13:09:07.126Z</time></trkpt><trkpt lat="44.1346151" lon="10.4772032"><ele>871.8000000000001</ele><time>2026-04-24T13:09:09.127Z</time></trkpt><trkpt lat="44.1346355" lon="10.477342"><ele>873.1999999999999</ele><time>2026-04-24T13:09:11.124Z</time></trkpt><trkpt lat="44.1347052" lon="10.4774764"><ele>874.5999999999999</ele><time>2026-04-24T13:09:13.118Z</time></trkpt><trkpt lat="44.1347391" lon="10.4775659"><ele>876.0</ele><time>2026-04-24T13:09:14.132Z</time></trkpt><trkpt lat="44.1347641" lon="10.47766"><ele>876.0</ele><time>2026-04-24T13:09:15.124Z</time></trkpt><trkpt lat="44.1347836" lon="10.477767"><ele>876.0</ele><time>2026-04-24T13:09:16.125Z</time></trkpt><trkpt lat="44.1348058" lon="10.4778708"><ele>876.0</ele><time>2026-04-24T13:09:17.136Z</time></trkpt><trkpt lat="44.1348417" lon="10.4779826"><ele>876.0</ele><time>2026-04-24T13:09:18.116Z</time></trkpt><trkpt lat="44.134898" lon="10.4780955"><ele>876.0</ele><time>2026-04-24T13:09:19.124Z</time></trkpt><trkpt lat="44.1349481" lon="10.4782102"><ele>876.0</ele><time>2026-04-24T13:09:20.125Z</time></trkpt><trkpt lat="44.1349889" lon="10.4783361"><ele>868.8</ele><time>2026-04-24T13:09:21.14Z</time></trkpt><trkpt lat="44.1350451" lon="10.4784627"><ele>861.5999999999999</ele><time>2026-04-24T13:09:22.125Z</time></trkpt><trkpt lat="44.1351042" lon="10.4785807"><ele>854.4</ele><time>2026-04-24T13:09:23.119Z</time></trkpt><trkpt lat="44.1351735" lon="10.4786845"><ele>847.2</ele><time>2026-04-24T13:09:24.124Z</time></trkpt><trkpt lat="44.1352451" lon="10.4787796"><ele>840.0</ele><time>2026-04-24T13:09:25.122Z</time></trkpt><trkpt lat="44.1353013" lon="10.4788711"><ele>840.0</ele><time>2026-04-24T13:09:26.12Z</time></trkpt><trkpt lat="44.1353537" lon="10.478957"><ele>840.0</ele><time>2026-04-24T13:09:27.127Z</time></trkpt><trkpt lat="44.1353778" lon="10.4791294"><ele>840.0</ele><time>2026-04-24T13:09:29.126Z</time></trkpt><trkpt lat="44.1353663" lon="10.479224"><ele>840.0</ele><time>2026-04-24T13:09:30.123Z</time></trkpt><trkpt lat="44.1353567" lon="10.4793244"><ele>840.0</ele><time>2026-04-24T13:09:31.132Z</time></trkpt><trkpt lat="44.1353467" lon="10.4794644"><ele>840.0</ele><time>2026-04-24T13:09:33.125Z</time></trkpt><trkpt lat="44.1354021" lon="10.4795085"><ele>840.0</ele><time>2026-04-24T13:09:35.117Z</time></trkpt><trkpt lat="44.1354408" lon="10.4793809"><ele>840.0</ele><time>2026-04-24T13:09:38.13Z</time></trkpt><trkpt lat="44.1354726" lon="10.4792396"><ele>840.0</ele><time>2026-04-24T13:09:40.124Z</time></trkpt><trkpt lat="44.1354943" lon="10.4791537"><ele>840.0</ele><time>2026-04-24T13:09:41.122Z</time></trkpt><trkpt lat="44.1355033" lon="10.4790664"><ele>840.0</ele><time>2026-04-24T13:09:42.114Z</time></trkpt><trkpt lat="44.1354915" lon="10.4789706"><ele>840.0</ele><time>2026-04-24T13:09:43.125Z</time></trkpt><trkpt lat="44.1354793" lon="10.4788828"><ele>840.0</ele><time>2026-04-24T13:09:44.119Z</time></trkpt><trkpt lat="44.1354172" lon="10.4787776"><ele>840.0</ele><time>2026-04-24T13:09:45.132Z</time></trkpt><trkpt lat="44.1353623" lon="10.4786851"><ele>840.0</ele><time>2026-04-24T13:09:46.134Z</time></trkpt><trkpt lat="44.135314" lon="10.4785873"><ele>840.0</ele><time>2026-04-24T13:09:47.128Z</time></trkpt><trkpt lat="44.1352704" lon="10.4784755"><ele>840.0</ele><time>2026-04-24T13:09:48.122Z</time></trkpt><trkpt lat="44.1352427" lon="10.4783661"><ele>840.0</ele><time>2026-04-24T13:09:49.129Z</time></trkpt><trkpt lat="44.1352102" lon="10.478249"><ele>838.3333333333334</ele><time>2026-04-24T13:09:50.124Z</time></trkpt><trkpt lat="44.1351895" lon="10.478166"><ele>836.6666666666667</ele><time>2026-04-24T13:09:51.124Z</time></trkpt><trkpt lat="44.1351761" lon="10.4780547"><ele>835.0</ele><time>2026-04-24T13:09:52.145Z</time></trkpt><trkpt lat="44.1352033" lon="10.4779545"><ele>833.3333333333334</ele><time>2026-04-24T13:09:53.125Z</time></trkpt><trkpt lat="44.1352171" lon="10.477839"><ele>831.6666666666667</ele><time>2026-04-24T13:09:54.124Z</time></trkpt><trkpt lat="44.1352287" lon="10.4777195"><ele>830.0</ele><time>2026-04-24T13:09:55.139Z</time></trkpt><trkpt lat="44.1352423" lon="10.4776111"><ele>827.6</ele><time>2026-04-24T13:09:56.12Z</time></trkpt><trkpt lat="44.1352507" lon="10.4774754"><ele>825.2</ele><time>2026-04-24T13:09:57.129Z</time></trkpt><trkpt lat="44.1352486" lon="10.4773372"><ele>822.8</ele><time>2026-04-24T13:09:58.126Z</time></trkpt><trkpt lat="44.1352375" lon="10.4771954"><ele>820.4</ele><time>2026-04-24T13:09:59.125Z</time></trkpt><trkpt lat="44.1352235" lon="10.477049"><ele>818.0</ele><time>2026-04-24T13:10:00.126Z</time></trkpt><trkpt lat="44.1352096" lon="10.4769027"><ele>817.8333333333334</ele><time>2026-04-24T13:10:01.118Z</time></trkpt><trkpt lat="44.135205" lon="10.4767773"><ele>817.6666666666667</ele><time>2026-04-24T13:10:02.143Z</time></trkpt><trkpt lat="44.1351944" lon="10.4766797"><ele>817.5</ele><time>2026-04-24T13:10:03.124Z</time></trkpt><trkpt lat="44.1352044" lon="10.4765553"><ele>817.3333333333333</ele><time>2026-04-24T13:10:05.117Z</time></trkpt><trkpt lat="44.135279" lon="10.476564"><ele>817.1666666666666</ele><time>2026-04-24T13:10:07.113Z</time></trkpt><trkpt lat="44.1353112" lon="10.4766891"><ele>817.0</ele><time>2026-04-24T13:10:09.112Z</time></trkpt><trkpt lat="44.1353596" lon="10.4768542"><ele>816.9999999999999</ele><time>2026-04-24T13:10:11.129Z</time></trkpt><trkpt lat="44.1354027" lon="10.476936"><ele>817.0</ele><time>2026-04-24T13:10:12.127Z</time></trkpt><trkpt lat="44.1354507" lon="10.4770185"><ele>817.0</ele><time>2026-04-24T13:10:13.122Z</time></trkpt><trkpt lat="44.1354889" lon="10.4771103"><ele>817.0</ele><time>2026-04-24T13:10:14.129Z</time></trkpt><trkpt lat="44.1355245" lon="10.4772069"><ele>816.9999999999999</ele><time>2026-04-24T13:10:15.119Z</time></trkpt><trkpt lat="44.1355501" lon="10.4773017"><ele>817.0</ele><time>2026-04-24T13:10:16.116Z</time></trkpt><trkpt lat="44.1355485" lon="10.4774582"><ele>817.2</ele><time>2026-04-24T13:10:18.117Z</time></trkpt><trkpt lat="44.1355225" lon="10.4776109"><ele>817.4000000000001</ele><time>2026-04-24T13:10:20.121Z</time></trkpt><trkpt lat="44.1355115" lon="10.4777078"><ele>817.5999999999999</ele><time>2026-04-24T13:10:21.133Z</time></trkpt><trkpt lat="44.1355101" lon="10.4778515"><ele>817.8</ele><time>2026-04-24T13:10:23.117Z</time></trkpt><trkpt lat="44.1355786" lon="10.4778549"><ele>818.0</ele><time>2026-04-24T13:10:26.132Z</time></trkpt><trkpt lat="44.1356051" lon="10.477722"><ele>818.0000000000001</ele><time>2026-04-24T13:10:28.122Z</time></trkpt><trkpt lat="44.1356831" lon="10.4776043"><ele>818.0</ele><time>2026-04-24T13:10:30.119Z</time></trkpt><trkpt lat="44.1357257" lon="10.4775288"><ele>818.0</ele><time>2026-04-24T13:10:31.115Z</time></trkpt><trkpt lat="44.1357633" lon="10.477443"><ele>818.0</ele><time>2026-04-24T13:10:32.118Z</time></trkpt><trkpt lat="44.1357856" lon="10.4773573"><ele>818.0000000000001</ele><time>2026-04-24T13:10:33.126Z</time></trkpt><trkpt lat="44.1357881" lon="10.4772566"><ele>818.0</ele><time>2026-04-24T13:10:34.126Z</time></trkpt><trkpt lat="44.1357811" lon="10.4771544"><ele>812.0000000000001</ele><time>2026-04-24T13:10:35.13Z</time></trkpt><trkpt lat="44.1357784" lon="10.4770649"><ele>806.0</ele><time>2026-04-24T13:10:36.128Z</time></trkpt><trkpt lat="44.1357807" lon="10.4769623"><ele>800.0</ele><time>2026-04-24T13:10:37.131Z</time></trkpt><trkpt lat="44.1357814" lon="10.4768578"><ele>794.0</ele><time>2026-04-24T13:10:38.115Z</time></trkpt><trkpt lat="44.1357827" lon="10.4767441"><ele>788.0000000000001</ele><time>2026-04-24T13:10:39.114Z</time></trkpt><trkpt lat="44.135784" lon="10.4766321"><ele>782.0</ele><time>2026-04-24T13:10:40.123Z</time></trkpt><trkpt lat="44.1357844" lon="10.4765034"><ele>782.0</ele><time>2026-04-24T13:10:41.123Z</time></trkpt><trkpt lat="44.1357738" lon="10.4763743"><ele>782.0</ele><time>2026-04-24T13:10:42.113Z</time></trkpt><trkpt lat="44.1357591" lon="10.4762434"><ele>782.0</ele><time>2026-04-24T13:10:43.122Z</time></trkpt><trkpt lat="44.1357338" lon="10.476112"><ele>782.0</ele><time>2026-04-24T13:10:44.133Z</time></trkpt><trkpt lat="44.1357147" lon="10.4759911"><ele>782.0</ele><time>2026-04-24T13:10:45.123Z</time></trkpt><trkpt lat="44.1356868" lon="10.4758782"><ele>782.1666666666667</ele><time>2026-04-24T13:10:46.129Z</time></trkpt><trkpt lat="44.1356757" lon="10.4757766"><ele>782.3333333333334</ele><time>2026-04-24T13:10:47.143Z</time></trkpt><trkpt lat="44.1356839" lon="10.4756738"><ele>782.5</ele><time>2026-04-24T13:10:48.116Z</time></trkpt><trkpt lat="44.1357142" lon="10.4755782"><ele>782.6666666666667</ele><time>2026-04-24T13:10:49.125Z</time></trkpt><trkpt lat="44.1357657" lon="10.4754829"><ele>782.8333333333334</ele><time>2026-04-24T13:10:50.126Z</time></trkpt><trkpt lat="44.1358171" lon="10.475403"><ele>783.0</ele><time>2026-04-24T13:10:51.126Z</time></trkpt><trkpt lat="44.1358736" lon="10.4753479"><ele>783.0</ele><time>2026-04-24T13:10:52.131Z</time></trkpt><trkpt lat="44.1359594" lon="10.4753297"><ele>783.0</ele><time>2026-04-24T13:10:54.122Z</time></trkpt><trkpt lat="44.1359808" lon="10.4754198"><ele>783.0</ele><time>2026-04-24T13:10:57.127Z</time></trkpt><trkpt lat="44.1360166" lon="10.4755318"><ele>783.0</ele><time>2026-04-24T13:11:00.135Z</time></trkpt><trkpt lat="44.1360854" lon="10.4754892"><ele>783.0</ele><time>2026-04-24T13:11:02.117Z</time></trkpt><trkpt lat="44.1361454" lon="10.4753617"><ele>783.0</ele><time>2026-04-24T13:11:04.13Z</time></trkpt><trkpt lat="44.1361783" lon="10.4751957"><ele>783.0</ele><time>2026-04-24T13:11:06.128Z</time></trkpt><trkpt lat="44.1361905" lon="10.4750247"><ele>783.0</ele><time>2026-04-24T13:11:08.132Z</time></trkpt><trkpt lat="44.1362018" lon="10.4748683"><ele>783.0</ele><time>2026-04-24T13:11:10.122Z</time></trkpt><trkpt lat="44.1362193" lon="10.4747597"><ele>783.0</ele><time>2026-04-24T13:11:11.127Z</time></trkpt><trkpt lat="44.1362546" lon="10.4746122"><ele>783.0</ele><time>2026-04-24T13:11:13.121Z</time></trkpt><trkpt lat="44.1363043" lon="10.4744733"><ele>784.0</ele><time>2026-04-24T13:11:15.117Z</time></trkpt><trkpt lat="44.1363313" lon="10.4743683"><ele>785.0</ele><time>2026-04-24T13:11:17.118Z</time></trkpt><trkpt lat="44.1363739" lon="10.4742864"><ele>786.0</ele><time>2026-04-24T13:11:19.115Z</time></trkpt><trkpt lat="44.1364234" lon="10.474179"><ele>787.0</ele><time>2026-04-24T13:11:22.115Z</time></trkpt><trkpt lat="44.1364479" lon="10.4740772"><ele>788.0</ele><time>2026-04-24T13:11:25.129Z</time></trkpt><trkpt lat="44.1364612" lon="10.4739683"><ele>789.0</ele><time>2026-04-24T13:11:28.116Z</time></trkpt><trkpt lat="44.1364766" lon="10.4738553"><ele>787.3333333333334</ele><time>2026-04-24T13:11:31.116Z</time></trkpt><trkpt lat="44.1364662" lon="10.4737654"><ele>785.6666666666667</ele><time>2026-04-24T13:11:34.128Z</time></trkpt><trkpt lat="44.1364683" lon="10.4736743"><ele>784.0</ele><time>2026-04-24T13:11:38.123Z</time></trkpt><trkpt lat="44.1364636" lon="10.4735669"><ele>782.3333333333334</ele><time>2026-04-24T13:11:42.12Z</time></trkpt><trkpt lat="44.1364469" lon="10.4734568"><ele>780.6666666666667</ele><time>2026-04-24T13:11:46.127Z</time></trkpt><trkpt lat="44.1364163" lon="10.4733572"><ele>779.0</ele><time>2026-04-24T13:11:50.117Z</time></trkpt><trkpt lat="44.1363606" lon="10.473261"><ele>779.0000000000001</ele><time>2026-04-24T13:11:53.132Z</time></trkpt><trkpt lat="44.1363073" lon="10.4732128"><ele>779.0</ele><time>2026-04-24T13:11:55.123Z</time></trkpt><trkpt lat="44.1362409" lon="10.473173"><ele>779.0</ele><time>2026-04-24T13:11:58.128Z</time></trkpt><trkpt lat="44.1361716" lon="10.473166"><ele>779.0</ele><time>2026-04-24T13:12:01.125Z</time></trkpt><trkpt lat="44.1360775" lon="10.4731318"><ele>779.0000000000001</ele><time>2026-04-24T13:12:03.121Z</time></trkpt><trkpt lat="44.136004" lon="10.4730791"><ele>779.0</ele><time>2026-04-24T13:12:05.113Z</time></trkpt><trkpt lat="44.13588" lon="10.4729905"><ele>779.0000000000001</ele><time>2026-04-24T13:12:07.113Z</time></trkpt><trkpt lat="44.1358011" lon="10.4729589"><ele>779.0</ele><time>2026-04-24T13:12:08.121Z</time></trkpt><trkpt lat="44.1357231" lon="10.4729313"><ele>779.0</ele><time>2026-04-24T13:12:09.121Z</time></trkpt><trkpt lat="44.1356462" lon="10.4728895"><ele>779.0</ele><time>2026-04-24T13:12:10.119Z</time></trkpt><trkpt lat="44.1355744" lon="10.4728219"><ele>779.0000000000001</ele><time>2026-04-24T13:12:11.118Z</time></trkpt><trkpt lat="44.1355047" lon="10.4727336"><ele>779.0</ele><time>2026-04-24T13:12:12.115Z</time></trkpt><trkpt lat="44.1354534" lon="10.4726392"><ele>780.8333333333334</ele><time>2026-04-24T13:12:13.121Z</time></trkpt><trkpt lat="44.1354195" lon="10.472531"><ele>782.6666666666667</ele><time>2026-04-24T13:12:14.121Z</time></trkpt><trkpt lat="44.1354008" lon="10.4724237"><ele>784.5</ele><time>2026-04-24T13:12:15.121Z</time></trkpt><trkpt lat="44.1354013" lon="10.4723272"><ele>786.3333333333333</ele><time>2026-04-24T13:12:16.137Z</time></trkpt><trkpt lat="44.1354204" lon="10.4722086"><ele>788.1666666666666</ele><time>2026-04-24T13:12:17.127Z</time></trkpt><trkpt lat="44.1354319" lon="10.4720948"><ele>790.0</ele><time>2026-04-24T13:12:18.127Z</time></trkpt><trkpt lat="44.1354423" lon="10.4719912"><ele>785.8333333333333</ele><time>2026-04-24T13:12:19.123Z</time></trkpt><trkpt lat="44.1354366" lon="10.4718945"><ele>781.6666666666666</ele><time>2026-04-24T13:12:20.123Z</time></trkpt><trkpt lat="44.1354205" lon="10.4717836"><ele>777.5</ele><time>2026-04-24T13:12:21.129Z</time></trkpt><trkpt lat="44.1353959" lon="10.4716318"><ele>773.3333333333333</ele><time>2026-04-24T13:12:23.124Z</time></trkpt><trkpt lat="44.1353632" lon="10.4715092"><ele>769.1666666666666</ele><time>2026-04-24T13:12:24.121Z</time></trkpt><trkpt lat="44.1353368" lon="10.4714212"><ele>765.0</ele><time>2026-04-24T13:12:25.116Z</time></trkpt><trkpt lat="44.1352822" lon="10.4713374"><ele>765.0</ele><time>2026-04-24T13:12:26.131Z</time></trkpt><trkpt lat="44.1352101" lon="10.4712785"><ele>765.0</ele><time>2026-04-24T13:12:27.117Z</time></trkpt><trkpt lat="44.1351267" lon="10.4712429"><ele>765.0</ele><time>2026-04-24T13:12:28.117Z</time></trkpt><trkpt lat="44.135045" lon="10.4712226"><ele>765.0</ele><time>2026-04-24T13:12:29.13Z</time></trkpt><trkpt lat="44.1349578" lon="10.4712344"><ele>765.0</ele><time>2026-04-24T13:12:30.121Z</time></trkpt><trkpt lat="44.1348758" lon="10.4712746"><ele>765.0</ele><time>2026-04-24T13:12:31.116Z</time></trkpt><trkpt lat="44.1347807" lon="10.4713243"><ele>762.8</ele><time>2026-04-24T13:12:32.129Z</time></trkpt><trkpt lat="44.1346901" lon="10.471354"><ele>760.6</ele><time>2026-04-24T13:12:33.126Z</time></trkpt><trkpt lat="44.1346021" lon="10.4713381"><ele>758.4000000000001</ele><time>2026-04-24T13:12:34.116Z</time></trkpt><trkpt lat="44.1345375" lon="10.4713208"><ele>756.2</ele><time>2026-04-24T13:12:35.126Z</time></trkpt><trkpt lat="44.1344343" lon="10.4712402"><ele>754.0</ele><time>2026-04-24T13:12:37.122Z</time></trkpt><trkpt lat="44.1343411" lon="10.4712692"><ele>754.0</ele><time>2026-04-24T13:12:39.12Z</time></trkpt><trkpt lat="44.1342352" lon="10.4712304"><ele>754.0</ele><time>2026-04-24T13:12:41.121Z</time></trkpt><trkpt lat="44.1341635" lon="10.4711315"><ele>754.0</ele><time>2026-04-24T13:12:43.114Z</time></trkpt><trkpt lat="44.1341073" lon="10.4710163"><ele>754.0</ele><time>2026-04-24T13:12:45.122Z</time></trkpt><trkpt lat="44.1340437" lon="10.4708689"><ele>754.0</ele><time>2026-04-24T13:12:47.123Z</time></trkpt><trkpt lat="44.1340198" lon="10.4707812"><ele>754.0</ele><time>2026-04-24T13:12:48.115Z</time></trkpt><trkpt lat="44.1340025" lon="10.4706957"><ele>754.0</ele><time>2026-04-24T13:12:49.117Z</time></trkpt><trkpt lat="44.1340038" lon="10.4705853"><ele>754.0</ele><time>2026-04-24T13:12:50.117Z</time></trkpt><trkpt lat="44.1340626" lon="10.4704608"><ele>754.0</ele><time>2026-04-24T13:12:51.132Z</time></trkpt><trkpt lat="44.134095" lon="10.4703618"><ele>754.0</ele><time>2026-04-24T13:12:52.119Z</time></trkpt><trkpt lat="44.1341064" lon="10.4702671"><ele>754.0</ele><time>2026-04-24T13:12:53.124Z</time></trkpt><trkpt lat="44.1341009" lon="10.4701537"><ele>753.2</ele><time>2026-04-24T13:12:54.122Z</time></trkpt><trkpt lat="44.1341017" lon="10.4700319"><ele>752.4000000000001</ele><time>2026-04-24T13:12:55.13Z</time></trkpt><trkpt lat="44.1340857" lon="10.4699031"><ele>751.6</ele><time>2026-04-24T13:12:56.129Z</time></trkpt><trkpt lat="44.1340869" lon="10.4697579"><ele>750.8</ele><time>2026-04-24T13:12:57.124Z</time></trkpt><trkpt lat="44.1340728" lon="10.4696078"><ele>750.0</ele><time>2026-04-24T13:12:58.126Z</time></trkpt><trkpt lat="44.1340488" lon="10.4694766"><ele>750.0</ele><time>2026-04-24T13:12:59.12Z</time></trkpt><trkpt lat="44.1340262" lon="10.4693625"><ele>750.0</ele><time>2026-04-24T13:13:00.144Z</time></trkpt><trkpt lat="44.1339951" lon="10.4692672"><ele>750.0</ele><time>2026-04-24T13:13:01.119Z</time></trkpt><trkpt lat="44.1339498" lon="10.4691655"><ele>750.0</ele><time>2026-04-24T13:13:02.123Z</time></trkpt><trkpt lat="44.1338555" lon="10.4690746"><ele>750.0</ele><time>2026-04-24T13:13:03.114Z</time></trkpt><trkpt lat="44.1337688" lon="10.4689943"><ele>750.0</ele><time>2026-04-24T13:13:04.13Z</time></trkpt><trkpt lat="44.1336835" lon="10.4689247"><ele>750.0</ele><time>2026-04-24T13:13:05.133Z</time></trkpt><trkpt lat="44.133609" lon="10.4688726"><ele>750.0</ele><time>2026-04-24T13:13:06.119Z</time></trkpt><trkpt lat="44.1335257" lon="10.4688493"><ele>750.0</ele><time>2026-04-24T13:13:07.136Z</time></trkpt><trkpt lat="44.1334418" lon="10.4688439"><ele>750.0</ele><time>2026-04-24T13:13:08.121Z</time></trkpt><trkpt lat="44.1333478" lon="10.4688443"><ele>750.0</ele><time>2026-04-24T13:13:09.126Z</time></trkpt><trkpt lat="44.1332573" lon="10.4688356"><ele>749.1666666666666</ele><time>2026-04-24T13:13:10.124Z</time></trkpt><trkpt lat="44.133163" lon="10.4688195"><ele>748.3333333333334</ele><time>2026-04-24T13:13:11.136Z</time></trkpt><trkpt lat="44.1330848" lon="10.4688029"><ele>747.5</ele><time>2026-04-24T13:13:12.114Z</time></trkpt><trkpt lat="44.1330145" lon="10.4687698"><ele>746.6666666666667</ele><time>2026-04-24T13:13:13.119Z</time></trkpt><trkpt lat="44.1329484" lon="10.4686895"><ele>745.8333333333334</ele><time>2026-04-24T13:13:14.132Z</time></trkpt><trkpt lat="44.1329095" lon="10.4686067"><ele>745.0</ele><time>2026-04-24T13:13:15.129Z</time></trkpt><trkpt lat="44.1328765" lon="10.4685281"><ele>745.0</ele><time>2026-04-24T13:13:16.125Z</time></trkpt><trkpt lat="44.1328235" lon="10.4684466"><ele>745.0</ele><time>2026-04-24T13:13:17.133Z</time></trkpt><trkpt lat="44.132772" lon="10.4683743"><ele>745.0</ele><time>2026-04-24T13:13:18.131Z</time></trkpt><trkpt lat="44.132732" lon="10.4683051"><ele>745.0</ele><time>2026-04-24T13:13:19.127Z</time></trkpt><trkpt lat="44.132663" lon="10.4681821"><ele>745.0</ele><time>2026-04-24T13:13:21.118Z</time></trkpt><trkpt lat="44.1326079" lon="10.4680363"><ele>745.0</ele><time>2026-04-24T13:13:23.128Z</time></trkpt><trkpt lat="44.1325856" lon="10.4679539"><ele>740.0</ele><time>2026-04-24T13:13:24.132Z</time></trkpt><trkpt lat="44.132547" lon="10.4677974"><ele>735.0</ele><time>2026-04-24T13:13:26.13Z</time></trkpt><trkpt lat="44.1325263" lon="10.4676416"><ele>730.0</ele><time>2026-04-24T13:13:28.13Z</time></trkpt><trkpt lat="44.1325226" lon="10.4675043"><ele>725.0</ele><time>2026-04-24T13:13:30.129Z</time></trkpt><trkpt lat="44.1324795" lon="10.4673571"><ele>720.0</ele><time>2026-04-24T13:13:32.15Z</time></trkpt><trkpt lat="44.1324368" lon="10.467263"><ele>721.8333333333334</ele><time>2026-04-24T13:13:35.127Z</time></trkpt><trkpt lat="44.1323828" lon="10.4671799"><ele>723.6666666666666</ele><time>2026-04-24T13:13:52.124Z</time></trkpt><trkpt lat="44.1323126" lon="10.4671197"><ele>725.5</ele><time>2026-04-24T13:13:55.115Z</time></trkpt><trkpt lat="44.132262" lon="10.4670589"><ele>727.3333333333333</ele><time>2026-04-24T13:13:57.116Z</time></trkpt><trkpt lat="44.1322001" lon="10.4669851"><ele>729.1666666666666</ele><time>2026-04-24T13:13:59.115Z</time></trkpt><trkpt lat="44.1321267" lon="10.4669251"><ele>731.0</ele><time>2026-04-24T13:14:01.115Z</time></trkpt><trkpt lat="44.1320415" lon="10.466865"><ele>731.0</ele><time>2026-04-24T13:14:03.121Z</time></trkpt><trkpt lat="44.1319345" lon="10.4667935"><ele>731.0</ele><time>2026-04-24T13:14:05.117Z</time></trkpt><trkpt lat="44.1318188" lon="10.4667361"><ele>731.0</ele><time>2026-04-24T13:14:07.117Z</time></trkpt><trkpt lat="44.1317679" lon="10.4666617"><ele>731.0</ele><time>2026-04-24T13:14:08.13Z</time></trkpt><trkpt lat="44.1317306" lon="10.4665716"><ele>731.0</ele><time>2026-04-24T13:14:09.121Z</time></trkpt><trkpt lat="44.131712" lon="10.4664652"><ele>731.0</ele><time>2026-04-24T13:14:10.123Z</time></trkpt><trkpt lat="44.1317092" lon="10.4663456"><ele>731.0</ele><time>2026-04-24T13:14:11.13Z</time></trkpt><trkpt lat="44.1317209" lon="10.4662217"><ele>731.0</ele><time>2026-04-24T13:14:12.116Z</time></trkpt><trkpt lat="44.1317265" lon="10.4660806"><ele>731.0</ele><time>2026-04-24T13:14:13.112Z</time></trkpt><trkpt lat="44.1317331" lon="10.4659332"><ele>731.0</ele><time>2026-04-24T13:14:14.132Z</time></trkpt><trkpt lat="44.1317414" lon="10.4657816"><ele>727.8</ele><time>2026-04-24T13:14:15.118Z</time></trkpt><trkpt lat="44.131772" lon="10.4656151"><ele>724.5999999999999</ele><time>2026-04-24T13:14:16.119Z</time></trkpt><trkpt lat="44.131794" lon="10.4654666"><ele>721.4</ele><time>2026-04-24T13:14:17.128Z</time></trkpt><trkpt lat="44.131807" lon="10.4653355"><ele>718.2</ele><time>2026-04-24T13:14:18.121Z</time></trkpt><trkpt lat="44.1318105" lon="10.4652179"><ele>715.0</ele><time>2026-04-24T13:14:19.121Z</time></trkpt><trkpt lat="44.1318027" lon="10.4651085"><ele>717.6666666666667</ele><time>2026-04-24T13:14:20.129Z</time></trkpt><trkpt lat="44.1317802" lon="10.4650136"><ele>720.3333333333334</ele><time>2026-04-24T13:14:21.123Z</time></trkpt><trkpt lat="44.1317189" lon="10.4649327"><ele>723.0</ele><time>2026-04-24T13:14:22.121Z</time></trkpt><trkpt lat="44.1316472" lon="10.4648631"><ele>725.6666666666666</ele><time>2026-04-24T13:14:23.131Z</time></trkpt><trkpt lat="44.1315675" lon="10.4647953"><ele>728.3333333333333</ele><time>2026-04-24T13:14:24.112Z</time></trkpt><trkpt lat="44.1314796" lon="10.4647271"><ele>731.0</ele><time>2026-04-24T13:14:25.124Z</time></trkpt><trkpt lat="44.1313912" lon="10.4646878"><ele>731.0</ele><time>2026-04-24T13:14:26.125Z</time></trkpt><trkpt lat="44.1312969" lon="10.4646544"><ele>731.0</ele><time>2026-04-24T13:14:27.115Z</time></trkpt><trkpt lat="44.1311949" lon="10.4646156"><ele>731.0</ele><time>2026-04-24T13:14:28.128Z</time></trkpt><trkpt lat="44.131089" lon="10.4645622"><ele>731.0</ele><time>2026-04-24T13:14:29.12Z</time></trkpt><trkpt lat="44.1309861" lon="10.4644956"><ele>731.0</ele><time>2026-04-24T13:14:30.128Z</time></trkpt><trkpt lat="44.1308847" lon="10.4644174"><ele>728.0</ele><time>2026-04-24T13:14:31.131Z</time></trkpt><trkpt lat="44.1307853" lon="10.4643222"><ele>725.0</ele><time>2026-04-24T13:14:32.124Z</time></trkpt><trkpt lat="44.1306949" lon="10.4642292"><ele>722.0</ele><time>2026-04-24T13:14:33.131Z</time></trkpt><trkpt lat="44.1306139" lon="10.4641342"><ele>719.0</ele><time>2026-04-24T13:14:34.127Z</time></trkpt><trkpt lat="44.1305457" lon="10.4640358"><ele>716.0</ele><time>2026-04-24T13:14:35.127Z</time></trkpt><trkpt lat="44.1305022" lon="10.4639538"><ele>716.0</ele><time>2026-04-24T13:14:36.124Z</time></trkpt><trkpt lat="44.1304549" lon="10.4638367"><ele>716.0</ele><time>2026-04-24T13:14:37.127Z</time></trkpt><trkpt lat="44.1304051" lon="10.4637023"><ele>716.0</ele><time>2026-04-24T13:14:38.121Z</time></trkpt><trkpt lat="44.1303579" lon="10.4635715"><ele>716.0</ele><time>2026-04-24T13:14:39.127Z</time></trkpt><trkpt lat="44.130325" lon="10.463444"><ele>716.0</ele><time>2026-04-24T13:14:40.128Z</time></trkpt><trkpt lat="44.1303056" lon="10.4633185"><ele>711.6666666666666</ele><time>2026-04-24T13:14:41.125Z</time></trkpt><trkpt lat="44.1303078" lon="10.4632165"><ele>707.3333333333333</ele><time>2026-04-24T13:14:42.12Z</time></trkpt><trkpt lat="44.1303091" lon="10.463095"><ele>703.0</ele><time>2026-04-24T13:14:43.128Z</time></trkpt><trkpt lat="44.1303184" lon="10.4629837"><ele>698.6666666666666</ele><time>2026-04-24T13:14:44.121Z</time></trkpt><trkpt lat="44.1303139" lon="10.462861"><ele>694.3333333333334</ele><time>2026-04-24T13:14:45.116Z</time></trkpt><trkpt lat="44.1302957" lon="10.4627582"><ele>690.0</ele><time>2026-04-24T13:14:46.127Z</time></trkpt><trkpt lat="44.1302392" lon="10.4626674"><ele>685.7142857142858</ele><time>2026-04-24T13:14:47.124Z</time></trkpt><trkpt lat="44.1301807" lon="10.4626063"><ele>681.4285714285714</ele><time>2026-04-24T13:14:48.125Z</time></trkpt><trkpt lat="44.1301166" lon="10.4625834"><ele>677.1428571428571</ele><time>2026-04-24T13:14:49.124Z</time></trkpt><trkpt lat="44.1300534" lon="10.4625874"><ele>672.8571428571429</ele><time>2026-04-24T13:14:50.121Z</time></trkpt><trkpt lat="44.1299814" lon="10.4626042"><ele>668.5714285714286</ele><time>2026-04-24T13:14:51.126Z</time></trkpt><trkpt lat="44.1299168" lon="10.462655"><ele>664.2857142857143</ele><time>2026-04-24T13:14:52.124Z</time></trkpt><trkpt lat="44.1298532" lon="10.4627093"><ele>660.0</ele><time>2026-04-24T13:14:53.131Z</time></trkpt><trkpt lat="44.129789" lon="10.4627799"><ele>659.8333333333334</ele><time>2026-04-24T13:14:54.125Z</time></trkpt><trkpt lat="44.1297298" lon="10.4628601"><ele>659.6666666666666</ele><time>2026-04-24T13:14:55.127Z</time></trkpt><trkpt lat="44.129675" lon="10.4629568"><ele>659.5</ele><time>2026-04-24T13:14:56.122Z</time></trkpt><trkpt lat="44.1296269" lon="10.4630527"><ele>659.3333333333333</ele><time>2026-04-24T13:14:57.127Z</time></trkpt><trkpt lat="44.1295823" lon="10.4631583"><ele>659.1666666666666</ele><time>2026-04-24T13:14:58.123Z</time></trkpt><trkpt lat="44.1295378" lon="10.4632616"><ele>659.0</ele><time>2026-04-24T13:14:59.114Z</time></trkpt><trkpt lat="44.1294822" lon="10.4633621"><ele>659.0</ele><time>2026-04-24T13:15:00.13Z</time></trkpt><trkpt lat="44.1294201" lon="10.4634544"><ele>659.0</ele><time>2026-04-24T13:15:01.126Z</time></trkpt><trkpt lat="44.1293548" lon="10.4635365"><ele>659.0</ele><time>2026-04-24T13:15:02.122Z</time></trkpt><trkpt lat="44.1292839" lon="10.463625"><ele>659.0</ele><time>2026-04-24T13:15:03.119Z</time></trkpt><trkpt lat="44.1292066" lon="10.4637022"><ele>659.0</ele><time>2026-04-24T13:15:04.119Z</time></trkpt><trkpt lat="44.1291249" lon="10.4637645"><ele>665.6666666666666</ele><time>2026-04-24T13:15:05.127Z</time></trkpt><trkpt lat="44.1290419" lon="10.4638344"><ele>672.3333333333333</ele><time>2026-04-24T13:15:06.124Z</time></trkpt><trkpt lat="44.1289606" lon="10.4638995"><ele>679.0</ele><time>2026-04-24T13:15:07.134Z</time></trkpt><trkpt lat="44.1288823" lon="10.463965"><ele>685.6666666666666</ele><time>2026-04-24T13:15:08.121Z</time></trkpt><trkpt lat="44.1288131" lon="10.464028"><ele>692.3333333333334</ele><time>2026-04-24T13:15:09.132Z</time></trkpt><trkpt lat="44.1287466" lon="10.4640586"><ele>699.0</ele><time>2026-04-24T13:15:10.125Z</time></trkpt><trkpt lat="44.1286779" lon="10.4640645"><ele>699.0</ele><time>2026-04-24T13:15:11.122Z</time></trkpt><trkpt lat="44.1286079" lon="10.4640422"><ele>699.0</ele><time>2026-04-24T13:15:12.115Z</time></trkpt><trkpt lat="44.1285471" lon="10.4640044"><ele>699.0</ele><time>2026-04-24T13:15:13.122Z</time></trkpt><trkpt lat="44.1284604" lon="10.4638801"><ele>699.0</ele><time>2026-04-24T13:15:15.133Z</time></trkpt><trkpt lat="44.1284259" lon="10.4637707"><ele>699.0</ele><time>2026-04-24T13:15:16.127Z</time></trkpt><trkpt lat="44.1283959" lon="10.4636662"><ele>699.0</ele><time>2026-04-24T13:15:17.124Z</time></trkpt><trkpt lat="44.1283523" lon="10.4635716"><ele>699.6</ele><time>2026-04-24T13:15:18.127Z</time></trkpt><trkpt lat="44.1282915" lon="10.4634666"><ele>700.2</ele><time>2026-04-24T13:15:19.121Z</time></trkpt><trkpt lat="44.128223" lon="10.4633633"><ele>700.8000000000001</ele><time>2026-04-24T13:15:20.123Z</time></trkpt><trkpt lat="44.1281667" lon="10.4632542"><ele>701.4000000000001</ele><time>2026-04-24T13:15:21.126Z</time></trkpt><trkpt lat="44.1281291" lon="10.4631386"><ele>702.0</ele><time>2026-04-24T13:15:22.125Z</time></trkpt><trkpt lat="44.1280999" lon="10.4630309"><ele>696.5</ele><time>2026-04-24T13:15:23.131Z</time></trkpt><trkpt lat="44.1280747" lon="10.462935"><ele>691.0</ele><time>2026-04-24T13:15:24.125Z</time></trkpt><trkpt lat="44.1280385" lon="10.4628456"><ele>685.5</ele><time>2026-04-24T13:15:25.125Z</time></trkpt><trkpt lat="44.1279765" lon="10.4627632"><ele>680.0</ele><time>2026-04-24T13:15:26.125Z</time></trkpt><trkpt lat="44.127902" lon="10.4626853"><ele>674.5</ele><time>2026-04-24T13:15:27.126Z</time></trkpt><trkpt lat="44.1278351" lon="10.4626159"><ele>669.0</ele><time>2026-04-24T13:15:28.128Z</time></trkpt><trkpt lat="44.1277637" lon="10.4625405"><ele>669.0</ele><time>2026-04-24T13:15:29.129Z</time></trkpt><trkpt lat="44.1276976" lon="10.4624561"><ele>669.0</ele><time>2026-04-24T13:15:30.126Z</time></trkpt><trkpt lat="44.1276325" lon="10.4623811"><ele>669.0</ele><time>2026-04-24T13:15:31.114Z</time></trkpt><trkpt lat="44.1275728" lon="10.4623165"><ele>669.0</ele><time>2026-04-24T13:15:32.128Z</time></trkpt><trkpt lat="44.1275201" lon="10.4622534"><ele>669.0</ele><time>2026-04-24T13:15:33.134Z</time></trkpt><trkpt lat="44.127476" lon="10.4620956"><ele>669.0</ele><time>2026-04-24T13:15:35.13Z</time></trkpt><trkpt lat="44.1275116" lon="10.4619277"><ele>665.8333333333334</ele><time>2026-04-24T13:15:37.123Z</time></trkpt><trkpt lat="44.1275437" lon="10.4618314"><ele>662.6666666666666</ele><time>2026-04-24T13:15:38.123Z</time></trkpt><trkpt lat="44.1275708" lon="10.4617511"><ele>659.5</ele><time>2026-04-24T13:15:39.121Z</time></trkpt><trkpt lat="44.1275753" lon="10.4615963"><ele>656.3333333333333</ele><time>2026-04-24T13:15:40.132Z</time></trkpt><trkpt lat="44.1275634" lon="10.4614726"><ele>653.1666666666666</ele><time>2026-04-24T13:15:41.124Z</time></trkpt><trkpt lat="44.1275568" lon="10.4613482"><ele>650.0</ele><time>2026-04-24T13:15:42.128Z</time></trkpt><trkpt lat="44.1275377" lon="10.4612091"><ele>653.0</ele><time>2026-04-24T13:15:43.119Z</time></trkpt><trkpt lat="44.1274925" lon="10.4610851"><ele>656.0</ele><time>2026-04-24T13:15:44.121Z</time></trkpt><trkpt lat="44.1274492" lon="10.4609588"><ele>659.0</ele><time>2026-04-24T13:15:45.13Z</time></trkpt><trkpt lat="44.1273995" lon="10.4608347"><ele>662.0</ele><time>2026-04-24T13:15:46.123Z</time></trkpt><trkpt lat="44.1273" lon="10.460721"><ele>665.0</ele><time>2026-04-24T13:15:47.131Z</time></trkpt><trkpt lat="44.1272127" lon="10.4605989"><ele>665.0</ele><time>2026-04-24T13:15:48.133Z</time></trkpt><trkpt lat="44.1271183" lon="10.4604671"><ele>665.0</ele><time>2026-04-24T13:15:49.13Z</time></trkpt><trkpt lat="44.127023" lon="10.4603319"><ele>665.0</ele><time>2026-04-24T13:15:50.124Z</time></trkpt><trkpt lat="44.1269274" lon="10.4601914"><ele>665.0</ele><time>2026-04-24T13:15:51.125Z</time></trkpt><trkpt lat="44.1268379" lon="10.4600373"><ele>657.75</ele><time>2026-04-24T13:15:52.127Z</time></trkpt><trkpt lat="44.1267559" lon="10.4598864"><ele>650.5</ele><time>2026-04-24T13:15:53.122Z</time></trkpt><trkpt lat="44.1266823" lon="10.4597767"><ele>643.25</ele><time>2026-04-24T13:15:54.132Z</time></trkpt><trkpt lat="44.1266148" lon="10.4596678"><ele>636.0</ele><time>2026-04-24T13:15:55.127Z</time></trkpt><trkpt lat="44.1265374" lon="10.4595669"><ele>634.3333333333334</ele><time>2026-04-24T13:15:56.133Z</time></trkpt><trkpt lat="44.1264618" lon="10.4594783"><ele>632.6666666666666</ele><time>2026-04-24T13:15:57.129Z</time></trkpt><trkpt lat="44.1264006" lon="10.4594094"><ele>631.0</ele><time>2026-04-24T13:15:58.124Z</time></trkpt><trkpt lat="44.126344" lon="10.4592925"><ele>629.3333333333333</ele><time>2026-04-24T13:16:00.137Z</time></trkpt><trkpt lat="44.1263872" lon="10.4592272"><ele>627.6666666666666</ele><time>2026-04-24T13:16:02.119Z</time></trkpt><trkpt lat="44.1264753" lon="10.4592599"><ele>626.0</ele><time>2026-04-24T13:16:04.129Z</time></trkpt><trkpt lat="44.1265256" lon="10.4593166"><ele>622.0</ele><time>2026-04-24T13:16:05.124Z</time></trkpt><trkpt lat="44.126647" lon="10.4594056"><ele>618.0</ele><time>2026-04-24T13:16:07.13Z</time></trkpt><trkpt lat="44.1267211" lon="10.4594459"><ele>614.0</ele><time>2026-04-24T13:16:08.123Z</time></trkpt><trkpt lat="44.1267888" lon="10.4594775"><ele>610.0</ele><time>2026-04-24T13:16:09.128Z</time></trkpt><trkpt lat="44.1268784" lon="10.4595027"><ele>606.0</ele><time>2026-04-24T13:16:10.127Z</time></trkpt><trkpt lat="44.1269603" lon="10.459556"><ele>612.0</ele><time>2026-04-24T13:16:11.128Z</time></trkpt><trkpt lat="44.12704" lon="10.4596246"><ele>618.0</ele><time>2026-04-24T13:16:12.127Z</time></trkpt><trkpt lat="44.1271128" lon="10.4597386"><ele>624.0</ele><time>2026-04-24T13:16:13.129Z</time></trkpt><trkpt lat="44.127183" lon="10.4598609"><ele>630.0</ele><time>2026-04-24T13:16:14.124Z</time></trkpt><trkpt lat="44.1272592" lon="10.4599721"><ele>636.0</ele><time>2026-04-24T13:16:15.125Z</time></trkpt><trkpt lat="44.127348" lon="10.4600656"><ele>627.5</ele><time>2026-04-24T13:16:16.123Z</time></trkpt><trkpt lat="44.1274429" lon="10.4601479"><ele>619.0</ele><time>2026-04-24T13:16:17.115Z</time></trkpt><trkpt lat="44.1275521" lon="10.4602304"><ele>610.5</ele><time>2026-04-24T13:16:18.124Z</time></trkpt><trkpt lat="44.1276568" lon="10.4602847"><ele>602.0</ele><time>2026-04-24T13:16:19.13Z</time></trkpt><trkpt lat="44.1277615" lon="10.4603324"><ele>602.0</ele><time>2026-04-24T13:16:20.123Z</time></trkpt><trkpt lat="44.1278528" lon="10.4603688"><ele>602.0</ele><time>2026-04-24T13:16:21.131Z</time></trkpt><trkpt lat="44.1279373" lon="10.4604155"><ele>602.0</ele><time>2026-04-24T13:16:22.119Z</time></trkpt><trkpt lat="44.1280149" lon="10.4604472"><ele>602.0</ele><time>2026-04-24T13:16:23.124Z</time></trkpt><trkpt lat="44.1280821" lon="10.4604848"><ele>602.0</ele><time>2026-04-24T13:16:24.123Z</time></trkpt><trkpt lat="44.1281665" lon="10.4606183"><ele>599.8333333333333</ele><time>2026-04-24T13:16:26.124Z</time></trkpt><trkpt lat="44.1282029" lon="10.4607627"><ele>597.6666666666666</ele><time>2026-04-24T13:16:28.126Z</time></trkpt><trkpt lat="44.1282196" lon="10.4608932"><ele>595.5</ele><time>2026-04-24T13:16:30.132Z</time></trkpt><trkpt lat="44.1282831" lon="10.4609171"><ele>593.3333333333334</ele><time>2026-04-24T13:16:32.121Z</time></trkpt><trkpt lat="44.128322" lon="10.4608451"><ele>591.1666666666667</ele><time>2026-04-24T13:16:34.121Z</time></trkpt><trkpt lat="44.1283131" lon="10.4607042"><ele>589.0</ele><time>2026-04-24T13:16:36.127Z</time></trkpt><trkpt lat="44.1283031" lon="10.460604"><ele>589.0</ele><time>2026-04-24T13:16:37.128Z</time></trkpt><trkpt lat="44.1282852" lon="10.4604932"><ele>589.0</ele><time>2026-04-24T13:16:38.129Z</time></trkpt><trkpt lat="44.128267" lon="10.4603802"><ele>589.0</ele><time>2026-04-24T13:16:39.128Z</time></trkpt><trkpt lat="44.1282313" lon="10.4602723"><ele>589.0</ele><time>2026-04-24T13:16:40.129Z</time></trkpt><trkpt lat="44.1281984" lon="10.4601803"><ele>589.0</ele><time>2026-04-24T13:16:41.126Z</time></trkpt><trkpt lat="44.1281367" lon="10.4601136"><ele>589.0</ele><time>2026-04-24T13:16:42.129Z</time></trkpt><trkpt lat="44.1280631" lon="10.4600588"><ele>591.6</ele><time>2026-04-24T13:16:43.123Z</time></trkpt><trkpt lat="44.1279906" lon="10.4600081"><ele>594.2</ele><time>2026-04-24T13:16:44.129Z</time></trkpt><trkpt lat="44.1278984" lon="10.4599487"><ele>596.8000000000001</ele><time>2026-04-24T13:16:45.124Z</time></trkpt><trkpt lat="44.1278002" lon="10.4598895"><ele>599.4</ele><time>2026-04-24T13:16:46.125Z</time></trkpt><trkpt lat="44.1277147" lon="10.4598267"><ele>602.0</ele><time>2026-04-24T13:16:47.126Z</time></trkpt><trkpt lat="44.1276505" lon="10.4597609"><ele>602.0</ele><time>2026-04-24T13:16:48.123Z</time></trkpt><trkpt lat="44.1275875" lon="10.4596805"><ele>602.0</ele><time>2026-04-24T13:16:49.131Z</time></trkpt><trkpt lat="44.1275326" lon="10.4595771"><ele>602.0</ele><time>2026-04-24T13:16:50.124Z</time></trkpt><trkpt lat="44.1274832" lon="10.4594694"><ele>602.0</ele><time>2026-04-24T13:16:51.124Z</time></trkpt><trkpt lat="44.1274422" lon="10.4593439"><ele>602.0</ele><time>2026-04-24T13:16:52.124Z</time></trkpt><trkpt lat="44.1274135" lon="10.4592177"><ele>602.8000000000001</ele><time>2026-04-24T13:16:53.126Z</time></trkpt><trkpt lat="44.1273868" lon="10.4590824"><ele>603.6</ele><time>2026-04-24T13:16:54.117Z</time></trkpt><trkpt lat="44.1273591" lon="10.4589605"><ele>604.4000000000001</ele><time>2026-04-24T13:16:55.121Z</time></trkpt><trkpt lat="44.1272963" lon="10.4588417"><ele>605.2</ele><time>2026-04-24T13:16:56.125Z</time></trkpt><trkpt lat="44.1272174" lon="10.4587467"><ele>606.0</ele><time>2026-04-24T13:16:57.126Z</time></trkpt><trkpt lat="44.1271252" lon="10.4586523"><ele>597.4</ele><time>2026-04-24T13:16:58.125Z</time></trkpt><trkpt lat="44.1270264" lon="10.4585613"><ele>588.8</ele><time>2026-04-24T13:16:59.127Z</time></trkpt><trkpt lat="44.1269413" lon="10.4584747"><ele>580.1999999999999</ele><time>2026-04-24T13:17:00.129Z</time></trkpt><trkpt lat="44.1268625" lon="10.45838"><ele>571.6</ele><time>2026-04-24T13:17:01.135Z</time></trkpt><trkpt lat="44.1267952" lon="10.4583086"><ele>563.0</ele><time>2026-04-24T13:17:02.129Z</time></trkpt><trkpt lat="44.1267178" lon="10.4582798"><ele>563.0</ele><time>2026-04-24T13:17:03.127Z</time></trkpt><trkpt lat="44.126634" lon="10.4582741"><ele>563.0</ele><time>2026-04-24T13:17:04.13Z</time></trkpt><trkpt lat="44.1265628" lon="10.4582438"><ele>563.0</ele><time>2026-04-24T13:17:05.124Z</time></trkpt><trkpt lat="44.1265056" lon="10.4581864"><ele>563.0</ele><time>2026-04-24T13:17:06.126Z</time></trkpt><trkpt lat="44.1264492" lon="10.4581206"><ele>563.0</ele><time>2026-04-24T13:17:07.133Z</time></trkpt><trkpt lat="44.1263826" lon="10.4580675"><ele>563.0</ele><time>2026-04-24T13:17:08.127Z</time></trkpt><trkpt lat="44.1263055" lon="10.4580447"><ele>559.1999999999999</ele><time>2026-04-24T13:17:09.136Z</time></trkpt><trkpt lat="44.1262217" lon="10.4580259"><ele>555.4</ele><time>2026-04-24T13:17:10.122Z</time></trkpt><trkpt lat="44.1261431" lon="10.4579955"><ele>551.5999999999999</ele><time>2026-04-24T13:17:11.134Z</time></trkpt><trkpt lat="44.126046" lon="10.457947"><ele>547.8</ele><time>2026-04-24T13:17:12.134Z</time></trkpt><trkpt lat="44.1259514" lon="10.4578846"><ele>544.0</ele><time>2026-04-24T13:17:13.129Z</time></trkpt><trkpt lat="44.1258586" lon="10.4577937"><ele>544.0</ele><time>2026-04-24T13:17:14.126Z</time></trkpt><trkpt lat="44.1257632" lon="10.457693"><ele>544.0</ele><time>2026-04-24T13:17:15.125Z</time></trkpt><trkpt lat="44.1256696" lon="10.4575823"><ele>544.0</ele><time>2026-04-24T13:17:16.12Z</time></trkpt><trkpt lat="44.1255773" lon="10.4574718"><ele>544.0</ele><time>2026-04-24T13:17:17.125Z</time></trkpt><trkpt lat="44.1254764" lon="10.457342"><ele>540.75</ele><time>2026-04-24T13:17:18.124Z</time></trkpt><trkpt lat="44.1253767" lon="10.4572058"><ele>537.5</ele><time>2026-04-24T13:17:19.126Z</time></trkpt><trkpt lat="44.125286" lon="10.4570783"><ele>534.25</ele><time>2026-04-24T13:17:20.116Z</time></trkpt><trkpt lat="44.1251917" lon="10.4569417"><ele>531.0</ele><time>2026-04-24T13:17:21.13Z</time></trkpt><trkpt lat="44.1251061" lon="10.4568231"><ele>531.0</ele><time>2026-04-24T13:17:22.123Z</time></trkpt><trkpt lat="44.1250274" lon="10.4567211"><ele>531.0</ele><time>2026-04-24T13:17:23.126Z</time></trkpt><trkpt lat="44.1249513" lon="10.4566264"><ele>531.0</ele><time>2026-04-24T13:17:24.133Z</time></trkpt><trkpt lat="44.1248712" lon="10.4565404"><ele>531.0</ele><time>2026-04-24T13:17:25.123Z</time></trkpt><trkpt lat="44.1247876" lon="10.4564718"><ele>531.0</ele><time>2026-04-24T13:17:26.128Z</time></trkpt><trkpt lat="44.1246998" lon="10.4564184"><ele>529.8333333333334</ele><time>2026-04-24T13:17:27.127Z</time></trkpt><trkpt lat="44.12461" lon="10.4563924"><ele>528.6666666666666</ele><time>2026-04-24T13:17:28.125Z</time></trkpt><trkpt lat="44.1245217" lon="10.4563716"><ele>527.5</ele><time>2026-04-24T13:17:29.126Z</time></trkpt><trkpt lat="44.124445" lon="10.4563685"><ele>526.3333333333333</ele><time>2026-04-24T13:17:30.124Z</time></trkpt><trkpt lat="44.1243767" lon="10.4563853"><ele>525.1666666666666</ele><time>2026-04-24T13:17:31.129Z</time></trkpt><trkpt lat="44.124286" lon="10.4564973"><ele>524.0</ele><time>2026-04-24T13:17:33.127Z</time></trkpt><trkpt lat="44.1242614" lon="10.4565827"><ele>524.0</ele><time>2026-04-24T13:17:34.127Z</time></trkpt><trkpt lat="44.1242437" lon="10.456676"><ele>524.0</ele><time>2026-04-24T13:17:35.131Z</time></trkpt><trkpt lat="44.1242354" lon="10.4567786"><ele>524.0</ele><time>2026-04-24T13:17:36.128Z</time></trkpt><trkpt lat="44.1242276" lon="10.4568845"><ele>524.0</ele><time>2026-04-24T13:17:37.128Z</time></trkpt><trkpt lat="44.1242147" lon="10.4569748"><ele>524.0</ele><time>2026-04-24T13:17:38.134Z</time></trkpt><trkpt lat="44.1241349" lon="10.4570818"><ele>524.0</ele><time>2026-04-24T13:17:40.133Z</time></trkpt><trkpt lat="44.1240141" lon="10.4570879"><ele>525.0</ele><time>2026-04-24T13:17:42.136Z</time></trkpt><trkpt lat="44.1239501" lon="10.4570551"><ele>526.0</ele><time>2026-04-24T13:17:43.124Z</time></trkpt><trkpt lat="44.1238896" lon="10.456991"><ele>527.0</ele><time>2026-04-24T13:17:44.127Z</time></trkpt><trkpt lat="44.1238297" lon="10.4569147"><ele>528.0</ele><time>2026-04-24T13:17:45.124Z</time></trkpt><trkpt lat="44.123777" lon="10.4568387"><ele>529.0</ele><time>2026-04-24T13:17:46.123Z</time></trkpt><trkpt lat="44.1237266" lon="10.4567548"><ele>530.0</ele><time>2026-04-24T13:17:47.115Z</time></trkpt><trkpt lat="44.1236841" lon="10.4566649"><ele>529.9999999999999</ele><time>2026-04-24T13:17:48.131Z</time></trkpt><trkpt lat="44.1236566" lon="10.4565678"><ele>530.0</ele><time>2026-04-24T13:17:49.121Z</time></trkpt><trkpt lat="44.1236444" lon="10.4564735"><ele>530.0</ele><time>2026-04-24T13:17:50.127Z</time></trkpt><trkpt lat="44.1236163" lon="10.4563912"><ele>530.0</ele><time>2026-04-24T13:17:51.126Z</time></trkpt><trkpt lat="44.123566" lon="10.4563182"><ele>530.0</ele><time>2026-04-24T13:17:52.128Z</time></trkpt><trkpt lat="44.1235047" lon="10.4562553"><ele>529.9999999999999</ele><time>2026-04-24T13:17:53.124Z</time></trkpt><trkpt lat="44.1234285" lon="10.4561862"><ele>530.0</ele><time>2026-04-24T13:17:54.128Z</time></trkpt><trkpt lat="44.1233509" lon="10.4561024"><ele>527.5</ele><time>2026-04-24T13:17:55.121Z</time></trkpt><trkpt lat="44.1232744" lon="10.4560139"><ele>525.0</ele><time>2026-04-24T13:17:56.124Z</time></trkpt><trkpt lat="44.1232029" lon="10.4559232"><ele>522.5</ele><time>2026-04-24T13:17:57.127Z</time></trkpt><trkpt lat="44.1231313" lon="10.4558295"><ele>520.0</ele><time>2026-04-24T13:17:58.128Z</time></trkpt><trkpt lat="44.1230757" lon="10.4557445"><ele>517.5</ele><time>2026-04-24T13:17:59.126Z</time></trkpt><trkpt lat="44.1230363" lon="10.455668"><ele>515.0</ele><time>2026-04-24T13:18:00.132Z</time></trkpt><trkpt lat="44.1230042" lon="10.4555834"><ele>508.6</ele><time>2026-04-24T13:18:01.128Z</time></trkpt><trkpt lat="44.1230096" lon="10.4554196"><ele>502.2</ele><time>2026-04-24T13:18:03.129Z</time></trkpt><trkpt lat="44.1230838" lon="10.455263"><ele>495.79999999999995</ele><time>2026-04-24T13:18:05.126Z</time></trkpt><trkpt lat="44.1231102" lon="10.455169"><ele>489.4</ele><time>2026-04-24T13:18:06.132Z</time></trkpt><trkpt lat="44.1231237" lon="10.4550803"><ele>483.0</ele><time>2026-04-24T13:18:07.127Z</time></trkpt><trkpt lat="44.1230984" lon="10.4549483"><ele>483.0</ele><time>2026-04-24T13:18:09.135Z</time></trkpt><trkpt lat="44.1230064" lon="10.4548759"><ele>483.0</ele><time>2026-04-24T13:18:11.132Z</time></trkpt><trkpt lat="44.1229436" lon="10.4548669"><ele>483.0</ele><time>2026-04-24T13:18:12.126Z</time></trkpt><trkpt lat="44.1228593" lon="10.4548718"><ele>483.0</ele><time>2026-04-24T13:18:13.134Z</time></trkpt><trkpt lat="44.1227689" lon="10.4548695"><ele>483.0</ele><time>2026-04-24T13:18:14.129Z</time></trkpt><trkpt lat="44.1226801" lon="10.4548705"><ele>483.0</ele><time>2026-04-24T13:18:15.121Z</time></trkpt><trkpt lat="44.122601" lon="10.4548752"><ele>483.0</ele><time>2026-04-24T13:18:16.124Z</time></trkpt><trkpt lat="44.1225273" lon="10.454892"><ele>483.0</ele><time>2026-04-24T13:18:17.123Z</time></trkpt><trkpt lat="44.1224514" lon="10.4549246"><ele>483.0</ele><time>2026-04-24T13:18:18.128Z</time></trkpt><trkpt lat="44.122378" lon="10.4549589"><ele>483.0</ele><time>2026-04-24T13:18:19.121Z</time></trkpt><trkpt lat="44.1223124" lon="10.4549892"><ele>483.0</ele><time>2026-04-24T13:18:20.129Z</time></trkpt><trkpt lat="44.1222304" lon="10.4549922"><ele>483.0</ele><time>2026-04-24T13:18:21.121Z</time></trkpt><trkpt lat="44.1221415" lon="10.4549746"><ele>482.0</ele><time>2026-04-24T13:18:22.125Z</time></trkpt><trkpt lat="44.1220378" lon="10.4549546"><ele>480.99999999999994</ele><time>2026-04-24T13:18:23.124Z</time></trkpt><trkpt lat="44.1219309" lon="10.4549326"><ele>479.99999999999994</ele><time>2026-04-24T13:18:24.122Z</time></trkpt><trkpt lat="44.121832" lon="10.4549084"><ele>479.0</ele><time>2026-04-24T13:18:25.128Z</time></trkpt><trkpt lat="44.1217372" lon="10.4548807"><ele>478.0</ele><time>2026-04-24T13:18:26.125Z</time></trkpt><trkpt lat="44.1216518" lon="10.454851"><ele>475.33333333333337</ele><time>2026-04-24T13:18:27.125Z</time></trkpt><trkpt lat="44.1215642" lon="10.4548042"><ele>472.6666666666667</ele><time>2026-04-24T13:18:28.124Z</time></trkpt><trkpt lat="44.1214878" lon="10.454736"><ele>470.0</ele><time>2026-04-24T13:18:29.126Z</time></trkpt><trkpt lat="44.1214147" lon="10.4546657"><ele>467.33333333333337</ele><time>2026-04-24T13:18:30.13Z</time></trkpt><trkpt lat="44.121344" lon="10.4546113"><ele>464.6666666666667</ele><time>2026-04-24T13:18:31.127Z</time></trkpt><trkpt lat="44.1212759" lon="10.4545758"><ele>462.0</ele><time>2026-04-24T13:18:32.128Z</time></trkpt><trkpt lat="44.1211995" lon="10.4545505"><ele>459.5</ele><time>2026-04-24T13:18:33.123Z</time></trkpt><trkpt lat="44.1211168" lon="10.4545316"><ele>457.0</ele><time>2026-04-24T13:18:34.13Z</time></trkpt><trkpt lat="44.1210271" lon="10.4545171"><ele>454.5</ele><time>2026-04-24T13:18:35.131Z</time></trkpt><trkpt lat="44.120946" lon="10.4545027"><ele>452.0</ele><time>2026-04-24T13:18:36.143Z</time></trkpt><trkpt lat="44.1208705" lon="10.454491"><ele>449.5</ele><time>2026-04-24T13:18:37.117Z</time></trkpt><trkpt lat="44.1208047" lon="10.4544831"><ele>447.0</ele><time>2026-04-24T13:18:38.124Z</time></trkpt><trkpt lat="44.1207025" lon="10.4544814"><ele>446.3333333333333</ele><time>2026-04-24T13:18:40.132Z</time></trkpt><trkpt lat="44.1206117" lon="10.4545339"><ele>445.66666666666663</ele><time>2026-04-24T13:18:42.131Z</time></trkpt><trkpt lat="44.1205583" lon="10.454591"><ele>445.0</ele><time>2026-04-24T13:18:43.124Z</time></trkpt><trkpt lat="44.1205006" lon="10.4546486"><ele>444.3333333333333</ele><time>2026-04-24T13:18:44.123Z</time></trkpt><trkpt lat="44.1204348" lon="10.4547085"><ele>443.66666666666663</ele><time>2026-04-24T13:18:45.125Z</time></trkpt><trkpt lat="44.1203802" lon="10.454762"><ele>443.0</ele><time>2026-04-24T13:18:46.12Z</time></trkpt><trkpt lat="44.1202907" lon="10.4548508"><ele>442.99999999999994</ele><time>2026-04-24T13:18:48.128Z</time></trkpt><trkpt lat="44.1202199" lon="10.4548389"><ele>443.0</ele><time>2026-04-24T13:18:50.115Z</time></trkpt><trkpt lat="44.120177" lon="10.4547174"><ele>443.0</ele><time>2026-04-24T13:18:52.137Z</time></trkpt><trkpt lat="44.1201679" lon="10.4546296"><ele>443.0</ele><time>2026-04-24T13:18:53.12Z</time></trkpt><trkpt lat="44.1201577" lon="10.4545321"><ele>442.99999999999994</ele><time>2026-04-24T13:18:54.14Z</time></trkpt><trkpt lat="44.1201428" lon="10.4544329"><ele>443.0</ele><time>2026-04-24T13:18:55.121Z</time></trkpt><trkpt lat="44.1201289" lon="10.4543233"><ele>441.8333333333333</ele><time>2026-04-24T13:18:56.137Z</time></trkpt><trkpt lat="44.1201066" lon="10.4542185"><ele>440.66666666666663</ele><time>2026-04-24T13:18:57.124Z</time></trkpt><trkpt lat="44.1200693" lon="10.4541157"><ele>439.5</ele><time>2026-04-24T13:18:58.128Z</time></trkpt><trkpt lat="44.1200417" lon="10.4540052"><ele>438.33333333333337</ele><time>2026-04-24T13:18:59.126Z</time></trkpt><trkpt lat="44.120022" lon="10.4539032"><ele>437.1666666666667</ele><time>2026-04-24T13:19:00.125Z</time></trkpt><trkpt lat="44.1200194" lon="10.4537993"><ele>436.0</ele><time>2026-04-24T13:19:01.122Z</time></trkpt><trkpt lat="44.1200324" lon="10.453693"><ele>435.4</ele><time>2026-04-24T13:19:02.131Z</time></trkpt><trkpt lat="44.1200561" lon="10.4535996"><ele>434.8</ele><time>2026-04-24T13:19:03.13Z</time></trkpt><trkpt lat="44.1200547" lon="10.4534577"><ele>434.19999999999993</ele><time>2026-04-24T13:19:05.129Z</time></trkpt><trkpt lat="44.1199725" lon="10.4534262"><ele>433.59999999999997</ele><time>2026-04-24T13:19:07.129Z</time></trkpt><trkpt lat="44.1199166" lon="10.4535238"><ele>433.0</ele><time>2026-04-24T13:19:09.123Z</time></trkpt><trkpt lat="44.1198569" lon="10.4536652"><ele>430.50000000000006</ele><time>2026-04-24T13:19:11.128Z</time></trkpt><trkpt lat="44.1198207" lon="10.4537468"><ele>428.0</ele><time>2026-04-24T13:19:12.13Z</time></trkpt><trkpt lat="44.1197953" lon="10.4538403"><ele>425.5</ele><time>2026-04-24T13:19:13.123Z</time></trkpt><trkpt lat="44.1197871" lon="10.4539459"><ele>423.0</ele><time>2026-04-24T13:19:14.129Z</time></trkpt><trkpt lat="44.1197946" lon="10.4540559"><ele>420.50000000000006</ele><time>2026-04-24T13:19:15.131Z</time></trkpt><trkpt lat="44.119805" lon="10.4541796"><ele>418.0</ele><time>2026-04-24T13:19:16.131Z</time></trkpt><trkpt lat="44.1198057" lon="10.4543003"><ele>418.00000000000006</ele><time>2026-04-24T13:19:17.122Z</time></trkpt><trkpt lat="44.1197888" lon="10.4544132"><ele>418.0</ele><time>2026-04-24T13:19:18.123Z</time></trkpt><trkpt lat="44.1197557" lon="10.454525"><ele>418.0</ele><time>2026-04-24T13:19:19.125Z</time></trkpt><trkpt lat="44.1197149" lon="10.4546211"><ele>418.0</ele><time>2026-04-24T13:19:20.126Z</time></trkpt><trkpt lat="44.1196714" lon="10.4546889"><ele>418.00000000000006</ele><time>2026-04-24T13:19:21.122Z</time></trkpt><trkpt lat="44.1195718" lon="10.45474"><ele>418.0</ele><time>2026-04-24T13:19:23.137Z</time></trkpt><trkpt lat="44.1194792" lon="10.4546593"><ele>418.0</ele><time>2026-04-24T13:19:25.125Z</time></trkpt><trkpt lat="44.1194043" lon="10.4545303"><ele>418.0</ele><time>2026-04-24T13:19:27.122Z</time></trkpt><trkpt lat="44.1193034" lon="10.4544307"><ele>418.0</ele><time>2026-04-24T13:19:29.127Z</time></trkpt><trkpt lat="44.1192411" lon="10.4544039"><ele>418.0</ele><time>2026-04-24T13:19:30.135Z</time></trkpt><trkpt lat="44.1191765" lon="10.4543901"><ele>418.0</ele><time>2026-04-24T13:19:31.119Z</time></trkpt><trkpt lat="44.1190662" lon="10.4543899"><ele>415.85714285714283</ele><time>2026-04-24T13:19:33.129Z</time></trkpt><trkpt lat="44.1190031" lon="10.4543582"><ele>413.71428571428567</ele><time>2026-04-24T13:19:35.133Z</time></trkpt><trkpt lat="44.1189301" lon="10.4543788"><ele>411.57142857142856</ele><time>2026-04-24T13:19:41.123Z</time></trkpt><trkpt lat="44.1188648" lon="10.4543612"><ele>409.42857142857144</ele><time>2026-04-24T13:19:44.128Z</time></trkpt><trkpt lat="44.1188005" lon="10.4543799"><ele>407.2857142857143</ele><time>2026-04-24T13:19:46.145Z</time></trkpt><trkpt lat="44.1187307" lon="10.4544151"><ele>405.14285714285717</ele><time>2026-04-24T13:19:48.126Z</time></trkpt><trkpt lat="44.1186733" lon="10.4544794"><ele>403.0</ele><time>2026-04-24T13:19:50.124Z</time></trkpt><trkpt lat="44.1186417" lon="10.4545839"><ele>402.2</ele><time>2026-04-24T13:19:52.122Z</time></trkpt><trkpt lat="44.1186003" lon="10.4547047"><ele>401.4</ele><time>2026-04-24T13:19:54.127Z</time></trkpt><trkpt lat="44.1185618" lon="10.4548441"><ele>400.59999999999997</ele><time>2026-04-24T13:19:56.122Z</time></trkpt><trkpt lat="44.1185194" lon="10.4549928"><ele>399.79999999999995</ele><time>2026-04-24T13:19:58.128Z</time></trkpt><trkpt lat="44.1185045" lon="10.4551574"><ele>399.0</ele><time>2026-04-24T13:20:00.127Z</time></trkpt><trkpt lat="44.1185095" lon="10.4552459"><ele>399.0</ele><time>2026-04-24T13:20:01.128Z</time></trkpt><trkpt lat="44.1185173" lon="10.4553346"><ele>399.0</ele><time>2026-04-24T13:20:02.117Z</time></trkpt><trkpt lat="44.1185269" lon="10.455426"><ele>399.0</ele><time>2026-04-24T13:20:03.131Z</time></trkpt><trkpt lat="44.1185328" lon="10.4555214"><ele>399.0</ele><time>2026-04-24T13:20:04.131Z</time></trkpt><trkpt lat="44.1185368" lon="10.4556219"><ele>399.0</ele><time>2026-04-24T13:20:05.132Z</time></trkpt><trkpt lat="44.118541" lon="10.455719"><ele>399.0</ele><time>2026-04-24T13:20:06.129Z</time></trkpt><trkpt lat="44.1185446" lon="10.4558258"><ele>399.0</ele><time>2026-04-24T13:20:07.128Z</time></trkpt><trkpt lat="44.1185528" lon="10.4559318"><ele>399.0</ele><time>2026-04-24T13:20:08.123Z</time></trkpt><trkpt lat="44.1185731" lon="10.4560351"><ele>399.0</ele><time>2026-04-24T13:20:09.137Z</time></trkpt><trkpt lat="44.1186023" lon="10.4561397"><ele>399.0</ele><time>2026-04-24T13:20:10.127Z</time></trkpt><trkpt lat="44.1186367" lon="10.4562452"><ele>399.0</ele><time>2026-04-24T13:20:11.132Z</time></trkpt><trkpt lat="44.1186745" lon="10.4563576"><ele>399.0</ele><time>2026-04-24T13:20:12.131Z</time></trkpt><trkpt lat="44.1187084" lon="10.456478"><ele>399.0</ele><time>2026-04-24T13:20:13.129Z</time></trkpt><trkpt lat="44.1187379" lon="10.4566049"><ele>401.0</ele><time>2026-04-24T13:20:14.128Z</time></trkpt><trkpt lat="44.118758" lon="10.456741"><ele>403.0</ele><time>2026-04-24T13:20:15.132Z</time></trkpt><trkpt lat="44.1187655" lon="10.4568848"><ele>405.0</ele><time>2026-04-24T13:20:16.131Z</time></trkpt><trkpt lat="44.1187613" lon="10.4570298"><ele>407.0</ele><time>2026-04-24T13:20:17.125Z</time></trkpt><trkpt lat="44.1187517" lon="10.4571802"><ele>409.0</ele><time>2026-04-24T13:20:18.128Z</time></trkpt><trkpt lat="44.1187407" lon="10.457331"><ele>412.2</ele><time>2026-04-24T13:20:19.131Z</time></trkpt><trkpt lat="44.1187371" lon="10.4574652"><ele>415.4</ele><time>2026-04-24T13:20:20.126Z</time></trkpt><trkpt lat="44.1187357" lon="10.4575776"><ele>418.6</ele><time>2026-04-24T13:20:21.121Z</time></trkpt><trkpt lat="44.1187286" lon="10.4576693"><ele>421.8</ele><time>2026-04-24T13:20:22.123Z</time></trkpt><trkpt lat="44.1186656" lon="10.4577977"><ele>425.0</ele><time>2026-04-24T13:20:24.118Z</time></trkpt><trkpt lat="44.1185554" lon="10.4578126"><ele>425.0</ele><time>2026-04-24T13:20:26.13Z</time></trkpt><trkpt lat="44.118477" lon="10.457731"><ele>425.0</ele><time>2026-04-24T13:20:28.123Z</time></trkpt><trkpt lat="44.1184545" lon="10.4576002"><ele>425.0</ele><time>2026-04-24T13:20:30.126Z</time></trkpt><trkpt lat="44.1184395" lon="10.4574677"><ele>425.0</ele><time>2026-04-24T13:20:32.132Z</time></trkpt><trkpt lat="44.1184071" lon="10.4573543"><ele>425.0</ele><time>2026-04-24T13:20:34.124Z</time></trkpt><trkpt lat="44.1183641" lon="10.4572372"><ele>424.0</ele><time>2026-04-24T13:20:36.124Z</time></trkpt><trkpt lat="44.1183197" lon="10.4571157"><ele>423.0</ele><time>2026-04-24T13:20:38.121Z</time></trkpt><trkpt lat="44.1182751" lon="10.4570045"><ele>422.0</ele><time>2026-04-24T13:20:40.128Z</time></trkpt><trkpt lat="44.1182116" lon="10.4569047"><ele>421.0</ele><time>2026-04-24T13:20:42.121Z</time></trkpt><trkpt lat="44.1181527" lon="10.4568177"><ele>420.0</ele><time>2026-04-24T13:20:44.128Z</time></trkpt><trkpt lat="44.1180755" lon="10.4567201"><ele>420.0</ele><time>2026-04-24T13:20:46.132Z</time></trkpt><trkpt lat="44.1179686" lon="10.456645"><ele>420.0</ele><time>2026-04-24T13:20:48.131Z</time></trkpt><trkpt lat="44.1179152" lon="10.4565978"><ele>420.0</ele><time>2026-04-24T13:20:49.124Z</time></trkpt><trkpt lat="44.1178579" lon="10.4565361"><ele>420.0</ele><time>2026-04-24T13:20:50.123Z</time></trkpt><trkpt lat="44.117803" lon="10.4564673"><ele>420.0</ele><time>2026-04-24T13:20:51.115Z</time></trkpt><trkpt lat="44.117752" lon="10.4563902"><ele>420.0</ele><time>2026-04-24T13:20:52.125Z</time></trkpt><trkpt lat="44.1176944" lon="10.4563053"><ele>414.8</ele><time>2026-04-24T13:20:53.129Z</time></trkpt><trkpt lat="44.1176319" lon="10.4562309"><ele>409.6</ele><time>2026-04-24T13:20:54.127Z</time></trkpt><trkpt lat="44.1175612" lon="10.4561572"><ele>404.4</ele><time>2026-04-24T13:20:55.13Z</time></trkpt><trkpt lat="44.1174838" lon="10.4560839"><ele>399.2</ele><time>2026-04-24T13:20:56.12Z</time></trkpt><trkpt lat="44.1174057" lon="10.4560058"><ele>394.0</ele><time>2026-04-24T13:20:57.127Z</time></trkpt><trkpt lat="44.1173312" lon="10.4559223"><ele>394.0</ele><time>2026-04-24T13:20:58.131Z</time></trkpt><trkpt lat="44.1172416" lon="10.4558675"><ele>394.0</ele><time>2026-04-24T13:20:59.125Z</time></trkpt><trkpt lat="44.1171589" lon="10.4558417"><ele>394.0</ele><time>2026-04-24T13:21:00.128Z</time></trkpt><trkpt lat="44.1170656" lon="10.4558045"><ele>394.0</ele><time>2026-04-24T13:21:01.125Z</time></trkpt><trkpt lat="44.1169679" lon="10.4557686"><ele>394.0</ele><time>2026-04-24T13:21:02.128Z</time></trkpt><trkpt lat="44.1168708" lon="10.455728"><ele>394.0</ele><time>2026-04-24T13:21:03.126Z</time></trkpt><trkpt lat="44.1167729" lon="10.4556939"><ele>394.0</ele><time>2026-04-24T13:21:04.125Z</time></trkpt><trkpt lat="44.116672" lon="10.4556624"><ele>394.0</ele><time>2026-04-24T13:21:05.127Z</time></trkpt><trkpt lat="44.1165756" lon="10.4556321"><ele>394.0</ele><time>2026-04-24T13:21:06.132Z</time></trkpt><trkpt lat="44.1164884" lon="10.4556017"><ele>394.0</ele><time>2026-04-24T13:21:07.135Z</time></trkpt><trkpt lat="44.1164028" lon="10.4555697"><ele>393.33333333333337</ele><time>2026-04-24T13:21:08.127Z</time></trkpt><trkpt lat="44.1163146" lon="10.4555402"><ele>392.6666666666667</ele><time>2026-04-24T13:21:09.132Z</time></trkpt><trkpt lat="44.1162224" lon="10.4555055"><ele>392.0</ele><time>2026-04-24T13:21:10.124Z</time></trkpt><trkpt lat="44.1161356" lon="10.4554777"><ele>391.33333333333337</ele><time>2026-04-24T13:21:11.128Z</time></trkpt><trkpt lat="44.1160538" lon="10.4554432"><ele>390.6666666666667</ele><time>2026-04-24T13:21:12.135Z</time></trkpt><trkpt lat="44.1159744" lon="10.4554072"><ele>390.0</ele><time>2026-04-24T13:21:13.127Z</time></trkpt><trkpt lat="44.1159006" lon="10.4553717"><ele>387.0</ele><time>2026-04-24T13:21:14.127Z</time></trkpt><trkpt lat="44.1158187" lon="10.4553504"><ele>384.0</ele><time>2026-04-24T13:21:15.125Z</time></trkpt><trkpt lat="44.1157496" lon="10.4553407"><ele>381.0</ele><time>2026-04-24T13:21:16.125Z</time></trkpt><trkpt lat="44.1156833" lon="10.4553335"><ele>378.0</ele><time>2026-04-24T13:21:17.117Z</time></trkpt><trkpt lat="44.1155628" lon="10.4553255"><ele>375.0</ele><time>2026-04-24T13:21:19.122Z</time></trkpt><trkpt lat="44.1154442" lon="10.4553493"><ele>374.8</ele><time>2026-04-24T13:21:21.129Z</time></trkpt><trkpt lat="44.1153809" lon="10.4553776"><ele>374.6</ele><time>2026-04-24T13:21:22.137Z</time></trkpt><trkpt lat="44.1153154" lon="10.4553914"><ele>374.4</ele><time>2026-04-24T13:21:23.127Z</time></trkpt><trkpt lat="44.1151855" lon="10.4553983"><ele>374.2</ele><time>2026-04-24T13:21:25.115Z</time></trkpt><trkpt lat="44.1150527" lon="10.455418"><ele>374.0</ele><time>2026-04-24T13:21:27.13Z</time></trkpt><trkpt lat="44.1149798" lon="10.455439"><ele>374.33333333333337</ele><time>2026-04-24T13:21:28.129Z</time></trkpt><trkpt lat="44.1149053" lon="10.4554576"><ele>374.6666666666667</ele><time>2026-04-24T13:21:29.127Z</time></trkpt><trkpt lat="44.1148279" lon="10.4554752"><ele>375.0</ele><time>2026-04-24T13:21:30.125Z</time></trkpt><trkpt lat="44.1147533" lon="10.4554972"><ele>375.3333333333333</ele><time>2026-04-24T13:21:31.129Z</time></trkpt><trkpt lat="44.1146761" lon="10.4555194"><ele>375.66666666666663</ele><time>2026-04-24T13:21:32.133Z</time></trkpt><trkpt lat="44.1145938" lon="10.4555352"><ele>376.0</ele><time>2026-04-24T13:21:33.131Z</time></trkpt><trkpt lat="44.1145116" lon="10.4555569"><ele>376.0</ele><time>2026-04-24T13:21:34.117Z</time></trkpt><trkpt lat="44.1144241" lon="10.4555809"><ele>376.0</ele><time>2026-04-24T13:21:35.135Z</time></trkpt><trkpt lat="44.1143345" lon="10.4556053"><ele>376.0</ele><time>2026-04-24T13:21:36.131Z</time></trkpt><trkpt lat="44.1142447" lon="10.4556208"><ele>376.0</ele><time>2026-04-24T13:21:37.122Z</time></trkpt><trkpt lat="44.114152" lon="10.4556374"><ele>376.0</ele><time>2026-04-24T13:21:38.117Z</time></trkpt><trkpt lat="44.1140551" lon="10.4556474"><ele>372.8</ele><time>2026-04-24T13:21:39.129Z</time></trkpt><trkpt lat="44.1139601" lon="10.4556606"><ele>369.6</ele><time>2026-04-24T13:21:40.129Z</time></trkpt><trkpt lat="44.113862" lon="10.4556529"><ele>366.4</ele><time>2026-04-24T13:21:41.119Z</time></trkpt><trkpt lat="44.1137651" lon="10.455615"><ele>363.2</ele><time>2026-04-24T13:21:42.131Z</time></trkpt><trkpt lat="44.1136773" lon="10.4555663"><ele>360.0</ele><time>2026-04-24T13:21:43.126Z</time></trkpt><trkpt lat="44.1135995" lon="10.4555114"><ele>360.0</ele><time>2026-04-24T13:21:44.117Z</time></trkpt><trkpt lat="44.1135306" lon="10.4554546"><ele>360.0</ele><time>2026-04-24T13:21:45.134Z</time></trkpt><trkpt lat="44.1134673" lon="10.4554076"><ele>360.0</ele><time>2026-04-24T13:21:46.136Z</time></trkpt><trkpt lat="44.1134019" lon="10.4553921"><ele>360.0</ele><time>2026-04-24T13:21:47.115Z</time></trkpt><trkpt lat="44.1132984" lon="10.4554592"><ele>360.0</ele><time>2026-04-24T13:21:49.13Z</time></trkpt><trkpt lat="44.1132711" lon="10.4556196"><ele>360.0</ele><time>2026-04-24T13:21:51.114Z</time></trkpt><trkpt lat="44.1133522" lon="10.4557577"><ele>360.0</ele><time>2026-04-24T13:21:53.127Z</time></trkpt><trkpt lat="44.1134052" lon="10.4558244"><ele>360.0</ele><time>2026-04-24T13:21:54.127Z</time></trkpt><trkpt lat="44.1134541" lon="10.4558907"><ele>360.0</ele><time>2026-04-24T13:21:55.117Z</time></trkpt><trkpt lat="44.1134922" lon="10.4560184"><ele>360.0</ele><time>2026-04-24T13:21:57.14Z</time></trkpt><trkpt lat="44.1134381" lon="10.4560819"><ele>360.0</ele><time>2026-04-24T13:21:59.123Z</time></trkpt><trkpt lat="44.1133651" lon="10.4560098"><ele>360.0</ele><time>2026-04-24T13:22:01.127Z</time></trkpt><trkpt lat="44.1133071" lon="10.455874"><ele>360.0</ele><time>2026-04-24T13:22:03.13Z</time></trkpt><trkpt lat="44.1132733" lon="10.4557985"><ele>360.0</ele><time>2026-04-24T13:22:04.13Z</time></trkpt><trkpt lat="44.1132301" lon="10.4557219"><ele>360.0</ele><time>2026-04-24T13:22:05.121Z</time></trkpt><trkpt lat="44.1131821" lon="10.4556381"><ele>360.0</ele><time>2026-04-24T13:22:06.126Z</time></trkpt><trkpt lat="44.113124" lon="10.4555534"><ele>360.0</ele><time>2026-04-24T13:22:07.133Z</time></trkpt><trkpt lat="44.113058" lon="10.4554753"><ele>356.1666666666667</ele><time>2026-04-24T13:22:08.137Z</time></trkpt><trkpt lat="44.1129788" lon="10.4554068"><ele>352.3333333333333</ele><time>2026-04-24T13:22:09.126Z</time></trkpt><trkpt lat="44.1128892" lon="10.4553549"><ele>348.5</ele><time>2026-04-24T13:22:10.127Z</time></trkpt><trkpt lat="44.1127972" lon="10.4553161"><ele>344.66666666666663</ele><time>2026-04-24T13:22:11.127Z</time></trkpt><trkpt lat="44.1127143" lon="10.4552837"><ele>340.8333333333333</ele><time>2026-04-24T13:22:12.117Z</time></trkpt><trkpt lat="44.1126467" lon="10.4552462"><ele>337.0</ele><time>2026-04-24T13:22:13.134Z</time></trkpt><trkpt lat="44.1125952" lon="10.4551802"><ele>337.00000000000006</ele><time>2026-04-24T13:22:14.142Z</time></trkpt><trkpt lat="44.1125668" lon="10.4551004"><ele>337.0</ele><time>2026-04-24T13:22:15.131Z</time></trkpt><trkpt lat="44.1125987" lon="10.454948"><ele>337.0</ele><time>2026-04-24T13:22:17.144Z</time></trkpt><trkpt lat="44.1126483" lon="10.4548939"><ele>337.0</ele><time>2026-04-24T13:22:18.119Z</time></trkpt><trkpt lat="44.1127082" lon="10.4548573"><ele>337.0</ele><time>2026-04-24T13:22:19.13Z</time></trkpt><trkpt lat="44.1127701" lon="10.4548226"><ele>337.00000000000006</ele><time>2026-04-24T13:22:20.129Z</time></trkpt><trkpt lat="44.1128328" lon="10.4547786"><ele>337.0</ele><time>2026-04-24T13:22:21.125Z</time></trkpt><trkpt lat="44.1129011" lon="10.4547318"><ele>337.0</ele><time>2026-04-24T13:22:22.134Z</time></trkpt><trkpt lat="44.1129677" lon="10.4546938"><ele>337.0</ele><time>2026-04-24T13:22:23.129Z</time></trkpt><trkpt lat="44.1130386" lon="10.4546525"><ele>337.0</ele><time>2026-04-24T13:22:24.127Z</time></trkpt><trkpt lat="44.1131041" lon="10.454611"><ele>337.0</ele><time>2026-04-24T13:22:25.124Z</time></trkpt><trkpt lat="44.113174" lon="10.4545732"><ele>337.0</ele><time>2026-04-24T13:22:26.123Z</time></trkpt><trkpt lat="44.1132442" lon="10.4545248"><ele>337.0</ele><time>2026-04-24T13:22:27.128Z</time></trkpt><trkpt lat="44.1133154" lon="10.4544772"><ele>336.66666666666663</ele><time>2026-04-24T13:22:28.129Z</time></trkpt><trkpt lat="44.1133851" lon="10.4544281"><ele>336.3333333333333</ele><time>2026-04-24T13:22:29.125Z</time></trkpt><trkpt lat="44.1134642" lon="10.4543941"><ele>336.0</ele><time>2026-04-24T13:22:30.126Z</time></trkpt><trkpt lat="44.1135467" lon="10.4543764"><ele>335.6666666666667</ele><time>2026-04-24T13:22:31.121Z</time></trkpt><trkpt lat="44.1136305" lon="10.4543912"><ele>335.33333333333337</ele><time>2026-04-24T13:22:32.132Z</time></trkpt><trkpt lat="44.1136973" lon="10.4544221"><ele>335.0</ele><time>2026-04-24T13:22:33.127Z</time></trkpt><trkpt lat="44.11381" lon="10.4544714"><ele>335.0</ele><time>2026-04-24T13:22:35.126Z</time></trkpt><trkpt lat="44.1138585" lon="10.4543831"><ele>335.0</ele><time>2026-04-24T13:22:37.125Z</time></trkpt><trkpt lat="44.1138096" lon="10.4542942"><ele>335.0</ele><time>2026-04-24T13:22:39.12Z</time></trkpt><trkpt lat="44.1137172" lon="10.4542753"><ele>335.0</ele><time>2026-04-24T13:22:41.133Z</time></trkpt><trkpt lat="44.1136049" lon="10.4542426"><ele>335.0</ele><time>2026-04-24T13:22:43.139Z</time></trkpt><trkpt lat="44.1134792" lon="10.454203"><ele>335.0</ele><time>2026-04-24T13:22:45.129Z</time></trkpt><trkpt lat="44.1134128" lon="10.4541849"><ele>335.0</ele><time>2026-04-24T13:22:46.131Z</time></trkpt><trkpt lat="44.113337" lon="10.4541769"><ele>335.0</ele><time>2026-04-24T13:22:47.129Z</time></trkpt><trkpt lat="44.1132664" lon="10.4542274"><ele>335.0</ele><time>2026-04-24T13:22:48.124Z</time></trkpt><trkpt lat="44.1132017" lon="10.4542999"><ele>335.0</ele><time>2026-04-24T13:22:49.13Z</time></trkpt><trkpt lat="44.1131326" lon="10.4543691"><ele>335.0</ele><time>2026-04-24T13:22:50.122Z</time></trkpt><trkpt lat="44.1130621" lon="10.4544093"><ele>331.33333333333337</ele><time>2026-04-24T13:22:51.128Z</time></trkpt><trkpt lat="44.1129902" lon="10.4544187"><ele>327.6666666666667</ele><time>2026-04-24T13:22:52.132Z</time></trkpt><trkpt lat="44.1129258" lon="10.4544105"><ele>324.0</ele><time>2026-04-24T13:22:53.125Z</time></trkpt><trkpt lat="44.1128385" lon="10.4543569"><ele>320.3333333333333</ele><time>2026-04-24T13:22:55.125Z</time></trkpt><trkpt lat="44.1128871" lon="10.4542704"><ele>316.66666666666663</ele><time>2026-04-24T13:22:58.122Z</time></trkpt><trkpt lat="44.1129729" lon="10.4542732"><ele>313.0</ele><time>2026-04-24T13:23:00.126Z</time></trkpt><trkpt lat="44.1130919" lon="10.4542232"><ele>313.0</ele><time>2026-04-24T13:23:02.126Z</time></trkpt><trkpt lat="44.1131963" lon="10.4541262"><ele>313.0</ele><time>2026-04-24T13:23:04.119Z</time></trkpt><trkpt lat="44.1132584" lon="10.4540721"><ele>313.0</ele><time>2026-04-24T13:23:05.129Z</time></trkpt><trkpt lat="44.1133313" lon="10.454045"><ele>313.0</ele><time>2026-04-24T13:23:06.131Z</time></trkpt><trkpt lat="44.1134039" lon="10.4540223"><ele>313.0</ele><time>2026-04-24T13:23:07.134Z</time></trkpt><trkpt lat="44.1134844" lon="10.4540195"><ele>313.0</ele><time>2026-04-24T13:23:08.13Z</time></trkpt><trkpt lat="44.113566" lon="10.4540158"><ele>310.16666666666663</ele><time>2026-04-24T13:23:09.131Z</time></trkpt><trkpt lat="44.1136513" lon="10.4540228"><ele>307.3333333333333</ele><time>2026-04-24T13:23:10.13Z</time></trkpt><trkpt lat="44.1137426" lon="10.4540287"><ele>304.5</ele><time>2026-04-24T13:23:11.127Z</time></trkpt><trkpt lat="44.1138166" lon="10.4540248"><ele>301.6666666666667</ele><time>2026-04-24T13:23:12.137Z</time></trkpt><trkpt lat="44.1138808" lon="10.454007"><ele>298.83333333333337</ele><time>2026-04-24T13:23:13.127Z</time></trkpt><trkpt lat="44.113964" lon="10.4538969"><ele>296.0</ele><time>2026-04-24T13:23:15.128Z</time></trkpt><trkpt lat="44.113955" lon="10.4537231"><ele>296.0</ele><time>2026-04-24T13:23:17.135Z</time></trkpt><trkpt lat="44.1139413" lon="10.4536166"><ele>296.0</ele><time>2026-04-24T13:23:18.129Z</time></trkpt><trkpt lat="44.1139404" lon="10.4535118"><ele>296.0</ele><time>2026-04-24T13:23:19.137Z</time></trkpt><trkpt lat="44.1139769" lon="10.4534082"><ele>296.0</ele><time>2026-04-24T13:23:20.126Z</time></trkpt><trkpt lat="44.1140206" lon="10.4533204"><ele>296.0</ele><time>2026-04-24T13:23:21.117Z</time></trkpt><trkpt lat="44.1140743" lon="10.4532395"><ele>296.0</ele><time>2026-04-24T13:23:22.113Z</time></trkpt><trkpt lat="44.1141366" lon="10.4531645"><ele>295.0</ele><time>2026-04-24T13:23:23.118Z</time></trkpt><trkpt lat="44.114209" lon="10.4531078"><ele>294.0</ele><time>2026-04-24T13:23:24.119Z</time></trkpt><trkpt lat="44.1142852" lon="10.453062"><ele>293.0</ele><time>2026-04-24T13:23:25.128Z</time></trkpt><trkpt lat="44.1143734" lon="10.4530395"><ele>292.0</ele><time>2026-04-24T13:23:26.117Z</time></trkpt><trkpt lat="44.1144629" lon="10.4530068"><ele>291.0</ele><time>2026-04-24T13:23:27.119Z</time></trkpt><trkpt lat="44.1145461" lon="10.4529531"><ele>290.0</ele><time>2026-04-24T13:23:28.118Z</time></trkpt><trkpt lat="44.1146322" lon="10.4529033"><ele>290.0</ele><time>2026-04-24T13:23:29.119Z</time></trkpt><trkpt lat="44.114719" lon="10.452845"><ele>290.0</ele><time>2026-04-24T13:23:30.118Z</time></trkpt><trkpt lat="44.1148043" lon="10.4527769"><ele>290.0</ele><time>2026-04-24T13:23:31.123Z</time></trkpt><trkpt lat="44.1148882" lon="10.452724"><ele>290.0</ele><time>2026-04-24T13:23:32.122Z</time></trkpt><trkpt lat="44.1149773" lon="10.4526775"><ele>290.0</ele><time>2026-04-24T13:23:33.12Z</time></trkpt><trkpt lat="44.1150714" lon="10.4526432"><ele>292.8</ele><time>2026-04-24T13:23:34.118Z</time></trkpt><trkpt lat="44.1151663" lon="10.4526188"><ele>295.6</ele><time>2026-04-24T13:23:35.12Z</time></trkpt><trkpt lat="44.1152662" lon="10.4525929"><ele>298.4</ele><time>2026-04-24T13:23:36.12Z</time></trkpt><trkpt lat="44.1153557" lon="10.4525673"><ele>301.2</ele><time>2026-04-24T13:23:37.13Z</time></trkpt><trkpt lat="44.1154413" lon="10.4525549"><ele>304.0</ele><time>2026-04-24T13:23:38.126Z</time></trkpt><trkpt lat="44.115521" lon="10.452553"><ele>304.0</ele><time>2026-04-24T13:23:39.123Z</time></trkpt><trkpt lat="44.1155919" lon="10.4525769"><ele>304.0</ele><time>2026-04-24T13:23:40.115Z</time></trkpt><trkpt lat="44.1156629" lon="10.4526275"><ele>304.0</ele><time>2026-04-24T13:23:41.13Z</time></trkpt><trkpt lat="44.1157365" lon="10.4526779"><ele>304.0</ele><time>2026-04-24T13:23:42.122Z</time></trkpt><trkpt lat="44.1158176" lon="10.4527229"><ele>304.0</ele><time>2026-04-24T13:23:43.124Z</time></trkpt><trkpt lat="44.1158992" lon="10.4527644"><ele>304.0</ele><time>2026-04-24T13:23:44.116Z</time></trkpt><trkpt lat="44.1159754" lon="10.4528144"><ele>303.59999999999997</ele><time>2026-04-24T13:23:45.113Z</time></trkpt><trkpt lat="44.1160323" lon="10.4528608"><ele>303.2</ele><time>2026-04-24T13:23:46.116Z</time></trkpt><trkpt lat="44.1161358" lon="10.4529325"><ele>302.79999999999995</ele><time>2026-04-24T13:23:48.117Z</time></trkpt><trkpt lat="44.1162177" lon="10.4529009"><ele>302.4</ele><time>2026-04-24T13:23:50.115Z</time></trkpt><trkpt lat="44.1162565" lon="10.4527714"><ele>302.0</ele><time>2026-04-24T13:23:52.113Z</time></trkpt><trkpt lat="44.1162352" lon="10.4526312"><ele>302.0</ele><time>2026-04-24T13:23:54.125Z</time></trkpt><trkpt lat="44.1161915" lon="10.4524799"><ele>302.0</ele><time>2026-04-24T13:23:56.118Z</time></trkpt><trkpt lat="44.1161276" lon="10.452325"><ele>302.0</ele><time>2026-04-24T13:23:58.14Z</time></trkpt><trkpt lat="44.1160818" lon="10.4522479"><ele>302.0</ele><time>2026-04-24T13:23:59.125Z</time></trkpt><trkpt lat="44.1160318" lon="10.4521742"><ele>302.0</ele><time>2026-04-24T13:24:00.128Z</time></trkpt><trkpt lat="44.1159831" lon="10.4520976"><ele>301.6666666666667</ele><time>2026-04-24T13:24:01.129Z</time></trkpt><trkpt lat="44.1159536" lon="10.452"><ele>301.33333333333337</ele><time>2026-04-24T13:24:02.117Z</time></trkpt><trkpt lat="44.1159277" lon="10.4518824"><ele>301.0</ele><time>2026-04-24T13:24:03.119Z</time></trkpt><trkpt lat="44.1159064" lon="10.4517693"><ele>300.6666666666667</ele><time>2026-04-24T13:24:04.131Z</time></trkpt><trkpt lat="44.1158784" lon="10.4516563"><ele>300.3333333333333</ele><time>2026-04-24T13:24:05.124Z</time></trkpt><trkpt lat="44.1158505" lon="10.4515462"><ele>300.0</ele><time>2026-04-24T13:24:06.125Z</time></trkpt><trkpt lat="44.1158193" lon="10.4514349"><ele>300.0</ele><time>2026-04-24T13:24:07.114Z</time></trkpt><trkpt lat="44.1157814" lon="10.4513226"><ele>300.0</ele><time>2026-04-24T13:24:08.122Z</time></trkpt><trkpt lat="44.1157335" lon="10.4512154"><ele>300.0</ele><time>2026-04-24T13:24:09.12Z</time></trkpt><trkpt lat="44.1156829" lon="10.4511107"><ele>300.0</ele><time>2026-04-24T13:24:10.13Z</time></trkpt><trkpt lat="44.1156302" lon="10.4510139"><ele>300.0</ele><time>2026-04-24T13:24:11.125Z</time></trkpt><trkpt lat="44.1155929" lon="10.4509194"><ele>300.0</ele><time>2026-04-24T13:24:12.129Z</time></trkpt><trkpt lat="44.1155857" lon="10.450831"><ele>298.99999999999994</ele><time>2026-04-24T13:24:13.122Z</time></trkpt><trkpt lat="44.1156003" lon="10.4507443"><ele>298.0</ele><time>2026-04-24T13:24:14.133Z</time></trkpt><trkpt lat="44.1156414" lon="10.4506703"><ele>297.0</ele><time>2026-04-24T13:24:15.134Z</time></trkpt><trkpt lat="44.1156964" lon="10.4506209"><ele>296.0</ele><time>2026-04-24T13:24:16.129Z</time></trkpt><trkpt lat="44.1157576" lon="10.4505925"><ele>295.0</ele><time>2026-04-24T13:24:17.129Z</time></trkpt><trkpt lat="44.1158215" lon="10.4505651"><ele>293.99999999999994</ele><time>2026-04-24T13:24:18.129Z</time></trkpt><trkpt lat="44.1158905" lon="10.450547"><ele>293.0</ele><time>2026-04-24T13:24:19.134Z</time></trkpt><trkpt lat="44.1159995" lon="10.4504911"><ele>292.0</ele><time>2026-04-24T13:24:21.134Z</time></trkpt><trkpt lat="44.1160303" lon="10.4503514"><ele>291.0</ele><time>2026-04-24T13:24:23.137Z</time></trkpt><trkpt lat="44.115979" lon="10.4502061"><ele>290.0</ele><time>2026-04-24T13:24:25.115Z</time></trkpt><trkpt lat="44.1159227" lon="10.4500607"><ele>289.0</ele><time>2026-04-24T13:24:27.123Z</time></trkpt><trkpt lat="44.1158983" lon="10.4499764"><ele>288.0</ele><time>2026-04-24T13:24:28.122Z</time></trkpt><trkpt lat="44.1158831" lon="10.4498789"><ele>288.00000000000006</ele><time>2026-04-24T13:24:29.127Z</time></trkpt><trkpt lat="44.11588" lon="10.449781"><ele>288.0</ele><time>2026-04-24T13:24:30.127Z</time></trkpt><trkpt lat="44.1158867" lon="10.4496819"><ele>288.0</ele><time>2026-04-24T13:24:31.128Z</time></trkpt><trkpt lat="44.1159035" lon="10.4495826"><ele>288.0</ele><time>2026-04-24T13:24:32.122Z</time></trkpt><trkpt lat="44.1159259" lon="10.4494846"><ele>288.0</ele><time>2026-04-24T13:24:33.135Z</time></trkpt><trkpt lat="44.1159507" lon="10.4493853"><ele>288.00000000000006</ele><time>2026-04-24T13:24:34.127Z</time></trkpt><trkpt lat="44.1159766" lon="10.4492844"><ele>288.0</ele><time>2026-04-24T13:24:35.13Z</time></trkpt><trkpt lat="44.1160008" lon="10.4491761"><ele>286.5</ele><time>2026-04-24T13:24:36.126Z</time></trkpt><trkpt lat="44.1160249" lon="10.4490694"><ele>285.0</ele><time>2026-04-24T13:24:37.131Z</time></trkpt><trkpt lat="44.1160445" lon="10.4489529"><ele>283.5</ele><time>2026-04-24T13:24:38.128Z</time></trkpt><trkpt lat="44.1160588" lon="10.4488293"><ele>282.0</ele><time>2026-04-24T13:24:39.124Z</time></trkpt><trkpt lat="44.1160749" lon="10.448703"><ele>280.5</ele><time>2026-04-24T13:24:40.13Z</time></trkpt><trkpt lat="44.1160925" lon="10.4485821"><ele>279.0</ele><time>2026-04-24T13:24:41.126Z</time></trkpt><trkpt lat="44.1161169" lon="10.4484646"><ele>276.8333333333333</ele><time>2026-04-24T13:24:42.131Z</time></trkpt><trkpt lat="44.1161427" lon="10.4483449"><ele>274.6666666666667</ele><time>2026-04-24T13:24:43.127Z</time></trkpt><trkpt lat="44.1161806" lon="10.4482281"><ele>272.5</ele><time>2026-04-24T13:24:44.127Z</time></trkpt><trkpt lat="44.1162276" lon="10.4481219"><ele>270.33333333333337</ele><time>2026-04-24T13:24:45.13Z</time></trkpt><trkpt lat="44.1162852" lon="10.4480275"><ele>268.1666666666667</ele><time>2026-04-24T13:24:46.131Z</time></trkpt><trkpt lat="44.1163509" lon="10.4479436"><ele>266.0</ele><time>2026-04-24T13:24:47.126Z</time></trkpt><trkpt lat="44.116416" lon="10.4478679"><ele>267.1666666666667</ele><time>2026-04-24T13:24:48.132Z</time></trkpt><trkpt lat="44.1164825" lon="10.44779"><ele>268.33333333333337</ele><time>2026-04-24T13:24:49.122Z</time></trkpt><trkpt lat="44.1165493" lon="10.4477135"><ele>269.5</ele><time>2026-04-24T13:24:50.127Z</time></trkpt><trkpt lat="44.1166154" lon="10.4476412"><ele>270.6666666666667</ele><time>2026-04-24T13:24:51.125Z</time></trkpt><trkpt lat="44.1166822" lon="10.4475645"><ele>271.8333333333333</ele><time>2026-04-24T13:24:52.125Z</time></trkpt><trkpt lat="44.1167474" lon="10.4474861"><ele>273.0</ele><time>2026-04-24T13:24:53.126Z</time></trkpt><trkpt lat="44.1168106" lon="10.4474079"><ele>273.0</ele><time>2026-04-24T13:24:54.129Z</time></trkpt><trkpt lat="44.1168747" lon="10.4473277"><ele>273.0</ele><time>2026-04-24T13:24:55.121Z</time></trkpt><trkpt lat="44.1169418" lon="10.4472524"><ele>273.0</ele><time>2026-04-24T13:24:56.128Z</time></trkpt><trkpt lat="44.1170061" lon="10.4471676"><ele>273.0</ele><time>2026-04-24T13:24:57.123Z</time></trkpt><trkpt lat="44.1170688" lon="10.4470729"><ele>273.0</ele><time>2026-04-24T13:24:58.127Z</time></trkpt><trkpt lat="44.1171303" lon="10.4469726"><ele>273.0</ele><time>2026-04-24T13:24:59.126Z</time></trkpt><trkpt lat="44.1171951" lon="10.4468643"><ele>271.4</ele><time>2026-04-24T13:25:00.13Z</time></trkpt><trkpt lat="44.1172663" lon="10.4467631"><ele>269.8</ele><time>2026-04-24T13:25:01.128Z</time></trkpt><trkpt lat="44.1173312" lon="10.4466489"><ele>268.2</ele><time>2026-04-24T13:25:02.128Z</time></trkpt><trkpt lat="44.1174005" lon="10.4465354"><ele>266.6</ele><time>2026-04-24T13:25:03.127Z</time></trkpt><trkpt lat="44.1174664" lon="10.446413"><ele>265.0</ele><time>2026-04-24T13:25:04.132Z</time></trkpt><trkpt lat="44.1175343" lon="10.4463003"><ele>261.0</ele><time>2026-04-24T13:25:05.129Z</time></trkpt><trkpt lat="44.117604" lon="10.4461861"><ele>257.0</ele><time>2026-04-24T13:25:06.14Z</time></trkpt><trkpt lat="44.1176694" lon="10.4460791"><ele>253.0</ele><time>2026-04-24T13:25:07.123Z</time></trkpt><trkpt lat="44.1177324" lon="10.4459846"><ele>249.0</ele><time>2026-04-24T13:25:08.126Z</time></trkpt><trkpt lat="44.1178026" lon="10.4459026"><ele>245.0</ele><time>2026-04-24T13:25:09.125Z</time></trkpt><trkpt lat="44.1178832" lon="10.4458327"><ele>245.0</ele><time>2026-04-24T13:25:10.125Z</time></trkpt><trkpt lat="44.1179688" lon="10.4457776"><ele>245.0</ele><time>2026-04-24T13:25:11.116Z</time></trkpt><trkpt lat="44.1180634" lon="10.4457345"><ele>245.0</ele><time>2026-04-24T13:25:12.136Z</time></trkpt><trkpt lat="44.1181644" lon="10.445717"><ele>245.0</ele><time>2026-04-24T13:25:13.132Z</time></trkpt><trkpt lat="44.1182586" lon="10.4457168"><ele>245.0</ele><time>2026-04-24T13:25:14.126Z</time></trkpt><trkpt lat="44.118359" lon="10.4457349"><ele>246.8</ele><time>2026-04-24T13:25:15.126Z</time></trkpt><trkpt lat="44.1184621" lon="10.4457667"><ele>248.6</ele><time>2026-04-24T13:25:16.116Z</time></trkpt><trkpt lat="44.1185562" lon="10.4457897"><ele>250.39999999999998</ele><time>2026-04-24T13:25:17.129Z</time></trkpt><trkpt lat="44.1186461" lon="10.4458132"><ele>252.2</ele><time>2026-04-24T13:25:18.116Z</time></trkpt><trkpt lat="44.1187355" lon="10.4458265"><ele>254.0</ele><time>2026-04-24T13:25:19.124Z</time></trkpt><trkpt lat="44.118822" lon="10.4458157"><ele>254.00000000000003</ele><time>2026-04-24T13:25:20.134Z</time></trkpt><trkpt lat="44.1189036" lon="10.4457818"><ele>254.0</ele><time>2026-04-24T13:25:21.124Z</time></trkpt><trkpt lat="44.1189712" lon="10.4457392"><ele>254.0</ele><time>2026-04-24T13:25:22.131Z</time></trkpt><trkpt lat="44.1190362" lon="10.4456948"><ele>254.0</ele><time>2026-04-24T13:25:23.135Z</time></trkpt><trkpt lat="44.1190932" lon="10.4456559"><ele>254.00000000000003</ele><time>2026-04-24T13:25:24.127Z</time></trkpt><trkpt lat="44.1191462" lon="10.445522"><ele>254.0</ele><time>2026-04-24T13:25:26.125Z</time></trkpt><trkpt lat="44.1191218" lon="10.4453738"><ele>251.2</ele><time>2026-04-24T13:25:28.132Z</time></trkpt><trkpt lat="44.1190532" lon="10.4452536"><ele>248.39999999999998</ele><time>2026-04-24T13:25:30.12Z</time></trkpt><trkpt lat="44.1189576" lon="10.4451566"><ele>245.6</ele><time>2026-04-24T13:25:32.125Z</time></trkpt><trkpt lat="44.1188462" lon="10.4450706"><ele>242.8</ele><time>2026-04-24T13:25:34.129Z</time></trkpt><trkpt lat="44.1187853" lon="10.4450294"><ele>240.0</ele><time>2026-04-24T13:25:35.151Z</time></trkpt><trkpt lat="44.1187227" lon="10.4449853"><ele>240.0</ele><time>2026-04-24T13:25:36.121Z</time></trkpt><trkpt lat="44.1186563" lon="10.4449414"><ele>240.0</ele><time>2026-04-24T13:25:37.136Z</time></trkpt><trkpt lat="44.118588" lon="10.4448948"><ele>240.0</ele><time>2026-04-24T13:25:38.124Z</time></trkpt><trkpt lat="44.1185231" lon="10.4448365"><ele>240.0</ele><time>2026-04-24T13:25:39.122Z</time></trkpt><trkpt lat="44.1184605" lon="10.4447699"><ele>240.0</ele><time>2026-04-24T13:25:40.117Z</time></trkpt><trkpt lat="44.1183982" lon="10.4446983"><ele>240.0</ele><time>2026-04-24T13:25:41.118Z</time></trkpt><trkpt lat="44.118342" lon="10.4446269"><ele>240.0</ele><time>2026-04-24T13:25:42.113Z</time></trkpt><trkpt lat="44.1182898" lon="10.4445537"><ele>240.0</ele><time>2026-04-24T13:25:43.117Z</time></trkpt><trkpt lat="44.1182462" lon="10.4444847"><ele>240.0</ele><time>2026-04-24T13:25:44.129Z</time></trkpt><trkpt lat="44.1182006" lon="10.4444203"><ele>240.0</ele><time>2026-04-24T13:25:45.124Z</time></trkpt><trkpt lat="44.1181153" lon="10.4442988"><ele>240.0</ele><time>2026-04-24T13:25:47.124Z</time></trkpt><trkpt lat="44.1180463" lon="10.4441884"><ele>240.0</ele><time>2026-04-24T13:25:49.123Z</time></trkpt><trkpt lat="44.1179789" lon="10.4440886"><ele>242.14285714285717</ele><time>2026-04-24T13:25:51.13Z</time></trkpt><trkpt lat="44.1179181" lon="10.4440073"><ele>244.28571428571428</ele><time>2026-04-24T13:25:53.113Z</time></trkpt><trkpt lat="44.117904" lon="10.443907"><ele>246.42857142857144</ele><time>2026-04-24T13:25:56.113Z</time></trkpt><trkpt lat="44.1179272" lon="10.4438235"><ele>248.57142857142858</ele><time>2026-04-24T13:25:59.117Z</time></trkpt><trkpt lat="44.1179611" lon="10.4437393"><ele>250.71428571428572</ele><time>2026-04-24T13:26:02.122Z</time></trkpt><trkpt lat="44.1179889" lon="10.4436441"><ele>252.85714285714286</ele><time>2026-04-24T13:26:05.129Z</time></trkpt><trkpt lat="44.1180218" lon="10.4435456"><ele>255.0</ele><time>2026-04-24T13:26:08.113Z</time></trkpt><trkpt lat="44.1180527" lon="10.4434399"><ele>262.2</ele><time>2026-04-24T13:26:11.116Z</time></trkpt><trkpt lat="44.1180853" lon="10.4433221"><ele>269.4</ele><time>2026-04-24T13:26:14.125Z</time></trkpt><trkpt lat="44.1181106" lon="10.4432046"><ele>276.6</ele><time>2026-04-24T13:26:17.136Z</time></trkpt><trkpt lat="44.1181264" lon="10.4430791"><ele>283.8</ele><time>2026-04-24T13:26:20.121Z</time></trkpt><trkpt lat="44.1181452" lon="10.4429603"><ele>291.0</ele><time>2026-04-24T13:26:23.119Z</time></trkpt><trkpt lat="44.1181645" lon="10.442834"><ele>290.7142857142857</ele><time>2026-04-24T13:26:26.127Z</time></trkpt><trkpt lat="44.1181771" lon="10.442745"><ele>290.4285714285714</ele><time>2026-04-24T13:26:28.12Z</time></trkpt><trkpt lat="44.1181839" lon="10.4426543"><ele>290.1428571428571</ele><time>2026-04-24T13:26:30.13Z</time></trkpt><trkpt lat="44.118187" lon="10.4425608"><ele>289.85714285714283</ele><time>2026-04-24T13:26:32.115Z</time></trkpt><trkpt lat="44.1181921" lon="10.4424298"><ele>289.57142857142856</ele><time>2026-04-24T13:26:35.12Z</time></trkpt><trkpt lat="44.1181917" lon="10.4423363"><ele>289.2857142857143</ele><time>2026-04-24T13:26:37.119Z</time></trkpt><trkpt lat="44.1181852" lon="10.4422151"><ele>289.0</ele><time>2026-04-24T13:26:40.134Z</time></trkpt><trkpt lat="44.1181737" lon="10.4420854"><ele>289.0</ele><time>2026-04-24T13:26:43.115Z</time></trkpt><trkpt lat="44.1181604" lon="10.4419587"><ele>289.0</ele><time>2026-04-24T13:26:46.116Z</time></trkpt><trkpt lat="44.1181418" lon="10.4418722"><ele>289.0</ele><time>2026-04-24T13:26:48.116Z</time></trkpt><trkpt lat="44.1181199" lon="10.4417858"><ele>289.0</ele><time>2026-04-24T13:26:50.12Z</time></trkpt><trkpt lat="44.118093" lon="10.4416997"><ele>289.0</ele><time>2026-04-24T13:26:52.111Z</time></trkpt><trkpt lat="44.1180632" lon="10.4416179"><ele>289.0</ele><time>2026-04-24T13:26:54.122Z</time></trkpt><trkpt lat="44.1180322" lon="10.4415367"><ele>289.0</ele><time>2026-04-24T13:26:56.116Z</time></trkpt><trkpt lat="44.1179967" lon="10.4414595"><ele>289.0</ele><time>2026-04-24T13:26:58.121Z</time></trkpt><trkpt lat="44.1179581" lon="10.4413844"><ele>289.0</ele><time>2026-04-24T13:27:00.121Z</time></trkpt><trkpt lat="44.1179192" lon="10.4413149"><ele>289.0</ele><time>2026-04-24T13:27:02.115Z</time></trkpt><trkpt lat="44.1178748" lon="10.4412525"><ele>289.0</ele><time>2026-04-24T13:27:04.131Z</time></trkpt><trkpt lat="44.1178057" lon="10.4411677"><ele>289.0</ele><time>2026-04-24T13:27:07.124Z</time></trkpt><trkpt lat="44.1177524" lon="10.4411156"><ele>289.0</ele><time>2026-04-24T13:27:09.123Z</time></trkpt><trkpt lat="44.1176991" lon="10.441061"><ele>289.0</ele><time>2026-04-24T13:27:11.111Z</time></trkpt><trkpt lat="44.1176456" lon="10.4410037"><ele>291.57142857142856</ele><time>2026-04-24T13:27:13.118Z</time></trkpt><trkpt lat="44.1175918" lon="10.4409486"><ele>294.1428571428571</ele><time>2026-04-24T13:27:15.123Z</time></trkpt><trkpt lat="44.1175371" lon="10.4408891"><ele>296.71428571428567</ele><time>2026-04-24T13:27:17.115Z</time></trkpt><trkpt lat="44.1174811" lon="10.4408347"><ele>299.2857142857143</ele><time>2026-04-24T13:27:19.117Z</time></trkpt><trkpt lat="44.1174256" lon="10.4407829"><ele>301.85714285714283</ele><time>2026-04-24T13:27:21.113Z</time></trkpt><trkpt lat="44.1173701" lon="10.4407266"><ele>304.4285714285714</ele><time>2026-04-24T13:27:23.117Z</time></trkpt><trkpt lat="44.1173167" lon="10.4406654"><ele>307.0</ele><time>2026-04-24T13:27:25.127Z</time></trkpt><trkpt lat="44.1172659" lon="10.4406059"><ele>306.99999999999994</ele><time>2026-04-24T13:27:27.115Z</time></trkpt><trkpt lat="44.1172153" lon="10.4405448"><ele>307.0</ele><time>2026-04-24T13:27:29.115Z</time></trkpt><trkpt lat="44.1171619" lon="10.4404849"><ele>307.0</ele><time>2026-04-24T13:27:31.127Z</time></trkpt><trkpt lat="44.117112" lon="10.440424"><ele>307.0</ele><time>2026-04-24T13:27:33.119Z</time></trkpt><trkpt lat="44.117064" lon="10.4403598"><ele>307.0</ele><time>2026-04-24T13:27:35.131Z</time></trkpt><trkpt lat="44.1170164" lon="10.440299"><ele>306.99999999999994</ele><time>2026-04-24T13:27:37.127Z</time></trkpt><trkpt lat="44.1169687" lon="10.4402383"><ele>307.0</ele><time>2026-04-24T13:27:39.116Z</time></trkpt><trkpt lat="44.1169247" lon="10.4401753"><ele>302.85714285714283</ele><time>2026-04-24T13:27:41.123Z</time></trkpt><trkpt lat="44.116884" lon="10.4401073"><ele>298.7142857142857</ele><time>2026-04-24T13:27:43.125Z</time></trkpt><trkpt lat="44.1168459" lon="10.4400288"><ele>294.57142857142856</ele><time>2026-04-24T13:27:45.121Z</time></trkpt><trkpt lat="44.1168064" lon="10.4399452"><ele>290.42857142857144</ele><time>2026-04-24T13:27:47.131Z</time></trkpt><trkpt lat="44.1167727" lon="10.4398676"><ele>286.2857142857143</ele><time>2026-04-24T13:27:49.126Z</time></trkpt><trkpt lat="44.1167189" lon="10.439752"><ele>282.1428571428571</ele><time>2026-04-24T13:27:52.122Z</time></trkpt><trkpt lat="44.1166828" lon="10.4396649"><ele>278.0</ele><time>2026-04-24T13:27:54.113Z</time></trkpt><trkpt lat="44.1166491" lon="10.4395756"><ele>274.57142857142856</ele><time>2026-04-24T13:27:56.122Z</time></trkpt><trkpt lat="44.1166195" lon="10.43949"><ele>271.14285714285717</ele><time>2026-04-24T13:27:58.124Z</time></trkpt><trkpt lat="44.1165929" lon="10.4394014"><ele>267.7142857142857</ele><time>2026-04-24T13:28:00.129Z</time></trkpt><trkpt lat="44.1165689" lon="10.4393076"><ele>264.2857142857143</ele><time>2026-04-24T13:28:02.114Z</time></trkpt><trkpt lat="44.1165483" lon="10.4392158"><ele>260.85714285714283</ele><time>2026-04-24T13:28:04.117Z</time></trkpt><trkpt lat="44.1165269" lon="10.4391275"><ele>257.42857142857144</ele><time>2026-04-24T13:28:06.127Z</time></trkpt><trkpt lat="44.1165095" lon="10.4390426"><ele>254.0</ele><time>2026-04-24T13:28:08.131Z</time></trkpt><trkpt lat="44.1164891" lon="10.4389521"><ele>257.83333333333337</ele><time>2026-04-24T13:28:10.116Z</time></trkpt><trkpt lat="44.1164577" lon="10.4388306"><ele>261.6666666666667</ele><time>2026-04-24T13:28:13.117Z</time></trkpt><trkpt lat="44.1164334" lon="10.4387376"><ele>265.5</ele><time>2026-04-24T13:28:15.131Z</time></trkpt><trkpt lat="44.1164102" lon="10.4386509"><ele>269.3333333333333</ele><time>2026-04-24T13:28:17.129Z</time></trkpt><trkpt lat="44.1163899" lon="10.4385674"><ele>273.16666666666663</ele><time>2026-04-24T13:28:19.127Z</time></trkpt><trkpt lat="44.1163573" lon="10.4384399"><ele>277.0</ele><time>2026-04-24T13:28:22.111Z</time></trkpt><trkpt lat="44.1163386" lon="10.4383493"><ele>277.0</ele><time>2026-04-24T13:28:24.134Z</time></trkpt><trkpt lat="44.1163204" lon="10.4382608"><ele>277.0</ele><time>2026-04-24T13:28:26.136Z</time></trkpt><trkpt lat="44.1162989" lon="10.4381703"><ele>277.0</ele><time>2026-04-24T13:28:28.11Z</time></trkpt><trkpt lat="44.1162836" lon="10.4380852"><ele>277.0</ele><time>2026-04-24T13:28:30.12Z</time></trkpt><trkpt lat="44.1162667" lon="10.4379915"><ele>277.0</ele><time>2026-04-24T13:28:32.134Z</time></trkpt><trkpt lat="44.1162609" lon="10.4378603"><ele>277.0</ele><time>2026-04-24T13:28:35.122Z</time></trkpt><trkpt lat="44.1162677" lon="10.4377267"><ele>275.57142857142856</ele><time>2026-04-24T13:28:38.137Z</time></trkpt><trkpt lat="44.1162825" lon="10.4375913"><ele>274.1428571428571</ele><time>2026-04-24T13:28:41.13Z</time></trkpt><trkpt lat="44.1162985" lon="10.4375035"><ele>272.7142857142857</ele><time>2026-04-24T13:28:43.125Z</time></trkpt><trkpt lat="44.1163082" lon="10.437407"><ele>271.2857142857143</ele><time>2026-04-24T13:28:45.127Z</time></trkpt><trkpt lat="44.1163188" lon="10.4373157"><ele>269.8571428571429</ele><time>2026-04-24T13:28:47.117Z</time></trkpt><trkpt lat="44.1163212" lon="10.4372176"><ele>268.42857142857144</ele><time>2026-04-24T13:28:49.125Z</time></trkpt><trkpt lat="44.1163235" lon="10.437121"><ele>267.0</ele><time>2026-04-24T13:28:51.13Z</time></trkpt><trkpt lat="44.1163263" lon="10.4370241"><ele>267.00000000000006</ele><time>2026-04-24T13:28:53.128Z</time></trkpt><trkpt lat="44.1163259" lon="10.4369286"><ele>267.0</ele><time>2026-04-24T13:28:55.127Z</time></trkpt><trkpt lat="44.1163178" lon="10.4368342"><ele>267.0</ele><time>2026-04-24T13:28:57.133Z</time></trkpt><trkpt lat="44.116305" lon="10.4367404"><ele>267.0</ele><time>2026-04-24T13:28:59.116Z</time></trkpt><trkpt lat="44.116295" lon="10.4366463"><ele>267.0</ele><time>2026-04-24T13:29:01.122Z</time></trkpt><trkpt lat="44.1162752" lon="10.4365538"><ele>267.00000000000006</ele><time>2026-04-24T13:29:03.119Z</time></trkpt><trkpt lat="44.1162527" lon="10.4364632"><ele>267.0</ele><time>2026-04-24T13:29:05.13Z</time></trkpt><trkpt lat="44.1162314" lon="10.4363736"><ele>266.00000000000006</ele><time>2026-04-24T13:29:07.121Z</time></trkpt><trkpt lat="44.1162033" lon="10.4362895"><ele>265.0</ele><time>2026-04-24T13:29:09.129Z</time></trkpt><trkpt lat="44.1161699" lon="10.4362036"><ele>264.0</ele><time>2026-04-24T13:29:11.117Z</time></trkpt><trkpt lat="44.116132" lon="10.4361177"><ele>263.0</ele><time>2026-04-24T13:29:13.118Z</time></trkpt><trkpt lat="44.1160915" lon="10.4360341"><ele>262.0</ele><time>2026-04-24T13:29:15.125Z</time></trkpt><trkpt lat="44.1160457" lon="10.4359539"><ele>261.00000000000006</ele><time>2026-04-24T13:29:17.142Z</time></trkpt><trkpt lat="44.1159964" lon="10.4358712"><ele>260.0</ele><time>2026-04-24T13:29:19.139Z</time></trkpt><trkpt lat="44.1159435" lon="10.4357961"><ele>260.0</ele><time>2026-04-24T13:29:21.14Z</time></trkpt><trkpt lat="44.1158849" lon="10.4357265"><ele>260.0</ele><time>2026-04-24T13:29:23.114Z</time></trkpt><trkpt lat="44.1158255" lon="10.4356591"><ele>260.0</ele><time>2026-04-24T13:29:25.127Z</time></trkpt><trkpt lat="44.1157588" lon="10.4355994"><ele>260.0</ele><time>2026-04-24T13:29:27.119Z</time></trkpt><trkpt lat="44.1156908" lon="10.4355435"><ele>260.0</ele><time>2026-04-24T13:29:29.13Z</time></trkpt><trkpt lat="44.1156172" lon="10.4354942"><ele>260.0</ele><time>2026-04-24T13:29:31.122Z</time></trkpt><trkpt lat="44.1155428" lon="10.4354462"><ele>258.1666666666667</ele><time>2026-04-24T13:29:33.135Z</time></trkpt><trkpt lat="44.1154662" lon="10.4354021"><ele>256.33333333333337</ele><time>2026-04-24T13:29:35.117Z</time></trkpt><trkpt lat="44.1153869" lon="10.4353692"><ele>254.5</ele><time>2026-04-24T13:29:37.129Z</time></trkpt><trkpt lat="44.1153065" lon="10.4353428"><ele>252.66666666666669</ele><time>2026-04-24T13:29:39.126Z</time></trkpt><trkpt lat="44.1152294" lon="10.435317"><ele>250.83333333333334</ele><time>2026-04-24T13:29:41.128Z</time></trkpt><trkpt lat="44.115158" lon="10.4353011"><ele>249.0</ele><time>2026-04-24T13:29:43.119Z</time></trkpt><trkpt lat="44.1150871" lon="10.4352914"><ele>249.0</ele><time>2026-04-24T13:29:45.128Z</time></trkpt><trkpt lat="44.1150124" lon="10.4352816"><ele>249.0</ele><time>2026-04-24T13:29:47.124Z</time></trkpt><trkpt lat="44.1149359" lon="10.4352799"><ele>249.0</ele><time>2026-04-24T13:29:49.119Z</time></trkpt><trkpt lat="44.1148614" lon="10.4352754"><ele>249.0</ele><time>2026-04-24T13:29:51.121Z</time></trkpt><trkpt lat="44.1147824" lon="10.4352714"><ele>249.0</ele><time>2026-04-24T13:29:53.115Z</time></trkpt><trkpt lat="44.1146979" lon="10.4352669"><ele>249.0</ele><time>2026-04-24T13:29:55.124Z</time></trkpt><trkpt lat="44.1146159" lon="10.4352582"><ele>249.16666666666666</ele><time>2026-04-24T13:29:57.12Z</time></trkpt><trkpt lat="44.1145338" lon="10.4352528"><ele>249.33333333333331</ele><time>2026-04-24T13:29:59.132Z</time></trkpt><trkpt lat="44.1144495" lon="10.4352464"><ele>249.5</ele><time>2026-04-24T13:30:01.126Z</time></trkpt><trkpt lat="44.1143652" lon="10.4352368"><ele>249.66666666666666</ele><time>2026-04-24T13:30:03.127Z</time></trkpt><trkpt lat="44.1142789" lon="10.4352312"><ele>249.83333333333331</ele><time>2026-04-24T13:30:05.13Z</time></trkpt><trkpt lat="44.1141885" lon="10.4352235"><ele>250.0</ele><time>2026-04-24T13:30:07.117Z</time></trkpt><trkpt lat="44.1141036" lon="10.4352162"><ele>250.66666666666666</ele><time>2026-04-24T13:30:09.115Z</time></trkpt><trkpt lat="44.1140192" lon="10.4352073"><ele>251.33333333333331</ele><time>2026-04-24T13:30:11.126Z</time></trkpt><trkpt lat="44.1139351" lon="10.4351958"><ele>252.0</ele><time>2026-04-24T13:30:13.128Z</time></trkpt><trkpt lat="44.1138536" lon="10.4351877"><ele>252.66666666666669</ele><time>2026-04-24T13:30:15.126Z</time></trkpt><trkpt lat="44.1137665" lon="10.435179"><ele>253.33333333333334</ele><time>2026-04-24T13:30:17.133Z</time></trkpt><trkpt lat="44.113677" lon="10.4351791"><ele>254.0</ele><time>2026-04-24T13:30:19.127Z</time></trkpt><trkpt lat="44.1135974" lon="10.4351742"><ele>254.00000000000003</ele><time>2026-04-24T13:30:21.116Z</time></trkpt><trkpt lat="44.1135088" lon="10.4351706"><ele>254.0</ele><time>2026-04-24T13:30:23.124Z</time></trkpt><trkpt lat="44.1134215" lon="10.43517"><ele>254.0</ele><time>2026-04-24T13:30:25.122Z</time></trkpt><trkpt lat="44.1133317" lon="10.4351628"><ele>254.0</ele><time>2026-04-24T13:30:27.125Z</time></trkpt><trkpt lat="44.1132411" lon="10.435153"><ele>254.00000000000003</ele><time>2026-04-24T13:30:29.125Z</time></trkpt><trkpt lat="44.1131518" lon="10.4351328"><ele>254.0</ele><time>2026-04-24T13:30:31.122Z</time></trkpt><trkpt lat="44.113063" lon="10.4350984"><ele>256.6666666666667</ele><time>2026-04-24T13:30:33.127Z</time></trkpt><trkpt lat="44.1129767" lon="10.4350596"><ele>259.33333333333337</ele><time>2026-04-24T13:30:35.124Z</time></trkpt><trkpt lat="44.1128941" lon="10.4350142"><ele>262.0</ele><time>2026-04-24T13:30:37.126Z</time></trkpt><trkpt lat="44.1128172" lon="10.4349593"><ele>264.6666666666667</ele><time>2026-04-24T13:30:39.134Z</time></trkpt><trkpt lat="44.1127482" lon="10.4349001"><ele>267.3333333333333</ele><time>2026-04-24T13:30:41.12Z</time></trkpt><trkpt lat="44.1126817" lon="10.4348362"><ele>270.0</ele><time>2026-04-24T13:30:43.123Z</time></trkpt><trkpt lat="44.1126128" lon="10.4347604"><ele>270.0</ele><time>2026-04-24T13:30:45.13Z</time></trkpt><trkpt lat="44.1125437" lon="10.4346796"><ele>270.0</ele><time>2026-04-24T13:30:47.129Z</time></trkpt><trkpt lat="44.1124783" lon="10.4345911"><ele>270.0</ele><time>2026-04-24T13:30:49.125Z</time></trkpt><trkpt lat="44.1124283" lon="10.434503"><ele>270.0</ele><time>2026-04-24T13:30:51.124Z</time></trkpt><trkpt lat="44.1123764" lon="10.4343976"><ele>270.0</ele><time>2026-04-24T13:30:53.125Z</time></trkpt><trkpt lat="44.1123158" lon="10.4342962"><ele>270.0</ele><time>2026-04-24T13:30:55.124Z</time></trkpt><trkpt lat="44.1122788" lon="10.4342051"><ele>274.0</ele><time>2026-04-24T13:30:57.123Z</time></trkpt><trkpt lat="44.1122409" lon="10.4341032"><ele>278.0</ele><time>2026-04-24T13:30:59.127Z</time></trkpt><trkpt lat="44.1122038" lon="10.4339961"><ele>282.0</ele><time>2026-04-24T13:31:01.123Z</time></trkpt><trkpt lat="44.1121741" lon="10.4338868"><ele>286.0</ele><time>2026-04-24T13:31:03.125Z</time></trkpt><trkpt lat="44.1121489" lon="10.433774"><ele>290.0</ele><time>2026-04-24T13:31:05.136Z</time></trkpt><trkpt lat="44.1121308" lon="10.433655"><ele>294.0</ele><time>2026-04-24T13:31:07.127Z</time></trkpt><trkpt lat="44.1121248" lon="10.4335321"><ele>294.0</ele><time>2026-04-24T13:31:09.123Z</time></trkpt><trkpt lat="44.1121275" lon="10.433404"><ele>294.0</ele><time>2026-04-24T13:31:11.121Z</time></trkpt><trkpt lat="44.1121383" lon="10.4332692"><ele>294.0</ele><time>2026-04-24T13:31:13.113Z</time></trkpt><trkpt lat="44.1121396" lon="10.4331802"><ele>294.0</ele><time>2026-04-24T13:31:14.122Z</time></trkpt><trkpt lat="44.112151" lon="10.4330482"><ele>294.0</ele><time>2026-04-24T13:31:16.124Z</time></trkpt><trkpt lat="44.1121589" lon="10.4329098"><ele>294.0</ele><time>2026-04-24T13:31:18.137Z</time></trkpt><trkpt lat="44.1121796" lon="10.4327721"><ele>295.59999999999997</ele><time>2026-04-24T13:31:20.125Z</time></trkpt><trkpt lat="44.1122214" lon="10.4326552"><ele>297.2</ele><time>2026-04-24T13:31:22.149Z</time></trkpt><trkpt lat="44.1122554" lon="10.4325417"><ele>298.79999999999995</ele><time>2026-04-24T13:31:24.129Z</time></trkpt><trkpt lat="44.1122908" lon="10.4324259"><ele>300.4</ele><time>2026-04-24T13:31:26.113Z</time></trkpt><trkpt lat="44.112332" lon="10.4323119"><ele>302.0</ele><time>2026-04-24T13:31:28.125Z</time></trkpt><trkpt lat="44.1123708" lon="10.4322039"><ele>296.0</ele><time>2026-04-24T13:31:30.127Z</time></trkpt><trkpt lat="44.112412" lon="10.4320953"><ele>290.0</ele><time>2026-04-24T13:31:32.121Z</time></trkpt><trkpt lat="44.1124548" lon="10.4319882"><ele>284.0</ele><time>2026-04-24T13:31:34.123Z</time></trkpt><trkpt lat="44.1124977" lon="10.431887"><ele>278.0</ele><time>2026-04-24T13:31:36.132Z</time></trkpt><trkpt lat="44.1125492" lon="10.4317875"><ele>272.0</ele><time>2026-04-24T13:31:38.125Z</time></trkpt><trkpt lat="44.1125977" lon="10.4316867"><ele>266.0</ele><time>2026-04-24T13:31:40.123Z</time></trkpt><trkpt lat="44.1126443" lon="10.4315843"><ele>266.0</ele><time>2026-04-24T13:31:42.129Z</time></trkpt><trkpt lat="44.1126911" lon="10.4314778"><ele>266.0</ele><time>2026-04-24T13:31:44.126Z</time></trkpt><trkpt lat="44.1127446" lon="10.4313742"><ele>266.0</ele><time>2026-04-24T13:31:46.124Z</time></trkpt><trkpt lat="44.1128008" lon="10.4312779"><ele>266.0</ele><time>2026-04-24T13:31:48.118Z</time></trkpt><trkpt lat="44.1128579" lon="10.4311732"><ele>266.0</ele><time>2026-04-24T13:31:50.125Z</time></trkpt><trkpt lat="44.1129204" lon="10.431088"><ele>264.6</ele><time>2026-04-24T13:31:52.125Z</time></trkpt><trkpt lat="44.1129981" lon="10.4310083"><ele>263.20000000000005</ele><time>2026-04-24T13:31:54.124Z</time></trkpt><trkpt lat="44.1130729" lon="10.4309311"><ele>261.79999999999995</ele><time>2026-04-24T13:31:56.131Z</time></trkpt><trkpt lat="44.1131538" lon="10.43087"><ele>260.4</ele><time>2026-04-24T13:31:58.124Z</time></trkpt><trkpt lat="44.1132261" lon="10.4308163"><ele>259.0</ele><time>2026-04-24T13:32:00.118Z</time></trkpt><trkpt lat="44.1133049" lon="10.4307647"><ele>259.0</ele><time>2026-04-24T13:32:02.124Z</time></trkpt><trkpt lat="44.1133854" lon="10.4307151"><ele>259.0</ele><time>2026-04-24T13:32:04.125Z</time></trkpt><trkpt lat="44.1134675" lon="10.4306638"><ele>259.0</ele><time>2026-04-24T13:32:06.121Z</time></trkpt><trkpt lat="44.1135476" lon="10.4306176"><ele>259.0</ele><time>2026-04-24T13:32:08.112Z</time></trkpt><trkpt lat="44.1136272" lon="10.4305673"><ele>259.0</ele><time>2026-04-24T13:32:10.119Z</time></trkpt><trkpt lat="44.1137009" lon="10.4305061"><ele>259.0</ele><time>2026-04-24T13:32:12.119Z</time></trkpt><trkpt lat="44.1137727" lon="10.4304485"><ele>259.66666666666663</ele><time>2026-04-24T13:32:14.123Z</time></trkpt><trkpt lat="44.1138408" lon="10.4303852"><ele>260.3333333333333</ele><time>2026-04-24T13:32:16.125Z</time></trkpt><trkpt lat="44.1139103" lon="10.4303149"><ele>261.0</ele><time>2026-04-24T13:32:18.113Z</time></trkpt><trkpt lat="44.113975" lon="10.4302365"><ele>261.6666666666667</ele><time>2026-04-24T13:32:20.121Z</time></trkpt><trkpt lat="44.1140379" lon="10.4301576"><ele>262.33333333333337</ele><time>2026-04-24T13:32:22.127Z</time></trkpt><trkpt lat="44.1140941" lon="10.4300794"><ele>263.0</ele><time>2026-04-24T13:32:24.129Z</time></trkpt><trkpt lat="44.1141475" lon="10.4299986"><ele>263.0</ele><time>2026-04-24T13:32:26.126Z</time></trkpt><trkpt lat="44.1142004" lon="10.4299103"><ele>263.0</ele><time>2026-04-24T13:32:28.122Z</time></trkpt><trkpt lat="44.1142502" lon="10.4298242"><ele>263.0</ele><time>2026-04-24T13:32:30.116Z</time></trkpt><trkpt lat="44.1142922" lon="10.4297207"><ele>263.0</ele><time>2026-04-24T13:32:32.128Z</time></trkpt><trkpt lat="44.1143326" lon="10.4296177"><ele>263.0</ele><time>2026-04-24T13:32:34.129Z</time></trkpt><trkpt lat="44.1143739" lon="10.4295215"><ele>263.0</ele><time>2026-04-24T13:32:36.121Z</time></trkpt><trkpt lat="44.1144118" lon="10.4294181"><ele>267.6666666666667</ele><time>2026-04-24T13:32:38.127Z</time></trkpt><trkpt lat="44.1144561" lon="10.429327"><ele>272.33333333333337</ele><time>2026-04-24T13:32:40.121Z</time></trkpt><trkpt lat="44.1144976" lon="10.4292278"><ele>277.0</ele><time>2026-04-24T13:32:42.122Z</time></trkpt><trkpt lat="44.1145381" lon="10.4291274"><ele>281.6666666666667</ele><time>2026-04-24T13:32:44.125Z</time></trkpt><trkpt lat="44.1145691" lon="10.4290338"><ele>286.3333333333333</ele><time>2026-04-24T13:32:46.118Z</time></trkpt><trkpt lat="44.114591" lon="10.4289375"><ele>291.0</ele><time>2026-04-24T13:32:48.144Z</time></trkpt><trkpt lat="44.1146086" lon="10.4288342"><ele>293.1428571428571</ele><time>2026-04-24T13:32:50.121Z</time></trkpt><trkpt lat="44.1146213" lon="10.4287271"><ele>295.2857142857143</ele><time>2026-04-24T13:32:52.125Z</time></trkpt><trkpt lat="44.1146315" lon="10.4286293"><ele>297.42857142857144</ele><time>2026-04-24T13:32:54.124Z</time></trkpt><trkpt lat="44.1146402" lon="10.4285234"><ele>299.57142857142856</ele><time>2026-04-24T13:32:56.123Z</time></trkpt><trkpt lat="44.1146452" lon="10.428416"><ele>301.7142857142857</ele><time>2026-04-24T13:32:58.122Z</time></trkpt><trkpt lat="44.1146501" lon="10.4283168"><ele>303.85714285714283</ele><time>2026-04-24T13:33:00.12Z</time></trkpt><trkpt lat="44.1146581" lon="10.4282184"><ele>306.0</ele><time>2026-04-24T13:33:02.126Z</time></trkpt><trkpt lat="44.1146666" lon="10.4281174"><ele>306.0</ele><time>2026-04-24T13:33:04.12Z</time></trkpt><trkpt lat="44.1146781" lon="10.4280126"><ele>306.0</ele><time>2026-04-24T13:33:06.129Z</time></trkpt><trkpt lat="44.1146896" lon="10.4279113"><ele>306.0</ele><time>2026-04-24T13:33:08.124Z</time></trkpt><trkpt lat="44.1146975" lon="10.4278043"><ele>306.0</ele><time>2026-04-24T13:33:10.129Z</time></trkpt><trkpt lat="44.1147065" lon="10.4276967"><ele>306.0</ele><time>2026-04-24T13:33:12.113Z</time></trkpt><trkpt lat="44.1147203" lon="10.4275934"><ele>306.0</ele><time>2026-04-24T13:33:14.123Z</time></trkpt><trkpt lat="44.1147314" lon="10.4274778"><ele>307.0</ele><time>2026-04-24T13:33:16.122Z</time></trkpt><trkpt lat="44.1147405" lon="10.4273671"><ele>308.0</ele><time>2026-04-24T13:33:18.126Z</time></trkpt><trkpt lat="44.1147505" lon="10.4272591"><ele>309.0</ele><time>2026-04-24T13:33:20.127Z</time></trkpt><trkpt lat="44.114757" lon="10.4271481"><ele>310.0</ele><time>2026-04-24T13:33:22.119Z</time></trkpt><trkpt lat="44.1147672" lon="10.4270354"><ele>311.0</ele><time>2026-04-24T13:33:24.122Z</time></trkpt><trkpt lat="44.1147792" lon="10.4269213"><ele>312.0</ele><time>2026-04-24T13:33:26.128Z</time></trkpt><trkpt lat="44.1147911" lon="10.4268085"><ele>312.0</ele><time>2026-04-24T13:33:28.12Z</time></trkpt><trkpt lat="44.1148043" lon="10.4266981"><ele>312.0</ele><time>2026-04-24T13:33:30.132Z</time></trkpt><trkpt lat="44.1148205" lon="10.4265938"><ele>312.0</ele><time>2026-04-24T13:33:32.116Z</time></trkpt><trkpt lat="44.1148437" lon="10.4264925"><ele>312.0</ele><time>2026-04-24T13:33:34.112Z</time></trkpt><trkpt lat="44.1148687" lon="10.426383"><ele>312.0</ele><time>2026-04-24T13:33:36.125Z</time></trkpt><trkpt lat="44.1148922" lon="10.4262712"><ele>312.0</ele><time>2026-04-24T13:33:38.115Z</time></trkpt><trkpt lat="44.1149161" lon="10.42616"><ele>306.3333333333333</ele><time>2026-04-24T13:33:40.124Z</time></trkpt><trkpt lat="44.1149405" lon="10.4260502"><ele>300.6666666666667</ele><time>2026-04-24T13:33:42.124Z</time></trkpt><trkpt lat="44.1149669" lon="10.4259432"><ele>295.0</ele><time>2026-04-24T13:33:44.118Z</time></trkpt><trkpt lat="44.1149857" lon="10.4258375"><ele>289.33333333333337</ele><time>2026-04-24T13:33:46.114Z</time></trkpt><trkpt lat="44.1150095" lon="10.4257334"><ele>283.6666666666667</ele><time>2026-04-24T13:33:48.123Z</time></trkpt><trkpt lat="44.1150305" lon="10.4256268"><ele>278.0</ele><time>2026-04-24T13:33:50.115Z</time></trkpt><trkpt lat="44.115049" lon="10.4255199"><ele>277.1666666666667</ele><time>2026-04-24T13:33:52.121Z</time></trkpt><trkpt lat="44.1150625" lon="10.4254128"><ele>276.33333333333337</ele><time>2026-04-24T13:33:54.128Z</time></trkpt><trkpt lat="44.1150686" lon="10.4253047"><ele>275.5</ele><time>2026-04-24T13:33:56.128Z</time></trkpt><trkpt lat="44.1150688" lon="10.4251972"><ele>274.6666666666667</ele><time>2026-04-24T13:33:58.131Z</time></trkpt><trkpt lat="44.1150649" lon="10.4250853"><ele>273.8333333333333</ele><time>2026-04-24T13:34:00.13Z</time></trkpt><trkpt lat="44.1150553" lon="10.424973"><ele>273.0</ele><time>2026-04-24T13:34:02.125Z</time></trkpt><trkpt lat="44.1150453" lon="10.4248593"><ele>273.0</ele><time>2026-04-24T13:34:04.133Z</time></trkpt><trkpt lat="44.1150326" lon="10.4247446"><ele>273.0</ele><time>2026-04-24T13:34:06.12Z</time></trkpt><trkpt lat="44.11502" lon="10.4246346"><ele>273.0</ele><time>2026-04-24T13:34:08.125Z</time></trkpt><trkpt lat="44.1150086" lon="10.4245237"><ele>273.0</ele><time>2026-04-24T13:34:10.114Z</time></trkpt><trkpt lat="44.1149964" lon="10.4244139"><ele>273.0</ele><time>2026-04-24T13:34:12.116Z</time></trkpt><trkpt lat="44.1149842" lon="10.4243053"><ele>273.0</ele><time>2026-04-24T13:34:14.121Z</time></trkpt><trkpt lat="44.1149733" lon="10.4241952"><ele>271.8333333333333</ele><time>2026-04-24T13:34:16.112Z</time></trkpt><trkpt lat="44.1149609" lon="10.4240801"><ele>270.6666666666667</ele><time>2026-04-24T13:34:18.126Z</time></trkpt><trkpt lat="44.1149468" lon="10.4239665"><ele>269.5</ele><time>2026-04-24T13:34:20.12Z</time></trkpt><trkpt lat="44.1149339" lon="10.4238524"><ele>268.33333333333337</ele><time>2026-04-24T13:34:22.121Z</time></trkpt><trkpt lat="44.1149198" lon="10.4237372"><ele>267.1666666666667</ele><time>2026-04-24T13:34:24.125Z</time></trkpt><trkpt lat="44.1149069" lon="10.4236236"><ele>266.0</ele><time>2026-04-24T13:34:26.126Z</time></trkpt><trkpt lat="44.1148924" lon="10.4235117"><ele>268.5</ele><time>2026-04-24T13:34:28.122Z</time></trkpt><trkpt lat="44.1148789" lon="10.423403"><ele>271.0</ele><time>2026-04-24T13:34:30.115Z</time></trkpt><trkpt lat="44.1148636" lon="10.4232924"><ele>273.5</ele><time>2026-04-24T13:34:32.118Z</time></trkpt><trkpt lat="44.1148514" lon="10.4231858"><ele>276.0</ele><time>2026-04-24T13:34:34.12Z</time></trkpt><trkpt lat="44.1148391" lon="10.423075"><ele>278.5</ele><time>2026-04-24T13:34:36.114Z</time></trkpt><trkpt lat="44.1148305" lon="10.4229645"><ele>281.0</ele><time>2026-04-24T13:34:38.113Z</time></trkpt><trkpt lat="44.1148175" lon="10.4228555"><ele>281.0</ele><time>2026-04-24T13:34:40.124Z</time></trkpt><trkpt lat="44.1148057" lon="10.4227471"><ele>281.0</ele><time>2026-04-24T13:34:42.123Z</time></trkpt><trkpt lat="44.1147929" lon="10.4226384"><ele>281.0</ele><time>2026-04-24T13:34:44.118Z</time></trkpt><trkpt lat="44.1147781" lon="10.4225319"><ele>281.0</ele><time>2026-04-24T13:34:46.113Z</time></trkpt><trkpt lat="44.114769" lon="10.4224246"><ele>281.0</ele><time>2026-04-24T13:34:48.114Z</time></trkpt><trkpt lat="44.1147569" lon="10.4223166"><ele>281.0</ele><time>2026-04-24T13:34:50.115Z</time></trkpt><trkpt lat="44.114746" lon="10.4222105"><ele>281.83333333333337</ele><time>2026-04-24T13:34:52.112Z</time></trkpt><trkpt lat="44.114733" lon="10.422103"><ele>282.6666666666667</ele><time>2026-04-24T13:34:54.126Z</time></trkpt><trkpt lat="44.1147158" lon="10.4219944"><ele>283.5</ele><time>2026-04-24T13:34:56.119Z</time></trkpt><trkpt lat="44.1147062" lon="10.421886"><ele>284.3333333333333</ele><time>2026-04-24T13:34:58.13Z</time></trkpt><trkpt lat="44.1146931" lon="10.4217786"><ele>285.16666666666663</ele><time>2026-04-24T13:35:00.142Z</time></trkpt><trkpt lat="44.114676" lon="10.4216688"><ele>286.0</ele><time>2026-04-24T13:35:02.126Z</time></trkpt><trkpt lat="44.1146657" lon="10.4215603"><ele>286.0</ele><time>2026-04-24T13:35:04.136Z</time></trkpt><trkpt lat="44.1146525" lon="10.4214512"><ele>286.0</ele><time>2026-04-24T13:35:06.123Z</time></trkpt><trkpt lat="44.1146397" lon="10.4213443"><ele>286.0</ele><time>2026-04-24T13:35:08.122Z</time></trkpt><trkpt lat="44.1146271" lon="10.4212345"><ele>286.0</ele><time>2026-04-24T13:35:10.125Z</time></trkpt><trkpt lat="44.1146115" lon="10.4211279"><ele>286.0</ele><time>2026-04-24T13:35:12.116Z</time></trkpt><trkpt lat="44.1145986" lon="10.42102"><ele>286.0</ele><time>2026-04-24T13:35:14.126Z</time></trkpt><trkpt lat="44.1145832" lon="10.4209105"><ele>286.8333333333333</ele><time>2026-04-24T13:35:16.134Z</time></trkpt><trkpt lat="44.1145684" lon="10.420802"><ele>287.66666666666663</ele><time>2026-04-24T13:35:18.128Z</time></trkpt><trkpt lat="44.1145512" lon="10.4206928"><ele>288.5</ele><time>2026-04-24T13:35:20.123Z</time></trkpt><trkpt lat="44.1145407" lon="10.4205868"><ele>289.3333333333333</ele><time>2026-04-24T13:35:22.126Z</time></trkpt><trkpt lat="44.114527" lon="10.4204721"><ele>290.1666666666667</ele><time>2026-04-24T13:35:24.148Z</time></trkpt><trkpt lat="44.1145124" lon="10.4203559"><ele>291.0</ele><time>2026-04-24T13:35:26.132Z</time></trkpt><trkpt lat="44.1144991" lon="10.4202453"><ele>291.0</ele><time>2026-04-24T13:35:28.126Z</time></trkpt><trkpt lat="44.1144968" lon="10.4201444"><ele>291.0</ele><time>2026-04-24T13:35:30.126Z</time></trkpt><trkpt lat="44.1145038" lon="10.4200567"><ele>291.0</ele><time>2026-04-24T13:35:32.121Z</time></trkpt><trkpt lat="44.1145176" lon="10.419951"><ele>291.0</ele><time>2026-04-24T13:35:34.13Z</time></trkpt><trkpt lat="44.1145425" lon="10.4198384"><ele>291.0</ele><time>2026-04-24T13:35:36.128Z</time></trkpt><trkpt lat="44.1145694" lon="10.4197296"><ele>291.0</ele><time>2026-04-24T13:35:38.124Z</time></trkpt><trkpt lat="44.1145648" lon="10.4196187"><ele>288.1666666666667</ele><time>2026-04-24T13:35:40.131Z</time></trkpt><trkpt lat="44.1145297" lon="10.4195255"><ele>285.3333333333333</ele><time>2026-04-24T13:35:42.114Z</time></trkpt><trkpt lat="44.1144684" lon="10.4194637"><ele>282.5</ele><time>2026-04-24T13:35:44.131Z</time></trkpt><trkpt lat="44.1144046" lon="10.419403"><ele>279.66666666666663</ele><time>2026-04-24T13:35:46.128Z</time></trkpt><trkpt lat="44.1143447" lon="10.4193374"><ele>276.8333333333333</ele><time>2026-04-24T13:35:48.125Z</time></trkpt><trkpt lat="44.1142872" lon="10.4192654"><ele>274.0</ele><time>2026-04-24T13:35:50.134Z</time></trkpt><trkpt lat="44.1142338" lon="10.4191879"><ele>274.0</ele><time>2026-04-24T13:35:52.115Z</time></trkpt><trkpt lat="44.1141852" lon="10.4191116"><ele>274.0</ele><time>2026-04-24T13:35:54.118Z</time></trkpt><trkpt lat="44.1141388" lon="10.4190457"><ele>274.0</ele><time>2026-04-24T13:35:56.125Z</time></trkpt><trkpt lat="44.1140659" lon="10.4189615"><ele>274.0</ele><time>2026-04-24T13:35:59.124Z</time></trkpt><trkpt lat="44.1140127" lon="10.4188994"><ele>274.0</ele><time>2026-04-24T13:36:01.118Z</time></trkpt><trkpt lat="44.113953" lon="10.4188387"><ele>274.0</ele><time>2026-04-24T13:36:03.126Z</time></trkpt><trkpt lat="44.1138917" lon="10.4187776"><ele>273.0</ele><time>2026-04-24T13:36:05.135Z</time></trkpt><trkpt lat="44.1138257" lon="10.4187212"><ele>272.0</ele><time>2026-04-24T13:36:07.121Z</time></trkpt><trkpt lat="44.1137594" lon="10.4186681"><ele>271.0</ele><time>2026-04-24T13:36:09.129Z</time></trkpt><trkpt lat="44.1136904" lon="10.4186161"><ele>270.0</ele><time>2026-04-24T13:36:11.123Z</time></trkpt><trkpt lat="44.1136143" lon="10.418579"><ele>269.0</ele><time>2026-04-24T13:36:13.114Z</time></trkpt><trkpt lat="44.1135397" lon="10.4185433"><ele>268.0</ele><time>2026-04-24T13:36:15.131Z</time></trkpt><trkpt lat="44.113463" lon="10.4185151"><ele>268.0</ele><time>2026-04-24T13:36:17.13Z</time></trkpt><trkpt lat="44.1133816" lon="10.4184991"><ele>268.0</ele><time>2026-04-24T13:36:19.125Z</time></trkpt><trkpt lat="44.1133036" lon="10.4184898"><ele>268.0</ele><time>2026-04-24T13:36:21.116Z</time></trkpt><trkpt lat="44.1132238" lon="10.4184944"><ele>268.0</ele><time>2026-04-24T13:36:23.124Z</time></trkpt><trkpt lat="44.1131488" lon="10.4185081"><ele>268.0</ele><time>2026-04-24T13:36:25.124Z</time></trkpt><trkpt lat="44.1130662" lon="10.4185187"><ele>268.0</ele><time>2026-04-24T13:36:27.128Z</time></trkpt><trkpt lat="44.1129864" lon="10.418536"><ele>269.16666666666663</ele><time>2026-04-24T13:36:29.135Z</time></trkpt><trkpt lat="44.1129056" lon="10.4185561"><ele>270.3333333333333</ele><time>2026-04-24T13:36:31.127Z</time></trkpt><trkpt lat="44.1128201" lon="10.4185776"><ele>271.5</ele><time>2026-04-24T13:36:33.123Z</time></trkpt><trkpt lat="44.1127357" lon="10.4185951"><ele>272.6666666666667</ele><time>2026-04-24T13:36:35.13Z</time></trkpt><trkpt lat="44.1126531" lon="10.4186096"><ele>273.83333333333337</ele><time>2026-04-24T13:36:37.15Z</time></trkpt><trkpt lat="44.1125695" lon="10.4186257"><ele>275.0</ele><time>2026-04-24T13:36:39.115Z</time></trkpt><trkpt lat="44.1124871" lon="10.4186446"><ele>275.0</ele><time>2026-04-24T13:36:41.124Z</time></trkpt><trkpt lat="44.1124072" lon="10.4186488"><ele>275.0</ele><time>2026-04-24T13:36:43.129Z</time></trkpt><trkpt lat="44.112328" lon="10.4186571"><ele>275.0</ele><time>2026-04-24T13:36:45.121Z</time></trkpt><trkpt lat="44.1122525" lon="10.4186643"><ele>275.0</ele><time>2026-04-24T13:36:47.123Z</time></trkpt><trkpt lat="44.1121739" lon="10.4186739"><ele>275.0</ele><time>2026-04-24T13:36:49.124Z</time></trkpt><trkpt lat="44.112093" lon="10.4186737"><ele>275.0</ele><time>2026-04-24T13:36:51.125Z</time></trkpt><trkpt lat="44.1120121" lon="10.4186678"><ele>274.6666666666667</ele><time>2026-04-24T13:36:53.116Z</time></trkpt><trkpt lat="44.1119321" lon="10.4186575"><ele>274.33333333333337</ele><time>2026-04-24T13:36:55.113Z</time></trkpt><trkpt lat="44.1118522" lon="10.4186475"><ele>274.0</ele><time>2026-04-24T13:36:57.135Z</time></trkpt><trkpt lat="44.1117711" lon="10.4186414"><ele>273.6666666666667</ele><time>2026-04-24T13:36:59.127Z</time></trkpt><trkpt lat="44.1116887" lon="10.418632"><ele>273.3333333333333</ele><time>2026-04-24T13:37:01.127Z</time></trkpt><trkpt lat="44.1116052" lon="10.4186245"><ele>273.0</ele><time>2026-04-24T13:37:03.125Z</time></trkpt><trkpt lat="44.1115201" lon="10.4186164"><ele>273.0</ele><time>2026-04-24T13:37:05.137Z</time></trkpt><trkpt lat="44.1114363" lon="10.4186035"><ele>273.0</ele><time>2026-04-24T13:37:07.137Z</time></trkpt><trkpt lat="44.1113541" lon="10.4185836"><ele>273.0</ele><time>2026-04-24T13:37:09.116Z</time></trkpt><trkpt lat="44.1112679" lon="10.4185547"><ele>273.0</ele><time>2026-04-24T13:37:11.117Z</time></trkpt><trkpt lat="44.1111806" lon="10.4185226"><ele>273.0</ele><time>2026-04-24T13:37:13.112Z</time></trkpt><trkpt lat="44.1110993" lon="10.4184838"><ele>273.0</ele><time>2026-04-24T13:37:15.124Z</time></trkpt><trkpt lat="44.1110195" lon="10.4184549"><ele>273.0</ele><time>2026-04-24T13:37:17.123Z</time></trkpt><trkpt lat="44.110939" lon="10.4184274"><ele>273.0</ele><time>2026-04-24T13:37:19.133Z</time></trkpt><trkpt lat="44.1108617" lon="10.4183966"><ele>273.0</ele><time>2026-04-24T13:37:21.117Z</time></trkpt><trkpt lat="44.1107792" lon="10.4183641"><ele>273.0</ele><time>2026-04-24T13:37:23.126Z</time></trkpt><trkpt lat="44.1106953" lon="10.4183315"><ele>273.0</ele><time>2026-04-24T13:37:25.12Z</time></trkpt><trkpt lat="44.1106148" lon="10.4182952"><ele>273.0</ele><time>2026-04-24T13:37:27.129Z</time></trkpt><trkpt lat="44.1105348" lon="10.4182475"><ele>276.6</ele><time>2026-04-24T13:37:29.127Z</time></trkpt><trkpt lat="44.1104577" lon="10.4181865"><ele>280.20000000000005</ele><time>2026-04-24T13:37:31.122Z</time></trkpt><trkpt lat="44.1103797" lon="10.4181154"><ele>283.8</ele><time>2026-04-24T13:37:33.117Z</time></trkpt><trkpt lat="44.1103036" lon="10.4180438"><ele>287.40000000000003</ele><time>2026-04-24T13:37:35.126Z</time></trkpt><trkpt lat="44.1102345" lon="10.4179596"><ele>291.0</ele><time>2026-04-24T13:37:37.123Z</time></trkpt><trkpt lat="44.1101778" lon="10.4178645"><ele>291.0</ele><time>2026-04-24T13:37:39.112Z</time></trkpt><trkpt lat="44.1101382" lon="10.4177578"><ele>291.0</ele><time>2026-04-24T13:37:41.125Z</time></trkpt><trkpt lat="44.1101088" lon="10.4176454"><ele>291.0</ele><time>2026-04-24T13:37:43.124Z</time></trkpt><trkpt lat="44.1100947" lon="10.4175343"><ele>291.0</ele><time>2026-04-24T13:37:45.122Z</time></trkpt><trkpt lat="44.1100907" lon="10.4174259"><ele>291.0</ele><time>2026-04-24T13:37:47.119Z</time></trkpt><trkpt lat="44.1100943" lon="10.4173192"><ele>291.0</ele><time>2026-04-24T13:37:49.129Z</time></trkpt><trkpt lat="44.1100958" lon="10.4172161"><ele>289.3333333333333</ele><time>2026-04-24T13:37:51.128Z</time></trkpt><trkpt lat="44.1100935" lon="10.4171209"><ele>287.6666666666667</ele><time>2026-04-24T13:37:53.12Z</time></trkpt><trkpt lat="44.1100864" lon="10.4170246"><ele>286.0</ele><time>2026-04-24T13:37:55.116Z</time></trkpt><trkpt lat="44.1100769" lon="10.4169215"><ele>284.33333333333337</ele><time>2026-04-24T13:37:57.119Z</time></trkpt><trkpt lat="44.1100574" lon="10.4168166"><ele>282.6666666666667</ele><time>2026-04-24T13:37:59.119Z</time></trkpt><trkpt lat="44.1100242" lon="10.4167148"><ele>281.0</ele><time>2026-04-24T13:38:01.128Z</time></trkpt><trkpt lat="44.1099795" lon="10.416617"><ele>281.0</ele><time>2026-04-24T13:38:03.13Z</time></trkpt><trkpt lat="44.109929" lon="10.4165275"><ele>281.0</ele><time>2026-04-24T13:38:05.116Z</time></trkpt><trkpt lat="44.1098778" lon="10.4164404"><ele>281.0</ele><time>2026-04-24T13:38:07.137Z</time></trkpt><trkpt lat="44.1098302" lon="10.4163482"><ele>281.0</ele><time>2026-04-24T13:38:09.127Z</time></trkpt><trkpt lat="44.1097813" lon="10.4162601"><ele>281.0</ele><time>2026-04-24T13:38:11.123Z</time></trkpt><trkpt lat="44.1097264" lon="10.4161748"><ele>281.0</ele><time>2026-04-24T13:38:13.13Z</time></trkpt><trkpt lat="44.109672" lon="10.4160871"><ele>282.6666666666667</ele><time>2026-04-24T13:38:15.128Z</time></trkpt><trkpt lat="44.1096251" lon="10.4160088"><ele>284.33333333333337</ele><time>2026-04-24T13:38:17.126Z</time></trkpt><trkpt lat="44.109571" lon="10.4159318"><ele>286.0</ele><time>2026-04-24T13:38:19.118Z</time></trkpt><trkpt lat="44.1095179" lon="10.4158528"><ele>287.6666666666667</ele><time>2026-04-24T13:38:21.133Z</time></trkpt><trkpt lat="44.1094661" lon="10.4157607"><ele>289.3333333333333</ele><time>2026-04-24T13:38:23.129Z</time></trkpt><trkpt lat="44.1094205" lon="10.4156636"><ele>291.0</ele><time>2026-04-24T13:38:25.125Z</time></trkpt><trkpt lat="44.1093729" lon="10.4155509"><ele>289.6666666666667</ele><time>2026-04-24T13:38:27.123Z</time></trkpt><trkpt lat="44.1093227" lon="10.41545"><ele>288.3333333333333</ele><time>2026-04-24T13:38:29.127Z</time></trkpt><trkpt lat="44.1092757" lon="10.4153551"><ele>287.0</ele><time>2026-04-24T13:38:31.116Z</time></trkpt><trkpt lat="44.1092338" lon="10.4152597"><ele>285.66666666666663</ele><time>2026-04-24T13:38:33.115Z</time></trkpt><trkpt lat="44.1091958" lon="10.4151591"><ele>284.3333333333333</ele><time>2026-04-24T13:38:35.124Z</time></trkpt><trkpt lat="44.1091612" lon="10.4150667"><ele>283.0</ele><time>2026-04-24T13:38:37.113Z</time></trkpt><trkpt lat="44.1091298" lon="10.4149599"><ele>283.0</ele><time>2026-04-24T13:38:39.129Z</time></trkpt><trkpt lat="44.1091062" lon="10.4148461"><ele>283.0</ele><time>2026-04-24T13:38:41.121Z</time></trkpt><trkpt lat="44.1090924" lon="10.4147336"><ele>283.0</ele><time>2026-04-24T13:38:43.117Z</time></trkpt><trkpt lat="44.1090854" lon="10.4146206"><ele>283.0</ele><time>2026-04-24T13:38:45.121Z</time></trkpt><trkpt lat="44.1090827" lon="10.4144947"><ele>283.0</ele><time>2026-04-24T13:38:47.124Z</time></trkpt><trkpt lat="44.1090912" lon="10.4143771"><ele>283.0</ele><time>2026-04-24T13:38:49.124Z</time></trkpt><trkpt lat="44.1091001" lon="10.4142564"><ele>282.5</ele><time>2026-04-24T13:38:51.131Z</time></trkpt><trkpt lat="44.1091205" lon="10.4141565"><ele>282.0</ele><time>2026-04-24T13:38:53.131Z</time></trkpt><trkpt lat="44.1091488" lon="10.4140672"><ele>281.5</ele><time>2026-04-24T13:38:55.124Z</time></trkpt><trkpt lat="44.1091942" lon="10.413958"><ele>281.0</ele><time>2026-04-24T13:38:58.116Z</time></trkpt><trkpt lat="44.109246" lon="10.4138636"><ele>280.5</ele><time>2026-04-24T13:39:01.124Z</time></trkpt><trkpt lat="44.1092974" lon="10.4137547"><ele>280.0</ele><time>2026-04-24T13:39:04.137Z</time></trkpt><trkpt lat="44.1093315" lon="10.4136695"><ele>279.85714285714283</ele><time>2026-04-24T13:39:06.122Z</time></trkpt><trkpt lat="44.1093669" lon="10.4135754"><ele>279.7142857142857</ele><time>2026-04-24T13:39:08.131Z</time></trkpt><trkpt lat="44.1094065" lon="10.4134851"><ele>279.57142857142856</ele><time>2026-04-24T13:39:10.125Z</time></trkpt><trkpt lat="44.1094435" lon="10.4133911"><ele>279.42857142857144</ele><time>2026-04-24T13:39:12.121Z</time></trkpt><trkpt lat="44.1094807" lon="10.413303"><ele>279.2857142857143</ele><time>2026-04-24T13:39:14.125Z</time></trkpt><trkpt lat="44.1095273" lon="10.4132336"><ele>279.1428571428571</ele><time>2026-04-24T13:39:16.122Z</time></trkpt><trkpt lat="44.1095836" lon="10.4131837"><ele>279.0</ele><time>2026-04-24T13:39:18.125Z</time></trkpt><trkpt lat="44.1096404" lon="10.4131367"><ele>278.99999999999994</ele><time>2026-04-24T13:39:20.128Z</time></trkpt><trkpt lat="44.1097005" lon="10.4130993"><ele>279.0</ele><time>2026-04-24T13:39:22.111Z</time></trkpt><trkpt lat="44.1097694" lon="10.4130676"><ele>279.0</ele><time>2026-04-24T13:39:24.141Z</time></trkpt><trkpt lat="44.109827" lon="10.4130313"><ele>279.0</ele><time>2026-04-24T13:39:26.113Z</time></trkpt><trkpt lat="44.1098957" lon="10.4130066"><ele>279.0</ele><time>2026-04-24T13:39:28.114Z</time></trkpt><trkpt lat="44.1099607" lon="10.4130335"><ele>278.99999999999994</ele><time>2026-04-24T13:39:30.109Z</time></trkpt><trkpt lat="44.1100189" lon="10.4130775"><ele>279.0</ele><time>2026-04-24T13:39:32.111Z</time></trkpt><trkpt lat="44.1100678" lon="10.4131494"><ele>278.6666666666667</ele><time>2026-04-24T13:39:34.118Z</time></trkpt><trkpt lat="44.1101079" lon="10.4132338"><ele>278.3333333333333</ele><time>2026-04-24T13:39:36.113Z</time></trkpt><trkpt lat="44.1101571" lon="10.413344"><ele>278.0</ele><time>2026-04-24T13:39:39.112Z</time></trkpt><trkpt lat="44.1102" lon="10.4134485"><ele>277.66666666666663</ele><time>2026-04-24T13:39:42.125Z</time></trkpt><trkpt lat="44.1102389" lon="10.4135435"><ele>277.3333333333333</ele><time>2026-04-24T13:39:45.124Z</time></trkpt><trkpt lat="44.110279" lon="10.4136572"><ele>277.0</ele><time>2026-04-24T13:39:48.126Z</time></trkpt><trkpt lat="44.1103115" lon="10.4137355"><ele>277.0</ele><time>2026-04-24T13:39:50.123Z</time></trkpt><trkpt lat="44.110358" lon="10.4138098"><ele>277.0</ele><time>2026-04-24T13:39:52.113Z</time></trkpt><trkpt lat="44.1104166" lon="10.4138541"><ele>277.0</ele><time>2026-04-24T13:39:54.12Z</time></trkpt><trkpt lat="44.1104952" lon="10.4138574"><ele>277.0</ele><time>2026-04-24T13:39:56.124Z</time></trkpt><trkpt lat="44.1105734" lon="10.4138451"><ele>277.0</ele><time>2026-04-24T13:39:58.116Z</time></trkpt><trkpt lat="44.1106463" lon="10.4138139"><ele>277.0</ele><time>2026-04-24T13:40:00.125Z</time></trkpt><trkpt lat="44.1107162" lon="10.4137842"><ele>277.0</ele><time>2026-04-24T13:40:02.124Z</time></trkpt><trkpt lat="44.1107828" lon="10.413753"><ele>277.42857142857144</ele><time>2026-04-24T13:40:04.125Z</time></trkpt><trkpt lat="44.1108459" lon="10.4137205"><ele>277.85714285714283</ele><time>2026-04-24T13:40:06.116Z</time></trkpt><trkpt lat="44.1109055" lon="10.4136856"><ele>278.2857142857143</ele><time>2026-04-24T13:40:08.123Z</time></trkpt><trkpt lat="44.1109835" lon="10.4136453"><ele>278.7142857142857</ele><time>2026-04-24T13:40:11.139Z</time></trkpt><trkpt lat="44.1110557" lon="10.4136047"><ele>279.1428571428571</ele><time>2026-04-24T13:40:14.139Z</time></trkpt><trkpt lat="44.111117" lon="10.4135692"><ele>279.57142857142856</ele><time>2026-04-24T13:40:16.117Z</time></trkpt><trkpt lat="44.1111793" lon="10.4135407"><ele>280.0</ele><time>2026-04-24T13:40:18.118Z</time></trkpt><trkpt lat="44.1112379" lon="10.4134993"><ele>280.0</ele><time>2026-04-24T13:40:20.121Z</time></trkpt><trkpt lat="44.1113" lon="10.4134644"><ele>280.0</ele><time>2026-04-24T13:40:22.114Z</time></trkpt><trkpt lat="44.1113641" lon="10.4134292"><ele>280.0</ele><time>2026-04-24T13:40:24.129Z</time></trkpt><trkpt lat="44.1114301" lon="10.413396"><ele>280.0</ele><time>2026-04-24T13:40:26.124Z</time></trkpt><trkpt lat="44.1114951" lon="10.4133562"><ele>280.0</ele><time>2026-04-24T13:40:28.118Z</time></trkpt><trkpt lat="44.1115592" lon="10.4133144"><ele>280.0</ele><time>2026-04-24T13:40:30.121Z</time></trkpt><trkpt lat="44.1116262" lon="10.4132694"><ele>280.0</ele><time>2026-04-24T13:40:32.13Z</time></trkpt><trkpt lat="44.1116887" lon="10.4132306"><ele>278.5</ele><time>2026-04-24T13:40:34.124Z</time></trkpt><trkpt lat="44.1117548" lon="10.4131867"><ele>277.0</ele><time>2026-04-24T13:40:36.122Z</time></trkpt><trkpt lat="44.1118239" lon="10.4131431"><ele>275.5</ele><time>2026-04-24T13:40:38.12Z</time></trkpt><trkpt lat="44.1118978" lon="10.4131052"><ele>274.0</ele><time>2026-04-24T13:40:40.123Z</time></trkpt><trkpt lat="44.1119716" lon="10.4130557"><ele>272.5</ele><time>2026-04-24T13:40:42.123Z</time></trkpt><trkpt lat="44.1120461" lon="10.4130091"><ele>271.0</ele><time>2026-04-24T13:40:44.124Z</time></trkpt><trkpt lat="44.11212" lon="10.4129719"><ele>271.0</ele><time>2026-04-24T13:40:46.122Z</time></trkpt><trkpt lat="44.1121935" lon="10.4129293"><ele>271.0</ele><time>2026-04-24T13:40:48.114Z</time></trkpt><trkpt lat="44.1122682" lon="10.4128903"><ele>271.0</ele><time>2026-04-24T13:40:50.118Z</time></trkpt><trkpt lat="44.1123392" lon="10.4128476"><ele>271.0</ele><time>2026-04-24T13:40:52.129Z</time></trkpt><trkpt lat="44.112409" lon="10.4128046"><ele>271.0</ele><time>2026-04-24T13:40:54.131Z</time></trkpt><trkpt lat="44.1124806" lon="10.4127649"><ele>271.0</ele><time>2026-04-24T13:40:56.122Z</time></trkpt><trkpt lat="44.1125436" lon="10.4127276"><ele>272.66666666666663</ele><time>2026-04-24T13:40:58.118Z</time></trkpt><trkpt lat="44.112608" lon="10.4126941"><ele>274.3333333333333</ele><time>2026-04-24T13:41:00.124Z</time></trkpt><trkpt lat="44.1127003" lon="10.4126401"><ele>276.0</ele><time>2026-04-24T13:41:03.115Z</time></trkpt><trkpt lat="44.1127666" lon="10.4125915"><ele>277.6666666666667</ele><time>2026-04-24T13:41:05.126Z</time></trkpt><trkpt lat="44.1128361" lon="10.4125446"><ele>279.33333333333337</ele><time>2026-04-24T13:41:07.115Z</time></trkpt><trkpt lat="44.112904" lon="10.4124965"><ele>281.0</ele><time>2026-04-24T13:41:09.122Z</time></trkpt><trkpt lat="44.1129745" lon="10.4124503"><ele>281.0</ele><time>2026-04-24T13:41:11.125Z</time></trkpt><trkpt lat="44.1130462" lon="10.412403"><ele>281.0</ele><time>2026-04-24T13:41:13.12Z</time></trkpt><trkpt lat="44.1131182" lon="10.4123581"><ele>281.0</ele><time>2026-04-24T13:41:15.119Z</time></trkpt><trkpt lat="44.1131931" lon="10.4123125"><ele>281.0</ele><time>2026-04-24T13:41:17.12Z</time></trkpt><trkpt lat="44.1132641" lon="10.4122631"><ele>281.0</ele><time>2026-04-24T13:41:19.119Z</time></trkpt><trkpt lat="44.1133321" lon="10.4122181"><ele>281.0</ele><time>2026-04-24T13:41:21.117Z</time></trkpt><trkpt lat="44.1134009" lon="10.4121711"><ele>281.1666666666667</ele><time>2026-04-24T13:41:23.119Z</time></trkpt><trkpt lat="44.1134662" lon="10.4121215"><ele>281.33333333333337</ele><time>2026-04-24T13:41:25.127Z</time></trkpt><trkpt lat="44.1135265" lon="10.4120677"><ele>281.5</ele><time>2026-04-24T13:41:27.121Z</time></trkpt><trkpt lat="44.1135891" lon="10.4120066"><ele>281.6666666666667</ele><time>2026-04-24T13:41:29.123Z</time></trkpt><trkpt lat="44.1136521" lon="10.4119398"><ele>281.8333333333333</ele><time>2026-04-24T13:41:31.128Z</time></trkpt><trkpt lat="44.1137131" lon="10.411875"><ele>282.0</ele><time>2026-04-24T13:41:33.121Z</time></trkpt><trkpt lat="44.1137743" lon="10.4118149"><ele>282.0</ele><time>2026-04-24T13:41:35.122Z</time></trkpt><trkpt lat="44.1138363" lon="10.4117509"><ele>282.0</ele><time>2026-04-24T13:41:37.124Z</time></trkpt><trkpt lat="44.1138992" lon="10.411688"><ele>282.0</ele><time>2026-04-24T13:41:39.114Z</time></trkpt><trkpt lat="44.1139618" lon="10.4116285"><ele>282.0</ele><time>2026-04-24T13:41:41.125Z</time></trkpt><trkpt lat="44.1140214" lon="10.4115664"><ele>282.0</ele><time>2026-04-24T13:41:43.13Z</time></trkpt><trkpt lat="44.1140766" lon="10.4115066"><ele>282.0</ele><time>2026-04-24T13:41:45.121Z</time></trkpt><trkpt lat="44.1141352" lon="10.4114473"><ele>282.0</ele><time>2026-04-24T13:41:47.122Z</time></trkpt><trkpt lat="44.1141945" lon="10.4113845"><ele>281.3333333333333</ele><time>2026-04-24T13:41:49.119Z</time></trkpt><trkpt lat="44.1142541" lon="10.4113199"><ele>280.6666666666667</ele><time>2026-04-24T13:41:51.128Z</time></trkpt><trkpt lat="44.1143152" lon="10.4112579"><ele>280.0</ele><time>2026-04-24T13:41:53.123Z</time></trkpt><trkpt lat="44.1143747" lon="10.4111941"><ele>279.33333333333337</ele><time>2026-04-24T13:41:55.113Z</time></trkpt><trkpt lat="44.1144359" lon="10.4111341"><ele>278.6666666666667</ele><time>2026-04-24T13:41:57.116Z</time></trkpt><trkpt lat="44.1144953" lon="10.4110689"><ele>278.0</ele><time>2026-04-24T13:41:59.116Z</time></trkpt><trkpt lat="44.1145565" lon="10.4110065"><ele>278.0</ele><time>2026-04-24T13:42:01.124Z</time></trkpt><trkpt lat="44.1146187" lon="10.4109492"><ele>278.0</ele><time>2026-04-24T13:42:03.122Z</time></trkpt><trkpt lat="44.1146805" lon="10.4109053"><ele>278.0</ele><time>2026-04-24T13:42:05.127Z</time></trkpt><trkpt lat="44.1147419" lon="10.4108651"><ele>278.0</ele><time>2026-04-24T13:42:07.123Z</time></trkpt><trkpt lat="44.1148252" lon="10.4108148"><ele>278.0</ele><time>2026-04-24T13:42:10.113Z</time></trkpt><trkpt lat="44.1148821" lon="10.4107748"><ele>278.0</ele><time>2026-04-24T13:42:12.118Z</time></trkpt><trkpt lat="44.1149427" lon="10.4107465"><ele>278.0</ele><time>2026-04-24T13:42:14.129Z</time></trkpt><trkpt lat="44.1150038" lon="10.4107175"><ele>280.0</ele><time>2026-04-24T13:42:16.119Z</time></trkpt><trkpt lat="44.1150641" lon="10.4106861"><ele>282.0</ele><time>2026-04-24T13:42:18.122Z</time></trkpt><trkpt lat="44.1151247" lon="10.410659"><ele>284.0</ele><time>2026-04-24T13:42:20.119Z</time></trkpt><trkpt lat="44.1151869" lon="10.4106285"><ele>286.0</ele><time>2026-04-24T13:42:22.118Z</time></trkpt><trkpt lat="44.1152569" lon="10.4106077"><ele>288.0</ele><time>2026-04-24T13:42:24.123Z</time></trkpt><trkpt lat="44.1153292" lon="10.4106018"><ele>290.0</ele><time>2026-04-24T13:42:26.117Z</time></trkpt><trkpt lat="44.115404" lon="10.4105971"><ele>292.0</ele><time>2026-04-24T13:42:28.123Z</time></trkpt><trkpt lat="44.1154784" lon="10.4105977"><ele>292.0</ele><time>2026-04-24T13:42:30.126Z</time></trkpt><trkpt lat="44.1155532" lon="10.4105911"><ele>292.0</ele><time>2026-04-24T13:42:32.129Z</time></trkpt><trkpt lat="44.1156335" lon="10.4105647"><ele>292.0</ele><time>2026-04-24T13:42:34.117Z</time></trkpt><trkpt lat="44.1157113" lon="10.4105232"><ele>292.0</ele><time>2026-04-24T13:42:36.121Z</time></trkpt><trkpt lat="44.1157855" lon="10.4104789"><ele>292.0</ele><time>2026-04-24T13:42:38.12Z</time></trkpt><trkpt lat="44.1158557" lon="10.4104325"><ele>292.0</ele><time>2026-04-24T13:42:40.12Z</time></trkpt><trkpt lat="44.1159233" lon="10.4103929"><ele>291.2857142857143</ele><time>2026-04-24T13:42:42.121Z</time></trkpt><trkpt lat="44.115987" lon="10.41036"><ele>290.57142857142856</ele><time>2026-04-24T13:42:44.124Z</time></trkpt><trkpt lat="44.1160526" lon="10.4103204"><ele>289.8571428571429</ele><time>2026-04-24T13:42:46.113Z</time></trkpt><trkpt lat="44.1161222" lon="10.4102758"><ele>289.1428571428571</ele><time>2026-04-24T13:42:48.121Z</time></trkpt><trkpt lat="44.1161949" lon="10.4102322"><ele>288.42857142857144</ele><time>2026-04-24T13:42:50.146Z</time></trkpt><trkpt lat="44.1162643" lon="10.4101895"><ele>287.7142857142857</ele><time>2026-04-24T13:42:52.132Z</time></trkpt><trkpt lat="44.1163309" lon="10.4101516"><ele>287.0</ele><time>2026-04-24T13:42:54.132Z</time></trkpt><trkpt lat="44.1164022" lon="10.4101071"><ele>287.0</ele><time>2026-04-24T13:42:56.117Z</time></trkpt><trkpt lat="44.1164672" lon="10.4100533"><ele>287.0</ele><time>2026-04-24T13:42:58.125Z</time></trkpt><trkpt lat="44.1165382" lon="10.4100208"><ele>287.0</ele><time>2026-04-24T13:43:00.116Z</time></trkpt><trkpt lat="44.1166232" lon="10.4099789"><ele>287.0</ele><time>2026-04-24T13:43:03.126Z</time></trkpt><trkpt lat="44.1166947" lon="10.4099593"><ele>287.0</ele><time>2026-04-24T13:43:06.12Z</time></trkpt><trkpt lat="44.1167803" lon="10.4099387"><ele>287.0</ele><time>2026-04-24T13:43:09.133Z</time></trkpt><trkpt lat="44.1168432" lon="10.4099114"><ele>287.57142857142856</ele><time>2026-04-24T13:43:11.12Z</time></trkpt><trkpt lat="44.1169061" lon="10.4098899"><ele>288.1428571428571</ele><time>2026-04-24T13:43:13.117Z</time></trkpt><trkpt lat="44.1169673" lon="10.4098651"><ele>288.7142857142857</ele><time>2026-04-24T13:43:15.128Z</time></trkpt><trkpt lat="44.1170345" lon="10.409837"><ele>289.2857142857143</ele><time>2026-04-24T13:43:17.136Z</time></trkpt><trkpt lat="44.1171018" lon="10.4098156"><ele>289.85714285714283</ele><time>2026-04-24T13:43:19.121Z</time></trkpt><trkpt lat="44.1171733" lon="10.4098002"><ele>290.42857142857144</ele><time>2026-04-24T13:43:21.111Z</time></trkpt><trkpt lat="44.1172409" lon="10.4097811"><ele>291.0</ele><time>2026-04-24T13:43:23.149Z</time></trkpt><trkpt lat="44.1173097" lon="10.409759"><ele>291.0</ele><time>2026-04-24T13:43:25.123Z</time></trkpt><trkpt lat="44.1173736" lon="10.4097401"><ele>291.0</ele><time>2026-04-24T13:43:27.115Z</time></trkpt><trkpt lat="44.1174476" lon="10.4097109"><ele>291.0</ele><time>2026-04-24T13:43:29.12Z</time></trkpt><trkpt lat="44.1175193" lon="10.4096912"><ele>291.0</ele><time>2026-04-24T13:43:31.118Z</time></trkpt><trkpt lat="44.1175844" lon="10.4096736"><ele>291.0</ele><time>2026-04-24T13:43:33.118Z</time></trkpt><trkpt lat="44.1176678" lon="10.4096547"><ele>291.0</ele><time>2026-04-24T13:43:36.118Z</time></trkpt><trkpt lat="44.1177439" lon="10.4096453"><ele>291.0</ele><time>2026-04-24T13:43:39.116Z</time></trkpt><trkpt lat="44.1178106" lon="10.4096497"><ele>290.5</ele><time>2026-04-24T13:43:42.131Z</time></trkpt><trkpt lat="44.1178854" lon="10.4096777"><ele>290.0</ele><time>2026-04-24T13:43:45.118Z</time></trkpt><trkpt lat="44.1179533" lon="10.4097265"><ele>289.5</ele><time>2026-04-24T13:43:48.131Z</time></trkpt><trkpt lat="44.1180119" lon="10.4097728"><ele>289.0</ele><time>2026-04-24T13:43:51.118Z</time></trkpt><trkpt lat="44.1180902" lon="10.4098161"><ele>288.5</ele><time>2026-04-24T13:43:54.127Z</time></trkpt><trkpt lat="44.118164" lon="10.4098674"><ele>288.0</ele><time>2026-04-24T13:43:57.125Z</time></trkpt><trkpt lat="44.1182227" lon="10.4099351"><ele>289.14285714285717</ele><time>2026-04-24T13:44:00.118Z</time></trkpt><trkpt lat="44.1182732" lon="10.4100111"><ele>290.2857142857143</ele><time>2026-04-24T13:44:03.112Z</time></trkpt><trkpt lat="44.1183115" lon="10.410104"><ele>291.42857142857144</ele><time>2026-04-24T13:44:06.126Z</time></trkpt><trkpt lat="44.118335" lon="10.4101904"><ele>292.57142857142856</ele><time>2026-04-24T13:44:09.124Z</time></trkpt><trkpt lat="44.1183474" lon="10.4102822"><ele>293.7142857142857</ele><time>2026-04-24T13:44:12.111Z</time></trkpt><trkpt lat="44.1183613" lon="10.4103811"><ele>294.8571428571429</ele><time>2026-04-24T13:44:15.114Z</time></trkpt><trkpt lat="44.1183732" lon="10.4104817"><ele>296.0</ele><time>2026-04-24T13:44:18.113Z</time></trkpt><trkpt lat="44.1183955" lon="10.4105733"><ele>297.5</ele><time>2026-04-24T13:44:21.127Z</time></trkpt><trkpt lat="44.1184359" lon="10.4106837"><ele>299.0</ele><time>2026-04-24T13:44:24.139Z</time></trkpt><trkpt lat="44.1184914" lon="10.410773"><ele>300.5</ele><time>2026-04-24T13:44:27.127Z</time></trkpt><trkpt lat="44.1185566" lon="10.4108623"><ele>302.0</ele><time>2026-04-24T13:44:30.119Z</time></trkpt><trkpt lat="44.1186007" lon="10.4109264"><ele>303.5</ele><time>2026-04-24T13:44:32.113Z</time></trkpt><trkpt lat="44.1186647" lon="10.4110089"><ele>305.0</ele><time>2026-04-24T13:44:35.126Z</time></trkpt><trkpt lat="44.1187349" lon="10.411075"><ele>305.0</ele><time>2026-04-24T13:44:38.128Z</time></trkpt><trkpt lat="44.1188093" lon="10.4111049"><ele>305.0</ele><time>2026-04-24T13:44:41.112Z</time></trkpt><trkpt lat="44.1188871" lon="10.4111246"><ele>305.0</ele><time>2026-04-24T13:44:44.121Z</time></trkpt><trkpt lat="44.118961" lon="10.4111244"><ele>305.0</ele><time>2026-04-24T13:44:47.116Z</time></trkpt><trkpt lat="44.1190406" lon="10.4111171"><ele>305.0</ele><time>2026-04-24T13:44:50.122Z</time></trkpt><trkpt lat="44.1191192" lon="10.4111107"><ele>305.0</ele><time>2026-04-24T13:44:53.117Z</time></trkpt><trkpt lat="44.1192055" lon="10.4111023"><ele>305.83333333333337</ele><time>2026-04-24T13:44:56.124Z</time></trkpt><trkpt lat="44.1192919" lon="10.4110835"><ele>306.6666666666667</ele><time>2026-04-24T13:44:59.124Z</time></trkpt><trkpt lat="44.1193754" lon="10.4110688"><ele>307.5</ele><time>2026-04-24T13:45:02.12Z</time></trkpt><trkpt lat="44.1194515" lon="10.4110548"><ele>308.3333333333333</ele><time>2026-04-24T13:45:05.115Z</time></trkpt><trkpt lat="44.1195249" lon="10.4110592"><ele>309.16666666666663</ele><time>2026-04-24T13:45:08.115Z</time></trkpt><trkpt lat="44.1196043" lon="10.4110824"><ele>310.0</ele><time>2026-04-24T13:45:11.117Z</time></trkpt><trkpt lat="44.1196836" lon="10.4111371"><ele>310.0</ele><time>2026-04-24T13:45:14.122Z</time></trkpt><trkpt lat="44.1197334" lon="10.4111926"><ele>310.0</ele><time>2026-04-24T13:45:16.113Z</time></trkpt><trkpt lat="44.1197732" lon="10.4112646"><ele>310.0</ele><time>2026-04-24T13:45:18.123Z</time></trkpt><trkpt lat="44.1198061" lon="10.4113746"><ele>310.0</ele><time>2026-04-24T13:45:21.116Z</time></trkpt><trkpt lat="44.1198165" lon="10.4114839"><ele>310.0</ele><time>2026-04-24T13:45:24.112Z</time></trkpt><trkpt lat="44.1198272" lon="10.4115925"><ele>310.0</ele><time>2026-04-24T13:45:27.124Z</time></trkpt><trkpt lat="44.1198668" lon="10.4116836"><ele>310.0</ele><time>2026-04-24T13:45:30.123Z</time></trkpt><trkpt lat="44.1199387" lon="10.4117107"><ele>312.0</ele><time>2026-04-24T13:45:33.112Z</time></trkpt><trkpt lat="44.1199888" lon="10.4116429"><ele>314.0</ele><time>2026-04-24T13:45:36.117Z</time></trkpt><trkpt lat="44.1200048" lon="10.4115371"><ele>316.0</ele><time>2026-04-24T13:45:39.119Z</time></trkpt><trkpt lat="44.120003" lon="10.4114177"><ele>318.0</ele><time>2026-04-24T13:45:42.125Z</time></trkpt><trkpt lat="44.1199885" lon="10.4113016"><ele>320.0</ele><time>2026-04-24T13:45:45.123Z</time></trkpt><trkpt lat="44.1199711" lon="10.411203"><ele>322.0</ele><time>2026-04-24T13:45:48.114Z</time></trkpt><trkpt lat="44.1199368" lon="10.4110936"><ele>320.0</ele><time>2026-04-24T13:45:51.124Z</time></trkpt><trkpt lat="44.1198854" lon="10.4109906"><ele>318.0</ele><time>2026-04-24T13:45:54.126Z</time></trkpt><trkpt lat="44.119823" lon="10.4109007"><ele>316.0</ele><time>2026-04-24T13:45:57.117Z</time></trkpt><trkpt lat="44.1197462" lon="10.4108444"><ele>314.0</ele><time>2026-04-24T13:46:00.13Z</time></trkpt><trkpt lat="44.1196842" lon="10.4108243"><ele>312.0</ele><time>2026-04-24T13:46:02.116Z</time></trkpt><trkpt lat="44.1195951" lon="10.4108102"><ele>310.0</ele><time>2026-04-24T13:46:05.111Z</time></trkpt><trkpt lat="44.1195063" lon="10.4107916"><ele>310.0</ele><time>2026-04-24T13:46:08.12Z</time></trkpt><trkpt lat="44.1194187" lon="10.4107776"><ele>310.0</ele><time>2026-04-24T13:46:11.113Z</time></trkpt><trkpt lat="44.1193298" lon="10.4107589"><ele>310.0</ele><time>2026-04-24T13:46:14.11Z</time></trkpt><trkpt lat="44.119241" lon="10.4107244"><ele>310.0</ele><time>2026-04-24T13:46:17.128Z</time></trkpt><trkpt lat="44.1191711" lon="10.4106446"><ele>310.0</ele><time>2026-04-24T13:46:20.111Z</time></trkpt><trkpt lat="44.1191222" lon="10.410539"><ele>310.7142857142857</ele><time>2026-04-24T13:46:23.113Z</time></trkpt><trkpt lat="44.1190985" lon="10.4104135"><ele>311.42857142857144</ele><time>2026-04-24T13:46:26.123Z</time></trkpt><trkpt lat="44.1191038" lon="10.4103193"><ele>312.1428571428571</ele><time>2026-04-24T13:46:28.116Z</time></trkpt><trkpt lat="44.1191247" lon="10.410227"><ele>312.8571428571429</ele><time>2026-04-24T13:46:30.12Z</time></trkpt><trkpt lat="44.1191577" lon="10.4101449"><ele>313.57142857142856</ele><time>2026-04-24T13:46:32.124Z</time></trkpt><trkpt lat="44.1192076" lon="10.410073"><ele>314.2857142857143</ele><time>2026-04-24T13:46:34.123Z</time></trkpt><trkpt lat="44.1192613" lon="10.4100058"><ele>315.0</ele><time>2026-04-24T13:46:36.122Z</time></trkpt><trkpt lat="44.1193222" lon="10.409947"><ele>315.0</ele><time>2026-04-24T13:46:38.123Z</time></trkpt><trkpt lat="44.1193856" lon="10.409906"><ele>315.0</ele><time>2026-04-24T13:46:40.119Z</time></trkpt><trkpt lat="44.1194688" lon="10.4098419"><ele>315.0</ele><time>2026-04-24T13:46:43.116Z</time></trkpt><trkpt lat="44.1195313" lon="10.4097898"><ele>315.0</ele><time>2026-04-24T13:46:45.116Z</time></trkpt><trkpt lat="44.1195858" lon="10.4097406"><ele>315.0</ele><time>2026-04-24T13:46:47.134Z</time></trkpt><trkpt lat="44.1196439" lon="10.4096871"><ele>315.0</ele><time>2026-04-24T13:46:49.128Z</time></trkpt><trkpt lat="44.1197041" lon="10.409632"><ele>315.0</ele><time>2026-04-24T13:46:51.115Z</time></trkpt><trkpt lat="44.1197682" lon="10.4095844"><ele>315.42857142857144</ele><time>2026-04-24T13:46:53.115Z</time></trkpt><trkpt lat="44.1198295" lon="10.4095384"><ele>315.8571428571429</ele><time>2026-04-24T13:46:55.112Z</time></trkpt><trkpt lat="44.1198899" lon="10.4094886"><ele>316.2857142857143</ele><time>2026-04-24T13:46:57.112Z</time></trkpt><trkpt lat="44.1199508" lon="10.4094436"><ele>316.7142857142857</ele><time>2026-04-24T13:46:59.132Z</time></trkpt><trkpt lat="44.1200105" lon="10.409398"><ele>317.14285714285717</ele><time>2026-04-24T13:47:01.123Z</time></trkpt><trkpt lat="44.1200706" lon="10.4093522"><ele>317.57142857142856</ele><time>2026-04-24T13:47:03.131Z</time></trkpt><trkpt lat="44.1201296" lon="10.409302"><ele>318.0</ele><time>2026-04-24T13:47:05.131Z</time></trkpt><trkpt lat="44.1201932" lon="10.4092582"><ele>318.0</ele><time>2026-04-24T13:47:07.125Z</time></trkpt><trkpt lat="44.1202556" lon="10.40921"><ele>318.0</ele><time>2026-04-24T13:47:09.128Z</time></trkpt><trkpt lat="44.120321" lon="10.4091673"><ele>318.0</ele><time>2026-04-24T13:47:11.119Z</time></trkpt><trkpt lat="44.1203884" lon="10.4091387"><ele>318.0</ele><time>2026-04-24T13:47:13.126Z</time></trkpt><trkpt lat="44.1204594" lon="10.4091073"><ele>318.0</ele><time>2026-04-24T13:47:15.118Z</time></trkpt><trkpt lat="44.1205349" lon="10.4090829"><ele>318.0</ele><time>2026-04-24T13:47:17.123Z</time></trkpt><trkpt lat="44.120609" lon="10.4090661"><ele>318.0</ele><time>2026-04-24T13:47:19.132Z</time></trkpt><trkpt lat="44.1206855" lon="10.4090616"><ele>319.2857142857143</ele><time>2026-04-24T13:47:21.114Z</time></trkpt><trkpt lat="44.1207558" lon="10.4090594"><ele>320.5714285714286</ele><time>2026-04-24T13:47:23.121Z</time></trkpt><trkpt lat="44.1208354" lon="10.4090684"><ele>321.8571428571429</ele><time>2026-04-24T13:47:25.128Z</time></trkpt><trkpt lat="44.1209089" lon="10.4090815"><ele>323.1428571428571</ele><time>2026-04-24T13:47:27.116Z</time></trkpt><trkpt lat="44.1209815" lon="10.4090995"><ele>324.42857142857144</ele><time>2026-04-24T13:47:29.114Z</time></trkpt><trkpt lat="44.1210551" lon="10.4091118"><ele>325.7142857142857</ele><time>2026-04-24T13:47:31.112Z</time></trkpt><trkpt lat="44.1211252" lon="10.4091195"><ele>327.0</ele><time>2026-04-24T13:47:33.112Z</time></trkpt><trkpt lat="44.1212015" lon="10.409129"><ele>327.0</ele><time>2026-04-24T13:47:35.115Z</time></trkpt><trkpt lat="44.1212815" lon="10.4091423"><ele>327.0</ele><time>2026-04-24T13:47:37.118Z</time></trkpt><trkpt lat="44.1213618" lon="10.4091544"><ele>327.0</ele><time>2026-04-24T13:47:39.112Z</time></trkpt><trkpt lat="44.1214428" lon="10.409161"><ele>327.0</ele><time>2026-04-24T13:47:41.123Z</time></trkpt><trkpt lat="44.1215252" lon="10.409164"><ele>327.0</ele><time>2026-04-24T13:47:43.128Z</time></trkpt><trkpt lat="44.1216051" lon="10.4091667"><ele>327.0</ele><time>2026-04-24T13:47:45.114Z</time></trkpt><trkpt lat="44.1216842" lon="10.4091755"><ele>327.5</ele><time>2026-04-24T13:47:47.121Z</time></trkpt><trkpt lat="44.1217647" lon="10.4091915"><ele>328.0</ele><time>2026-04-24T13:47:49.119Z</time></trkpt><trkpt lat="44.1218454" lon="10.4092042"><ele>328.5</ele><time>2026-04-24T13:47:51.113Z</time></trkpt><trkpt lat="44.1219257" lon="10.4092165"><ele>329.0</ele><time>2026-04-24T13:47:53.117Z</time></trkpt><trkpt lat="44.122005" lon="10.4092322"><ele>329.5</ele><time>2026-04-24T13:47:55.119Z</time></trkpt><trkpt lat="44.122085" lon="10.4092423"><ele>330.0</ele><time>2026-04-24T13:47:57.112Z</time></trkpt><trkpt lat="44.1221637" lon="10.4092527"><ele>330.0</ele><time>2026-04-24T13:47:59.115Z</time></trkpt><trkpt lat="44.1222444" lon="10.4092689"><ele>330.0</ele><time>2026-04-24T13:48:01.126Z</time></trkpt><trkpt lat="44.1223244" lon="10.40928"><ele>330.0</ele><time>2026-04-24T13:48:03.111Z</time></trkpt><trkpt lat="44.1224012" lon="10.4092945"><ele>330.0</ele><time>2026-04-24T13:48:05.113Z</time></trkpt><trkpt lat="44.122478" lon="10.4093055"><ele>330.0</ele><time>2026-04-24T13:48:07.128Z</time></trkpt><trkpt lat="44.1225567" lon="10.4093219"><ele>330.0</ele><time>2026-04-24T13:48:09.141Z</time></trkpt><trkpt lat="44.1226321" lon="10.4093311"><ele>330.5</ele><time>2026-04-24T13:48:11.113Z</time></trkpt><trkpt lat="44.1227114" lon="10.4093416"><ele>331.0</ele><time>2026-04-24T13:48:13.114Z</time></trkpt><trkpt lat="44.1227922" lon="10.4093474"><ele>331.5</ele><time>2026-04-24T13:48:15.112Z</time></trkpt><trkpt lat="44.1228688" lon="10.4093591"><ele>332.0</ele><time>2026-04-24T13:48:17.136Z</time></trkpt><trkpt lat="44.1229434" lon="10.409372"><ele>332.5</ele><time>2026-04-24T13:48:19.112Z</time></trkpt><trkpt lat="44.1230175" lon="10.4093972"><ele>333.0</ele><time>2026-04-24T13:48:21.125Z</time></trkpt><trkpt lat="44.1230903" lon="10.4094259"><ele>333.0</ele><time>2026-04-24T13:48:23.112Z</time></trkpt><trkpt lat="44.123165" lon="10.4094592"><ele>333.0</ele><time>2026-04-24T13:48:25.121Z</time></trkpt><trkpt lat="44.1232434" lon="10.4094885"><ele>333.0</ele><time>2026-04-24T13:48:27.114Z</time></trkpt><trkpt lat="44.1233197" lon="10.4095165"><ele>333.0</ele><time>2026-04-24T13:48:29.119Z</time></trkpt><trkpt lat="44.1233986" lon="10.40954"><ele>333.0</ele><time>2026-04-24T13:48:31.111Z</time></trkpt><trkpt lat="44.1234773" lon="10.4095639"><ele>333.0</ele><time>2026-04-24T13:48:33.121Z</time></trkpt><trkpt lat="44.1235477" lon="10.4095894"><ele>333.3333333333333</ele><time>2026-04-24T13:48:35.11Z</time></trkpt><trkpt lat="44.1236259" lon="10.409612"><ele>333.6666666666667</ele><time>2026-04-24T13:48:37.121Z</time></trkpt><trkpt lat="44.1237096" lon="10.4096357"><ele>334.0</ele><time>2026-04-24T13:48:39.138Z</time></trkpt><trkpt lat="44.1237908" lon="10.4096627"><ele>334.33333333333337</ele><time>2026-04-24T13:48:41.115Z</time></trkpt><trkpt lat="44.1238705" lon="10.4096926"><ele>334.6666666666667</ele><time>2026-04-24T13:48:43.121Z</time></trkpt><trkpt lat="44.1239466" lon="10.4097252"><ele>335.0</ele><time>2026-04-24T13:48:45.116Z</time></trkpt><trkpt lat="44.1240218" lon="10.409752"><ele>335.83333333333337</ele><time>2026-04-24T13:48:47.121Z</time></trkpt><trkpt lat="44.1240946" lon="10.4097849"><ele>336.6666666666667</ele><time>2026-04-24T13:48:49.128Z</time></trkpt><trkpt lat="44.12417" lon="10.4098211"><ele>337.5</ele><time>2026-04-24T13:48:51.113Z</time></trkpt><trkpt lat="44.1242443" lon="10.4098603"><ele>338.3333333333333</ele><time>2026-04-24T13:48:53.115Z</time></trkpt><trkpt lat="44.1243168" lon="10.4099015"><ele>339.16666666666663</ele><time>2026-04-24T13:48:55.114Z</time></trkpt><trkpt lat="44.1243922" lon="10.4099402"><ele>340.0</ele><time>2026-04-24T13:48:57.121Z</time></trkpt><trkpt lat="44.1244649" lon="10.4099719"><ele>340.0</ele><time>2026-04-24T13:48:59.133Z</time></trkpt><trkpt lat="44.1245408" lon="10.4100097"><ele>340.0</ele><time>2026-04-24T13:49:01.123Z</time></trkpt><trkpt lat="44.1246124" lon="10.4100678"><ele>340.0</ele><time>2026-04-24T13:49:03.114Z</time></trkpt><trkpt lat="44.1246683" lon="10.4101625"><ele>340.0</ele><time>2026-04-24T13:49:05.123Z</time></trkpt><trkpt lat="44.1247098" lon="10.4102674"><ele>340.0</ele><time>2026-04-24T13:49:07.123Z</time></trkpt><trkpt lat="44.1247634" lon="10.410355"><ele>340.0</ele><time>2026-04-24T13:49:09.126Z</time></trkpt><trkpt lat="44.124833" lon="10.4104155"><ele>340.66666666666663</ele><time>2026-04-24T13:49:11.139Z</time></trkpt><trkpt lat="44.1249128" lon="10.4104437"><ele>341.3333333333333</ele><time>2026-04-24T13:49:13.123Z</time></trkpt><trkpt lat="44.1249959" lon="10.4104399"><ele>342.0</ele><time>2026-04-24T13:49:15.12Z</time></trkpt><trkpt lat="44.1250761" lon="10.4104112"><ele>342.6666666666667</ele><time>2026-04-24T13:49:17.115Z</time></trkpt><trkpt lat="44.1251583" lon="10.4103895"><ele>343.33333333333337</ele><time>2026-04-24T13:49:19.11Z</time></trkpt><trkpt lat="44.1252414" lon="10.4103865"><ele>344.0</ele><time>2026-04-24T13:49:21.114Z</time></trkpt><trkpt lat="44.1253249" lon="10.410412"><ele>344.0</ele><time>2026-04-24T13:49:23.111Z</time></trkpt><trkpt lat="44.1254035" lon="10.410449"><ele>344.0</ele><time>2026-04-24T13:49:25.12Z</time></trkpt><trkpt lat="44.1254859" lon="10.4104822"><ele>344.0</ele><time>2026-04-24T13:49:27.111Z</time></trkpt><trkpt lat="44.1255634" lon="10.4105183"><ele>344.0</ele><time>2026-04-24T13:49:29.121Z</time></trkpt><trkpt lat="44.1256407" lon="10.4105516"><ele>344.0</ele><time>2026-04-24T13:49:31.116Z</time></trkpt><trkpt lat="44.1257148" lon="10.4105889"><ele>344.0</ele><time>2026-04-24T13:49:33.114Z</time></trkpt><trkpt lat="44.1257887" lon="10.4106259"><ele>344.6666666666667</ele><time>2026-04-24T13:49:35.125Z</time></trkpt><trkpt lat="44.1258708" lon="10.4106575"><ele>345.33333333333337</ele><time>2026-04-24T13:49:37.125Z</time></trkpt><trkpt lat="44.1259501" lon="10.4106886"><ele>346.0</ele><time>2026-04-24T13:49:39.115Z</time></trkpt><trkpt lat="44.1260236" lon="10.4107121"><ele>346.6666666666667</ele><time>2026-04-24T13:49:41.127Z</time></trkpt><trkpt lat="44.1261079" lon="10.4107309"><ele>347.3333333333333</ele><time>2026-04-24T13:49:43.126Z</time></trkpt><trkpt lat="44.1261829" lon="10.4107502"><ele>348.0</ele><time>2026-04-24T13:49:45.132Z</time></trkpt><trkpt lat="44.1262475" lon="10.410766"><ele>348.0</ele><time>2026-04-24T13:49:47.128Z</time></trkpt><trkpt lat="44.1263151" lon="10.4107875"><ele>348.0</ele><time>2026-04-24T13:49:49.124Z</time></trkpt><trkpt lat="44.1263834" lon="10.4108058"><ele>348.0</ele><time>2026-04-24T13:49:51.114Z</time></trkpt><trkpt lat="44.1264565" lon="10.4108234"><ele>348.0</ele><time>2026-04-24T13:49:53.12Z</time></trkpt><trkpt lat="44.1265314" lon="10.4108438"><ele>348.0</ele><time>2026-04-24T13:49:55.113Z</time></trkpt><trkpt lat="44.1266061" lon="10.4108683"><ele>348.0</ele><time>2026-04-24T13:49:57.113Z</time></trkpt><trkpt lat="44.1266833" lon="10.4108934"><ele>348.0</ele><time>2026-04-24T13:49:59.118Z</time></trkpt><trkpt lat="44.1267613" lon="10.4109162"><ele>348.1666666666667</ele><time>2026-04-24T13:50:01.114Z</time></trkpt><trkpt lat="44.1268327" lon="10.4109351"><ele>348.3333333333333</ele><time>2026-04-24T13:50:03.111Z</time></trkpt><trkpt lat="44.1269076" lon="10.4109601"><ele>348.5</ele><time>2026-04-24T13:50:05.129Z</time></trkpt><trkpt lat="44.126985" lon="10.4109818"><ele>348.66666666666663</ele><time>2026-04-24T13:50:07.112Z</time></trkpt><trkpt lat="44.1270614" lon="10.4110039"><ele>348.8333333333333</ele><time>2026-04-24T13:50:09.127Z</time></trkpt><trkpt lat="44.1271414" lon="10.4110233"><ele>349.0</ele><time>2026-04-24T13:50:11.121Z</time></trkpt><trkpt lat="44.1272216" lon="10.411046"><ele>349.0</ele><time>2026-04-24T13:50:13.113Z</time></trkpt><trkpt lat="44.1272998" lon="10.4110758"><ele>349.0</ele><time>2026-04-24T13:50:15.12Z</time></trkpt><trkpt lat="44.1273755" lon="10.4111048"><ele>349.0</ele><time>2026-04-24T13:50:17.11Z</time></trkpt><trkpt lat="44.127453" lon="10.4111394"><ele>349.0</ele><time>2026-04-24T13:50:19.113Z</time></trkpt><trkpt lat="44.1275313" lon="10.4111709"><ele>349.0</ele><time>2026-04-24T13:50:21.109Z</time></trkpt><trkpt lat="44.1276096" lon="10.4111994"><ele>349.0</ele><time>2026-04-24T13:50:23.117Z</time></trkpt><trkpt lat="44.1276868" lon="10.4112247"><ele>349.16666666666663</ele><time>2026-04-24T13:50:25.119Z</time></trkpt><trkpt lat="44.1277639" lon="10.4112491"><ele>349.3333333333333</ele><time>2026-04-24T13:50:27.119Z</time></trkpt><trkpt lat="44.1278382" lon="10.4112684"><ele>349.5</ele><time>2026-04-24T13:50:29.124Z</time></trkpt><trkpt lat="44.1279114" lon="10.4112896"><ele>349.6666666666667</ele><time>2026-04-24T13:50:31.134Z</time></trkpt><trkpt lat="44.1279872" lon="10.4113095"><ele>349.83333333333337</ele><time>2026-04-24T13:50:33.123Z</time></trkpt><trkpt lat="44.1280591" lon="10.4113333"><ele>350.0</ele><time>2026-04-24T13:50:35.117Z</time></trkpt><trkpt lat="44.1281293" lon="10.4113567"><ele>350.33333333333337</ele><time>2026-04-24T13:50:37.125Z</time></trkpt><trkpt lat="44.1282067" lon="10.4113771"><ele>350.6666666666667</ele><time>2026-04-24T13:50:39.136Z</time></trkpt><trkpt lat="44.1282838" lon="10.4113965"><ele>351.0</ele><time>2026-04-24T13:50:41.121Z</time></trkpt><trkpt lat="44.1283604" lon="10.411422"><ele>351.3333333333333</ele><time>2026-04-24T13:50:43.11Z</time></trkpt><trkpt lat="44.1284411" lon="10.4114327"><ele>351.66666666666663</ele><time>2026-04-24T13:50:45.123Z</time></trkpt><trkpt lat="44.1285211" lon="10.4114341"><ele>352.0</ele><time>2026-04-24T13:50:47.126Z</time></trkpt><trkpt lat="44.1286028" lon="10.4114323"><ele>352.16666666666663</ele><time>2026-04-24T13:50:49.112Z</time></trkpt><trkpt lat="44.1286813" lon="10.4114375"><ele>352.3333333333333</ele><time>2026-04-24T13:50:51.12Z</time></trkpt><trkpt lat="44.1287582" lon="10.4114593"><ele>352.5</ele><time>2026-04-24T13:50:53.116Z</time></trkpt><trkpt lat="44.128831" lon="10.4115024"><ele>352.6666666666667</ele><time>2026-04-24T13:50:55.123Z</time></trkpt><trkpt lat="44.1288928" lon="10.4115667"><ele>352.83333333333337</ele><time>2026-04-24T13:50:57.12Z</time></trkpt><trkpt lat="44.1289591" lon="10.4116153"><ele>353.0</ele><time>2026-04-24T13:50:59.116Z</time></trkpt><trkpt lat="44.1290274" lon="10.411648"><ele>353.33333333333337</ele><time>2026-04-24T13:51:01.116Z</time></trkpt><trkpt lat="44.1291028" lon="10.4116823"><ele>353.6666666666667</ele><time>2026-04-24T13:51:03.126Z</time></trkpt><trkpt lat="44.1291782" lon="10.4117132"><ele>354.0</ele><time>2026-04-24T13:51:05.127Z</time></trkpt><trkpt lat="44.1292554" lon="10.4117434"><ele>354.3333333333333</ele><time>2026-04-24T13:51:07.12Z</time></trkpt><trkpt lat="44.1293324" lon="10.4117708"><ele>354.66666666666663</ele><time>2026-04-24T13:51:09.12Z</time></trkpt><trkpt lat="44.1294107" lon="10.4118004"><ele>355.0</ele><time>2026-04-24T13:51:11.127Z</time></trkpt><trkpt lat="44.1294899" lon="10.4118267"><ele>355.0</ele><time>2026-04-24T13:51:13.128Z</time></trkpt><trkpt lat="44.129568" lon="10.4118492"><ele>355.0</ele><time>2026-04-24T13:51:15.115Z</time></trkpt><trkpt lat="44.1296476" lon="10.4118771"><ele>355.0</ele><time>2026-04-24T13:51:17.114Z</time></trkpt><trkpt lat="44.1297201" lon="10.4119074"><ele>355.0</ele><time>2026-04-24T13:51:19.119Z</time></trkpt><trkpt lat="44.1297913" lon="10.4119504"><ele>355.0</ele><time>2026-04-24T13:51:21.111Z</time></trkpt><trkpt lat="44.129865" lon="10.4119939"><ele>355.0</ele><time>2026-04-24T13:51:23.113Z</time></trkpt><trkpt lat="44.1299416" lon="10.4120421"><ele>356.0</ele><time>2026-04-24T13:51:25.124Z</time></trkpt><trkpt lat="44.1300156" lon="10.41209"><ele>357.0</ele><time>2026-04-24T13:51:27.112Z</time></trkpt><trkpt lat="44.1300905" lon="10.4121407"><ele>358.0</ele><time>2026-04-24T13:51:29.14Z</time></trkpt><trkpt lat="44.1301639" lon="10.412189"><ele>359.0</ele><time>2026-04-24T13:51:31.114Z</time></trkpt><trkpt lat="44.1302374" lon="10.4122382"><ele>360.0</ele><time>2026-04-24T13:51:33.125Z</time></trkpt><trkpt lat="44.1303119" lon="10.4122921"><ele>361.0</ele><time>2026-04-24T13:51:35.112Z</time></trkpt><trkpt lat="44.1303876" lon="10.4123464"><ele>361.3333333333333</ele><time>2026-04-24T13:51:37.114Z</time></trkpt><trkpt lat="44.1304605" lon="10.4123937"><ele>361.66666666666663</ele><time>2026-04-24T13:51:39.121Z</time></trkpt><trkpt lat="44.130525" lon="10.4124382"><ele>362.0</ele><time>2026-04-24T13:51:41.118Z</time></trkpt><trkpt lat="44.1306015" lon="10.4124872"><ele>362.3333333333333</ele><time>2026-04-24T13:51:43.11Z</time></trkpt><trkpt lat="44.1306802" lon="10.4125311"><ele>362.6666666666667</ele><time>2026-04-24T13:51:45.129Z</time></trkpt><trkpt lat="44.1307599" lon="10.4125794"><ele>363.0</ele><time>2026-04-24T13:51:47.122Z</time></trkpt><trkpt lat="44.1308366" lon="10.4126329"><ele>363.1666666666667</ele><time>2026-04-24T13:51:49.127Z</time></trkpt><trkpt lat="44.1309104" lon="10.4126896"><ele>363.3333333333333</ele><time>2026-04-24T13:51:51.114Z</time></trkpt><trkpt lat="44.1309864" lon="10.412747"><ele>363.5</ele><time>2026-04-24T13:51:53.111Z</time></trkpt><trkpt lat="44.131062" lon="10.4128052"><ele>363.66666666666663</ele><time>2026-04-24T13:51:55.111Z</time></trkpt><trkpt lat="44.1311385" lon="10.4128632"><ele>363.8333333333333</ele><time>2026-04-24T13:51:57.111Z</time></trkpt><trkpt lat="44.1312129" lon="10.4129181"><ele>364.0</ele><time>2026-04-24T13:51:59.119Z</time></trkpt><trkpt lat="44.1312845" lon="10.4129624"><ele>364.3333333333333</ele><time>2026-04-24T13:52:01.131Z</time></trkpt><trkpt lat="44.1313678" lon="10.413016"><ele>364.66666666666663</ele><time>2026-04-24T13:52:04.124Z</time></trkpt><trkpt lat="44.1314428" lon="10.4130706"><ele>365.0</ele><time>2026-04-24T13:52:06.119Z</time></trkpt><trkpt lat="44.1315054" lon="10.4131149"><ele>365.3333333333333</ele><time>2026-04-24T13:52:08.127Z</time></trkpt><trkpt lat="44.1315918" lon="10.4131716"><ele>365.6666666666667</ele><time>2026-04-24T13:52:11.118Z</time></trkpt><trkpt lat="44.1316522" lon="10.4132072"><ele>366.0</ele><time>2026-04-24T13:52:13.144Z</time></trkpt><trkpt lat="44.1317157" lon="10.4132417"><ele>366.3333333333333</ele><time>2026-04-24T13:52:15.121Z</time></trkpt><trkpt lat="44.1317827" lon="10.4132705"><ele>366.6666666666667</ele><time>2026-04-24T13:52:17.121Z</time></trkpt><trkpt lat="44.1318563" lon="10.4132992"><ele>367.0</ele><time>2026-04-24T13:52:19.128Z</time></trkpt><trkpt lat="44.1319276" lon="10.4133328"><ele>367.33333333333337</ele><time>2026-04-24T13:52:21.125Z</time></trkpt><trkpt lat="44.1320002" lon="10.4133655"><ele>367.6666666666667</ele><time>2026-04-24T13:52:23.111Z</time></trkpt><trkpt lat="44.1320737" lon="10.4133927"><ele>368.0</ele><time>2026-04-24T13:52:25.127Z</time></trkpt><trkpt lat="44.1321496" lon="10.4134247"><ele>368.0</ele><time>2026-04-24T13:52:27.119Z</time></trkpt><trkpt lat="44.1322283" lon="10.4134538"><ele>368.0</ele><time>2026-04-24T13:52:29.121Z</time></trkpt><trkpt lat="44.1323071" lon="10.4134823"><ele>368.0</ele><time>2026-04-24T13:52:31.116Z</time></trkpt><trkpt lat="44.1323819" lon="10.41351"><ele>368.0</ele><time>2026-04-24T13:52:33.121Z</time></trkpt><trkpt lat="44.1324563" lon="10.4135418"><ele>368.0</ele><time>2026-04-24T13:52:35.113Z</time></trkpt><trkpt lat="44.1325313" lon="10.4135772"><ele>368.0</ele><time>2026-04-24T13:52:37.123Z</time></trkpt><trkpt lat="44.1326089" lon="10.4136078"><ele>368.83333333333337</ele><time>2026-04-24T13:52:39.119Z</time></trkpt><trkpt lat="44.1326854" lon="10.4136405"><ele>369.6666666666667</ele><time>2026-04-24T13:52:41.112Z</time></trkpt><trkpt lat="44.1327643" lon="10.4136713"><ele>370.5</ele><time>2026-04-24T13:52:43.125Z</time></trkpt><trkpt lat="44.1328408" lon="10.4137004"><ele>371.3333333333333</ele><time>2026-04-24T13:52:45.121Z</time></trkpt><trkpt lat="44.1329198" lon="10.4137321"><ele>372.16666666666663</ele><time>2026-04-24T13:52:47.135Z</time></trkpt><trkpt lat="44.1329983" lon="10.413764"><ele>373.0</ele><time>2026-04-24T13:52:49.121Z</time></trkpt><trkpt lat="44.1330769" lon="10.4137932"><ele>372.8333333333333</ele><time>2026-04-24T13:52:51.12Z</time></trkpt><trkpt lat="44.1331538" lon="10.4138271"><ele>372.66666666666663</ele><time>2026-04-24T13:52:53.144Z</time></trkpt><trkpt lat="44.133229" lon="10.4138554"><ele>372.5</ele><time>2026-04-24T13:52:55.122Z</time></trkpt><trkpt lat="44.1333012" lon="10.4138903"><ele>372.3333333333333</ele><time>2026-04-24T13:52:57.123Z</time></trkpt><trkpt lat="44.1333694" lon="10.4139332"><ele>372.1666666666667</ele><time>2026-04-24T13:52:59.114Z</time></trkpt><trkpt lat="44.1334354" lon="10.413982"><ele>372.0</ele><time>2026-04-24T13:53:01.118Z</time></trkpt><trkpt lat="44.1335011" lon="10.4140366"><ele>373.0</ele><time>2026-04-24T13:53:03.115Z</time></trkpt><trkpt lat="44.1335676" lon="10.4141051"><ele>374.0</ele><time>2026-04-24T13:53:05.117Z</time></trkpt><trkpt lat="44.1336362" lon="10.4141686"><ele>375.0</ele><time>2026-04-24T13:53:07.125Z</time></trkpt><trkpt lat="44.1336997" lon="10.4142315"><ele>376.0</ele><time>2026-04-24T13:53:09.115Z</time></trkpt><trkpt lat="44.1337617" lon="10.4142954"><ele>377.0</ele><time>2026-04-24T13:53:11.115Z</time></trkpt><trkpt lat="44.1338274" lon="10.4143671"><ele>378.0</ele><time>2026-04-24T13:53:13.116Z</time></trkpt><trkpt lat="44.133891" lon="10.414443"><ele>378.0</ele><time>2026-04-24T13:53:15.121Z</time></trkpt><trkpt lat="44.1339537" lon="10.4145165"><ele>378.0</ele><time>2026-04-24T13:53:17.118Z</time></trkpt><trkpt lat="44.1340192" lon="10.4145841"><ele>378.0</ele><time>2026-04-24T13:53:19.114Z</time></trkpt><trkpt lat="44.1340789" lon="10.4146614"><ele>378.0</ele><time>2026-04-24T13:53:21.116Z</time></trkpt><trkpt lat="44.1341451" lon="10.4147358"><ele>378.0</ele><time>2026-04-24T13:53:23.121Z</time></trkpt><trkpt lat="44.1342137" lon="10.4148078"><ele>378.0</ele><time>2026-04-24T13:53:25.125Z</time></trkpt><trkpt lat="44.1342788" lon="10.4148804"><ele>378.6666666666667</ele><time>2026-04-24T13:53:27.129Z</time></trkpt><trkpt lat="44.1343391" lon="10.4149494"><ele>379.3333333333333</ele><time>2026-04-24T13:53:29.121Z</time></trkpt><trkpt lat="44.1344022" lon="10.4150238"><ele>380.0</ele><time>2026-04-24T13:53:31.125Z</time></trkpt><trkpt lat="44.1344651" lon="10.4150945"><ele>380.66666666666663</ele><time>2026-04-24T13:53:33.117Z</time></trkpt><trkpt lat="44.1345263" lon="10.4151651"><ele>381.3333333333333</ele><time>2026-04-24T13:53:35.117Z</time></trkpt><trkpt lat="44.1345896" lon="10.4152343"><ele>382.0</ele><time>2026-04-24T13:53:37.115Z</time></trkpt><trkpt lat="44.1346533" lon="10.4153019"><ele>382.0</ele><time>2026-04-24T13:53:39.109Z</time></trkpt><trkpt lat="44.134715" lon="10.4153699"><ele>382.0</ele><time>2026-04-24T13:53:41.118Z</time></trkpt><trkpt lat="44.1347822" lon="10.4154335"><ele>382.0</ele><time>2026-04-24T13:53:43.122Z</time></trkpt><trkpt lat="44.1348508" lon="10.415502"><ele>382.0</ele><time>2026-04-24T13:53:45.121Z</time></trkpt><trkpt lat="44.1349247" lon="10.4155514"><ele>382.0</ele><time>2026-04-24T13:53:47.131Z</time></trkpt><trkpt lat="44.1350018" lon="10.4155907"><ele>382.0</ele><time>2026-04-24T13:53:49.123Z</time></trkpt><trkpt lat="44.1350795" lon="10.4156309"><ele>382.3333333333333</ele><time>2026-04-24T13:53:51.121Z</time></trkpt><trkpt lat="44.1351572" lon="10.4156677"><ele>382.66666666666663</ele><time>2026-04-24T13:53:53.123Z</time></trkpt><trkpt lat="44.135228" lon="10.4157071"><ele>383.0</ele><time>2026-04-24T13:53:55.125Z</time></trkpt><trkpt lat="44.1353014" lon="10.4157429"><ele>383.3333333333333</ele><time>2026-04-24T13:53:57.12Z</time></trkpt><trkpt lat="44.1353746" lon="10.415776"><ele>383.6666666666667</ele><time>2026-04-24T13:53:59.127Z</time></trkpt><trkpt lat="44.1354458" lon="10.4158129"><ele>384.0</ele><time>2026-04-24T13:54:01.127Z</time></trkpt><trkpt lat="44.1355243" lon="10.4158477"><ele>384.0</ele><time>2026-04-24T13:54:03.122Z</time></trkpt><trkpt lat="44.1356047" lon="10.4158857"><ele>384.0</ele><time>2026-04-24T13:54:05.126Z</time></trkpt><trkpt lat="44.1356896" lon="10.4159202"><ele>384.0</ele><time>2026-04-24T13:54:07.128Z</time></trkpt><trkpt lat="44.1357739" lon="10.4159561"><ele>384.0</ele><time>2026-04-24T13:54:09.128Z</time></trkpt><trkpt lat="44.1358555" lon="10.4159917"><ele>384.0</ele><time>2026-04-24T13:54:11.112Z</time></trkpt><trkpt lat="44.1359351" lon="10.4160287"><ele>384.0</ele><time>2026-04-24T13:54:13.124Z</time></trkpt><trkpt lat="44.136008" lon="10.4160626"><ele>384.6666666666667</ele><time>2026-04-24T13:54:15.118Z</time></trkpt><trkpt lat="44.1360773" lon="10.4160982"><ele>385.33333333333337</ele><time>2026-04-24T13:54:17.121Z</time></trkpt><trkpt lat="44.1361487" lon="10.416143"><ele>386.0</ele><time>2026-04-24T13:54:19.116Z</time></trkpt><trkpt lat="44.1362183" lon="10.4161844"><ele>386.6666666666667</ele><time>2026-04-24T13:54:21.129Z</time></trkpt><trkpt lat="44.1362839" lon="10.4162312"><ele>387.33333333333337</ele><time>2026-04-24T13:54:23.115Z</time></trkpt><trkpt lat="44.1363464" lon="10.416286"><ele>388.0</ele><time>2026-04-24T13:54:25.125Z</time></trkpt><trkpt lat="44.1364092" lon="10.4163445"><ele>388.00000000000006</ele><time>2026-04-24T13:54:27.123Z</time></trkpt><trkpt lat="44.136474" lon="10.4164009"><ele>388.0</ele><time>2026-04-24T13:54:29.13Z</time></trkpt><trkpt lat="44.1365388" lon="10.4164603"><ele>388.0</ele><time>2026-04-24T13:54:31.117Z</time></trkpt><trkpt lat="44.1366014" lon="10.4165277"><ele>388.0</ele><time>2026-04-24T13:54:33.123Z</time></trkpt><trkpt lat="44.1366666" lon="10.4165929"><ele>388.00000000000006</ele><time>2026-04-24T13:54:35.129Z</time></trkpt><trkpt lat="44.1367334" lon="10.4166543"><ele>388.0</ele><time>2026-04-24T13:54:37.121Z</time></trkpt><trkpt lat="44.1367969" lon="10.4167188"><ele>389.00000000000006</ele><time>2026-04-24T13:54:39.129Z</time></trkpt><trkpt lat="44.1368618" lon="10.4167829"><ele>390.0</ele><time>2026-04-24T13:54:41.123Z</time></trkpt><trkpt lat="44.1369243" lon="10.4168511"><ele>391.0</ele><time>2026-04-24T13:54:43.115Z</time></trkpt><trkpt lat="44.1369902" lon="10.4169206"><ele>392.0</ele><time>2026-04-24T13:54:45.128Z</time></trkpt><trkpt lat="44.137055" lon="10.4169887"><ele>393.00000000000006</ele><time>2026-04-24T13:54:47.13Z</time></trkpt><trkpt lat="44.1371197" lon="10.4170593"><ele>394.0</ele><time>2026-04-24T13:54:49.118Z</time></trkpt><trkpt lat="44.1371864" lon="10.4171255"><ele>394.33333333333337</ele><time>2026-04-24T13:54:51.125Z</time></trkpt><trkpt lat="44.1372545" lon="10.4171908"><ele>394.6666666666667</ele><time>2026-04-24T13:54:53.115Z</time></trkpt><trkpt lat="44.1373153" lon="10.4172655"><ele>395.0</ele><time>2026-04-24T13:54:55.135Z</time></trkpt><trkpt lat="44.1373737" lon="10.4173249"><ele>395.33333333333337</ele><time>2026-04-24T13:54:57.138Z</time></trkpt><trkpt lat="44.1374481" lon="10.4174053"><ele>395.6666666666667</ele><time>2026-04-24T13:55:00.116Z</time></trkpt><trkpt lat="44.1374969" lon="10.4174667"><ele>396.0</ele><time>2026-04-24T13:55:02.121Z</time></trkpt><trkpt lat="44.1375462" lon="10.4175227"><ele>396.6666666666667</ele><time>2026-04-24T13:55:04.114Z</time></trkpt><trkpt lat="44.1376181" lon="10.4176018"><ele>397.33333333333337</ele><time>2026-04-24T13:55:07.126Z</time></trkpt><trkpt lat="44.1376845" lon="10.4176703"><ele>398.0</ele><time>2026-04-24T13:55:10.138Z</time></trkpt><trkpt lat="44.1377508" lon="10.4177332"><ele>398.6666666666667</ele><time>2026-04-24T13:55:13.112Z</time></trkpt><trkpt lat="44.1378103" lon="10.4177924"><ele>399.33333333333337</ele><time>2026-04-24T13:55:16.111Z</time></trkpt><trkpt lat="44.1378655" lon="10.4178449"><ele>400.0</ele><time>2026-04-24T13:55:19.11Z</time></trkpt><trkpt lat="44.1379213" lon="10.4178941"><ele>400.00000000000006</ele><time>2026-04-24T13:55:22.115Z</time></trkpt><trkpt lat="44.1379755" lon="10.4179521"><ele>400.0</ele><time>2026-04-24T13:55:25.116Z</time></trkpt><trkpt lat="44.1380506" lon="10.4180259"><ele>400.0</ele><time>2026-04-24T13:55:28.115Z</time></trkpt><trkpt lat="44.1381141" lon="10.4180675"><ele>400.0</ele><time>2026-04-24T13:55:30.109Z</time></trkpt><trkpt lat="44.138183" lon="10.4181134"><ele>400.00000000000006</ele><time>2026-04-24T13:55:32.133Z</time></trkpt><trkpt lat="44.1382625" lon="10.4181544"><ele>400.0</ele><time>2026-04-24T13:55:34.116Z</time></trkpt><trkpt lat="44.1383467" lon="10.4181953"><ele>400.6</ele><time>2026-04-24T13:55:36.118Z</time></trkpt><trkpt lat="44.1384242" lon="10.4182268"><ele>401.2</ele><time>2026-04-24T13:55:38.122Z</time></trkpt><trkpt lat="44.1385292" lon="10.4182368"><ele>401.79999999999995</ele><time>2026-04-24T13:55:40.118Z</time></trkpt><trkpt lat="44.1386251" lon="10.4182283"><ele>402.4</ele><time>2026-04-24T13:55:42.116Z</time></trkpt><trkpt lat="44.138731" lon="10.4182252"><ele>403.0</ele><time>2026-04-24T13:55:44.116Z</time></trkpt><trkpt lat="44.1388394" lon="10.4182129"><ele>403.0</ele><time>2026-04-24T13:55:46.116Z</time></trkpt><trkpt lat="44.1389558" lon="10.418214"><ele>403.0</ele><time>2026-04-24T13:55:48.133Z</time></trkpt><trkpt lat="44.1390762" lon="10.4182279"><ele>403.0</ele><time>2026-04-24T13:55:50.13Z</time></trkpt><trkpt lat="44.1391905" lon="10.4182465"><ele>403.0</ele><time>2026-04-24T13:55:52.129Z</time></trkpt><trkpt lat="44.1393031" lon="10.4182616"><ele>401.59999999999997</ele><time>2026-04-24T13:55:54.118Z</time></trkpt><trkpt lat="44.1394108" lon="10.4182637"><ele>400.2</ele><time>2026-04-24T13:55:56.117Z</time></trkpt><trkpt lat="44.1395178" lon="10.4182576"><ele>398.8</ele><time>2026-04-24T13:55:58.131Z</time></trkpt><trkpt lat="44.1396267" lon="10.4182407"><ele>397.4</ele><time>2026-04-24T13:56:00.115Z</time></trkpt><trkpt lat="44.1397321" lon="10.4182289"><ele>396.0</ele><time>2026-04-24T13:56:02.109Z</time></trkpt><trkpt lat="44.1398437" lon="10.4182099"><ele>396.0</ele><time>2026-04-24T13:56:04.121Z</time></trkpt><trkpt lat="44.1399548" lon="10.4181946"><ele>396.0</ele><time>2026-04-24T13:56:06.123Z</time></trkpt><trkpt lat="44.1400504" lon="10.4181835"><ele>396.0</ele><time>2026-04-24T13:56:08.127Z</time></trkpt><trkpt lat="44.1401314" lon="10.4181806"><ele>396.0</ele><time>2026-04-24T13:56:10.114Z</time></trkpt><trkpt lat="44.1402072" lon="10.4181484"><ele>396.0</ele><time>2026-04-24T13:56:12.118Z</time></trkpt><trkpt lat="44.1402762" lon="10.4180819"><ele>393.4</ele><time>2026-04-24T13:56:14.115Z</time></trkpt><trkpt lat="44.1403381" lon="10.4179814"><ele>390.8</ele><time>2026-04-24T13:56:16.12Z</time></trkpt><trkpt lat="44.140392" lon="10.417862"><ele>388.2</ele><time>2026-04-24T13:56:18.115Z</time></trkpt><trkpt lat="44.140423" lon="10.4177272"><ele>385.59999999999997</ele><time>2026-04-24T13:56:20.12Z</time></trkpt><trkpt lat="44.1404441" lon="10.4175915"><ele>383.0</ele><time>2026-04-24T13:56:22.132Z</time></trkpt><trkpt lat="44.1404641" lon="10.4174547"><ele>383.0</ele><time>2026-04-24T13:56:24.129Z</time></trkpt><trkpt lat="44.1404828" lon="10.4173191"><ele>383.0</ele><time>2026-04-24T13:56:26.115Z</time></trkpt><trkpt lat="44.1405015" lon="10.4171972"><ele>383.0</ele><time>2026-04-24T13:56:28.113Z</time></trkpt><trkpt lat="44.1405163" lon="10.4170717"><ele>383.0</ele><time>2026-04-24T13:56:30.122Z</time></trkpt><trkpt lat="44.14053" lon="10.4169685"><ele>383.0</ele><time>2026-04-24T13:56:32.128Z</time></trkpt><trkpt lat="44.1405471" lon="10.4168708"><ele>383.0</ele><time>2026-04-24T13:56:34.115Z</time></trkpt><trkpt lat="44.1405587" lon="10.4167688"><ele>382.1666666666667</ele><time>2026-04-24T13:56:36.119Z</time></trkpt><trkpt lat="44.1405709" lon="10.4166679"><ele>381.33333333333337</ele><time>2026-04-24T13:56:38.126Z</time></trkpt><trkpt lat="44.1405845" lon="10.4165644"><ele>380.5</ele><time>2026-04-24T13:56:40.111Z</time></trkpt><trkpt lat="44.1406017" lon="10.4164575"><ele>379.6666666666667</ele><time>2026-04-24T13:56:42.125Z</time></trkpt><trkpt lat="44.1406168" lon="10.4163499"><ele>378.8333333333333</ele><time>2026-04-24T13:56:44.117Z</time></trkpt><trkpt lat="44.1406319" lon="10.4162395"><ele>378.0</ele><time>2026-04-24T13:56:46.129Z</time></trkpt><trkpt lat="44.1406478" lon="10.4161325"><ele>377.8333333333333</ele><time>2026-04-24T13:56:48.12Z</time></trkpt><trkpt lat="44.1406578" lon="10.4160279"><ele>377.6666666666667</ele><time>2026-04-24T13:56:50.117Z</time></trkpt><trkpt lat="44.1406743" lon="10.4159229"><ele>377.5</ele><time>2026-04-24T13:56:52.123Z</time></trkpt><trkpt lat="44.1406904" lon="10.4158192"><ele>377.33333333333337</ele><time>2026-04-24T13:56:54.121Z</time></trkpt><trkpt lat="44.1407024" lon="10.4157208"><ele>377.1666666666667</ele><time>2026-04-24T13:56:56.131Z</time></trkpt><trkpt lat="44.1407097" lon="10.4156311"><ele>377.0</ele><time>2026-04-24T13:56:58.123Z</time></trkpt><trkpt lat="44.1407238" lon="10.4155002"><ele>377.1666666666667</ele><time>2026-04-24T13:57:01.121Z</time></trkpt><trkpt lat="44.1407234" lon="10.4153954"><ele>377.33333333333337</ele><time>2026-04-24T13:57:03.128Z</time></trkpt><trkpt lat="44.1407178" lon="10.4152855"><ele>377.5</ele><time>2026-04-24T13:57:05.126Z</time></trkpt><trkpt lat="44.1407179" lon="10.4151751"><ele>377.6666666666667</ele><time>2026-04-24T13:57:07.12Z</time></trkpt><trkpt lat="44.1407126" lon="10.4150635"><ele>377.8333333333333</ele><time>2026-04-24T13:57:09.119Z</time></trkpt><trkpt lat="44.1407085" lon="10.4149534"><ele>378.0</ele><time>2026-04-24T13:57:11.135Z</time></trkpt><trkpt lat="44.1407043" lon="10.4148455"><ele>378.0</ele><time>2026-04-24T13:57:13.121Z</time></trkpt><trkpt lat="44.1406959" lon="10.4147368"><ele>378.0</ele><time>2026-04-24T13:57:15.119Z</time></trkpt><trkpt lat="44.1406873" lon="10.4146267"><ele>378.0</ele><time>2026-04-24T13:57:17.127Z</time></trkpt><trkpt lat="44.1406848" lon="10.4145149"><ele>378.0</ele><time>2026-04-24T13:57:19.124Z</time></trkpt><trkpt lat="44.1406892" lon="10.4144032"><ele>378.0</ele><time>2026-04-24T13:57:21.12Z</time></trkpt><trkpt lat="44.1407146" lon="10.4142939"><ele>378.0</ele><time>2026-04-24T13:57:23.114Z</time></trkpt><trkpt lat="44.1407721" lon="10.4142122"><ele>380.5</ele><time>2026-04-24T13:57:25.112Z</time></trkpt><trkpt lat="44.1408505" lon="10.4141693"><ele>383.0</ele><time>2026-04-24T13:57:27.128Z</time></trkpt><trkpt lat="44.1409342" lon="10.4141809"><ele>385.5</ele><time>2026-04-24T13:57:29.132Z</time></trkpt><trkpt lat="44.1410039" lon="10.4142525"><ele>388.0</ele><time>2026-04-24T13:57:31.127Z</time></trkpt><trkpt lat="44.1410478" lon="10.4143626"><ele>390.5</ele><time>2026-04-24T13:57:33.125Z</time></trkpt><trkpt lat="44.1410596" lon="10.414488"><ele>393.0</ele><time>2026-04-24T13:57:35.124Z</time></trkpt><trkpt lat="44.1410685" lon="10.414611"><ele>392.0</ele><time>2026-04-24T13:57:37.11Z</time></trkpt><trkpt lat="44.1410942" lon="10.4147298"><ele>391.0</ele><time>2026-04-24T13:57:39.118Z</time></trkpt><trkpt lat="44.1411404" lon="10.4148299"><ele>390.0</ele><time>2026-04-24T13:57:41.125Z</time></trkpt><trkpt lat="44.1412144" lon="10.4149071"><ele>389.0</ele><time>2026-04-24T13:57:43.114Z</time></trkpt><trkpt lat="44.1412953" lon="10.414946"><ele>388.0</ele><time>2026-04-24T13:57:45.118Z</time></trkpt><trkpt lat="44.1413847" lon="10.414951"><ele>387.0</ele><time>2026-04-24T13:57:47.111Z</time></trkpt><trkpt lat="44.1414696" lon="10.4149372"><ele>388.6666666666667</ele><time>2026-04-24T13:57:49.13Z</time></trkpt><trkpt lat="44.1415504" lon="10.4149193"><ele>390.33333333333337</ele><time>2026-04-24T13:57:51.117Z</time></trkpt><trkpt lat="44.1416355" lon="10.4149007"><ele>392.0</ele><time>2026-04-24T13:57:53.12Z</time></trkpt><trkpt lat="44.1417179" lon="10.414884"><ele>393.6666666666667</ele><time>2026-04-24T13:57:55.116Z</time></trkpt><trkpt lat="44.1418008" lon="10.4148688"><ele>395.33333333333337</ele><time>2026-04-24T13:57:57.119Z</time></trkpt><trkpt lat="44.141884" lon="10.4148593"><ele>397.0</ele><time>2026-04-24T13:57:59.135Z</time></trkpt><trkpt lat="44.141971" lon="10.4148599"><ele>397.00000000000006</ele><time>2026-04-24T13:58:01.136Z</time></trkpt><trkpt lat="44.1420511" lon="10.414866"><ele>397.0</ele><time>2026-04-24T13:58:03.122Z</time></trkpt><trkpt lat="44.1421341" lon="10.4148758"><ele>397.0</ele><time>2026-04-24T13:58:05.121Z</time></trkpt><trkpt lat="44.1422111" lon="10.4148839"><ele>397.0</ele><time>2026-04-24T13:58:07.121Z</time></trkpt><trkpt lat="44.1422888" lon="10.4149031"><ele>397.00000000000006</ele><time>2026-04-24T13:58:09.131Z</time></trkpt><trkpt lat="44.1423764" lon="10.4149259"><ele>397.0</ele><time>2026-04-24T13:58:11.129Z</time></trkpt><trkpt lat="44.1424754" lon="10.4149496"><ele>398.00000000000006</ele><time>2026-04-24T13:58:13.109Z</time></trkpt><trkpt lat="44.1425661" lon="10.4149639"><ele>399.0</ele><time>2026-04-24T13:58:15.112Z</time></trkpt><trkpt lat="44.1426534" lon="10.414975"><ele>400.0</ele><time>2026-04-24T13:58:17.112Z</time></trkpt><trkpt lat="44.1427403" lon="10.4149823"><ele>401.0</ele><time>2026-04-24T13:58:19.128Z</time></trkpt><trkpt lat="44.1428255" lon="10.4149744"><ele>402.00000000000006</ele><time>2026-04-24T13:58:21.111Z</time></trkpt><trkpt lat="44.1429033" lon="10.4149533"><ele>403.0</ele><time>2026-04-24T13:58:23.128Z</time></trkpt><trkpt lat="44.1429807" lon="10.4149295"><ele>403.00000000000006</ele><time>2026-04-24T13:58:25.111Z</time></trkpt><trkpt lat="44.1430578" lon="10.4149138"><ele>403.0</ele><time>2026-04-24T13:58:27.124Z</time></trkpt><trkpt lat="44.1431382" lon="10.414901"><ele>403.0</ele><time>2026-04-24T13:58:29.119Z</time></trkpt><trkpt lat="44.1432198" lon="10.4148983"><ele>403.0</ele><time>2026-04-24T13:58:31.11Z</time></trkpt><trkpt lat="44.1433035" lon="10.4149099"><ele>403.00000000000006</ele><time>2026-04-24T13:58:33.123Z</time></trkpt><trkpt lat="44.1433888" lon="10.4149348"><ele>403.0</ele><time>2026-04-24T13:58:35.11Z</time></trkpt><trkpt lat="44.1434653" lon="10.4149538"><ele>405.00000000000006</ele><time>2026-04-24T13:58:37.122Z</time></trkpt><trkpt lat="44.1435436" lon="10.4149708"><ele>407.0</ele><time>2026-04-24T13:58:39.12Z</time></trkpt><trkpt lat="44.1436189" lon="10.4149927"><ele>409.0</ele><time>2026-04-24T13:58:41.127Z</time></trkpt><trkpt lat="44.1436967" lon="10.4150231"><ele>411.0</ele><time>2026-04-24T13:58:43.109Z</time></trkpt><trkpt lat="44.1437772" lon="10.4150527"><ele>413.00000000000006</ele><time>2026-04-24T13:58:45.13Z</time></trkpt><trkpt lat="44.1438566" lon="10.4150836"><ele>415.0</ele><time>2026-04-24T13:58:47.121Z</time></trkpt><trkpt lat="44.1439284" lon="10.4151177"><ele>415.00000000000006</ele><time>2026-04-24T13:58:49.128Z</time></trkpt><trkpt lat="44.1440215" lon="10.4151387"><ele>415.0</ele><time>2026-04-24T13:58:52.119Z</time></trkpt><trkpt lat="44.1440908" lon="10.4151026"><ele>415.0</ele><time>2026-04-24T13:58:54.121Z</time></trkpt><trkpt lat="44.1441313" lon="10.4150058"><ele>415.0</ele><time>2026-04-24T13:58:56.122Z</time></trkpt><trkpt lat="44.1441092" lon="10.4148907"><ele>415.00000000000006</ele><time>2026-04-24T13:58:58.116Z</time></trkpt><trkpt lat="44.1440438" lon="10.4148153"><ele>415.0</ele><time>2026-04-24T13:59:00.134Z</time></trkpt><trkpt lat="44.1439657" lon="10.4147642"><ele>415.00000000000006</ele><time>2026-04-24T13:59:02.116Z</time></trkpt><trkpt lat="44.1438765" lon="10.414711"><ele>415.0</ele><time>2026-04-24T13:59:04.121Z</time></trkpt><trkpt lat="44.1437869" lon="10.4146934"><ele>415.0</ele><time>2026-04-24T13:59:06.127Z</time></trkpt><trkpt lat="44.1437037" lon="10.4146822"><ele>415.0</ele><time>2026-04-24T13:59:08.125Z</time></trkpt><trkpt lat="44.1436218" lon="10.4146605"><ele>415.00000000000006</ele><time>2026-04-24T13:59:10.12Z</time></trkpt><trkpt lat="44.1435327" lon="10.4146361"><ele>415.0</ele><time>2026-04-24T13:59:12.123Z</time></trkpt><trkpt lat="44.1434554" lon="10.4145667"><ele>416.6666666666667</ele><time>2026-04-24T13:59:14.128Z</time></trkpt><trkpt lat="44.1434181" lon="10.4144625"><ele>418.33333333333337</ele><time>2026-04-24T13:59:16.113Z</time></trkpt><trkpt lat="44.1434024" lon="10.4143459"><ele>420.0</ele><time>2026-04-24T13:59:18.113Z</time></trkpt><trkpt lat="44.1433994" lon="10.4142228"><ele>421.66666666666663</ele><time>2026-04-24T13:59:20.123Z</time></trkpt><trkpt lat="44.1434066" lon="10.414106"><ele>423.3333333333333</ele><time>2026-04-24T13:59:22.115Z</time></trkpt><trkpt lat="44.143417" lon="10.413996"><ele>425.0</ele><time>2026-04-24T13:59:24.121Z</time></trkpt><trkpt lat="44.1434182" lon="10.4138691"><ele>425.99999999999994</ele><time>2026-04-24T13:59:27.116Z</time></trkpt><trkpt lat="44.1434163" lon="10.4137584"><ele>427.0</ele><time>2026-04-24T13:59:29.114Z</time></trkpt><trkpt lat="44.1434" lon="10.4136591"><ele>428.0</ele><time>2026-04-24T13:59:31.118Z</time></trkpt><trkpt lat="44.1433745" lon="10.4135459"><ele>429.0</ele><time>2026-04-24T13:59:34.128Z</time></trkpt><trkpt lat="44.1433472" lon="10.4134226"><ele>429.99999999999994</ele><time>2026-04-24T13:59:37.118Z</time></trkpt><trkpt lat="44.14333" lon="10.413333"><ele>431.0</ele><time>2026-04-24T13:59:39.121Z</time></trkpt><trkpt lat="44.1433139" lon="10.4132393"><ele>430.99999999999994</ele><time>2026-04-24T13:59:41.131Z</time></trkpt><trkpt lat="44.1432955" lon="10.4131496"><ele>431.0</ele><time>2026-04-24T13:59:43.114Z</time></trkpt><trkpt lat="44.1432713" lon="10.413064"><ele>431.0</ele><time>2026-04-24T13:59:45.12Z</time></trkpt><trkpt lat="44.1432378" lon="10.4129857"><ele>431.0</ele><time>2026-04-24T13:59:47.14Z</time></trkpt><trkpt lat="44.1431729" lon="10.4128992"><ele>430.99999999999994</ele><time>2026-04-24T13:59:50.115Z</time></trkpt><trkpt lat="44.1430905" lon="10.412866"><ele>431.0</ele><time>2026-04-24T13:59:53.122Z</time></trkpt><trkpt lat="44.1429963" lon="10.4128523"><ele>430.66666666666663</ele><time>2026-04-24T13:59:56.123Z</time></trkpt><trkpt lat="44.1429326" lon="10.4128349"><ele>430.3333333333333</ele><time>2026-04-24T13:59:58.136Z</time></trkpt><trkpt lat="44.1428424" lon="10.4128139"><ele>430.0</ele><time>2026-04-24T14:00:01.118Z</time></trkpt><trkpt lat="44.1427645" lon="10.4127566"><ele>429.66666666666663</ele><time>2026-04-24T14:00:04.121Z</time></trkpt><trkpt lat="44.1427229" lon="10.4126425"><ele>429.3333333333333</ele><time>2026-04-24T14:00:07.118Z</time></trkpt><trkpt lat="44.1427288" lon="10.4125516"><ele>429.0</ele><time>2026-04-24T14:00:09.117Z</time></trkpt><trkpt lat="44.1427545" lon="10.4124671"><ele>429.0</ele><time>2026-04-24T14:00:11.114Z</time></trkpt><trkpt lat="44.1427977" lon="10.4123991"><ele>429.0</ele><time>2026-04-24T14:00:13.127Z</time></trkpt><trkpt lat="44.1428566" lon="10.4123572"><ele>429.0</ele><time>2026-04-24T14:00:15.133Z</time></trkpt><trkpt lat="44.1429431" lon="10.4123091"><ele>429.0</ele><time>2026-04-24T14:00:18.117Z</time></trkpt><trkpt lat="44.143003" lon="10.4122819"><ele>429.0</ele><time>2026-04-24T14:00:20.12Z</time></trkpt><trkpt lat="44.1430927" lon="10.4122383"><ele>429.0</ele><time>2026-04-24T14:00:23.132Z</time></trkpt><trkpt lat="44.1431535" lon="10.4122105"><ele>429.0</ele><time>2026-04-24T14:00:25.116Z</time></trkpt><trkpt lat="44.1432147" lon="10.4121821"><ele>430.57142857142856</ele><time>2026-04-24T14:00:27.117Z</time></trkpt><trkpt lat="44.1432773" lon="10.4121552"><ele>432.14285714285717</ele><time>2026-04-24T14:00:29.111Z</time></trkpt><trkpt lat="44.1433415" lon="10.4121375"><ele>433.71428571428567</ele><time>2026-04-24T14:00:31.131Z</time></trkpt><trkpt lat="44.143407" lon="10.4121214"><ele>435.2857142857143</ele><time>2026-04-24T14:00:33.117Z</time></trkpt><trkpt lat="44.1434759" lon="10.412114"><ele>436.85714285714283</ele><time>2026-04-24T14:00:35.118Z</time></trkpt><trkpt lat="44.143544" lon="10.4121069"><ele>438.4285714285714</ele><time>2026-04-24T14:00:37.112Z</time></trkpt><trkpt lat="44.1436092" lon="10.4120888"><ele>440.0</ele><time>2026-04-24T14:00:39.116Z</time></trkpt><trkpt lat="44.1436716" lon="10.412068"><ele>439.99999999999994</ele><time>2026-04-24T14:00:41.115Z</time></trkpt><trkpt lat="44.1437313" lon="10.4120359"><ele>440.0</ele><time>2026-04-24T14:00:43.126Z</time></trkpt><trkpt lat="44.1437856" lon="10.4119755"><ele>440.0</ele><time>2026-04-24T14:00:45.118Z</time></trkpt><trkpt lat="44.1438385" lon="10.4119171"><ele>440.0</ele><time>2026-04-24T14:00:47.121Z</time></trkpt><trkpt lat="44.143888" lon="10.4118548"><ele>440.0</ele><time>2026-04-24T14:00:49.115Z</time></trkpt><trkpt lat="44.1439347" lon="10.4117859"><ele>439.99999999999994</ele><time>2026-04-24T14:00:51.116Z</time></trkpt><trkpt lat="44.1439791" lon="10.4117135"><ele>440.0</ele><time>2026-04-24T14:00:53.127Z</time></trkpt><trkpt lat="44.1440179" lon="10.4116319"><ele>439.99999999999994</ele><time>2026-04-24T14:00:55.116Z</time></trkpt><trkpt lat="44.1440383" lon="10.4115357"><ele>440.0</ele><time>2026-04-24T14:00:57.112Z</time></trkpt><trkpt lat="44.1440412" lon="10.4114387"><ele>440.0</ele><time>2026-04-24T14:00:59.119Z</time></trkpt><trkpt lat="44.1440271" lon="10.4113421"><ele>440.0</ele><time>2026-04-24T14:01:01.12Z</time></trkpt><trkpt lat="44.1439988" lon="10.4112492"><ele>440.0</ele><time>2026-04-24T14:01:03.13Z</time></trkpt><trkpt lat="44.1439566" lon="10.4111631"><ele>439.99999999999994</ele><time>2026-04-24T14:01:05.119Z</time></trkpt><trkpt lat="44.143906" lon="10.4110934"><ele>440.0</ele><time>2026-04-24T14:01:07.122Z</time></trkpt><trkpt lat="44.1438472" lon="10.4110364"><ele>440.99999999999994</ele><time>2026-04-24T14:01:09.121Z</time></trkpt><trkpt lat="44.1437912" lon="10.41098"><ele>442.0</ele><time>2026-04-24T14:01:11.112Z</time></trkpt><trkpt lat="44.1437322" lon="10.4109167"><ele>443.0</ele><time>2026-04-24T14:01:13.125Z</time></trkpt><trkpt lat="44.1436726" lon="10.4108634"><ele>444.0</ele><time>2026-04-24T14:01:15.126Z</time></trkpt><trkpt lat="44.143611" lon="10.4108052"><ele>445.0</ele><time>2026-04-24T14:01:17.112Z</time></trkpt><trkpt lat="44.143554" lon="10.4107425"><ele>445.99999999999994</ele><time>2026-04-24T14:01:19.124Z</time></trkpt><trkpt lat="44.1434946" lon="10.4106858"><ele>447.0</ele><time>2026-04-24T14:01:21.113Z</time></trkpt><trkpt lat="44.1434406" lon="10.4106158"><ele>447.0</ele><time>2026-04-24T14:01:23.129Z</time></trkpt><trkpt lat="44.1434116" lon="10.4105264"><ele>447.0</ele><time>2026-04-24T14:01:25.121Z</time></trkpt><trkpt lat="44.1434278" lon="10.4104146"><ele>447.0</ele><time>2026-04-24T14:01:27.127Z</time></trkpt><trkpt lat="44.1434852" lon="10.4103358"><ele>447.0</ele><time>2026-04-24T14:01:29.128Z</time></trkpt><trkpt lat="44.1435556" lon="10.410293"><ele>447.0</ele><time>2026-04-24T14:01:31.114Z</time></trkpt><trkpt lat="44.1436248" lon="10.4102542"><ele>447.0</ele><time>2026-04-24T14:01:33.125Z</time></trkpt><trkpt lat="44.143693" lon="10.4102173"><ele>447.4285714285714</ele><time>2026-04-24T14:01:35.123Z</time></trkpt><trkpt lat="44.1437619" lon="10.4101849"><ele>447.8571428571429</ele><time>2026-04-24T14:01:37.111Z</time></trkpt><trkpt lat="44.1438296" lon="10.410155"><ele>448.28571428571433</ele><time>2026-04-24T14:01:39.131Z</time></trkpt><trkpt lat="44.1438952" lon="10.4101237"><ele>448.7142857142857</ele><time>2026-04-24T14:01:41.118Z</time></trkpt><trkpt lat="44.1439667" lon="10.4101017"><ele>449.14285714285717</ele><time>2026-04-24T14:01:43.121Z</time></trkpt><trkpt lat="44.144039" lon="10.4100965"><ele>449.5714285714286</ele><time>2026-04-24T14:01:45.11Z</time></trkpt><trkpt lat="44.1441073" lon="10.4101101"><ele>450.00000000000006</ele><time>2026-04-24T14:01:47.111Z</time></trkpt><trkpt lat="44.1441783" lon="10.4101286"><ele>452.00000000000006</ele><time>2026-04-24T14:01:49.111Z</time></trkpt><trkpt lat="44.1442441" lon="10.4101519"><ele>454.0</ele><time>2026-04-24T14:01:51.116Z</time></trkpt><trkpt lat="44.1443107" lon="10.4101707"><ele>456.00000000000006</ele><time>2026-04-24T14:01:53.138Z</time></trkpt><trkpt lat="44.1443808" lon="10.4101886"><ele>458.00000000000006</ele><time>2026-04-24T14:01:55.108Z</time></trkpt><trkpt lat="44.1444523" lon="10.4102056"><ele>460.0</ele><time>2026-04-24T14:01:57.122Z</time></trkpt><trkpt lat="44.1445263" lon="10.4102265"><ele>462.00000000000006</ele><time>2026-04-24T14:01:59.112Z</time></trkpt><trkpt lat="44.1445996" lon="10.4102472"><ele>464.00000000000006</ele><time>2026-04-24T14:02:01.116Z</time></trkpt><trkpt lat="44.144669" lon="10.4102728"><ele>464.00000000000006</ele><time>2026-04-24T14:02:03.119Z</time></trkpt><trkpt lat="44.1447387" lon="10.4103018"><ele>464.0</ele><time>2026-04-24T14:02:05.128Z</time></trkpt><trkpt lat="44.1448076" lon="10.410329"><ele>464.00000000000006</ele><time>2026-04-24T14:02:07.131Z</time></trkpt><trkpt lat="44.1448767" lon="10.4103514"><ele>464.00000000000006</ele><time>2026-04-24T14:02:09.115Z</time></trkpt><trkpt lat="44.1449477" lon="10.4103759"><ele>464.0</ele><time>2026-04-24T14:02:11.109Z</time></trkpt><trkpt lat="44.1450209" lon="10.4103995"><ele>464.00000000000006</ele><time>2026-04-24T14:02:13.113Z</time></trkpt><trkpt lat="44.1450943" lon="10.4104258"><ele>464.00000000000006</ele><time>2026-04-24T14:02:15.126Z</time></trkpt><trkpt lat="44.1451621" lon="10.4104508"><ele>465.16666666666663</ele><time>2026-04-24T14:02:17.113Z</time></trkpt><trkpt lat="44.1452293" lon="10.4104772"><ele>466.3333333333333</ele><time>2026-04-24T14:02:19.128Z</time></trkpt><trkpt lat="44.145299" lon="10.4105026"><ele>467.5</ele><time>2026-04-24T14:02:21.124Z</time></trkpt><trkpt lat="44.1453725" lon="10.4105298"><ele>468.66666666666663</ele><time>2026-04-24T14:02:23.124Z</time></trkpt><trkpt lat="44.1454641" lon="10.4105613"><ele>469.8333333333333</ele><time>2026-04-24T14:02:25.12Z</time></trkpt><trkpt lat="44.1455399" lon="10.4105871"><ele>471.0</ele><time>2026-04-24T14:02:27.112Z</time></trkpt><trkpt lat="44.1456324" lon="10.4106187"><ele>471.6666666666667</ele><time>2026-04-24T14:02:29.12Z</time></trkpt><trkpt lat="44.1457239" lon="10.4106533"><ele>472.33333333333337</ele><time>2026-04-24T14:02:31.131Z</time></trkpt><trkpt lat="44.1458115" lon="10.4106767"><ele>473.0</ele><time>2026-04-24T14:02:33.135Z</time></trkpt><trkpt lat="44.1458929" lon="10.4107063"><ele>473.6666666666667</ele><time>2026-04-24T14:02:35.116Z</time></trkpt><trkpt lat="44.1459647" lon="10.4107345"><ele>474.33333333333337</ele><time>2026-04-24T14:02:37.117Z</time></trkpt><trkpt lat="44.1460365" lon="10.4107601"><ele>475.0</ele><time>2026-04-24T14:02:39.117Z</time></trkpt><trkpt lat="44.1461081" lon="10.4107859"><ele>475.0</ele><time>2026-04-24T14:02:41.126Z</time></trkpt><trkpt lat="44.1461796" lon="10.4108105"><ele>475.00000000000006</ele><time>2026-04-24T14:02:43.115Z</time></trkpt><trkpt lat="44.1462413" lon="10.4108284"><ele>475.0</ele><time>2026-04-24T14:02:45.109Z</time></trkpt><trkpt lat="44.1463166" lon="10.4108586"><ele>475.0</ele><time>2026-04-24T14:02:48.117Z</time></trkpt><trkpt lat="44.1463803" lon="10.410878"><ele>475.00000000000006</ele><time>2026-04-24T14:02:50.11Z</time></trkpt><trkpt lat="44.1464531" lon="10.4109187"><ele>475.0</ele><time>2026-04-24T14:02:53.11Z</time></trkpt><trkpt lat="44.1465314" lon="10.4109625"><ele>475.0</ele><time>2026-04-24T14:02:56.125Z</time></trkpt><trkpt lat="44.1466049" lon="10.4110273"><ele>475.7142857142857</ele><time>2026-04-24T14:02:59.111Z</time></trkpt><trkpt lat="44.1466727" lon="10.4111136"><ele>476.42857142857144</ele><time>2026-04-24T14:03:02.114Z</time></trkpt><trkpt lat="44.1467182" lon="10.4111784"><ele>477.14285714285717</ele><time>2026-04-24T14:03:04.118Z</time></trkpt><trkpt lat="44.1467668" lon="10.4112417"><ele>477.8571428571429</ele><time>2026-04-24T14:03:06.122Z</time></trkpt><trkpt lat="44.146812" lon="10.4113113"><ele>478.57142857142856</ele><time>2026-04-24T14:03:08.133Z</time></trkpt><trkpt lat="44.1468608" lon="10.4113725"><ele>479.28571428571433</ele><time>2026-04-24T14:03:10.109Z</time></trkpt><trkpt lat="44.1469053" lon="10.4114409"><ele>480.0</ele><time>2026-04-24T14:03:12.117Z</time></trkpt><trkpt lat="44.1469485" lon="10.4115124"><ele>481.0</ele><time>2026-04-24T14:03:14.128Z</time></trkpt><trkpt lat="44.1469951" lon="10.4115816"><ele>482.0</ele><time>2026-04-24T14:03:16.128Z</time></trkpt><trkpt lat="44.1470417" lon="10.4116518"><ele>483.0</ele><time>2026-04-24T14:03:18.11Z</time></trkpt><trkpt lat="44.1470909" lon="10.4117172"><ele>484.0</ele><time>2026-04-24T14:03:20.113Z</time></trkpt><trkpt lat="44.1471393" lon="10.4117798"><ele>485.0</ele><time>2026-04-24T14:03:22.114Z</time></trkpt><trkpt lat="44.1471869" lon="10.41185"><ele>486.0</ele><time>2026-04-24T14:03:24.136Z</time></trkpt><trkpt lat="44.1472363" lon="10.4119225"><ele>487.0</ele><time>2026-04-24T14:03:26.11Z</time></trkpt><trkpt lat="44.1472857" lon="10.4119938"><ele>487.00000000000006</ele><time>2026-04-24T14:03:28.111Z</time></trkpt><trkpt lat="44.1473325" lon="10.4120655"><ele>487.0</ele><time>2026-04-24T14:03:30.117Z</time></trkpt><trkpt lat="44.1473872" lon="10.4121533"><ele>487.0</ele><time>2026-04-24T14:03:33.115Z</time></trkpt><trkpt lat="44.1474503" lon="10.4122517"><ele>487.0</ele><time>2026-04-24T14:03:36.12Z</time></trkpt><trkpt lat="44.1475047" lon="10.4123284"><ele>487.00000000000006</ele><time>2026-04-24T14:03:39.128Z</time></trkpt><trkpt lat="44.147567" lon="10.4124153"><ele>487.0</ele><time>2026-04-24T14:03:42.129Z</time></trkpt><trkpt lat="44.147625" lon="10.4124952"><ele>487.6666666666667</ele><time>2026-04-24T14:03:45.111Z</time></trkpt><trkpt lat="44.1476815" lon="10.4125711"><ele>488.33333333333337</ele><time>2026-04-24T14:03:48.111Z</time></trkpt><trkpt lat="44.1477395" lon="10.4126508"><ele>489.0</ele><time>2026-04-24T14:03:51.12Z</time></trkpt><trkpt lat="44.1477946" lon="10.4127292"><ele>489.66666666666663</ele><time>2026-04-24T14:03:54.122Z</time></trkpt><trkpt lat="44.1478545" lon="10.4128098"><ele>490.3333333333333</ele><time>2026-04-24T14:03:57.11Z</time></trkpt><trkpt lat="44.1479195" lon="10.4128847"><ele>491.0</ele><time>2026-04-24T14:04:00.128Z</time></trkpt><trkpt lat="44.1479744" lon="10.412973"><ele>490.99999999999994</ele><time>2026-04-24T14:04:03.107Z</time></trkpt><trkpt lat="44.148035" lon="10.4130665"><ele>491.0</ele><time>2026-04-24T14:04:06.116Z</time></trkpt><trkpt lat="44.1481121" lon="10.4131392"><ele>491.0</ele><time>2026-04-24T14:04:09.114Z</time></trkpt><trkpt lat="44.1481786" lon="10.4131395"><ele>491.0</ele><time>2026-04-24T14:04:11.118Z</time></trkpt><trkpt lat="44.148223" lon="10.4130449"><ele>490.99999999999994</ele><time>2026-04-24T14:04:14.125Z</time></trkpt><trkpt lat="44.148211" lon="10.4129223"><ele>491.0</ele><time>2026-04-24T14:04:17.11Z</time></trkpt><trkpt lat="44.148188" lon="10.412806"><ele>490.99999999999994</ele><time>2026-04-24T14:04:20.114Z</time></trkpt><trkpt lat="44.1481633" lon="10.4126866"><ele>491.0</ele><time>2026-04-24T14:04:23.129Z</time></trkpt><trkpt lat="44.1481495" lon="10.4125713"><ele>491.0</ele><time>2026-04-24T14:04:26.113Z</time></trkpt><trkpt lat="44.1481206" lon="10.412458"><ele>491.0</ele><time>2026-04-24T14:04:29.109Z</time></trkpt><trkpt lat="44.1480979" lon="10.412346"><ele>490.99999999999994</ele><time>2026-04-24T14:04:32.113Z</time></trkpt><trkpt lat="44.1480808" lon="10.4122384"><ele>491.0</ele><time>2026-04-24T14:04:35.122Z</time></trkpt><trkpt lat="44.1480541" lon="10.412119"><ele>490.85714285714283</ele><time>2026-04-24T14:04:38.132Z</time></trkpt><trkpt lat="44.1480401" lon="10.412032"><ele>490.71428571428567</ele><time>2026-04-24T14:04:40.127Z</time></trkpt><trkpt lat="44.1480228" lon="10.4119448"><ele>490.57142857142856</ele><time>2026-04-24T14:04:42.117Z</time></trkpt><trkpt lat="44.1480084" lon="10.4118373"><ele>490.42857142857144</ele><time>2026-04-24T14:04:45.124Z</time></trkpt><trkpt lat="44.147988" lon="10.4117431"><ele>490.2857142857143</ele><time>2026-04-24T14:04:48.109Z</time></trkpt><trkpt lat="44.1479686" lon="10.4116282"><ele>490.1428571428571</ele><time>2026-04-24T14:04:51.115Z</time></trkpt><trkpt lat="44.1479517" lon="10.4115194"><ele>490.0</ele><time>2026-04-24T14:04:54.116Z</time></trkpt><trkpt lat="44.1479191" lon="10.4114129"><ele>490.6666666666667</ele><time>2026-04-24T14:04:57.116Z</time></trkpt><trkpt lat="44.1478923" lon="10.4112958"><ele>491.33333333333337</ele><time>2026-04-24T14:05:00.126Z</time></trkpt><trkpt lat="44.1478913" lon="10.4111758"><ele>492.0</ele><time>2026-04-24T14:05:03.114Z</time></trkpt><trkpt lat="44.1478684" lon="10.4110616"><ele>492.66666666666663</ele><time>2026-04-24T14:05:06.116Z</time></trkpt><trkpt lat="44.1478506" lon="10.4109403"><ele>493.3333333333333</ele><time>2026-04-24T14:05:09.11Z</time></trkpt><trkpt lat="44.14783" lon="10.4108169"><ele>494.0</ele><time>2026-04-24T14:05:12.124Z</time></trkpt><trkpt lat="44.1478134" lon="10.4107319"><ele>494.0</ele><time>2026-04-24T14:05:14.128Z</time></trkpt><trkpt lat="44.1477901" lon="10.4106036"><ele>494.0</ele><time>2026-04-24T14:05:17.116Z</time></trkpt><trkpt lat="44.1477763" lon="10.4105142"><ele>494.0</ele><time>2026-04-24T14:05:19.113Z</time></trkpt><trkpt lat="44.1477643" lon="10.410424"><ele>494.0</ele><time>2026-04-24T14:05:21.12Z</time></trkpt><trkpt lat="44.1477524" lon="10.4103323"><ele>494.0</ele><time>2026-04-24T14:05:23.126Z</time></trkpt><trkpt lat="44.1477363" lon="10.4102361"><ele>494.0</ele><time>2026-04-24T14:05:25.121Z</time></trkpt><trkpt lat="44.1477211" lon="10.4101419"><ele>494.0</ele><time>2026-04-24T14:05:27.111Z</time></trkpt><trkpt lat="44.1477085" lon="10.4100485"><ele>494.7142857142857</ele><time>2026-04-24T14:05:29.111Z</time></trkpt><trkpt lat="44.1476959" lon="10.4099552"><ele>495.42857142857144</ele><time>2026-04-24T14:05:31.108Z</time></trkpt><trkpt lat="44.1476853" lon="10.4098595"><ele>496.14285714285717</ele><time>2026-04-24T14:05:33.116Z</time></trkpt><trkpt lat="44.1476716" lon="10.4097657"><ele>496.8571428571429</ele><time>2026-04-24T14:05:35.114Z</time></trkpt><trkpt lat="44.1476565" lon="10.4096748"><ele>497.57142857142856</ele><time>2026-04-24T14:05:37.123Z</time></trkpt><trkpt lat="44.147644" lon="10.4095828"><ele>498.28571428571433</ele><time>2026-04-24T14:05:39.115Z</time></trkpt><trkpt lat="44.1476323" lon="10.4094918"><ele>499.00000000000006</ele><time>2026-04-24T14:05:41.113Z</time></trkpt><trkpt lat="44.1476201" lon="10.4094013"><ele>500.4285714285715</ele><time>2026-04-24T14:05:43.113Z</time></trkpt><trkpt lat="44.1476042" lon="10.4093158"><ele>501.8571428571429</ele><time>2026-04-24T14:05:45.134Z</time></trkpt><trkpt lat="44.1475874" lon="10.4091858"><ele>503.2857142857143</ele><time>2026-04-24T14:05:48.118Z</time></trkpt><trkpt lat="44.1475792" lon="10.4090867"><ele>504.7142857142857</ele><time>2026-04-24T14:05:50.117Z</time></trkpt><trkpt lat="44.1475692" lon="10.4089876"><ele>506.1428571428571</ele><time>2026-04-24T14:05:52.123Z</time></trkpt><trkpt lat="44.1475557" lon="10.4088923"><ele>507.5714285714285</ele><time>2026-04-24T14:05:54.111Z</time></trkpt><trkpt lat="44.1475359" lon="10.4087975"><ele>508.99999999999994</ele><time>2026-04-24T14:05:56.113Z</time></trkpt><trkpt lat="44.1475191" lon="10.4087012"><ele>509.99999999999994</ele><time>2026-04-24T14:05:58.114Z</time></trkpt><trkpt lat="44.1475024" lon="10.408606"><ele>511.0</ele><time>2026-04-24T14:06:00.121Z</time></trkpt><trkpt lat="44.1474849" lon="10.4085126"><ele>511.99999999999994</ele><time>2026-04-24T14:06:02.115Z</time></trkpt><trkpt lat="44.1474544" lon="10.4084165"><ele>513.0</ele><time>2026-04-24T14:06:04.136Z</time></trkpt><trkpt lat="44.1474119" lon="10.4083307"><ele>514.0</ele><time>2026-04-24T14:06:06.112Z</time></trkpt><trkpt lat="44.1473646" lon="10.4082547"><ele>514.9999999999999</ele><time>2026-04-24T14:06:08.116Z</time></trkpt><trkpt lat="44.1473197" lon="10.408182"><ele>516.0</ele><time>2026-04-24T14:06:10.111Z</time></trkpt><trkpt lat="44.1472682" lon="10.4081156"><ele>514.8571428571428</ele><time>2026-04-24T14:06:12.117Z</time></trkpt><trkpt lat="44.1472264" lon="10.4080475"><ele>513.7142857142857</ele><time>2026-04-24T14:06:14.115Z</time></trkpt><trkpt lat="44.1472096" lon="10.4079324"><ele>512.5714285714286</ele><time>2026-04-24T14:06:17.117Z</time></trkpt><trkpt lat="44.147259" lon="10.4078681"><ele>511.4285714285714</ele><time>2026-04-24T14:06:19.116Z</time></trkpt><trkpt lat="44.1473219" lon="10.4078211"><ele>510.2857142857142</ele><time>2026-04-24T14:06:21.111Z</time></trkpt><trkpt lat="44.1473819" lon="10.4077805"><ele>509.14285714285717</ele><time>2026-04-24T14:06:23.11Z</time></trkpt><trkpt lat="44.1474444" lon="10.4077586"><ele>508.0</ele><time>2026-04-24T14:06:25.12Z</time></trkpt><trkpt lat="44.147513" lon="10.4077605"><ele>508.0</ele><time>2026-04-24T14:06:27.115Z</time></trkpt><trkpt lat="44.1475818" lon="10.4077684"><ele>508.0</ele><time>2026-04-24T14:06:29.111Z</time></trkpt><trkpt lat="44.1476492" lon="10.4077892"><ele>508.0</ele><time>2026-04-24T14:06:31.111Z</time></trkpt><trkpt lat="44.147718" lon="10.4078062"><ele>508.0</ele><time>2026-04-24T14:06:33.115Z</time></trkpt><trkpt lat="44.1477908" lon="10.4078238"><ele>508.0</ele><time>2026-04-24T14:06:35.129Z</time></trkpt><trkpt lat="44.1478573" lon="10.4078552"><ele>508.0</ele><time>2026-04-24T14:06:37.117Z</time></trkpt><trkpt lat="44.1479185" lon="10.4078964"><ele>508.0</ele><time>2026-04-24T14:06:39.121Z</time></trkpt><trkpt lat="44.1479582" lon="10.4079764"><ele>509.14285714285717</ele><time>2026-04-24T14:06:41.128Z</time></trkpt><trkpt lat="44.1479723" lon="10.4080689"><ele>510.2857142857142</ele><time>2026-04-24T14:06:43.113Z</time></trkpt><trkpt lat="44.1479748" lon="10.4081643"><ele>511.4285714285714</ele><time>2026-04-24T14:06:45.119Z</time></trkpt><trkpt lat="44.1479851" lon="10.4082604"><ele>512.5714285714286</ele><time>2026-04-24T14:06:47.125Z</time></trkpt><trkpt lat="44.1479938" lon="10.4083577"><ele>513.7142857142857</ele><time>2026-04-24T14:06:49.114Z</time></trkpt><trkpt lat="44.1480066" lon="10.4084553"><ele>514.8571428571428</ele><time>2026-04-24T14:06:51.124Z</time></trkpt><trkpt lat="44.1480196" lon="10.4085599"><ele>516.0</ele><time>2026-04-24T14:06:53.127Z</time></trkpt><trkpt lat="44.1480331" lon="10.4086648"><ele>515.9999999999999</ele><time>2026-04-24T14:06:55.111Z</time></trkpt><trkpt lat="44.1480444" lon="10.408769"><ele>516.0</ele><time>2026-04-24T14:06:57.127Z</time></trkpt><trkpt lat="44.1480578" lon="10.4088705"><ele>516.0</ele><time>2026-04-24T14:06:59.108Z</time></trkpt><trkpt lat="44.1480695" lon="10.4089665"><ele>516.0</ele><time>2026-04-24T14:07:01.114Z</time></trkpt><trkpt lat="44.1480759" lon="10.4090591"><ele>516.0</ele><time>2026-04-24T14:07:03.121Z</time></trkpt><trkpt lat="44.1480827" lon="10.4091481"><ele>515.9999999999999</ele><time>2026-04-24T14:07:05.126Z</time></trkpt><trkpt lat="44.1480926" lon="10.4092736"><ele>516.0</ele><time>2026-04-24T14:07:08.108Z</time></trkpt><trkpt lat="44.1481007" lon="10.4093764"><ele>514.8333333333334</ele><time>2026-04-24T14:07:11.11Z</time></trkpt><trkpt lat="44.148113" lon="10.4094833"><ele>513.6666666666666</ele><time>2026-04-24T14:07:14.111Z</time></trkpt><trkpt lat="44.1481286" lon="10.4096017"><ele>512.5</ele><time>2026-04-24T14:07:17.148Z</time></trkpt><trkpt lat="44.1481392" lon="10.4097062"><ele>511.3333333333333</ele><time>2026-04-24T14:07:20.121Z</time></trkpt><trkpt lat="44.1481593" lon="10.4098284"><ele>510.16666666666663</ele><time>2026-04-24T14:07:23.116Z</time></trkpt><trkpt lat="44.1481899" lon="10.4099472"><ele>509.0</ele><time>2026-04-24T14:07:26.11Z</time></trkpt><trkpt lat="44.1482051" lon="10.4100326"><ele>511.66666666666663</ele><time>2026-04-24T14:07:28.129Z</time></trkpt><trkpt lat="44.1482352" lon="10.4101516"><ele>514.3333333333333</ele><time>2026-04-24T14:07:31.109Z</time></trkpt><trkpt lat="44.1482653" lon="10.4102652"><ele>517.0</ele><time>2026-04-24T14:07:34.134Z</time></trkpt><trkpt lat="44.1482878" lon="10.4103882"><ele>519.6666666666666</ele><time>2026-04-24T14:07:37.121Z</time></trkpt><trkpt lat="44.1483227" lon="10.4105061"><ele>522.3333333333334</ele><time>2026-04-24T14:07:40.128Z</time></trkpt><trkpt lat="44.14835" lon="10.4105869"><ele>525.0</ele><time>2026-04-24T14:07:42.113Z</time></trkpt><trkpt lat="44.1483788" lon="10.4106681"><ele>525.0</ele><time>2026-04-24T14:07:44.109Z</time></trkpt><trkpt lat="44.1484041" lon="10.41075"><ele>525.0</ele><time>2026-04-24T14:07:46.109Z</time></trkpt><trkpt lat="44.1484313" lon="10.4108339"><ele>525.0</ele><time>2026-04-24T14:07:48.107Z</time></trkpt><trkpt lat="44.1484646" lon="10.4109163"><ele>525.0</ele><time>2026-04-24T14:07:50.113Z</time></trkpt><trkpt lat="44.148491" lon="10.4110001"><ele>525.0</ele><time>2026-04-24T14:07:52.119Z</time></trkpt><trkpt lat="44.1485276" lon="10.4110895"><ele>525.0</ele><time>2026-04-24T14:07:54.11Z</time></trkpt><trkpt lat="44.1485722" lon="10.4111787"><ele>525.0</ele><time>2026-04-24T14:07:56.111Z</time></trkpt><trkpt lat="44.1486105" lon="10.4112663"><ele>525.0</ele><time>2026-04-24T14:07:58.117Z</time></trkpt><trkpt lat="44.1486491" lon="10.4113416"><ele>525.0</ele><time>2026-04-24T14:08:00.113Z</time></trkpt><trkpt lat="44.148712" lon="10.4114136"><ele>525.0</ele><time>2026-04-24T14:08:03.111Z</time></trkpt><trkpt lat="44.1487886" lon="10.4114615"><ele>525.0</ele><time>2026-04-24T14:08:06.116Z</time></trkpt><trkpt lat="44.1488706" lon="10.4114327"><ele>525.0</ele><time>2026-04-24T14:08:09.116Z</time></trkpt><trkpt lat="44.1489452" lon="10.4113496"><ele>525.0</ele><time>2026-04-24T14:08:12.124Z</time></trkpt><trkpt lat="44.1489965" lon="10.4112866"><ele>526.8333333333334</ele><time>2026-04-24T14:08:14.127Z</time></trkpt><trkpt lat="44.1490494" lon="10.4112195"><ele>528.6666666666666</ele><time>2026-04-24T14:08:16.113Z</time></trkpt><trkpt lat="44.1491085" lon="10.4111664"><ele>530.5</ele><time>2026-04-24T14:08:18.109Z</time></trkpt><trkpt lat="44.1491671" lon="10.4111274"><ele>532.3333333333333</ele><time>2026-04-24T14:08:20.12Z</time></trkpt><trkpt lat="44.14925" lon="10.4111272"><ele>534.1666666666666</ele><time>2026-04-24T14:08:23.111Z</time></trkpt><trkpt lat="44.1493309" lon="10.4111789"><ele>536.0</ele><time>2026-04-24T14:08:26.13Z</time></trkpt><trkpt lat="44.1494024" lon="10.4112251"><ele>536.0</ele><time>2026-04-24T14:08:29.111Z</time></trkpt><trkpt lat="44.1494642" lon="10.4112769"><ele>536.0</ele><time>2026-04-24T14:08:32.12Z</time></trkpt><trkpt lat="44.149535" lon="10.4113189"><ele>536.0</ele><time>2026-04-24T14:08:35.109Z</time></trkpt><trkpt lat="44.1496128" lon="10.4113642"><ele>536.0</ele><time>2026-04-24T14:08:38.108Z</time></trkpt><trkpt lat="44.1496909" lon="10.4114054"><ele>536.0</ele><time>2026-04-24T14:08:41.113Z</time></trkpt><trkpt lat="44.1497682" lon="10.4114488"><ele>536.0</ele><time>2026-04-24T14:08:44.127Z</time></trkpt><trkpt lat="44.149845" lon="10.4114899"><ele>535.0</ele><time>2026-04-24T14:08:47.107Z</time></trkpt><trkpt lat="44.1499179" lon="10.4115263"><ele>534.0</ele><time>2026-04-24T14:08:50.109Z</time></trkpt><trkpt lat="44.1499898" lon="10.4115629"><ele>533.0</ele><time>2026-04-24T14:08:53.11Z</time></trkpt><trkpt lat="44.1500822" lon="10.4116152"><ele>532.0</ele><time>2026-04-24T14:08:56.116Z</time></trkpt><trkpt lat="44.1501561" lon="10.4116443"><ele>531.0</ele><time>2026-04-24T14:08:58.117Z</time></trkpt><trkpt lat="44.1502251" lon="10.4116707"><ele>530.0</ele><time>2026-04-24T14:09:00.131Z</time></trkpt><trkpt lat="44.1502893" lon="10.4117047"><ele>530.0</ele><time>2026-04-24T14:09:02.115Z</time></trkpt><trkpt lat="44.1503533" lon="10.4117306"><ele>530.0</ele><time>2026-04-24T14:09:04.129Z</time></trkpt><trkpt lat="44.150448" lon="10.4117579"><ele>530.0</ele><time>2026-04-24T14:09:07.119Z</time></trkpt><trkpt lat="44.1505119" lon="10.4117921"><ele>530.0</ele><time>2026-04-24T14:09:09.118Z</time></trkpt><trkpt lat="44.1505721" lon="10.4118186"><ele>530.0</ele><time>2026-04-24T14:09:11.118Z</time></trkpt><trkpt lat="44.1506687" lon="10.4118206"><ele>530.0</ele><time>2026-04-24T14:09:14.112Z</time></trkpt><trkpt lat="44.1507349" lon="10.4118214"><ele>530.1428571428571</ele><time>2026-04-24T14:09:16.116Z</time></trkpt><trkpt lat="44.1507996" lon="10.4118198"><ele>530.2857142857142</ele><time>2026-04-24T14:09:18.113Z</time></trkpt><trkpt lat="44.1508646" lon="10.4118379"><ele>530.4285714285714</ele><time>2026-04-24T14:09:20.114Z</time></trkpt><trkpt lat="44.1509268" lon="10.411876"><ele>530.5714285714286</ele><time>2026-04-24T14:09:22.112Z</time></trkpt><trkpt lat="44.1509865" lon="10.4119124"><ele>530.7142857142858</ele><time>2026-04-24T14:09:24.11Z</time></trkpt><trkpt lat="44.151045" lon="10.4119462"><ele>530.8571428571429</ele><time>2026-04-24T14:09:26.112Z</time></trkpt><trkpt lat="44.151078" lon="10.4120378"><ele>531.0</ele><time>2026-04-24T14:09:29.11Z</time></trkpt><trkpt lat="44.1510085" lon="10.4120943"><ele>531.0</ele><time>2026-04-24T14:09:33.116Z</time></trkpt><trkpt lat="44.1509457" lon="10.4121159"><ele>531.0</ele><time>2026-04-24T14:09:36.133Z</time></trkpt><trkpt lat="44.1508714" lon="10.412135"><ele>531.0</ele><time>2026-04-24T14:09:40.121Z</time></trkpt><trkpt lat="44.1508131" lon="10.4121938"><ele>546.0</ele><time>2026-04-24T14:09:44.124Z</time></trkpt><trkpt lat="44.1508089" lon="10.4123084"><ele>546.0</ele><time>2026-04-24T14:09:48.114Z</time></trkpt><trkpt lat="44.1507973" lon="10.4124154"><ele>546.0</ele><time>2026-04-24T14:09:52.108Z</time></trkpt><trkpt lat="44.1507798" lon="10.4125122"><ele>546.0</ele><time>2026-04-24T14:09:55.113Z</time></trkpt></trkseg></trk></gpx>